<?xml version="1.0" encoding="UTF-8"?>
<gpx version="1.1" creator="https://www.www-youtrack-es.amenigma.com" xsi:schemaLocation="http://www.topografix.com/GPX/1/1 http://www.topografix.com/GPX/1/1/gpx.xsd http://www.garmin.com/xmlschemas/GpxExtensions/v3 http://www.garmin.com/xmlschemas/GpxExtensionsv3.xsd http://www.garmin.com/xmlschemas/TrackPointExtension/v1 http://www.garmin.com/xmlschemas/TrackPointExtensionv1.xsd" xmlns:gpxtpx="http://www.garmin.com/xmlschemas/TrackPointExtension/v1" xmlns:gpxx="http://www.garmin.com/xmlschemas/GpxExtensions/v3" xmlns:xsi="http://www.w3.org/2001/XMLSchema-instance">
  <metadata>
    <link href="https://www.www-youtrack-es.amenigma.com">
      <text>YouTrack.es</text>
    </link>
    <time>2026-08-31T21:54:26Z</time>
  </metadata>
  <trk>
    <src>https://www.www-youtrack-es.amenigma.com</src>
    <link href="https://www.www-youtrack-es.amenigma.com/ruta/10717-28012020">
      <text>YouTrack.es</text>
    </link>
    <trkseg>
      <trkpt lat="43.3641420" lon="-5.8422060">
        <ele>-44.8</ele>
        <time>2020-01-28T07:06:30Z</time>
      </trkpt>
      <trkpt lat="43.3641310" lon="-5.8421840">
        <ele>-44.6</ele>
        <time>2020-01-28T07:06:31Z</time>
      </trkpt>
      <trkpt lat="43.3641270" lon="-5.8421510">
        <ele>-44.6</ele>
        <time>2020-01-28T07:06:33Z</time>
      </trkpt>
      <trkpt lat="43.3641240" lon="-5.8421440">
        <ele>-44.6</ele>
        <time>2020-01-28T07:06:34Z</time>
      </trkpt>
      <trkpt lat="43.3641450" lon="-5.8421050">
        <ele>-44.8</ele>
        <time>2020-01-28T07:06:36Z</time>
      </trkpt>
      <trkpt lat="43.3641560" lon="-5.8420920">
        <ele>-45.0</ele>
        <time>2020-01-28T07:06:37Z</time>
      </trkpt>
      <trkpt lat="43.3641650" lon="-5.8420800">
        <ele>-45.2</ele>
        <time>2020-01-28T07:06:38Z</time>
      </trkpt>
      <trkpt lat="43.3641920" lon="-5.8420530">
        <ele>-45.2</ele>
        <time>2020-01-28T07:06:41Z</time>
      </trkpt>
      <trkpt lat="43.3642020" lon="-5.8420310">
        <ele>-45.4</ele>
        <time>2020-01-28T07:06:43Z</time>
      </trkpt>
      <trkpt lat="43.3642100" lon="-5.8420170">
        <ele>-45.6</ele>
        <time>2020-01-28T07:06:44Z</time>
      </trkpt>
      <trkpt lat="43.3642190" lon="-5.8420030">
        <ele>-46.0</ele>
        <time>2020-01-28T07:06:45Z</time>
      </trkpt>
      <trkpt lat="43.3642310" lon="-5.8419910">
        <ele>-46.2</ele>
        <time>2020-01-28T07:06:46Z</time>
      </trkpt>
      <trkpt lat="43.3642820" lon="-5.8419420">
        <ele>-46.4</ele>
        <time>2020-01-28T07:06:50Z</time>
      </trkpt>
      <trkpt lat="43.3643240" lon="-5.8419220">
        <ele>-46.6</ele>
        <time>2020-01-28T07:06:53Z</time>
      </trkpt>
      <trkpt lat="43.3643360" lon="-5.8419130">
        <ele>-46.8</ele>
        <time>2020-01-28T07:06:54Z</time>
      </trkpt>
      <trkpt lat="43.3643450" lon="-5.8418990">
        <ele>-47.2</ele>
        <time>2020-01-28T07:06:55Z</time>
      </trkpt>
      <trkpt lat="43.3643910" lon="-5.8418110">
        <ele>-48.2</ele>
        <time>2020-01-28T07:07:00Z</time>
      </trkpt>
      <trkpt lat="43.3644000" lon="-5.8417860">
        <ele>-48.2</ele>
        <time>2020-01-28T07:07:01Z</time>
      </trkpt>
      <trkpt lat="43.3644300" lon="-5.8417640">
        <ele>-48.4</ele>
        <time>2020-01-28T07:07:03Z</time>
      </trkpt>
      <trkpt lat="43.3644720" lon="-5.8415890">
        <ele>-49.2</ele>
        <time>2020-01-28T07:07:08Z</time>
      </trkpt>
      <trkpt lat="43.3645260" lon="-5.8414940">
        <ele>-50.2</ele>
        <time>2020-01-28T07:07:13Z</time>
      </trkpt>
      <trkpt lat="43.3645350" lon="-5.8414770">
        <ele>-50.2</ele>
        <time>2020-01-28T07:07:14Z</time>
      </trkpt>
      <trkpt lat="43.3645590" lon="-5.8414450">
        <ele>-50.4</ele>
        <time>2020-01-28T07:07:16Z</time>
      </trkpt>
      <trkpt lat="43.3646270" lon="-5.8413550">
        <ele>-51.4</ele>
        <time>2020-01-28T07:07:22Z</time>
      </trkpt>
      <trkpt lat="43.3646430" lon="-5.8413370">
        <ele>-51.6</ele>
        <time>2020-01-28T07:07:23Z</time>
      </trkpt>
      <trkpt lat="43.3647570" lon="-5.8412470">
        <ele>-52.4</ele>
        <time>2020-01-28T07:07:28Z</time>
      </trkpt>
      <trkpt lat="43.3648400" lon="-5.8411800">
        <ele>-53.0</ele>
        <time>2020-01-28T07:07:32Z</time>
      </trkpt>
      <trkpt lat="43.3648610" lon="-5.8411610">
        <ele>-53.0</ele>
        <time>2020-01-28T07:07:33Z</time>
      </trkpt>
      <trkpt lat="43.3649470" lon="-5.8411160">
        <ele>-53.6</ele>
        <time>2020-01-28T07:07:37Z</time>
      </trkpt>
      <trkpt lat="43.3650110" lon="-5.8410750">
        <ele>-54.0</ele>
        <time>2020-01-28T07:07:41Z</time>
      </trkpt>
      <trkpt lat="43.3650370" lon="-5.8410510">
        <ele>-54.2</ele>
        <time>2020-01-28T07:07:43Z</time>
      </trkpt>
      <trkpt lat="43.3650850" lon="-5.8410140">
        <ele>-54.8</ele>
        <time>2020-01-28T07:07:46Z</time>
      </trkpt>
      <trkpt lat="43.3651130" lon="-5.8409880">
        <ele>-55.0</ele>
        <time>2020-01-28T07:07:48Z</time>
      </trkpt>
      <trkpt lat="43.3651570" lon="-5.8409490">
        <ele>-55.4</ele>
        <time>2020-01-28T07:07:51Z</time>
      </trkpt>
      <trkpt lat="43.3651840" lon="-5.8409280">
        <ele>-55.6</ele>
        <time>2020-01-28T07:07:53Z</time>
      </trkpt>
      <trkpt lat="43.3652090" lon="-5.8409020">
        <ele>-55.8</ele>
        <time>2020-01-28T07:07:55Z</time>
      </trkpt>
      <trkpt lat="43.3652640" lon="-5.8408680">
        <ele>-56.2</ele>
        <time>2020-01-28T07:07:58Z</time>
      </trkpt>
      <trkpt lat="43.3653050" lon="-5.8408380">
        <ele>-56.8</ele>
        <time>2020-01-28T07:08:01Z</time>
      </trkpt>
      <trkpt lat="43.3653290" lon="-5.8408160">
        <ele>-57.0</ele>
        <time>2020-01-28T07:08:03Z</time>
      </trkpt>
      <trkpt lat="43.3653500" lon="-5.8407940">
        <ele>-57.4</ele>
        <time>2020-01-28T07:08:05Z</time>
      </trkpt>
      <trkpt lat="43.3653640" lon="-5.8407850">
        <ele>-57.6</ele>
        <time>2020-01-28T07:08:06Z</time>
      </trkpt>
      <trkpt lat="43.3653810" lon="-5.8407780">
        <ele>-57.8</ele>
        <time>2020-01-28T07:08:07Z</time>
      </trkpt>
      <trkpt lat="43.3654750" lon="-5.8407060">
        <ele>-58.6</ele>
        <time>2020-01-28T07:08:13Z</time>
      </trkpt>
      <trkpt lat="43.3654910" lon="-5.8406700">
        <ele>-59.0</ele>
        <time>2020-01-28T07:08:15Z</time>
      </trkpt>
      <trkpt lat="43.3655560" lon="-5.8406110">
        <ele>-59.6</ele>
        <time>2020-01-28T07:08:20Z</time>
      </trkpt>
      <trkpt lat="43.3655830" lon="-5.8406000">
        <ele>-60.0</ele>
        <time>2020-01-28T07:08:22Z</time>
      </trkpt>
      <trkpt lat="43.3655960" lon="-5.8405960">
        <ele>-60.4</ele>
        <time>2020-01-28T07:08:23Z</time>
      </trkpt>
      <trkpt lat="43.3656290" lon="-5.8406060">
        <ele>-61.2</ele>
        <time>2020-01-28T07:08:25Z</time>
      </trkpt>
      <trkpt lat="43.3656480" lon="-5.8406160">
        <ele>-61.4</ele>
        <time>2020-01-28T07:08:26Z</time>
      </trkpt>
      <trkpt lat="43.3657010" lon="-5.8406610">
        <ele>-61.8</ele>
        <time>2020-01-28T07:08:30Z</time>
      </trkpt>
      <trkpt lat="43.3657040" lon="-5.8406660">
        <ele>-61.8</ele>
        <time>2020-01-28T07:08:31Z</time>
      </trkpt>
      <trkpt lat="43.3657100" lon="-5.8406720">
        <ele>-61.6</ele>
        <time>2020-01-28T07:08:33Z</time>
      </trkpt>
      <trkpt lat="43.3656980" lon="-5.8406710">
        <ele>-61.2</ele>
        <time>2020-01-28T07:08:39Z</time>
      </trkpt>
      <trkpt lat="43.3656900" lon="-5.8406770">
        <ele>-61.2</ele>
        <time>2020-01-28T07:08:42Z</time>
      </trkpt>
      <trkpt lat="43.3656860" lon="-5.8406760">
        <ele>-61.2</ele>
        <time>2020-01-28T07:08:43Z</time>
      </trkpt>
      <trkpt lat="43.3656830" lon="-5.8406760">
        <ele>-61.0</ele>
        <time>2020-01-28T07:08:44Z</time>
      </trkpt>
      <trkpt lat="43.3656670" lon="-5.8406730">
        <ele>-61.2</ele>
        <time>2020-01-28T07:08:53Z</time>
      </trkpt>
      <trkpt lat="43.3656690" lon="-5.8406650">
        <ele>-61.4</ele>
        <time>2020-01-28T07:08:54Z</time>
      </trkpt>
      <trkpt lat="43.3656780" lon="-5.8406500">
        <ele>-61.4</ele>
        <time>2020-01-28T07:08:56Z</time>
      </trkpt>
      <trkpt lat="43.3657300" lon="-5.8406360">
        <ele>-61.6</ele>
        <time>2020-01-28T07:09:00Z</time>
      </trkpt>
      <trkpt lat="43.3657710" lon="-5.8406540">
        <ele>-61.4</ele>
        <time>2020-01-28T07:09:03Z</time>
      </trkpt>
      <trkpt lat="43.3658500" lon="-5.8407390">
        <ele>-61.4</ele>
        <time>2020-01-28T07:09:10Z</time>
      </trkpt>
      <trkpt lat="43.3658830" lon="-5.8407850">
        <ele>-61.2</ele>
        <time>2020-01-28T07:09:13Z</time>
      </trkpt>
      <trkpt lat="43.3659070" lon="-5.8409180">
        <ele>-61.2</ele>
        <time>2020-01-28T07:09:19Z</time>
      </trkpt>
      <trkpt lat="43.3659410" lon="-5.8409410">
        <ele>-61.8</ele>
        <time>2020-01-28T07:09:23Z</time>
      </trkpt>
      <trkpt lat="43.3659780" lon="-5.8409210">
        <ele>-62.0</ele>
        <time>2020-01-28T07:09:25Z</time>
      </trkpt>
      <trkpt lat="43.3659900" lon="-5.8409110">
        <ele>-62.2</ele>
        <time>2020-01-28T07:09:26Z</time>
      </trkpt>
      <trkpt lat="43.3661200" lon="-5.8408250">
        <ele>-63.2</ele>
        <time>2020-01-28T07:09:31Z</time>
      </trkpt>
      <trkpt lat="43.3661360" lon="-5.8407870">
        <ele>-63.4</ele>
        <time>2020-01-28T07:09:33Z</time>
      </trkpt>
      <trkpt lat="43.3661750" lon="-5.8407010">
        <ele>-63.6</ele>
        <time>2020-01-28T07:09:37Z</time>
      </trkpt>
      <trkpt lat="43.3662400" lon="-5.8405760">
        <ele>-64.0</ele>
        <time>2020-01-28T07:09:43Z</time>
      </trkpt>
      <trkpt lat="43.3663000" lon="-5.8405070">
        <ele>-64.2</ele>
        <time>2020-01-28T07:09:47Z</time>
      </trkpt>
      <trkpt lat="43.3663220" lon="-5.8404910">
        <ele>-64.4</ele>
        <time>2020-01-28T07:09:48Z</time>
      </trkpt>
      <trkpt lat="43.3663730" lon="-5.8404660">
        <ele>-65.2</ele>
        <time>2020-01-28T07:09:50Z</time>
      </trkpt>
      <trkpt lat="43.3663920" lon="-5.8404490">
        <ele>-65.4</ele>
        <time>2020-01-28T07:09:51Z</time>
      </trkpt>
      <trkpt lat="43.3664070" lon="-5.8404330">
        <ele>-65.6</ele>
        <time>2020-01-28T07:09:52Z</time>
      </trkpt>
      <trkpt lat="43.3664210" lon="-5.8404160">
        <ele>-65.8</ele>
        <time>2020-01-28T07:09:53Z</time>
      </trkpt>
      <trkpt lat="43.3664780" lon="-5.8403570">
        <ele>-66.0</ele>
        <time>2020-01-28T07:09:56Z</time>
      </trkpt>
      <trkpt lat="43.3664930" lon="-5.8403260">
        <ele>-66.0</ele>
        <time>2020-01-28T07:09:57Z</time>
      </trkpt>
      <trkpt lat="43.3665240" lon="-5.8402690">
        <ele>-66.2</ele>
        <time>2020-01-28T07:10:00Z</time>
      </trkpt>
      <trkpt lat="43.3665490" lon="-5.8402050">
        <ele>-66.2</ele>
        <time>2020-01-28T07:10:03Z</time>
      </trkpt>
      <trkpt lat="43.3665610" lon="-5.8401660">
        <ele>-66.6</ele>
        <time>2020-01-28T07:10:05Z</time>
      </trkpt>
      <trkpt lat="43.3665900" lon="-5.8401600">
        <ele>-67.2</ele>
        <time>2020-01-28T07:10:08Z</time>
      </trkpt>
      <trkpt lat="43.3666030" lon="-5.8401720">
        <ele>-67.2</ele>
        <time>2020-01-28T07:10:09Z</time>
      </trkpt>
      <trkpt lat="43.3666160" lon="-5.8401900">
        <ele>-67.2</ele>
        <time>2020-01-28T07:10:10Z</time>
      </trkpt>
      <trkpt lat="43.3666770" lon="-5.8402150">
        <ele>-67.2</ele>
        <time>2020-01-28T07:10:12Z</time>
      </trkpt>
      <trkpt lat="43.3666910" lon="-5.8402260">
        <ele>-67.2</ele>
        <time>2020-01-28T07:10:13Z</time>
      </trkpt>
      <trkpt lat="43.3667050" lon="-5.8402350">
        <ele>-67.0</ele>
        <time>2020-01-28T07:10:14Z</time>
      </trkpt>
      <trkpt lat="43.3667460" lon="-5.8402910">
        <ele>-67.0</ele>
        <time>2020-01-28T07:10:20Z</time>
      </trkpt>
      <trkpt lat="43.3667440" lon="-5.8402940">
        <ele>-67.0</ele>
        <time>2020-01-28T07:10:21Z</time>
      </trkpt>
      <trkpt lat="43.3667380" lon="-5.8403020">
        <ele>-67.0</ele>
        <time>2020-01-28T07:10:23Z</time>
      </trkpt>
      <trkpt lat="43.3667560" lon="-5.8403210">
        <ele>-67.2</ele>
        <time>2020-01-28T07:10:27Z</time>
      </trkpt>
      <trkpt lat="43.3668200" lon="-5.8403750">
        <ele>-66.4</ele>
        <time>2020-01-28T07:10:33Z</time>
      </trkpt>
      <trkpt lat="43.3668390" lon="-5.8403920">
        <ele>-66.2</ele>
        <time>2020-01-28T07:10:35Z</time>
      </trkpt>
      <trkpt lat="43.3668760" lon="-5.8404080">
        <ele>-65.6</ele>
        <time>2020-01-28T07:10:38Z</time>
      </trkpt>
      <trkpt lat="43.3668830" lon="-5.8404010">
        <ele>-65.6</ele>
        <time>2020-01-28T07:10:39Z</time>
      </trkpt>
      <trkpt lat="43.3669070" lon="-5.8403780">
        <ele>-65.4</ele>
        <time>2020-01-28T07:10:41Z</time>
      </trkpt>
      <trkpt lat="43.3669290" lon="-5.8403520">
        <ele>-65.6</ele>
        <time>2020-01-28T07:10:43Z</time>
      </trkpt>
      <trkpt lat="43.3669740" lon="-5.8402990">
        <ele>-66.2</ele>
        <time>2020-01-28T07:10:47Z</time>
      </trkpt>
      <trkpt lat="43.3670040" lon="-5.8402490">
        <ele>-66.6</ele>
        <time>2020-01-28T07:10:50Z</time>
      </trkpt>
      <trkpt lat="43.3670360" lon="-5.8402030">
        <ele>-66.6</ele>
        <time>2020-01-28T07:10:53Z</time>
      </trkpt>
      <trkpt lat="43.3670450" lon="-5.8401880">
        <ele>-66.6</ele>
        <time>2020-01-28T07:10:54Z</time>
      </trkpt>
      <trkpt lat="43.3670680" lon="-5.8401540">
        <ele>-66.8</ele>
        <time>2020-01-28T07:10:57Z</time>
      </trkpt>
      <trkpt lat="43.3670720" lon="-5.8401540">
        <ele>-67.0</ele>
        <time>2020-01-28T07:10:58Z</time>
      </trkpt>
      <trkpt lat="43.3670930" lon="-5.8401570">
        <ele>-67.6</ele>
        <time>2020-01-28T07:11:00Z</time>
      </trkpt>
      <trkpt lat="43.3671240" lon="-5.8401590">
        <ele>-68.0</ele>
        <time>2020-01-28T07:11:03Z</time>
      </trkpt>
      <trkpt lat="43.3671500" lon="-5.8401590">
        <ele>-68.0</ele>
        <time>2020-01-28T07:11:05Z</time>
      </trkpt>
      <trkpt lat="43.3671630" lon="-5.8401590">
        <ele>-68.0</ele>
        <time>2020-01-28T07:11:06Z</time>
      </trkpt>
      <trkpt lat="43.3672310" lon="-5.8401550">
        <ele>-68.2</ele>
        <time>2020-01-28T07:11:12Z</time>
      </trkpt>
      <trkpt lat="43.3672390" lon="-5.8401560">
        <ele>-68.2</ele>
        <time>2020-01-28T07:11:13Z</time>
      </trkpt>
      <trkpt lat="43.3672810" lon="-5.8401700">
        <ele>-68.4</ele>
        <time>2020-01-28T07:11:17Z</time>
      </trkpt>
      <trkpt lat="43.3672920" lon="-5.8401760">
        <ele>-68.6</ele>
        <time>2020-01-28T07:11:18Z</time>
      </trkpt>
      <trkpt lat="43.3673070" lon="-5.8401760">
        <ele>-68.8</ele>
        <time>2020-01-28T07:11:19Z</time>
      </trkpt>
      <trkpt lat="43.3673140" lon="-5.8401860">
        <ele>-68.8</ele>
        <time>2020-01-28T07:11:20Z</time>
      </trkpt>
      <trkpt lat="43.3673620" lon="-5.8401920">
        <ele>-69.0</ele>
        <time>2020-01-28T07:11:23Z</time>
      </trkpt>
      <trkpt lat="43.3674660" lon="-5.8401300">
        <ele>-69.4</ele>
        <time>2020-01-28T07:11:29Z</time>
      </trkpt>
      <trkpt lat="43.3675160" lon="-5.8400580">
        <ele>-69.6</ele>
        <time>2020-01-28T07:11:31Z</time>
      </trkpt>
      <trkpt lat="43.3675490" lon="-5.8399930">
        <ele>-69.6</ele>
        <time>2020-01-28T07:11:33Z</time>
      </trkpt>
      <trkpt lat="43.3675620" lon="-5.8399660">
        <ele>-69.4</ele>
        <time>2020-01-28T07:11:34Z</time>
      </trkpt>
      <trkpt lat="43.3676160" lon="-5.8398190">
        <ele>-69.8</ele>
        <time>2020-01-28T07:11:40Z</time>
      </trkpt>
      <trkpt lat="43.3676220" lon="-5.8397920">
        <ele>-69.8</ele>
        <time>2020-01-28T07:11:41Z</time>
      </trkpt>
      <trkpt lat="43.3676390" lon="-5.8397430">
        <ele>-69.8</ele>
        <time>2020-01-28T07:11:43Z</time>
      </trkpt>
      <trkpt lat="43.3676650" lon="-5.8396650">
        <ele>-70.0</ele>
        <time>2020-01-28T07:11:46Z</time>
      </trkpt>
      <trkpt lat="43.3676660" lon="-5.8396400">
        <ele>-70.2</ele>
        <time>2020-01-28T07:11:47Z</time>
      </trkpt>
      <trkpt lat="43.3676780" lon="-5.8395120">
        <ele>-70.2</ele>
        <time>2020-01-28T07:11:52Z</time>
      </trkpt>
      <trkpt lat="43.3676790" lon="-5.8394910">
        <ele>-70.0</ele>
        <time>2020-01-28T07:11:53Z</time>
      </trkpt>
      <trkpt lat="43.3676790" lon="-5.8394680">
        <ele>-70.2</ele>
        <time>2020-01-28T07:11:54Z</time>
      </trkpt>
      <trkpt lat="43.3676590" lon="-5.8392540">
        <ele>-70.8</ele>
        <time>2020-01-28T07:12:02Z</time>
      </trkpt>
      <trkpt lat="43.3676570" lon="-5.8392270">
        <ele>-70.6</ele>
        <time>2020-01-28T07:12:03Z</time>
      </trkpt>
      <trkpt lat="43.3676560" lon="-5.8392010">
        <ele>-70.8</ele>
        <time>2020-01-28T07:12:04Z</time>
      </trkpt>
      <trkpt lat="43.3676560" lon="-5.8391720">
        <ele>-70.8</ele>
        <time>2020-01-28T07:12:05Z</time>
      </trkpt>
      <trkpt lat="43.3676550" lon="-5.8391000">
        <ele>-71.0</ele>
        <time>2020-01-28T07:12:08Z</time>
      </trkpt>
      <trkpt lat="43.3676450" lon="-5.8390570">
        <ele>-71.2</ele>
        <time>2020-01-28T07:12:10Z</time>
      </trkpt>
      <trkpt lat="43.3676320" lon="-5.8389890">
        <ele>-71.4</ele>
        <time>2020-01-28T07:12:13Z</time>
      </trkpt>
      <trkpt lat="43.3676220" lon="-5.8389230">
        <ele>-71.4</ele>
        <time>2020-01-28T07:12:16Z</time>
      </trkpt>
      <trkpt lat="43.3676210" lon="-5.8388600">
        <ele>-71.2</ele>
        <time>2020-01-28T07:12:19Z</time>
      </trkpt>
      <trkpt lat="43.3676200" lon="-5.8388170">
        <ele>-71.2</ele>
        <time>2020-01-28T07:12:21Z</time>
      </trkpt>
      <trkpt lat="43.3676230" lon="-5.8387700">
        <ele>-71.4</ele>
        <time>2020-01-28T07:12:23Z</time>
      </trkpt>
      <trkpt lat="43.3676320" lon="-5.8387250">
        <ele>-71.2</ele>
        <time>2020-01-28T07:12:25Z</time>
      </trkpt>
      <trkpt lat="43.3676980" lon="-5.8386180">
        <ele>-71.4</ele>
        <time>2020-01-28T07:12:32Z</time>
      </trkpt>
      <trkpt lat="43.3677060" lon="-5.8386060">
        <ele>-71.4</ele>
        <time>2020-01-28T07:12:33Z</time>
      </trkpt>
      <trkpt lat="43.3677090" lon="-5.8385770">
        <ele>-71.4</ele>
        <time>2020-01-28T07:12:35Z</time>
      </trkpt>
      <trkpt lat="43.3677190" lon="-5.8385200">
        <ele>-71.8</ele>
        <time>2020-01-28T07:12:38Z</time>
      </trkpt>
      <trkpt lat="43.3677250" lon="-5.8384810">
        <ele>-71.8</ele>
        <time>2020-01-28T07:12:40Z</time>
      </trkpt>
      <trkpt lat="43.3677270" lon="-5.8384190">
        <ele>-71.6</ele>
        <time>2020-01-28T07:12:43Z</time>
      </trkpt>
      <trkpt lat="43.3677360" lon="-5.8383600">
        <ele>-71.4</ele>
        <time>2020-01-28T07:12:46Z</time>
      </trkpt>
      <trkpt lat="43.3677340" lon="-5.8381980">
        <ele>-71.8</ele>
        <time>2020-01-28T07:12:53Z</time>
      </trkpt>
      <trkpt lat="43.3677030" lon="-5.8380040">
        <ele>-71.4</ele>
        <time>2020-01-28T07:13:01Z</time>
      </trkpt>
      <trkpt lat="43.3677020" lon="-5.8379820">
        <ele>-71.6</ele>
        <time>2020-01-28T07:13:03Z</time>
      </trkpt>
      <trkpt lat="43.3677030" lon="-5.8379630">
        <ele>-71.6</ele>
        <time>2020-01-28T07:13:04Z</time>
      </trkpt>
      <trkpt lat="43.3677110" lon="-5.8379020">
        <ele>-71.8</ele>
        <time>2020-01-28T07:13:07Z</time>
      </trkpt>
      <trkpt lat="43.3677420" lon="-5.8377630">
        <ele>-71.6</ele>
        <time>2020-01-28T07:13:13Z</time>
      </trkpt>
      <trkpt lat="43.3677460" lon="-5.8377120">
        <ele>-71.4</ele>
        <time>2020-01-28T07:13:15Z</time>
      </trkpt>
      <trkpt lat="43.3677040" lon="-5.8375730">
        <ele>-71.4</ele>
        <time>2020-01-28T07:13:21Z</time>
      </trkpt>
      <trkpt lat="43.3676760" lon="-5.8375380">
        <ele>-71.4</ele>
        <time>2020-01-28T07:13:23Z</time>
      </trkpt>
      <trkpt lat="43.3676260" lon="-5.8374480">
        <ele>-71.2</ele>
        <time>2020-01-28T07:13:28Z</time>
      </trkpt>
      <trkpt lat="43.3676210" lon="-5.8373390">
        <ele>-71.6</ele>
        <time>2020-01-28T07:13:33Z</time>
      </trkpt>
      <trkpt lat="43.3676240" lon="-5.8372900">
        <ele>-71.6</ele>
        <time>2020-01-28T07:13:35Z</time>
      </trkpt>
      <trkpt lat="43.3676330" lon="-5.8372270">
        <ele>-71.4</ele>
        <time>2020-01-28T07:13:38Z</time>
      </trkpt>
      <trkpt lat="43.3676560" lon="-5.8371260">
        <ele>-71.8</ele>
        <time>2020-01-28T07:13:43Z</time>
      </trkpt>
      <trkpt lat="43.3676670" lon="-5.8371100">
        <ele>-72.0</ele>
        <time>2020-01-28T07:13:44Z</time>
      </trkpt>
      <trkpt lat="43.3677440" lon="-5.8370350">
        <ele>-72.4</ele>
        <time>2020-01-28T07:13:50Z</time>
      </trkpt>
      <trkpt lat="43.3677660" lon="-5.8369760">
        <ele>-72.2</ele>
        <time>2020-01-28T07:13:53Z</time>
      </trkpt>
      <trkpt lat="43.3677840" lon="-5.8369220">
        <ele>-72.4</ele>
        <time>2020-01-28T07:13:56Z</time>
      </trkpt>
      <trkpt lat="43.3677910" lon="-5.8368680">
        <ele>-72.8</ele>
        <time>2020-01-28T07:13:58Z</time>
      </trkpt>
      <trkpt lat="43.3677990" lon="-5.8367440">
        <ele>-73.4</ele>
        <time>2020-01-28T07:14:03Z</time>
      </trkpt>
      <trkpt lat="43.3678020" lon="-5.8367240">
        <ele>-73.4</ele>
        <time>2020-01-28T07:14:04Z</time>
      </trkpt>
      <trkpt lat="43.3678340" lon="-5.8366190">
        <ele>-74.0</ele>
        <time>2020-01-28T07:14:09Z</time>
      </trkpt>
      <trkpt lat="43.3678570" lon="-5.8365860">
        <ele>-74.0</ele>
        <time>2020-01-28T07:14:11Z</time>
      </trkpt>
      <trkpt lat="43.3678800" lon="-5.8365490">
        <ele>-74.0</ele>
        <time>2020-01-28T07:14:13Z</time>
      </trkpt>
      <trkpt lat="43.3679490" lon="-5.8364740">
        <ele>-74.0</ele>
        <time>2020-01-28T07:14:19Z</time>
      </trkpt>
      <trkpt lat="43.3680030" lon="-5.8364830">
        <ele>-74.2</ele>
        <time>2020-01-28T07:14:23Z</time>
      </trkpt>
      <trkpt lat="43.3680760" lon="-5.8365000">
        <ele>-73.8</ele>
        <time>2020-01-28T07:14:28Z</time>
      </trkpt>
      <trkpt lat="43.3681040" lon="-5.8365010">
        <ele>-73.8</ele>
        <time>2020-01-28T07:14:30Z</time>
      </trkpt>
      <trkpt lat="43.3681380" lon="-5.8364920">
        <ele>-73.6</ele>
        <time>2020-01-28T07:14:32Z</time>
      </trkpt>
      <trkpt lat="43.3681550" lon="-5.8364820">
        <ele>-73.6</ele>
        <time>2020-01-28T07:14:33Z</time>
      </trkpt>
      <trkpt lat="43.3681860" lon="-5.8364570">
        <ele>-73.8</ele>
        <time>2020-01-28T07:14:35Z</time>
      </trkpt>
      <trkpt lat="43.3682010" lon="-5.8364470">
        <ele>-74.0</ele>
        <time>2020-01-28T07:14:36Z</time>
      </trkpt>
      <trkpt lat="43.3682280" lon="-5.8364260">
        <ele>-74.0</ele>
        <time>2020-01-28T07:14:38Z</time>
      </trkpt>
      <trkpt lat="43.3682970" lon="-5.8363630">
        <ele>-73.8</ele>
        <time>2020-01-28T07:14:43Z</time>
      </trkpt>
      <trkpt lat="43.3683150" lon="-5.8363510">
        <ele>-73.8</ele>
        <time>2020-01-28T07:14:44Z</time>
      </trkpt>
      <trkpt lat="43.3683880" lon="-5.8362900">
        <ele>-73.8</ele>
        <time>2020-01-28T07:14:49Z</time>
      </trkpt>
      <trkpt lat="43.3684180" lon="-5.8362680">
        <ele>-73.6</ele>
        <time>2020-01-28T07:14:51Z</time>
      </trkpt>
      <trkpt lat="43.3684450" lon="-5.8362500">
        <ele>-73.6</ele>
        <time>2020-01-28T07:14:53Z</time>
      </trkpt>
      <trkpt lat="43.3684830" lon="-5.8362140">
        <ele>-73.8</ele>
        <time>2020-01-28T07:14:56Z</time>
      </trkpt>
      <trkpt lat="43.3685250" lon="-5.8361590">
        <ele>-74.0</ele>
        <time>2020-01-28T07:15:00Z</time>
      </trkpt>
      <trkpt lat="43.3685620" lon="-5.8361210">
        <ele>-74.0</ele>
        <time>2020-01-28T07:15:03Z</time>
      </trkpt>
      <trkpt lat="43.3685910" lon="-5.8360760">
        <ele>-74.0</ele>
        <time>2020-01-28T07:15:06Z</time>
      </trkpt>
      <trkpt lat="43.3686100" lon="-5.8360420">
        <ele>-73.8</ele>
        <time>2020-01-28T07:15:08Z</time>
      </trkpt>
      <trkpt lat="43.3686560" lon="-5.8359530">
        <ele>-73.4</ele>
        <time>2020-01-28T07:15:13Z</time>
      </trkpt>
      <trkpt lat="43.3686970" lon="-5.8358870">
        <ele>-73.4</ele>
        <time>2020-01-28T07:15:17Z</time>
      </trkpt>
      <trkpt lat="43.3687680" lon="-5.8357940">
        <ele>-73.4</ele>
        <time>2020-01-28T07:15:23Z</time>
      </trkpt>
      <trkpt lat="43.3688160" lon="-5.8357320">
        <ele>-73.0</ele>
        <time>2020-01-28T07:15:27Z</time>
      </trkpt>
      <trkpt lat="43.3688250" lon="-5.8357150">
        <ele>-73.0</ele>
        <time>2020-01-28T07:15:28Z</time>
      </trkpt>
      <trkpt lat="43.3688750" lon="-5.8356450">
        <ele>-72.8</ele>
        <time>2020-01-28T07:15:33Z</time>
      </trkpt>
      <trkpt lat="43.3688950" lon="-5.8356160">
        <ele>-72.8</ele>
        <time>2020-01-28T07:15:35Z</time>
      </trkpt>
      <trkpt lat="43.3689620" lon="-5.8354680">
        <ele>-72.8</ele>
        <time>2020-01-28T07:15:43Z</time>
      </trkpt>
      <trkpt lat="43.3689780" lon="-5.8354210">
        <ele>-72.4</ele>
        <time>2020-01-28T07:15:45Z</time>
      </trkpt>
      <trkpt lat="43.3690090" lon="-5.8353380">
        <ele>-72.6</ele>
        <time>2020-01-28T07:15:49Z</time>
      </trkpt>
      <trkpt lat="43.3690310" lon="-5.8352760">
        <ele>-73.0</ele>
        <time>2020-01-28T07:15:53Z</time>
      </trkpt>
      <trkpt lat="43.3690350" lon="-5.8352580">
        <ele>-73.0</ele>
        <time>2020-01-28T07:15:54Z</time>
      </trkpt>
      <trkpt lat="43.3690740" lon="-5.8351680">
        <ele>-72.8</ele>
        <time>2020-01-28T07:15:59Z</time>
      </trkpt>
      <trkpt lat="43.3691110" lon="-5.8351030">
        <ele>-72.8</ele>
        <time>2020-01-28T07:16:03Z</time>
      </trkpt>
      <trkpt lat="43.3691270" lon="-5.8350660">
        <ele>-73.0</ele>
        <time>2020-01-28T07:16:05Z</time>
      </trkpt>
      <trkpt lat="43.3691780" lon="-5.8348980">
        <ele>-73.0</ele>
        <time>2020-01-28T07:16:13Z</time>
      </trkpt>
      <trkpt lat="43.3692380" lon="-5.8347450">
        <ele>-73.2</ele>
        <time>2020-01-28T07:16:22Z</time>
      </trkpt>
      <trkpt lat="43.3692460" lon="-5.8347250">
        <ele>-73.2</ele>
        <time>2020-01-28T07:16:23Z</time>
      </trkpt>
      <trkpt lat="43.3692670" lon="-5.8346620">
        <ele>-72.8</ele>
        <time>2020-01-28T07:16:28Z</time>
      </trkpt>
      <trkpt lat="43.3692730" lon="-5.8346550">
        <ele>-72.8</ele>
        <time>2020-01-28T07:16:29Z</time>
      </trkpt>
      <trkpt lat="43.3692780" lon="-5.8346420">
        <ele>-72.8</ele>
        <time>2020-01-28T07:16:30Z</time>
      </trkpt>
      <trkpt lat="43.3693080" lon="-5.8346110">
        <ele>-73.0</ele>
        <time>2020-01-28T07:16:33Z</time>
      </trkpt>
      <trkpt lat="43.3693400" lon="-5.8345680">
        <ele>-73.4</ele>
        <time>2020-01-28T07:16:36Z</time>
      </trkpt>
      <trkpt lat="43.3694420" lon="-5.8344330">
        <ele>-73.0</ele>
        <time>2020-01-28T07:16:43Z</time>
      </trkpt>
      <trkpt lat="43.3694630" lon="-5.8342930">
        <ele>-73.8</ele>
        <time>2020-01-28T07:16:49Z</time>
      </trkpt>
      <trkpt lat="43.3694650" lon="-5.8342680">
        <ele>-74.0</ele>
        <time>2020-01-28T07:16:50Z</time>
      </trkpt>
      <trkpt lat="43.3694670" lon="-5.8342400">
        <ele>-74.0</ele>
        <time>2020-01-28T07:16:51Z</time>
      </trkpt>
      <trkpt lat="43.3694720" lon="-5.8341950">
        <ele>-74.0</ele>
        <time>2020-01-28T07:16:53Z</time>
      </trkpt>
      <trkpt lat="43.3694920" lon="-5.8341070">
        <ele>-73.8</ele>
        <time>2020-01-28T07:16:57Z</time>
      </trkpt>
      <trkpt lat="43.3695090" lon="-5.8340660">
        <ele>-73.6</ele>
        <time>2020-01-28T07:16:59Z</time>
      </trkpt>
      <trkpt lat="43.3695260" lon="-5.8340110">
        <ele>-73.6</ele>
        <time>2020-01-28T07:17:02Z</time>
      </trkpt>
      <trkpt lat="43.3695300" lon="-5.8339890">
        <ele>-73.8</ele>
        <time>2020-01-28T07:17:03Z</time>
      </trkpt>
      <trkpt lat="43.3695590" lon="-5.8339110">
        <ele>-74.0</ele>
        <time>2020-01-28T07:17:07Z</time>
      </trkpt>
      <trkpt lat="43.3696830" lon="-5.8338020">
        <ele>-73.8</ele>
        <time>2020-01-28T07:17:13Z</time>
      </trkpt>
      <trkpt lat="43.3697020" lon="-5.8337650">
        <ele>-73.8</ele>
        <time>2020-01-28T07:17:15Z</time>
      </trkpt>
      <trkpt lat="43.3697980" lon="-5.8336230">
        <ele>-74.4</ele>
        <time>2020-01-28T07:17:23Z</time>
      </trkpt>
      <trkpt lat="43.3698490" lon="-5.8334980">
        <ele>-73.6</ele>
        <time>2020-01-28T07:17:30Z</time>
      </trkpt>
      <trkpt lat="43.3698470" lon="-5.8334810">
        <ele>-73.6</ele>
        <time>2020-01-28T07:17:31Z</time>
      </trkpt>
      <trkpt lat="43.3698390" lon="-5.8334430">
        <ele>-73.6</ele>
        <time>2020-01-28T07:17:33Z</time>
      </trkpt>
      <trkpt lat="43.3698320" lon="-5.8333690">
        <ele>-73.8</ele>
        <time>2020-01-28T07:17:37Z</time>
      </trkpt>
      <trkpt lat="43.3698330" lon="-5.8333540">
        <ele>-74.0</ele>
        <time>2020-01-28T07:17:38Z</time>
      </trkpt>
      <trkpt lat="43.3698330" lon="-5.8332570">
        <ele>-73.8</ele>
        <time>2020-01-28T07:17:43Z</time>
      </trkpt>
      <trkpt lat="43.3698400" lon="-5.8332400">
        <ele>-73.6</ele>
        <time>2020-01-28T07:17:44Z</time>
      </trkpt>
      <trkpt lat="43.3699220" lon="-5.8331460">
        <ele>-73.8</ele>
        <time>2020-01-28T07:17:52Z</time>
      </trkpt>
      <trkpt lat="43.3699360" lon="-5.8331410">
        <ele>-73.8</ele>
        <time>2020-01-28T07:17:53Z</time>
      </trkpt>
      <trkpt lat="43.3700670" lon="-5.8330900">
        <ele>-73.8</ele>
        <time>2020-01-28T07:18:00Z</time>
      </trkpt>
      <trkpt lat="43.3701160" lon="-5.8330650">
        <ele>-73.8</ele>
        <time>2020-01-28T07:18:03Z</time>
      </trkpt>
      <trkpt lat="43.3701590" lon="-5.8330020">
        <ele>-73.8</ele>
        <time>2020-01-28T07:18:07Z</time>
      </trkpt>
      <trkpt lat="43.3702180" lon="-5.8329570">
        <ele>-74.2</ele>
        <time>2020-01-28T07:18:13Z</time>
      </trkpt>
      <trkpt lat="43.3702410" lon="-5.8329430">
        <ele>-74.2</ele>
        <time>2020-01-28T07:18:15Z</time>
      </trkpt>
      <trkpt lat="43.3703240" lon="-5.8329200">
        <ele>-74.0</ele>
        <time>2020-01-28T07:18:21Z</time>
      </trkpt>
      <trkpt lat="43.3703480" lon="-5.8329070">
        <ele>-74.2</ele>
        <time>2020-01-28T07:18:23Z</time>
      </trkpt>
      <trkpt lat="43.3704150" lon="-5.8328820">
        <ele>-74.2</ele>
        <time>2020-01-28T07:18:27Z</time>
      </trkpt>
      <trkpt lat="43.3704280" lon="-5.8328680">
        <ele>-74.2</ele>
        <time>2020-01-28T07:18:28Z</time>
      </trkpt>
      <trkpt lat="43.3704850" lon="-5.8328070">
        <ele>-74.0</ele>
        <time>2020-01-28T07:18:33Z</time>
      </trkpt>
      <trkpt lat="43.3705200" lon="-5.8327800">
        <ele>-74.2</ele>
        <time>2020-01-28T07:18:36Z</time>
      </trkpt>
      <trkpt lat="43.3705790" lon="-5.8326600">
        <ele>-74.2</ele>
        <time>2020-01-28T07:18:42Z</time>
      </trkpt>
      <trkpt lat="43.3705850" lon="-5.8326380">
        <ele>-74.2</ele>
        <time>2020-01-28T07:18:43Z</time>
      </trkpt>
      <trkpt lat="43.3705850" lon="-5.8326150">
        <ele>-74.2</ele>
        <time>2020-01-28T07:18:44Z</time>
      </trkpt>
      <trkpt lat="43.3705980" lon="-5.8325110">
        <ele>-74.0</ele>
        <time>2020-01-28T07:18:49Z</time>
      </trkpt>
      <trkpt lat="43.3706130" lon="-5.8324970">
        <ele>-74.0</ele>
        <time>2020-01-28T07:18:50Z</time>
      </trkpt>
      <trkpt lat="43.3706410" lon="-5.8324570">
        <ele>-74.4</ele>
        <time>2020-01-28T07:18:53Z</time>
      </trkpt>
      <trkpt lat="43.3706910" lon="-5.8324630">
        <ele>-74.2</ele>
        <time>2020-01-28T07:18:56Z</time>
      </trkpt>
      <trkpt lat="43.3707080" lon="-5.8324720">
        <ele>-74.2</ele>
        <time>2020-01-28T07:18:57Z</time>
      </trkpt>
      <trkpt lat="43.3707720" lon="-5.8325010">
        <ele>-73.8</ele>
        <time>2020-01-28T07:19:01Z</time>
      </trkpt>
      <trkpt lat="43.3708010" lon="-5.8325070">
        <ele>-73.6</ele>
        <time>2020-01-28T07:19:03Z</time>
      </trkpt>
      <trkpt lat="43.3708910" lon="-5.8325930">
        <ele>-73.8</ele>
        <time>2020-01-28T07:19:12Z</time>
      </trkpt>
      <trkpt lat="43.3708980" lon="-5.8326100">
        <ele>-73.8</ele>
        <time>2020-01-28T07:19:13Z</time>
      </trkpt>
      <trkpt lat="43.3709360" lon="-5.8326090">
        <ele>-73.8</ele>
        <time>2020-01-28T07:19:16Z</time>
      </trkpt>
      <trkpt lat="43.3709910" lon="-5.8325760">
        <ele>-73.4</ele>
        <time>2020-01-28T07:19:20Z</time>
      </trkpt>
      <trkpt lat="43.3710230" lon="-5.8325370">
        <ele>-73.2</ele>
        <time>2020-01-28T07:19:23Z</time>
      </trkpt>
      <trkpt lat="43.3710850" lon="-5.8325440">
        <ele>-73.0</ele>
        <time>2020-01-28T07:19:28Z</time>
      </trkpt>
      <trkpt lat="43.3710930" lon="-5.8325530">
        <ele>-73.0</ele>
        <time>2020-01-28T07:19:29Z</time>
      </trkpt>
      <trkpt lat="43.3711480" lon="-5.8325590">
        <ele>-73.4</ele>
        <time>2020-01-28T07:19:33Z</time>
      </trkpt>
      <trkpt lat="43.3711850" lon="-5.8325450">
        <ele>-73.6</ele>
        <time>2020-01-28T07:19:36Z</time>
      </trkpt>
      <trkpt lat="43.3712740" lon="-5.8325520">
        <ele>-72.4</ele>
        <time>2020-01-28T07:19:43Z</time>
      </trkpt>
      <trkpt lat="43.3713180" lon="-5.8325530">
        <ele>-72.4</ele>
        <time>2020-01-28T07:19:46Z</time>
      </trkpt>
      <trkpt lat="43.3713700" lon="-5.8325280">
        <ele>-72.2</ele>
        <time>2020-01-28T07:19:49Z</time>
      </trkpt>
      <trkpt lat="43.3714360" lon="-5.8325030">
        <ele>-72.2</ele>
        <time>2020-01-28T07:19:53Z</time>
      </trkpt>
      <trkpt lat="43.3714520" lon="-5.8325000">
        <ele>-72.2</ele>
        <time>2020-01-28T07:19:54Z</time>
      </trkpt>
      <trkpt lat="43.3714970" lon="-5.8325120">
        <ele>-72.2</ele>
        <time>2020-01-28T07:19:57Z</time>
      </trkpt>
      <trkpt lat="43.3715350" lon="-5.8325180">
        <ele>-72.2</ele>
        <time>2020-01-28T07:20:00Z</time>
      </trkpt>
      <trkpt lat="43.3715630" lon="-5.8325070">
        <ele>-71.8</ele>
        <time>2020-01-28T07:20:02Z</time>
      </trkpt>
      <trkpt lat="43.3715770" lon="-5.8325080">
        <ele>-71.6</ele>
        <time>2020-01-28T07:20:03Z</time>
      </trkpt>
      <trkpt lat="43.3717100" lon="-5.8324320">
        <ele>-71.6</ele>
        <time>2020-01-28T07:20:11Z</time>
      </trkpt>
      <trkpt lat="43.3717900" lon="-5.8322150">
        <ele>-71.6</ele>
        <time>2020-01-28T07:20:13Z</time>
      </trkpt>
      <trkpt lat="43.3718900" lon="-5.8321000">
        <ele>-71.6</ele>
        <time>2020-01-28T07:20:17Z</time>
      </trkpt>
      <trkpt lat="43.3718950" lon="-5.8319410">
        <ele>-71.4</ele>
        <time>2020-01-28T07:20:23Z</time>
      </trkpt>
      <trkpt lat="43.3718910" lon="-5.8319140">
        <ele>-71.2</ele>
        <time>2020-01-28T07:20:24Z</time>
      </trkpt>
      <trkpt lat="43.3718930" lon="-5.8318270">
        <ele>-71.4</ele>
        <time>2020-01-28T07:20:29Z</time>
      </trkpt>
      <trkpt lat="43.3719130" lon="-5.8317940">
        <ele>-71.6</ele>
        <time>2020-01-28T07:20:31Z</time>
      </trkpt>
      <trkpt lat="43.3719280" lon="-5.8317740">
        <ele>-72.0</ele>
        <time>2020-01-28T07:20:33Z</time>
      </trkpt>
      <trkpt lat="43.3719790" lon="-5.8317270">
        <ele>-71.8</ele>
        <time>2020-01-28T07:20:38Z</time>
      </trkpt>
      <trkpt lat="43.3720090" lon="-5.8317420">
        <ele>-72.0</ele>
        <time>2020-01-28T07:20:40Z</time>
      </trkpt>
      <trkpt lat="43.3720590" lon="-5.8317920">
        <ele>-72.0</ele>
        <time>2020-01-28T07:20:43Z</time>
      </trkpt>
      <trkpt lat="43.3721420" lon="-5.8318420">
        <ele>-71.8</ele>
        <time>2020-01-28T07:20:47Z</time>
      </trkpt>
      <trkpt lat="43.3722240" lon="-5.8318920">
        <ele>-71.6</ele>
        <time>2020-01-28T07:20:53Z</time>
      </trkpt>
      <trkpt lat="43.3722420" lon="-5.8319030">
        <ele>-71.6</ele>
        <time>2020-01-28T07:20:55Z</time>
      </trkpt>
      <trkpt lat="43.3722560" lon="-5.8319140">
        <ele>-71.6</ele>
        <time>2020-01-28T07:20:57Z</time>
      </trkpt>
      <trkpt lat="43.3722660" lon="-5.8319140">
        <ele>-71.4</ele>
        <time>2020-01-28T07:20:58Z</time>
      </trkpt>
      <trkpt lat="43.3723200" lon="-5.8319120">
        <ele>-71.2</ele>
        <time>2020-01-28T07:21:03Z</time>
      </trkpt>
      <trkpt lat="43.3723330" lon="-5.8319110">
        <ele>-71.4</ele>
        <time>2020-01-28T07:21:04Z</time>
      </trkpt>
      <trkpt lat="43.3723990" lon="-5.8318810">
        <ele>-71.2</ele>
        <time>2020-01-28T07:21:11Z</time>
      </trkpt>
      <trkpt lat="43.3724150" lon="-5.8318670">
        <ele>-70.8</ele>
        <time>2020-01-28T07:21:13Z</time>
      </trkpt>
      <trkpt lat="43.3724250" lon="-5.8318620">
        <ele>-70.8</ele>
        <time>2020-01-28T07:21:14Z</time>
      </trkpt>
      <trkpt lat="43.3724880" lon="-5.8318580">
        <ele>-70.4</ele>
        <time>2020-01-28T07:21:19Z</time>
      </trkpt>
      <trkpt lat="43.3725130" lon="-5.8318590">
        <ele>-70.4</ele>
        <time>2020-01-28T07:21:21Z</time>
      </trkpt>
      <trkpt lat="43.3725410" lon="-5.8318560">
        <ele>-70.4</ele>
        <time>2020-01-28T07:21:23Z</time>
      </trkpt>
      <trkpt lat="43.3725540" lon="-5.8318520">
        <ele>-70.4</ele>
        <time>2020-01-28T07:21:24Z</time>
      </trkpt>
      <trkpt lat="43.3726160" lon="-5.8318560">
        <ele>-70.6</ele>
        <time>2020-01-28T07:21:28Z</time>
      </trkpt>
      <trkpt lat="43.3726280" lon="-5.8318540">
        <ele>-70.6</ele>
        <time>2020-01-28T07:21:29Z</time>
      </trkpt>
      <trkpt lat="43.3726490" lon="-5.8318500">
        <ele>-70.4</ele>
        <time>2020-01-28T07:21:30Z</time>
      </trkpt>
      <trkpt lat="43.3727070" lon="-5.8318550">
        <ele>-69.6</ele>
        <time>2020-01-28T07:21:33Z</time>
      </trkpt>
      <trkpt lat="43.3727260" lon="-5.8318660">
        <ele>-69.0</ele>
        <time>2020-01-28T07:21:35Z</time>
      </trkpt>
      <trkpt lat="43.3727350" lon="-5.8318660">
        <ele>-69.0</ele>
        <time>2020-01-28T07:21:36Z</time>
      </trkpt>
      <trkpt lat="43.3728730" lon="-5.8317340">
        <ele>-69.2</ele>
        <time>2020-01-28T07:21:43Z</time>
      </trkpt>
      <trkpt lat="43.3729420" lon="-5.8315670">
        <ele>-68.6</ele>
        <time>2020-01-28T07:21:49Z</time>
      </trkpt>
      <trkpt lat="43.3729510" lon="-5.8315160">
        <ele>-68.4</ele>
        <time>2020-01-28T07:21:52Z</time>
      </trkpt>
      <trkpt lat="43.3729390" lon="-5.8314710">
        <ele>-68.4</ele>
        <time>2020-01-28T07:21:53Z</time>
      </trkpt>
      <trkpt lat="43.3729420" lon="-5.8314370">
        <ele>-68.4</ele>
        <time>2020-01-28T07:21:54Z</time>
      </trkpt>
      <trkpt lat="43.3729710" lon="-5.8313980">
        <ele>-68.2</ele>
        <time>2020-01-28T07:21:56Z</time>
      </trkpt>
      <trkpt lat="43.3730560" lon="-5.8313450">
        <ele>-68.6</ele>
        <time>2020-01-28T07:22:01Z</time>
      </trkpt>
      <trkpt lat="43.3730790" lon="-5.8313440">
        <ele>-68.8</ele>
        <time>2020-01-28T07:22:02Z</time>
      </trkpt>
      <trkpt lat="43.3730910" lon="-5.8313450">
        <ele>-69.0</ele>
        <time>2020-01-28T07:22:03Z</time>
      </trkpt>
      <trkpt lat="43.3731030" lon="-5.8313520">
        <ele>-69.0</ele>
        <time>2020-01-28T07:22:04Z</time>
      </trkpt>
      <trkpt lat="43.3731180" lon="-5.8313840">
        <ele>-69.0</ele>
        <time>2020-01-28T07:22:06Z</time>
      </trkpt>
      <trkpt lat="43.3731370" lon="-5.8314330">
        <ele>-68.8</ele>
        <time>2020-01-28T07:22:09Z</time>
      </trkpt>
      <trkpt lat="43.3731710" lon="-5.8314870">
        <ele>-68.8</ele>
        <time>2020-01-28T07:22:13Z</time>
      </trkpt>
      <trkpt lat="43.3731740" lon="-5.8315100">
        <ele>-68.8</ele>
        <time>2020-01-28T07:22:15Z</time>
      </trkpt>
      <trkpt lat="43.3731830" lon="-5.8315240">
        <ele>-68.8</ele>
        <time>2020-01-28T07:22:16Z</time>
      </trkpt>
      <trkpt lat="43.3731970" lon="-5.8315550">
        <ele>-69.0</ele>
        <time>2020-01-28T07:22:18Z</time>
      </trkpt>
      <trkpt lat="43.3732160" lon="-5.8315770">
        <ele>-69.0</ele>
        <time>2020-01-28T07:22:20Z</time>
      </trkpt>
      <trkpt lat="43.3732440" lon="-5.8316010">
        <ele>-69.0</ele>
        <time>2020-01-28T07:22:23Z</time>
      </trkpt>
      <trkpt lat="43.3732790" lon="-5.8316180">
        <ele>-69.0</ele>
        <time>2020-01-28T07:22:26Z</time>
      </trkpt>
      <trkpt lat="43.3733060" lon="-5.8316340">
        <ele>-68.8</ele>
        <time>2020-01-28T07:22:29Z</time>
      </trkpt>
      <trkpt lat="43.3733490" lon="-5.8316350">
        <ele>-68.6</ele>
        <time>2020-01-28T07:22:32Z</time>
      </trkpt>
      <trkpt lat="43.3733650" lon="-5.8316400">
        <ele>-68.4</ele>
        <time>2020-01-28T07:22:33Z</time>
      </trkpt>
      <trkpt lat="43.3734330" lon="-5.8315850">
        <ele>-67.4</ele>
        <time>2020-01-28T07:22:38Z</time>
      </trkpt>
      <trkpt lat="43.3734530" lon="-5.8315630">
        <ele>-67.2</ele>
        <time>2020-01-28T07:22:39Z</time>
      </trkpt>
      <trkpt lat="43.3735470" lon="-5.8314980">
        <ele>-67.0</ele>
        <time>2020-01-28T07:22:43Z</time>
      </trkpt>
      <trkpt lat="43.3736700" lon="-5.8314380">
        <ele>-66.4</ele>
        <time>2020-01-28T07:22:49Z</time>
      </trkpt>
      <trkpt lat="43.3737080" lon="-5.8314280">
        <ele>-66.0</ele>
        <time>2020-01-28T07:22:51Z</time>
      </trkpt>
      <trkpt lat="43.3737560" lon="-5.8314120">
        <ele>-65.8</ele>
        <time>2020-01-28T07:22:53Z</time>
      </trkpt>
      <trkpt lat="43.3738640" lon="-5.8313250">
        <ele>-65.2</ele>
        <time>2020-01-28T07:22:59Z</time>
      </trkpt>
      <trkpt lat="43.3739460" lon="-5.8311950">
        <ele>-65.0</ele>
        <time>2020-01-28T07:23:03Z</time>
      </trkpt>
      <trkpt lat="43.3740380" lon="-5.8310450">
        <ele>-64.8</ele>
        <time>2020-01-28T07:23:09Z</time>
      </trkpt>
      <trkpt lat="43.3740520" lon="-5.8310330">
        <ele>-64.8</ele>
        <time>2020-01-28T07:23:10Z</time>
      </trkpt>
      <trkpt lat="43.3740670" lon="-5.8310210">
        <ele>-64.8</ele>
        <time>2020-01-28T07:23:11Z</time>
      </trkpt>
      <trkpt lat="43.3740800" lon="-5.8310060">
        <ele>-64.8</ele>
        <time>2020-01-28T07:23:12Z</time>
      </trkpt>
      <trkpt lat="43.3740840" lon="-5.8309850">
        <ele>-64.8</ele>
        <time>2020-01-28T07:23:13Z</time>
      </trkpt>
      <trkpt lat="43.3740930" lon="-5.8309650">
        <ele>-64.8</ele>
        <time>2020-01-28T07:23:14Z</time>
      </trkpt>
      <trkpt lat="43.3741080" lon="-5.8308840">
        <ele>-64.8</ele>
        <time>2020-01-28T07:23:18Z</time>
      </trkpt>
      <trkpt lat="43.3741090" lon="-5.8308280">
        <ele>-64.8</ele>
        <time>2020-01-28T07:23:21Z</time>
      </trkpt>
      <trkpt lat="43.3741020" lon="-5.8308110">
        <ele>-64.8</ele>
        <time>2020-01-28T07:23:22Z</time>
      </trkpt>
      <trkpt lat="43.3740950" lon="-5.8307930">
        <ele>-64.8</ele>
        <time>2020-01-28T07:23:23Z</time>
      </trkpt>
      <trkpt lat="43.3740900" lon="-5.8307500">
        <ele>-65.0</ele>
        <time>2020-01-28T07:23:26Z</time>
      </trkpt>
      <trkpt lat="43.3741000" lon="-5.8306980">
        <ele>-65.0</ele>
        <time>2020-01-28T07:23:30Z</time>
      </trkpt>
      <trkpt lat="43.3740980" lon="-5.8306850">
        <ele>-65.2</ele>
        <time>2020-01-28T07:23:31Z</time>
      </trkpt>
      <trkpt lat="43.3741100" lon="-5.8306590">
        <ele>-65.0</ele>
        <time>2020-01-28T07:23:33Z</time>
      </trkpt>
      <trkpt lat="43.3741130" lon="-5.8306200">
        <ele>-65.0</ele>
        <time>2020-01-28T07:23:37Z</time>
      </trkpt>
      <trkpt lat="43.3741120" lon="-5.8306680">
        <ele>-64.8</ele>
        <time>2020-01-28T07:23:42Z</time>
      </trkpt>
      <trkpt lat="43.3741170" lon="-5.8306770">
        <ele>-64.6</ele>
        <time>2020-01-28T07:23:43Z</time>
      </trkpt>
      <trkpt lat="43.3741300" lon="-5.8306920">
        <ele>-64.4</ele>
        <time>2020-01-28T07:23:45Z</time>
      </trkpt>
      <trkpt lat="43.3741580" lon="-5.8306880">
        <ele>-64.2</ele>
        <time>2020-01-28T07:23:47Z</time>
      </trkpt>
      <trkpt lat="43.3742300" lon="-5.8306270">
        <ele>-63.8</ele>
        <time>2020-01-28T07:23:52Z</time>
      </trkpt>
      <trkpt lat="43.3742450" lon="-5.8306030">
        <ele>-63.8</ele>
        <time>2020-01-28T07:23:53Z</time>
      </trkpt>
      <trkpt lat="43.3742810" lon="-5.8305330">
        <ele>-63.2</ele>
        <time>2020-01-28T07:23:56Z</time>
      </trkpt>
      <trkpt lat="43.3742910" lon="-5.8305120">
        <ele>-63.0</ele>
        <time>2020-01-28T07:23:57Z</time>
      </trkpt>
      <trkpt lat="43.3743010" lon="-5.8304900">
        <ele>-62.8</ele>
        <time>2020-01-28T07:23:58Z</time>
      </trkpt>
      <trkpt lat="43.3743160" lon="-5.8304510">
        <ele>-62.4</ele>
        <time>2020-01-28T07:24:00Z</time>
      </trkpt>
      <trkpt lat="43.3743380" lon="-5.8303910">
        <ele>-62.2</ele>
        <time>2020-01-28T07:24:03Z</time>
      </trkpt>
      <trkpt lat="43.3743750" lon="-5.8303010">
        <ele>-61.4</ele>
        <time>2020-01-28T07:24:08Z</time>
      </trkpt>
      <trkpt lat="43.3743870" lon="-5.8302640">
        <ele>-61.2</ele>
        <time>2020-01-28T07:24:10Z</time>
      </trkpt>
      <trkpt lat="43.3744010" lon="-5.8302110">
        <ele>-61.0</ele>
        <time>2020-01-28T07:24:13Z</time>
      </trkpt>
      <trkpt lat="43.3744070" lon="-5.8301950">
        <ele>-60.8</ele>
        <time>2020-01-28T07:24:14Z</time>
      </trkpt>
      <trkpt lat="43.3744200" lon="-5.8301600">
        <ele>-60.6</ele>
        <time>2020-01-28T07:24:16Z</time>
      </trkpt>
      <trkpt lat="43.3744610" lon="-5.8300450">
        <ele>-60.2</ele>
        <time>2020-01-28T07:24:23Z</time>
      </trkpt>
      <trkpt lat="43.3744660" lon="-5.8300280">
        <ele>-60.0</ele>
        <time>2020-01-28T07:24:24Z</time>
      </trkpt>
      <trkpt lat="43.3744800" lon="-5.8300000">
        <ele>-59.8</ele>
        <time>2020-01-28T07:24:26Z</time>
      </trkpt>
      <trkpt lat="43.3745290" lon="-5.8298850">
        <ele>-59.0</ele>
        <time>2020-01-28T07:24:33Z</time>
      </trkpt>
      <trkpt lat="43.3745320" lon="-5.8298680">
        <ele>-59.0</ele>
        <time>2020-01-28T07:24:34Z</time>
      </trkpt>
      <trkpt lat="43.3745570" lon="-5.8298050">
        <ele>-58.4</ele>
        <time>2020-01-28T07:24:38Z</time>
      </trkpt>
      <trkpt lat="43.3745620" lon="-5.8297900">
        <ele>-58.2</ele>
        <time>2020-01-28T07:24:39Z</time>
      </trkpt>
      <trkpt lat="43.3745710" lon="-5.8297570">
        <ele>-58.0</ele>
        <time>2020-01-28T07:24:41Z</time>
      </trkpt>
      <trkpt lat="43.3745770" lon="-5.8297410">
        <ele>-58.0</ele>
        <time>2020-01-28T07:24:42Z</time>
      </trkpt>
      <trkpt lat="43.3745790" lon="-5.8297250">
        <ele>-57.8</ele>
        <time>2020-01-28T07:24:43Z</time>
      </trkpt>
      <trkpt lat="43.3746220" lon="-5.8296150">
        <ele>-57.0</ele>
        <time>2020-01-28T07:24:50Z</time>
      </trkpt>
      <trkpt lat="43.3746280" lon="-5.8295990">
        <ele>-57.0</ele>
        <time>2020-01-28T07:24:51Z</time>
      </trkpt>
      <trkpt lat="43.3746430" lon="-5.8295680">
        <ele>-56.8</ele>
        <time>2020-01-28T07:24:53Z</time>
      </trkpt>
      <trkpt lat="43.3746710" lon="-5.8295160">
        <ele>-56.6</ele>
        <time>2020-01-28T07:24:56Z</time>
      </trkpt>
      <trkpt lat="43.3746760" lon="-5.8294410">
        <ele>-56.4</ele>
        <time>2020-01-28T07:24:59Z</time>
      </trkpt>
      <trkpt lat="43.3746790" lon="-5.8294230">
        <ele>-56.4</ele>
        <time>2020-01-28T07:25:00Z</time>
      </trkpt>
      <trkpt lat="43.3746730" lon="-5.8293840">
        <ele>-56.4</ele>
        <time>2020-01-28T07:25:01Z</time>
      </trkpt>
      <trkpt lat="43.3746700" lon="-5.8293310">
        <ele>-56.4</ele>
        <time>2020-01-28T07:25:03Z</time>
      </trkpt>
      <trkpt lat="43.3746790" lon="-5.8292860">
        <ele>-56.2</ele>
        <time>2020-01-28T07:25:06Z</time>
      </trkpt>
      <trkpt lat="43.3746820" lon="-5.8292180">
        <ele>-55.8</ele>
        <time>2020-01-28T07:25:10Z</time>
      </trkpt>
      <trkpt lat="43.3746850" lon="-5.8291810">
        <ele>-55.2</ele>
        <time>2020-01-28T07:25:12Z</time>
      </trkpt>
      <trkpt lat="43.3746890" lon="-5.8291650">
        <ele>-55.2</ele>
        <time>2020-01-28T07:25:13Z</time>
      </trkpt>
      <trkpt lat="43.3747260" lon="-5.8290530">
        <ele>-54.6</ele>
        <time>2020-01-28T07:25:20Z</time>
      </trkpt>
      <trkpt lat="43.3747310" lon="-5.8290390">
        <ele>-54.6</ele>
        <time>2020-01-28T07:25:21Z</time>
      </trkpt>
      <trkpt lat="43.3747360" lon="-5.8290250">
        <ele>-54.6</ele>
        <time>2020-01-28T07:25:22Z</time>
      </trkpt>
      <trkpt lat="43.3747400" lon="-5.8290100">
        <ele>-54.6</ele>
        <time>2020-01-28T07:25:23Z</time>
      </trkpt>
      <trkpt lat="43.3747630" lon="-5.8288920">
        <ele>-53.6</ele>
        <time>2020-01-28T07:25:30Z</time>
      </trkpt>
      <trkpt lat="43.3747660" lon="-5.8288740">
        <ele>-53.4</ele>
        <time>2020-01-28T07:25:31Z</time>
      </trkpt>
      <trkpt lat="43.3747750" lon="-5.8288420">
        <ele>-53.2</ele>
        <time>2020-01-28T07:25:33Z</time>
      </trkpt>
      <trkpt lat="43.3747950" lon="-5.8287270">
        <ele>-52.8</ele>
        <time>2020-01-28T07:25:40Z</time>
      </trkpt>
      <trkpt lat="43.3747990" lon="-5.8286790">
        <ele>-52.8</ele>
        <time>2020-01-28T07:25:43Z</time>
      </trkpt>
      <trkpt lat="43.3748050" lon="-5.8286630">
        <ele>-52.6</ele>
        <time>2020-01-28T07:25:44Z</time>
      </trkpt>
      <trkpt lat="43.3748530" lon="-5.8286060">
        <ele>-52.2</ele>
        <time>2020-01-28T07:25:48Z</time>
      </trkpt>
      <trkpt lat="43.3748680" lon="-5.8285780">
        <ele>-52.2</ele>
        <time>2020-01-28T07:25:50Z</time>
      </trkpt>
      <trkpt lat="43.3748820" lon="-5.8285330">
        <ele>-52.0</ele>
        <time>2020-01-28T07:25:53Z</time>
      </trkpt>
      <trkpt lat="43.3748870" lon="-5.8285000">
        <ele>-52.0</ele>
        <time>2020-01-28T07:25:55Z</time>
      </trkpt>
      <trkpt lat="43.3748900" lon="-5.8284810">
        <ele>-52.0</ele>
        <time>2020-01-28T07:25:56Z</time>
      </trkpt>
      <trkpt lat="43.3749060" lon="-5.8283780">
        <ele>-52.0</ele>
        <time>2020-01-28T07:26:01Z</time>
      </trkpt>
      <trkpt lat="43.3749140" lon="-5.8283370">
        <ele>-51.8</ele>
        <time>2020-01-28T07:26:03Z</time>
      </trkpt>
      <trkpt lat="43.3749110" lon="-5.8282910">
        <ele>-51.6</ele>
        <time>2020-01-28T07:26:05Z</time>
      </trkpt>
      <trkpt lat="43.3749130" lon="-5.8282070">
        <ele>-51.6</ele>
        <time>2020-01-28T07:26:09Z</time>
      </trkpt>
      <trkpt lat="43.3749120" lon="-5.8281480">
        <ele>-51.6</ele>
        <time>2020-01-28T07:26:12Z</time>
      </trkpt>
      <trkpt lat="43.3749110" lon="-5.8281270">
        <ele>-51.6</ele>
        <time>2020-01-28T07:26:13Z</time>
      </trkpt>
      <trkpt lat="43.3749140" lon="-5.8281070">
        <ele>-51.6</ele>
        <time>2020-01-28T07:26:14Z</time>
      </trkpt>
      <trkpt lat="43.3749000" lon="-5.8280400">
        <ele>-51.6</ele>
        <time>2020-01-28T07:26:17Z</time>
      </trkpt>
      <trkpt lat="43.3748900" lon="-5.8280180">
        <ele>-51.4</ele>
        <time>2020-01-28T07:26:18Z</time>
      </trkpt>
      <trkpt lat="43.3748990" lon="-5.8279370">
        <ele>-51.2</ele>
        <time>2020-01-28T07:26:22Z</time>
      </trkpt>
      <trkpt lat="43.3749070" lon="-5.8279160">
        <ele>-51.0</ele>
        <time>2020-01-28T07:26:23Z</time>
      </trkpt>
      <trkpt lat="43.3749320" lon="-5.8277670">
        <ele>-50.6</ele>
        <time>2020-01-28T07:26:30Z</time>
      </trkpt>
      <trkpt lat="43.3749340" lon="-5.8277470">
        <ele>-50.6</ele>
        <time>2020-01-28T07:26:31Z</time>
      </trkpt>
      <trkpt lat="43.3749400" lon="-5.8277100">
        <ele>-50.6</ele>
        <time>2020-01-28T07:26:33Z</time>
      </trkpt>
      <trkpt lat="43.3749490" lon="-5.8276470">
        <ele>-50.6</ele>
        <time>2020-01-28T07:26:36Z</time>
      </trkpt>
      <trkpt lat="43.3749670" lon="-5.8275760">
        <ele>-50.6</ele>
        <time>2020-01-28T07:26:40Z</time>
      </trkpt>
      <trkpt lat="43.3749710" lon="-5.8275590">
        <ele>-50.4</ele>
        <time>2020-01-28T07:26:41Z</time>
      </trkpt>
      <trkpt lat="43.3749810" lon="-5.8275250">
        <ele>-50.4</ele>
        <time>2020-01-28T07:26:43Z</time>
      </trkpt>
      <trkpt lat="43.3750030" lon="-5.8274230">
        <ele>-50.4</ele>
        <time>2020-01-28T07:26:49Z</time>
      </trkpt>
      <trkpt lat="43.3750220" lon="-5.8273490">
        <ele>-50.6</ele>
        <time>2020-01-28T07:26:53Z</time>
      </trkpt>
      <trkpt lat="43.3750290" lon="-5.8272880">
        <ele>-50.6</ele>
        <time>2020-01-28T07:26:56Z</time>
      </trkpt>
      <trkpt lat="43.3750380" lon="-5.8272280">
        <ele>-50.8</ele>
        <time>2020-01-28T07:26:59Z</time>
      </trkpt>
      <trkpt lat="43.3750440" lon="-5.8271920">
        <ele>-50.8</ele>
        <time>2020-01-28T07:27:01Z</time>
      </trkpt>
      <trkpt lat="43.3750530" lon="-5.8271640">
        <ele>-51.0</ele>
        <time>2020-01-28T07:27:03Z</time>
      </trkpt>
      <trkpt lat="43.3750700" lon="-5.8271390">
        <ele>-51.0</ele>
        <time>2020-01-28T07:27:05Z</time>
      </trkpt>
      <trkpt lat="43.3751360" lon="-5.8271070">
        <ele>-51.2</ele>
        <time>2020-01-28T07:27:10Z</time>
      </trkpt>
      <trkpt lat="43.3751490" lon="-5.8271000">
        <ele>-51.2</ele>
        <time>2020-01-28T07:27:11Z</time>
      </trkpt>
      <trkpt lat="43.3751770" lon="-5.8270780">
        <ele>-51.4</ele>
        <time>2020-01-28T07:27:13Z</time>
      </trkpt>
      <trkpt lat="43.3752300" lon="-5.8269830">
        <ele>-51.2</ele>
        <time>2020-01-28T07:27:19Z</time>
      </trkpt>
      <trkpt lat="43.3752330" lon="-5.8269380">
        <ele>-51.2</ele>
        <time>2020-01-28T07:27:21Z</time>
      </trkpt>
      <trkpt lat="43.3752410" lon="-5.8268970">
        <ele>-51.4</ele>
        <time>2020-01-28T07:27:23Z</time>
      </trkpt>
      <trkpt lat="43.3752530" lon="-5.8268250">
        <ele>-51.4</ele>
        <time>2020-01-28T07:27:27Z</time>
      </trkpt>
      <trkpt lat="43.3752550" lon="-5.8268040">
        <ele>-51.4</ele>
        <time>2020-01-28T07:27:28Z</time>
      </trkpt>
      <trkpt lat="43.3752760" lon="-5.8267200">
        <ele>-51.4</ele>
        <time>2020-01-28T07:27:33Z</time>
      </trkpt>
      <trkpt lat="43.3752920" lon="-5.8266620">
        <ele>-51.4</ele>
        <time>2020-01-28T07:27:36Z</time>
      </trkpt>
      <trkpt lat="43.3753330" lon="-5.8265450">
        <ele>-51.8</ele>
        <time>2020-01-28T07:27:42Z</time>
      </trkpt>
      <trkpt lat="43.3753360" lon="-5.8265260">
        <ele>-51.8</ele>
        <time>2020-01-28T07:27:43Z</time>
      </trkpt>
      <trkpt lat="43.3753790" lon="-5.8263810">
        <ele>-52.0</ele>
        <time>2020-01-28T07:27:51Z</time>
      </trkpt>
      <trkpt lat="43.3753840" lon="-5.8263430">
        <ele>-51.8</ele>
        <time>2020-01-28T07:27:53Z</time>
      </trkpt>
      <trkpt lat="43.3753950" lon="-5.8262410">
        <ele>-51.6</ele>
        <time>2020-01-28T07:27:58Z</time>
      </trkpt>
      <trkpt lat="43.3754100" lon="-5.8261400">
        <ele>-51.6</ele>
        <time>2020-01-28T07:28:03Z</time>
      </trkpt>
      <trkpt lat="43.3754280" lon="-5.8260800">
        <ele>-51.8</ele>
        <time>2020-01-28T07:28:07Z</time>
      </trkpt>
      <trkpt lat="43.3754630" lon="-5.8260410">
        <ele>-51.8</ele>
        <time>2020-01-28T07:28:12Z</time>
      </trkpt>
      <trkpt lat="43.3754700" lon="-5.8260350">
        <ele>-51.6</ele>
        <time>2020-01-28T07:28:13Z</time>
      </trkpt>
      <trkpt lat="43.3754910" lon="-5.8260230">
        <ele>-51.6</ele>
        <time>2020-01-28T07:28:15Z</time>
      </trkpt>
      <trkpt lat="43.3755270" lon="-5.8259990">
        <ele>-51.6</ele>
        <time>2020-01-28T07:28:18Z</time>
      </trkpt>
      <trkpt lat="43.3755610" lon="-5.8259830">
        <ele>-51.6</ele>
        <time>2020-01-28T07:28:21Z</time>
      </trkpt>
      <trkpt lat="43.3755900" lon="-5.8259730">
        <ele>-51.6</ele>
        <time>2020-01-28T07:28:23Z</time>
      </trkpt>
      <trkpt lat="43.3756200" lon="-5.8259650">
        <ele>-51.8</ele>
        <time>2020-01-28T07:28:26Z</time>
      </trkpt>
      <trkpt lat="43.3756380" lon="-5.8259430">
        <ele>-52.6</ele>
        <time>2020-01-28T07:28:29Z</time>
      </trkpt>
      <trkpt lat="43.3756420" lon="-5.8259270">
        <ele>-53.2</ele>
        <time>2020-01-28T07:28:31Z</time>
      </trkpt>
      <trkpt lat="43.3756480" lon="-5.8259230">
        <ele>-53.6</ele>
        <time>2020-01-28T07:28:32Z</time>
      </trkpt>
      <trkpt lat="43.3756530" lon="-5.8259160">
        <ele>-54.0</ele>
        <time>2020-01-28T07:28:33Z</time>
      </trkpt>
      <trkpt lat="43.3756580" lon="-5.8259050">
        <ele>-54.8</ele>
        <time>2020-01-28T07:28:35Z</time>
      </trkpt>
      <trkpt lat="43.3756610" lon="-5.8258990">
        <ele>-55.2</ele>
        <time>2020-01-28T07:28:36Z</time>
      </trkpt>
      <trkpt lat="43.3756670" lon="-5.8258860">
        <ele>-55.8</ele>
        <time>2020-01-28T07:28:38Z</time>
      </trkpt>
      <trkpt lat="43.3756810" lon="-5.8258430">
        <ele>-56.4</ele>
        <time>2020-01-28T07:28:43Z</time>
      </trkpt>
      <trkpt lat="43.3756920" lon="-5.8258250">
        <ele>-56.4</ele>
        <time>2020-01-28T07:28:47Z</time>
      </trkpt>
      <trkpt lat="43.3756840" lon="-5.8258280">
        <ele>-56.4</ele>
        <time>2020-01-28T07:28:50Z</time>
      </trkpt>
      <trkpt lat="43.3756820" lon="-5.8258240">
        <ele>-56.4</ele>
        <time>2020-01-28T07:28:51Z</time>
      </trkpt>
      <trkpt lat="43.3757500" lon="-5.8256540">
        <ele>-56.4</ele>
        <time>2020-01-28T08:02:16Z</time>
      </trkpt>
      <trkpt lat="43.3757600" lon="-5.8256500">
        <ele>-56.2</ele>
        <time>2020-01-28T08:02:18Z</time>
      </trkpt>
      <trkpt lat="43.3756480" lon="-5.8255170">
        <ele>-55.2</ele>
        <time>2020-01-28T08:02:21Z</time>
      </trkpt>
      <trkpt lat="43.3756750" lon="-5.8255800">
        <ele>-55.0</ele>
        <time>2020-01-28T08:02:22Z</time>
      </trkpt>
      <trkpt lat="43.3756460" lon="-5.8254910">
        <ele>-55.2</ele>
        <time>2020-01-28T08:02:24Z</time>
      </trkpt>
      <trkpt lat="43.3756240" lon="-5.8254680">
        <ele>-55.2</ele>
        <time>2020-01-28T08:02:25Z</time>
      </trkpt>
      <trkpt lat="43.3756230" lon="-5.8255060">
        <ele>-55.2</ele>
        <time>2020-01-28T08:02:26Z</time>
      </trkpt>
      <trkpt lat="43.3755950" lon="-5.8255150">
        <ele>-55.0</ele>
        <time>2020-01-28T08:02:29Z</time>
      </trkpt>
      <trkpt lat="43.3755650" lon="-5.8255080">
        <ele>-54.8</ele>
        <time>2020-01-28T08:02:31Z</time>
      </trkpt>
      <trkpt lat="43.3755280" lon="-5.8254730">
        <ele>-54.8</ele>
        <time>2020-01-28T08:02:34Z</time>
      </trkpt>
      <trkpt lat="43.3755290" lon="-5.8254450">
        <ele>-55.0</ele>
        <time>2020-01-28T08:02:36Z</time>
      </trkpt>
      <trkpt lat="43.3755330" lon="-5.8253890">
        <ele>-55.2</ele>
        <time>2020-01-28T08:02:39Z</time>
      </trkpt>
      <trkpt lat="43.3755550" lon="-5.8252850">
        <ele>-55.6</ele>
        <time>2020-01-28T08:02:45Z</time>
      </trkpt>
      <trkpt lat="43.3755640" lon="-5.8252520">
        <ele>-55.6</ele>
        <time>2020-01-28T08:02:47Z</time>
      </trkpt>
      <trkpt lat="43.3755830" lon="-5.8251710">
        <ele>-55.6</ele>
        <time>2020-01-28T08:02:52Z</time>
      </trkpt>
      <trkpt lat="43.3755860" lon="-5.8251520">
        <ele>-55.6</ele>
        <time>2020-01-28T08:02:53Z</time>
      </trkpt>
      <trkpt lat="43.3755910" lon="-5.8251110">
        <ele>-55.6</ele>
        <time>2020-01-28T08:02:55Z</time>
      </trkpt>
      <trkpt lat="43.3755980" lon="-5.8250680">
        <ele>-55.4</ele>
        <time>2020-01-28T08:02:57Z</time>
      </trkpt>
      <trkpt lat="43.3756030" lon="-5.8250150">
        <ele>-55.2</ele>
        <time>2020-01-28T08:02:59Z</time>
      </trkpt>
      <trkpt lat="43.3756190" lon="-5.8248950">
        <ele>-56.0</ele>
        <time>2020-01-28T08:03:05Z</time>
      </trkpt>
      <trkpt lat="43.3756210" lon="-5.8248710">
        <ele>-56.6</ele>
        <time>2020-01-28T08:03:07Z</time>
      </trkpt>
      <trkpt lat="43.3756400" lon="-5.8247680">
        <ele>-56.6</ele>
        <time>2020-01-28T08:03:13Z</time>
      </trkpt>
      <trkpt lat="43.3756500" lon="-5.8246910">
        <ele>-56.2</ele>
        <time>2020-01-28T08:03:17Z</time>
      </trkpt>
      <trkpt lat="43.3756570" lon="-5.8246150">
        <ele>-56.4</ele>
        <time>2020-01-28T08:03:21Z</time>
      </trkpt>
      <trkpt lat="43.3756510" lon="-5.8245040">
        <ele>-56.8</ele>
        <time>2020-01-28T08:03:27Z</time>
      </trkpt>
      <trkpt lat="43.3756430" lon="-5.8244890">
        <ele>-56.8</ele>
        <time>2020-01-28T08:03:28Z</time>
      </trkpt>
      <trkpt lat="43.3756360" lon="-5.8244720">
        <ele>-56.8</ele>
        <time>2020-01-28T08:03:29Z</time>
      </trkpt>
      <trkpt lat="43.3756140" lon="-5.8244190">
        <ele>-56.8</ele>
        <time>2020-01-28T08:03:32Z</time>
      </trkpt>
      <trkpt lat="43.3756110" lon="-5.8244070">
        <ele>-56.8</ele>
        <time>2020-01-28T08:03:33Z</time>
      </trkpt>
      <trkpt lat="43.3756260" lon="-5.8243710">
        <ele>-56.8</ele>
        <time>2020-01-28T08:03:35Z</time>
      </trkpt>
      <trkpt lat="43.3756420" lon="-5.8243280">
        <ele>-56.6</ele>
        <time>2020-01-28T08:03:37Z</time>
      </trkpt>
      <trkpt lat="43.3756690" lon="-5.8242110">
        <ele>-56.8</ele>
        <time>2020-01-28T08:03:43Z</time>
      </trkpt>
      <trkpt lat="43.3756780" lon="-5.8241280">
        <ele>-56.8</ele>
        <time>2020-01-28T08:03:47Z</time>
      </trkpt>
      <trkpt lat="43.3756770" lon="-5.8240690">
        <ele>-56.6</ele>
        <time>2020-01-28T08:03:50Z</time>
      </trkpt>
      <trkpt lat="43.3756720" lon="-5.8240300">
        <ele>-56.6</ele>
        <time>2020-01-28T08:03:52Z</time>
      </trkpt>
      <trkpt lat="43.3756620" lon="-5.8239370">
        <ele>-56.8</ele>
        <time>2020-01-28T08:03:57Z</time>
      </trkpt>
      <trkpt lat="43.3756600" lon="-5.8239170">
        <ele>-56.8</ele>
        <time>2020-01-28T08:03:58Z</time>
      </trkpt>
      <trkpt lat="43.3756660" lon="-5.8238620">
        <ele>-57.0</ele>
        <time>2020-01-28T08:04:01Z</time>
      </trkpt>
      <trkpt lat="43.3756860" lon="-5.8237650">
        <ele>-56.6</ele>
        <time>2020-01-28T08:04:07Z</time>
      </trkpt>
      <trkpt lat="43.3757080" lon="-5.8237220">
        <ele>-56.6</ele>
        <time>2020-01-28T08:04:10Z</time>
      </trkpt>
      <trkpt lat="43.3757720" lon="-5.8236370">
        <ele>-56.8</ele>
        <time>2020-01-28T08:04:17Z</time>
      </trkpt>
      <trkpt lat="43.3757940" lon="-5.8236000">
        <ele>-57.0</ele>
        <time>2020-01-28T08:04:20Z</time>
      </trkpt>
      <trkpt lat="43.3758110" lon="-5.8235720">
        <ele>-57.0</ele>
        <time>2020-01-28T08:04:22Z</time>
      </trkpt>
      <trkpt lat="43.3758310" lon="-5.8235230">
        <ele>-57.0</ele>
        <time>2020-01-28T08:04:25Z</time>
      </trkpt>
      <trkpt lat="43.3758400" lon="-5.8234950">
        <ele>-57.0</ele>
        <time>2020-01-28T08:04:27Z</time>
      </trkpt>
      <trkpt lat="43.3758450" lon="-5.8234810">
        <ele>-57.0</ele>
        <time>2020-01-28T08:04:28Z</time>
      </trkpt>
      <trkpt lat="43.3758710" lon="-5.8233250">
        <ele>-56.8</ele>
        <time>2020-01-28T08:04:37Z</time>
      </trkpt>
      <trkpt lat="43.3758880" lon="-5.8233050">
        <ele>-57.0</ele>
        <time>2020-01-28T08:04:39Z</time>
      </trkpt>
      <trkpt lat="43.3759320" lon="-5.8232860">
        <ele>-57.0</ele>
        <time>2020-01-28T08:04:42Z</time>
      </trkpt>
      <trkpt lat="43.3759710" lon="-5.8232680">
        <ele>-57.2</ele>
        <time>2020-01-28T08:04:45Z</time>
      </trkpt>
      <trkpt lat="43.3759920" lon="-5.8232440">
        <ele>-57.2</ele>
        <time>2020-01-28T08:04:47Z</time>
      </trkpt>
      <trkpt lat="43.3760020" lon="-5.8232080">
        <ele>-57.2</ele>
        <time>2020-01-28T08:04:49Z</time>
      </trkpt>
      <trkpt lat="43.3760140" lon="-5.8230510">
        <ele>-57.4</ele>
        <time>2020-01-28T08:04:57Z</time>
      </trkpt>
      <trkpt lat="43.3760420" lon="-5.8228640">
        <ele>-57.0</ele>
        <time>2020-01-28T08:05:07Z</time>
      </trkpt>
      <trkpt lat="43.3760440" lon="-5.8228470">
        <ele>-57.0</ele>
        <time>2020-01-28T08:05:08Z</time>
      </trkpt>
      <trkpt lat="43.3760560" lon="-5.8228170">
        <ele>-56.8</ele>
        <time>2020-01-28T08:05:10Z</time>
      </trkpt>
      <trkpt lat="43.3760900" lon="-5.8227670">
        <ele>-57.0</ele>
        <time>2020-01-28T08:05:14Z</time>
      </trkpt>
      <trkpt lat="43.3761120" lon="-5.8227430">
        <ele>-57.2</ele>
        <time>2020-01-28T08:05:17Z</time>
      </trkpt>
      <trkpt lat="43.3761270" lon="-5.8227250">
        <ele>-57.2</ele>
        <time>2020-01-28T08:05:19Z</time>
      </trkpt>
      <trkpt lat="43.3761710" lon="-5.8226690">
        <ele>-57.0</ele>
        <time>2020-01-28T08:05:24Z</time>
      </trkpt>
      <trkpt lat="43.3761960" lon="-5.8226280">
        <ele>-57.0</ele>
        <time>2020-01-28T08:05:27Z</time>
      </trkpt>
      <trkpt lat="43.3762020" lon="-5.8226130">
        <ele>-57.0</ele>
        <time>2020-01-28T08:05:28Z</time>
      </trkpt>
      <trkpt lat="43.3762190" lon="-5.8225450">
        <ele>-56.8</ele>
        <time>2020-01-28T08:05:32Z</time>
      </trkpt>
      <trkpt lat="43.3762310" lon="-5.8224570">
        <ele>-57.0</ele>
        <time>2020-01-28T08:05:37Z</time>
      </trkpt>
      <trkpt lat="43.3762510" lon="-5.8223890">
        <ele>-57.0</ele>
        <time>2020-01-28T08:05:42Z</time>
      </trkpt>
      <trkpt lat="43.3762570" lon="-5.8223830">
        <ele>-57.0</ele>
        <time>2020-01-28T08:05:43Z</time>
      </trkpt>
      <trkpt lat="43.3762840" lon="-5.8223540">
        <ele>-57.0</ele>
        <time>2020-01-28T08:05:47Z</time>
      </trkpt>
      <trkpt lat="43.3763050" lon="-5.8223350">
        <ele>-57.2</ele>
        <time>2020-01-28T08:05:49Z</time>
      </trkpt>
      <trkpt lat="43.3763400" lon="-5.8223020">
        <ele>-57.2</ele>
        <time>2020-01-28T08:05:52Z</time>
      </trkpt>
      <trkpt lat="43.3763950" lon="-5.8222640">
        <ele>-57.6</ele>
        <time>2020-01-28T08:05:56Z</time>
      </trkpt>
      <trkpt lat="43.3764090" lon="-5.8222550">
        <ele>-57.8</ele>
        <time>2020-01-28T08:05:57Z</time>
      </trkpt>
      <trkpt lat="43.3765040" lon="-5.8222090">
        <ele>-58.2</ele>
        <time>2020-01-28T08:06:04Z</time>
      </trkpt>
      <trkpt lat="43.3765170" lon="-5.8222020">
        <ele>-58.4</ele>
        <time>2020-01-28T08:06:05Z</time>
      </trkpt>
      <trkpt lat="43.3765410" lon="-5.8221870">
        <ele>-58.6</ele>
        <time>2020-01-28T08:06:07Z</time>
      </trkpt>
      <trkpt lat="43.3766220" lon="-5.8221450">
        <ele>-58.8</ele>
        <time>2020-01-28T08:06:13Z</time>
      </trkpt>
      <trkpt lat="43.3766350" lon="-5.8221370">
        <ele>-58.8</ele>
        <time>2020-01-28T08:06:14Z</time>
      </trkpt>
      <trkpt lat="43.3766740" lon="-5.8221120">
        <ele>-59.2</ele>
        <time>2020-01-28T08:06:17Z</time>
      </trkpt>
      <trkpt lat="43.3766860" lon="-5.8221030">
        <ele>-59.2</ele>
        <time>2020-01-28T08:06:18Z</time>
      </trkpt>
      <trkpt lat="43.3767410" lon="-5.8220610">
        <ele>-59.8</ele>
        <time>2020-01-28T08:06:23Z</time>
      </trkpt>
      <trkpt lat="43.3767950" lon="-5.8220390">
        <ele>-60.2</ele>
        <time>2020-01-28T08:06:27Z</time>
      </trkpt>
      <trkpt lat="43.3768070" lon="-5.8220320">
        <ele>-60.4</ele>
        <time>2020-01-28T08:06:28Z</time>
      </trkpt>
      <trkpt lat="43.3768550" lon="-5.8220050">
        <ele>-60.8</ele>
        <time>2020-01-28T08:06:32Z</time>
      </trkpt>
      <trkpt lat="43.3769160" lon="-5.8219670">
        <ele>-61.2</ele>
        <time>2020-01-28T08:06:37Z</time>
      </trkpt>
      <trkpt lat="43.3769280" lon="-5.8219600">
        <ele>-61.4</ele>
        <time>2020-01-28T08:06:38Z</time>
      </trkpt>
      <trkpt lat="43.3769740" lon="-5.8219250">
        <ele>-62.0</ele>
        <time>2020-01-28T08:06:42Z</time>
      </trkpt>
      <trkpt lat="43.3770100" lon="-5.8218990">
        <ele>-62.4</ele>
        <time>2020-01-28T08:06:45Z</time>
      </trkpt>
      <trkpt lat="43.3770230" lon="-5.8218910">
        <ele>-62.6</ele>
        <time>2020-01-28T08:06:46Z</time>
      </trkpt>
      <trkpt lat="43.3770910" lon="-5.8218500">
        <ele>-63.0</ele>
        <time>2020-01-28T08:06:51Z</time>
      </trkpt>
      <trkpt lat="43.3771310" lon="-5.8218250">
        <ele>-63.4</ele>
        <time>2020-01-28T08:06:54Z</time>
      </trkpt>
      <trkpt lat="43.3771680" lon="-5.8217990">
        <ele>-63.8</ele>
        <time>2020-01-28T08:06:57Z</time>
      </trkpt>
      <trkpt lat="43.3772220" lon="-5.8217650">
        <ele>-64.2</ele>
        <time>2020-01-28T08:07:01Z</time>
      </trkpt>
      <trkpt lat="43.3772580" lon="-5.8217400">
        <ele>-64.6</ele>
        <time>2020-01-28T08:07:04Z</time>
      </trkpt>
      <trkpt lat="43.3772950" lon="-5.8217160">
        <ele>-64.8</ele>
        <time>2020-01-28T08:07:07Z</time>
      </trkpt>
      <trkpt lat="43.3773580" lon="-5.8216820">
        <ele>-65.6</ele>
        <time>2020-01-28T08:07:12Z</time>
      </trkpt>
      <trkpt lat="43.3774200" lon="-5.8216430">
        <ele>-66.0</ele>
        <time>2020-01-28T08:07:17Z</time>
      </trkpt>
      <trkpt lat="43.3774490" lon="-5.8216270">
        <ele>-66.2</ele>
        <time>2020-01-28T08:07:19Z</time>
      </trkpt>
      <trkpt lat="43.3774800" lon="-5.8216060">
        <ele>-66.8</ele>
        <time>2020-01-28T08:07:22Z</time>
      </trkpt>
      <trkpt lat="43.3775290" lon="-5.8215710">
        <ele>-67.2</ele>
        <time>2020-01-28T08:07:27Z</time>
      </trkpt>
      <trkpt lat="43.3775610" lon="-5.8215540">
        <ele>-67.6</ele>
        <time>2020-01-28T08:07:30Z</time>
      </trkpt>
      <trkpt lat="43.3775910" lon="-5.8215490">
        <ele>-67.8</ele>
        <time>2020-01-28T08:07:33Z</time>
      </trkpt>
      <trkpt lat="43.3776310" lon="-5.8215350">
        <ele>-68.2</ele>
        <time>2020-01-28T08:07:37Z</time>
      </trkpt>
      <trkpt lat="43.3776770" lon="-5.8215130">
        <ele>-68.8</ele>
        <time>2020-01-28T08:07:41Z</time>
      </trkpt>
      <trkpt lat="43.3777620" lon="-5.8214740">
        <ele>-69.6</ele>
        <time>2020-01-28T08:07:47Z</time>
      </trkpt>
      <trkpt lat="43.3778010" lon="-5.8214520">
        <ele>-69.6</ele>
        <time>2020-01-28T08:07:50Z</time>
      </trkpt>
      <trkpt lat="43.3778480" lon="-5.8214180">
        <ele>-69.8</ele>
        <time>2020-01-28T08:07:54Z</time>
      </trkpt>
      <trkpt lat="43.3778590" lon="-5.8214110">
        <ele>-69.8</ele>
        <time>2020-01-28T08:07:55Z</time>
      </trkpt>
      <trkpt lat="43.3778710" lon="-5.8214050">
        <ele>-69.8</ele>
        <time>2020-01-28T08:07:56Z</time>
      </trkpt>
      <trkpt lat="43.3778840" lon="-5.8214020">
        <ele>-70.0</ele>
        <time>2020-01-28T08:07:57Z</time>
      </trkpt>
      <trkpt lat="43.3778990" lon="-5.8213990">
        <ele>-70.0</ele>
        <time>2020-01-28T08:07:58Z</time>
      </trkpt>
      <trkpt lat="43.3779800" lon="-5.8213860">
        <ele>-70.0</ele>
        <time>2020-01-28T08:08:05Z</time>
      </trkpt>
      <trkpt lat="43.3780150" lon="-5.8213960">
        <ele>-69.8</ele>
        <time>2020-01-28T08:08:07Z</time>
      </trkpt>
      <trkpt lat="43.3780960" lon="-5.8214460">
        <ele>-70.0</ele>
        <time>2020-01-28T08:08:14Z</time>
      </trkpt>
      <trkpt lat="43.3781270" lon="-5.8214540">
        <ele>-70.2</ele>
        <time>2020-01-28T08:08:17Z</time>
      </trkpt>
      <trkpt lat="43.3781380" lon="-5.8214420">
        <ele>-70.0</ele>
        <time>2020-01-28T08:08:21Z</time>
      </trkpt>
      <trkpt lat="43.3781390" lon="-5.8214440">
        <ele>-70.0</ele>
        <time>2020-01-28T08:08:22Z</time>
      </trkpt>
      <trkpt lat="43.3781620" lon="-5.8214610">
        <ele>-70.0</ele>
        <time>2020-01-28T08:08:27Z</time>
      </trkpt>
      <trkpt lat="43.3781810" lon="-5.8214740">
        <ele>-70.0</ele>
        <time>2020-01-28T08:08:30Z</time>
      </trkpt>
      <trkpt lat="43.3782180" lon="-5.8214730">
        <ele>-70.0</ele>
        <time>2020-01-28T08:08:35Z</time>
      </trkpt>
      <trkpt lat="43.3782210" lon="-5.8214720">
        <ele>-70.0</ele>
        <time>2020-01-28T08:08:36Z</time>
      </trkpt>
      <trkpt lat="43.3782220" lon="-5.8214710">
        <ele>-70.0</ele>
        <time>2020-01-28T08:08:37Z</time>
      </trkpt>
      <trkpt lat="43.3782290" lon="-5.8214680">
        <ele>-70.0</ele>
        <time>2020-01-28T08:08:39Z</time>
      </trkpt>
      <trkpt lat="43.3782720" lon="-5.8214540">
        <ele>-70.2</ele>
        <time>2020-01-28T08:08:47Z</time>
      </trkpt>
      <trkpt lat="43.3782970" lon="-5.8214470">
        <ele>-70.2</ele>
        <time>2020-01-28T08:08:49Z</time>
      </trkpt>
      <trkpt lat="43.3783280" lon="-5.8214370">
        <ele>-70.4</ele>
        <time>2020-01-28T08:08:52Z</time>
      </trkpt>
      <trkpt lat="43.3783430" lon="-5.8214260">
        <ele>-70.4</ele>
        <time>2020-01-28T08:08:57Z</time>
      </trkpt>
      <trkpt lat="43.3783460" lon="-5.8214240">
        <ele>-70.4</ele>
        <time>2020-01-28T08:08:59Z</time>
      </trkpt>
      <trkpt lat="43.3783700" lon="-5.8214080">
        <ele>-70.4</ele>
        <time>2020-01-28T08:09:07Z</time>
      </trkpt>
      <trkpt lat="43.3783740" lon="-5.8214090">
        <ele>-70.2</ele>
        <time>2020-01-28T08:09:10Z</time>
      </trkpt>
      <trkpt lat="43.3783790" lon="-5.8214070">
        <ele>-70.2</ele>
        <time>2020-01-28T08:09:17Z</time>
      </trkpt>
      <trkpt lat="43.3783790" lon="-5.8214060">
        <ele>-70.4</ele>
        <time>2020-01-28T08:09:23Z</time>
      </trkpt>
      <trkpt lat="43.3784010" lon="-5.8214030">
        <ele>-70.6</ele>
        <time>2020-01-28T08:09:27Z</time>
      </trkpt>
      <trkpt lat="43.3784340" lon="-5.8214100">
        <ele>-70.8</ele>
        <time>2020-01-28T08:09:30Z</time>
      </trkpt>
      <trkpt lat="43.3784450" lon="-5.8214140">
        <ele>-70.8</ele>
        <time>2020-01-28T08:09:31Z</time>
      </trkpt>
      <trkpt lat="43.3784570" lon="-5.8214200">
        <ele>-70.8</ele>
        <time>2020-01-28T08:09:32Z</time>
      </trkpt>
      <trkpt lat="43.3784820" lon="-5.8214310">
        <ele>-71.0</ele>
        <time>2020-01-28T08:09:34Z</time>
      </trkpt>
      <trkpt lat="43.3785190" lon="-5.8214540">
        <ele>-71.2</ele>
        <time>2020-01-28T08:09:37Z</time>
      </trkpt>
      <trkpt lat="43.3785660" lon="-5.8214930">
        <ele>-71.6</ele>
        <time>2020-01-28T08:09:42Z</time>
      </trkpt>
      <trkpt lat="43.3785700" lon="-5.8214990">
        <ele>-71.6</ele>
        <time>2020-01-28T08:09:47Z</time>
      </trkpt>
      <trkpt lat="43.3785770" lon="-5.8214970">
        <ele>-71.6</ele>
        <time>2020-01-28T08:09:52Z</time>
      </trkpt>
      <trkpt lat="43.3785800" lon="-5.8215000">
        <ele>-71.8</ele>
        <time>2020-01-28T08:09:56Z</time>
      </trkpt>
      <trkpt lat="43.3785810" lon="-5.8215010">
        <ele>-71.8</ele>
        <time>2020-01-28T08:09:57Z</time>
      </trkpt>
      <trkpt lat="43.3785810" lon="-5.8215010">
        <ele>-71.8</ele>
        <time>2020-01-28T08:09:58Z</time>
      </trkpt>
      <trkpt lat="43.3786050" lon="-5.8214870">
        <ele>-72.2</ele>
        <time>2020-01-28T08:10:04Z</time>
      </trkpt>
      <trkpt lat="43.3786230" lon="-5.8214540">
        <ele>-72.0</ele>
        <time>2020-01-28T08:10:07Z</time>
      </trkpt>
      <trkpt lat="43.3786350" lon="-5.8214080">
        <ele>-72.0</ele>
        <time>2020-01-28T08:10:10Z</time>
      </trkpt>
      <trkpt lat="43.3786520" lon="-5.8213770">
        <ele>-72.0</ele>
        <time>2020-01-28T08:10:12Z</time>
      </trkpt>
      <trkpt lat="43.3786430" lon="-5.8212940">
        <ele>-72.4</ele>
        <time>2020-01-28T08:10:17Z</time>
      </trkpt>
      <trkpt lat="43.3786310" lon="-5.8212670">
        <ele>-72.4</ele>
        <time>2020-01-28T08:10:19Z</time>
      </trkpt>
      <trkpt lat="43.3785760" lon="-5.8211500">
        <ele>-71.2</ele>
        <time>2020-01-28T08:10:27Z</time>
      </trkpt>
      <trkpt lat="43.3785690" lon="-5.8210950">
        <ele>-71.2</ele>
        <time>2020-01-28T08:10:30Z</time>
      </trkpt>
      <trkpt lat="43.3785680" lon="-5.8210060">
        <ele>-71.6</ele>
        <time>2020-01-28T08:10:35Z</time>
      </trkpt>
      <trkpt lat="43.3785630" lon="-5.8209710">
        <ele>-71.6</ele>
        <time>2020-01-28T08:10:37Z</time>
      </trkpt>
      <trkpt lat="43.3785600" lon="-5.8209140">
        <ele>-71.6</ele>
        <time>2020-01-28T08:10:40Z</time>
      </trkpt>
      <trkpt lat="43.3785490" lon="-5.8207930">
        <ele>-72.2</ele>
        <time>2020-01-28T08:10:47Z</time>
      </trkpt>
      <trkpt lat="43.3785430" lon="-5.8207800">
        <ele>-72.2</ele>
        <time>2020-01-28T08:10:48Z</time>
      </trkpt>
      <trkpt lat="43.3784990" lon="-5.8207290">
        <ele>-71.8</ele>
        <time>2020-01-28T08:10:54Z</time>
      </trkpt>
      <trkpt lat="43.3784690" lon="-5.8207260">
        <ele>-71.8</ele>
        <time>2020-01-28T08:10:57Z</time>
      </trkpt>
      <trkpt lat="43.3784330" lon="-5.8206530">
        <ele>-71.6</ele>
        <time>2020-01-28T08:11:02Z</time>
      </trkpt>
      <trkpt lat="43.3784310" lon="-5.8205360">
        <ele>-71.2</ele>
        <time>2020-01-28T08:11:07Z</time>
      </trkpt>
      <trkpt lat="43.3784310" lon="-5.8205160">
        <ele>-71.2</ele>
        <time>2020-01-28T08:11:08Z</time>
      </trkpt>
      <trkpt lat="43.3784340" lon="-5.8204750">
        <ele>-71.4</ele>
        <time>2020-01-28T08:11:10Z</time>
      </trkpt>
      <trkpt lat="43.3784370" lon="-5.8203430">
        <ele>-72.2</ele>
        <time>2020-01-28T08:11:16Z</time>
      </trkpt>
      <trkpt lat="43.3784370" lon="-5.8203240">
        <ele>-72.2</ele>
        <time>2020-01-28T08:11:17Z</time>
      </trkpt>
      <trkpt lat="43.3784570" lon="-5.8202490">
        <ele>-72.6</ele>
        <time>2020-01-28T08:11:21Z</time>
      </trkpt>
      <trkpt lat="43.3784640" lon="-5.8202070">
        <ele>-72.6</ele>
        <time>2020-01-28T08:11:23Z</time>
      </trkpt>
      <trkpt lat="43.3784870" lon="-5.8201270">
        <ele>-72.8</ele>
        <time>2020-01-28T08:11:27Z</time>
      </trkpt>
      <trkpt lat="43.3784980" lon="-5.8200840">
        <ele>-72.8</ele>
        <time>2020-01-28T08:11:30Z</time>
      </trkpt>
      <trkpt lat="43.3785010" lon="-5.8200720">
        <ele>-72.8</ele>
        <time>2020-01-28T08:11:31Z</time>
      </trkpt>
      <trkpt lat="43.3785020" lon="-5.8200540">
        <ele>-73.0</ele>
        <time>2020-01-28T08:11:32Z</time>
      </trkpt>
      <trkpt lat="43.3785100" lon="-5.8199620">
        <ele>-73.4</ele>
        <time>2020-01-28T08:11:37Z</time>
      </trkpt>
      <trkpt lat="43.3785170" lon="-5.8199260">
        <ele>-73.4</ele>
        <time>2020-01-28T08:11:39Z</time>
      </trkpt>
      <trkpt lat="43.3785350" lon="-5.8197920">
        <ele>-73.4</ele>
        <time>2020-01-28T08:11:46Z</time>
      </trkpt>
      <trkpt lat="43.3785380" lon="-5.8197720">
        <ele>-73.4</ele>
        <time>2020-01-28T08:11:47Z</time>
      </trkpt>
      <trkpt lat="43.3785440" lon="-5.8196280">
        <ele>-73.8</ele>
        <time>2020-01-28T08:11:55Z</time>
      </trkpt>
      <trkpt lat="43.3785440" lon="-5.8195920">
        <ele>-74.0</ele>
        <time>2020-01-28T08:11:57Z</time>
      </trkpt>
      <trkpt lat="43.3785490" lon="-5.8195550">
        <ele>-74.2</ele>
        <time>2020-01-28T08:11:59Z</time>
      </trkpt>
      <trkpt lat="43.3785640" lon="-5.8194880">
        <ele>-74.4</ele>
        <time>2020-01-28T08:12:03Z</time>
      </trkpt>
      <trkpt lat="43.3785700" lon="-5.8194540">
        <ele>-74.6</ele>
        <time>2020-01-28T08:12:05Z</time>
      </trkpt>
      <trkpt lat="43.3785720" lon="-5.8194190">
        <ele>-74.8</ele>
        <time>2020-01-28T08:12:07Z</time>
      </trkpt>
      <trkpt lat="43.3785880" lon="-5.8193510">
        <ele>-75.0</ele>
        <time>2020-01-28T08:12:11Z</time>
      </trkpt>
      <trkpt lat="43.3785910" lon="-5.8193310">
        <ele>-75.0</ele>
        <time>2020-01-28T08:12:12Z</time>
      </trkpt>
      <trkpt lat="43.3786330" lon="-5.8192440">
        <ele>-75.2</ele>
        <time>2020-01-28T08:12:17Z</time>
      </trkpt>
      <trkpt lat="43.3786460" lon="-5.8192110">
        <ele>-75.2</ele>
        <time>2020-01-28T08:12:19Z</time>
      </trkpt>
      <trkpt lat="43.3786480" lon="-5.8191890">
        <ele>-75.4</ele>
        <time>2020-01-28T08:12:20Z</time>
      </trkpt>
      <trkpt lat="43.3786640" lon="-5.8190880">
        <ele>-75.6</ele>
        <time>2020-01-28T08:12:25Z</time>
      </trkpt>
      <trkpt lat="43.3786750" lon="-5.8190450">
        <ele>-75.4</ele>
        <time>2020-01-28T08:12:27Z</time>
      </trkpt>
      <trkpt lat="43.3786810" lon="-5.8190080">
        <ele>-75.4</ele>
        <time>2020-01-28T08:12:29Z</time>
      </trkpt>
      <trkpt lat="43.3787060" lon="-5.8189150">
        <ele>-75.6</ele>
        <time>2020-01-28T08:12:34Z</time>
      </trkpt>
      <trkpt lat="43.3787180" lon="-5.8188520">
        <ele>-76.0</ele>
        <time>2020-01-28T08:12:37Z</time>
      </trkpt>
      <trkpt lat="43.3787190" lon="-5.8188070">
        <ele>-76.0</ele>
        <time>2020-01-28T08:12:39Z</time>
      </trkpt>
      <trkpt lat="43.3787190" lon="-5.8187890">
        <ele>-75.8</ele>
        <time>2020-01-28T08:12:40Z</time>
      </trkpt>
      <trkpt lat="43.3787320" lon="-5.8187210">
        <ele>-76.2</ele>
        <time>2020-01-28T08:12:44Z</time>
      </trkpt>
      <trkpt lat="43.3787200" lon="-5.8186630">
        <ele>-76.4</ele>
        <time>2020-01-28T08:12:47Z</time>
      </trkpt>
      <trkpt lat="43.3787160" lon="-5.8186220">
        <ele>-76.6</ele>
        <time>2020-01-28T08:12:49Z</time>
      </trkpt>
      <trkpt lat="43.3787300" lon="-5.8184910">
        <ele>-76.8</ele>
        <time>2020-01-28T08:12:55Z</time>
      </trkpt>
      <trkpt lat="43.3787360" lon="-5.8184460">
        <ele>-77.0</ele>
        <time>2020-01-28T08:12:57Z</time>
      </trkpt>
      <trkpt lat="43.3787450" lon="-5.8184080">
        <ele>-77.2</ele>
        <time>2020-01-28T08:12:59Z</time>
      </trkpt>
      <trkpt lat="43.3787590" lon="-5.8183710">
        <ele>-77.4</ele>
        <time>2020-01-28T08:13:01Z</time>
      </trkpt>
      <trkpt lat="43.3787790" lon="-5.8182520">
        <ele>-77.8</ele>
        <time>2020-01-28T08:13:07Z</time>
      </trkpt>
      <trkpt lat="43.3787850" lon="-5.8182100">
        <ele>-77.8</ele>
        <time>2020-01-28T08:13:09Z</time>
      </trkpt>
      <trkpt lat="43.3788020" lon="-5.8180830">
        <ele>-78.2</ele>
        <time>2020-01-28T08:13:15Z</time>
      </trkpt>
      <trkpt lat="43.3788080" lon="-5.8180410">
        <ele>-78.4</ele>
        <time>2020-01-28T08:13:17Z</time>
      </trkpt>
      <trkpt lat="43.3788440" lon="-5.8178670">
        <ele>-78.2</ele>
        <time>2020-01-28T08:13:26Z</time>
      </trkpt>
      <trkpt lat="43.3788560" lon="-5.8178500">
        <ele>-78.4</ele>
        <time>2020-01-28T08:13:27Z</time>
      </trkpt>
      <trkpt lat="43.3789700" lon="-5.8177760">
        <ele>-78.2</ele>
        <time>2020-01-28T08:13:35Z</time>
      </trkpt>
      <trkpt lat="43.3790050" lon="-5.8177620">
        <ele>-78.0</ele>
        <time>2020-01-28T08:13:37Z</time>
      </trkpt>
      <trkpt lat="43.3790770" lon="-5.8177290">
        <ele>-78.2</ele>
        <time>2020-01-28T08:13:42Z</time>
      </trkpt>
      <trkpt lat="43.3791410" lon="-5.8177070">
        <ele>-78.4</ele>
        <time>2020-01-28T08:13:47Z</time>
      </trkpt>
      <trkpt lat="43.3791610" lon="-5.8176930">
        <ele>-78.4</ele>
        <time>2020-01-28T08:13:49Z</time>
      </trkpt>
      <trkpt lat="43.3791710" lon="-5.8176810">
        <ele>-78.4</ele>
        <time>2020-01-28T08:13:50Z</time>
      </trkpt>
      <trkpt lat="43.3791870" lon="-5.8176280">
        <ele>-78.8</ele>
        <time>2020-01-28T08:13:54Z</time>
      </trkpt>
      <trkpt lat="43.3791870" lon="-5.8176100">
        <ele>-78.8</ele>
        <time>2020-01-28T08:13:55Z</time>
      </trkpt>
      <trkpt lat="43.3791920" lon="-5.8175740">
        <ele>-79.0</ele>
        <time>2020-01-28T08:13:57Z</time>
      </trkpt>
      <trkpt lat="43.3791960" lon="-5.8175220">
        <ele>-78.6</ele>
        <time>2020-01-28T08:14:00Z</time>
      </trkpt>
      <trkpt lat="43.3792030" lon="-5.8175020">
        <ele>-78.2</ele>
        <time>2020-01-28T08:14:01Z</time>
      </trkpt>
      <trkpt lat="43.3792290" lon="-5.8174180">
        <ele>-78.0</ele>
        <time>2020-01-28T08:14:05Z</time>
      </trkpt>
      <trkpt lat="43.3792420" lon="-5.8173760">
        <ele>-78.2</ele>
        <time>2020-01-28T08:14:07Z</time>
      </trkpt>
      <trkpt lat="43.3792580" lon="-5.8172780">
        <ele>-78.8</ele>
        <time>2020-01-28T08:14:12Z</time>
      </trkpt>
      <trkpt lat="43.3792630" lon="-5.8172420">
        <ele>-78.6</ele>
        <time>2020-01-28T08:14:14Z</time>
      </trkpt>
      <trkpt lat="43.3792730" lon="-5.8171910">
        <ele>-78.8</ele>
        <time>2020-01-28T08:14:17Z</time>
      </trkpt>
      <trkpt lat="43.3792710" lon="-5.8171250">
        <ele>-79.4</ele>
        <time>2020-01-28T08:14:20Z</time>
      </trkpt>
      <trkpt lat="43.3792730" lon="-5.8170330">
        <ele>-79.6</ele>
        <time>2020-01-28T08:14:25Z</time>
      </trkpt>
      <trkpt lat="43.3792670" lon="-5.8170180">
        <ele>-79.6</ele>
        <time>2020-01-28T08:14:26Z</time>
      </trkpt>
      <trkpt lat="43.3792620" lon="-5.8170060">
        <ele>-79.6</ele>
        <time>2020-01-28T08:14:27Z</time>
      </trkpt>
      <trkpt lat="43.3792540" lon="-5.8169950">
        <ele>-79.6</ele>
        <time>2020-01-28T08:14:28Z</time>
      </trkpt>
      <trkpt lat="43.3792480" lon="-5.8169870">
        <ele>-79.6</ele>
        <time>2020-01-28T08:14:29Z</time>
      </trkpt>
      <trkpt lat="43.3792150" lon="-5.8169470">
        <ele>-79.4</ele>
        <time>2020-01-28T08:14:33Z</time>
      </trkpt>
      <trkpt lat="43.3791780" lon="-5.8168930">
        <ele>-79.6</ele>
        <time>2020-01-28T08:14:37Z</time>
      </trkpt>
      <trkpt lat="43.3791420" lon="-5.8168550">
        <ele>-79.8</ele>
        <time>2020-01-28T08:14:40Z</time>
      </trkpt>
      <trkpt lat="43.3790590" lon="-5.8167770">
        <ele>-79.8</ele>
        <time>2020-01-28T08:14:47Z</time>
      </trkpt>
      <trkpt lat="43.3790330" lon="-5.8167580">
        <ele>-79.8</ele>
        <time>2020-01-28T08:14:49Z</time>
      </trkpt>
      <trkpt lat="43.3789650" lon="-5.8167210">
        <ele>-79.6</ele>
        <time>2020-01-28T08:14:54Z</time>
      </trkpt>
      <trkpt lat="43.3789250" lon="-5.8167040">
        <ele>-79.4</ele>
        <time>2020-01-28T08:14:57Z</time>
      </trkpt>
      <trkpt lat="43.3788970" lon="-5.8166860">
        <ele>-79.6</ele>
        <time>2020-01-28T08:14:59Z</time>
      </trkpt>
      <trkpt lat="43.3788790" lon="-5.8166280">
        <ele>-79.8</ele>
        <time>2020-01-28T08:15:02Z</time>
      </trkpt>
      <trkpt lat="43.3788570" lon="-5.8165220">
        <ele>-79.4</ele>
        <time>2020-01-28T08:15:07Z</time>
      </trkpt>
      <trkpt lat="43.3788430" lon="-5.8164560">
        <ele>-79.6</ele>
        <time>2020-01-28T08:15:10Z</time>
      </trkpt>
      <trkpt lat="43.3788120" lon="-5.8163320">
        <ele>-80.4</ele>
        <time>2020-01-28T08:15:16Z</time>
      </trkpt>
      <trkpt lat="43.3788070" lon="-5.8163130">
        <ele>-80.6</ele>
        <time>2020-01-28T08:15:17Z</time>
      </trkpt>
      <trkpt lat="43.3787890" lon="-5.8162570">
        <ele>-80.8</ele>
        <time>2020-01-28T08:15:20Z</time>
      </trkpt>
      <trkpt lat="43.3787580" lon="-5.8161190">
        <ele>-80.8</ele>
        <time>2020-01-28T08:15:27Z</time>
      </trkpt>
      <trkpt lat="43.3787560" lon="-5.8160800">
        <ele>-81.0</ele>
        <time>2020-01-28T08:15:29Z</time>
      </trkpt>
      <trkpt lat="43.3787460" lon="-5.8160010">
        <ele>-81.4</ele>
        <time>2020-01-28T08:15:33Z</time>
      </trkpt>
      <trkpt lat="43.3787460" lon="-5.8159840">
        <ele>-81.4</ele>
        <time>2020-01-28T08:15:34Z</time>
      </trkpt>
      <trkpt lat="43.3787410" lon="-5.8159510">
        <ele>-81.6</ele>
        <time>2020-01-28T08:15:36Z</time>
      </trkpt>
      <trkpt lat="43.3787350" lon="-5.8159300">
        <ele>-81.6</ele>
        <time>2020-01-28T08:15:37Z</time>
      </trkpt>
      <trkpt lat="43.3787240" lon="-5.8158530">
        <ele>-81.8</ele>
        <time>2020-01-28T08:15:41Z</time>
      </trkpt>
      <trkpt lat="43.3787180" lon="-5.8158320">
        <ele>-81.8</ele>
        <time>2020-01-28T08:15:42Z</time>
      </trkpt>
      <trkpt lat="43.3786970" lon="-5.8157300">
        <ele>-82.6</ele>
        <time>2020-01-28T08:15:47Z</time>
      </trkpt>
      <trkpt lat="43.3787020" lon="-5.8156680">
        <ele>-83.0</ele>
        <time>2020-01-28T08:15:50Z</time>
      </trkpt>
      <trkpt lat="43.3786990" lon="-5.8155300">
        <ele>-83.2</ele>
        <time>2020-01-28T08:15:57Z</time>
      </trkpt>
      <trkpt lat="43.3786950" lon="-5.8154380">
        <ele>-83.6</ele>
        <time>2020-01-28T08:16:02Z</time>
      </trkpt>
      <trkpt lat="43.3786940" lon="-5.8154220">
        <ele>-83.8</ele>
        <time>2020-01-28T08:16:03Z</time>
      </trkpt>
      <trkpt lat="43.3786890" lon="-5.8154090">
        <ele>-84.0</ele>
        <time>2020-01-28T08:16:04Z</time>
      </trkpt>
      <trkpt lat="43.3786900" lon="-5.8153960">
        <ele>-84.2</ele>
        <time>2020-01-28T08:16:05Z</time>
      </trkpt>
      <trkpt lat="43.3786900" lon="-5.8153840">
        <ele>-84.2</ele>
        <time>2020-01-28T08:16:06Z</time>
      </trkpt>
      <trkpt lat="43.3786850" lon="-5.8153730">
        <ele>-84.2</ele>
        <time>2020-01-28T08:16:07Z</time>
      </trkpt>
      <trkpt lat="43.3786630" lon="-5.8153470">
        <ele>-84.2</ele>
        <time>2020-01-28T08:16:10Z</time>
      </trkpt>
      <trkpt lat="43.3786300" lon="-5.8153080">
        <ele>-83.8</ele>
        <time>2020-01-28T08:16:14Z</time>
      </trkpt>
      <trkpt lat="43.3786200" lon="-5.8153010">
        <ele>-83.8</ele>
        <time>2020-01-28T08:16:16Z</time>
      </trkpt>
      <trkpt lat="43.3786170" lon="-5.8152930">
        <ele>-83.8</ele>
        <time>2020-01-28T08:16:17Z</time>
      </trkpt>
      <trkpt lat="43.3786140" lon="-5.8152800">
        <ele>-83.8</ele>
        <time>2020-01-28T08:16:18Z</time>
      </trkpt>
      <trkpt lat="43.3786130" lon="-5.8152510">
        <ele>-83.8</ele>
        <time>2020-01-28T08:16:20Z</time>
      </trkpt>
      <trkpt lat="43.3786370" lon="-5.8151910">
        <ele>-84.0</ele>
        <time>2020-01-28T08:16:23Z</time>
      </trkpt>
      <trkpt lat="43.3786830" lon="-5.8151210">
        <ele>-84.4</ele>
        <time>2020-01-28T08:16:27Z</time>
      </trkpt>
      <trkpt lat="43.3787050" lon="-5.8150990">
        <ele>-84.6</ele>
        <time>2020-01-28T08:16:29Z</time>
      </trkpt>
      <trkpt lat="43.3787170" lon="-5.8150920">
        <ele>-84.8</ele>
        <time>2020-01-28T08:16:30Z</time>
      </trkpt>
      <trkpt lat="43.3787680" lon="-5.8150800">
        <ele>-85.0</ele>
        <time>2020-01-28T08:16:34Z</time>
      </trkpt>
      <trkpt lat="43.3787940" lon="-5.8150630">
        <ele>-84.8</ele>
        <time>2020-01-28T08:16:36Z</time>
      </trkpt>
      <trkpt lat="43.3788080" lon="-5.8150570">
        <ele>-84.8</ele>
        <time>2020-01-28T08:16:37Z</time>
      </trkpt>
      <trkpt lat="43.3788210" lon="-5.8150500">
        <ele>-84.8</ele>
        <time>2020-01-28T08:16:38Z</time>
      </trkpt>
      <trkpt lat="43.3788850" lon="-5.8150170">
        <ele>-85.0</ele>
        <time>2020-01-28T08:16:43Z</time>
      </trkpt>
      <trkpt lat="43.3789070" lon="-5.8150090">
        <ele>-85.0</ele>
        <time>2020-01-28T08:16:45Z</time>
      </trkpt>
      <trkpt lat="43.3789350" lon="-5.8150020">
        <ele>-85.0</ele>
        <time>2020-01-28T08:16:47Z</time>
      </trkpt>
      <trkpt lat="43.3790270" lon="-5.8149600">
        <ele>-85.4</ele>
        <time>2020-01-28T08:16:53Z</time>
      </trkpt>
      <trkpt lat="43.3790880" lon="-5.8149210">
        <ele>-85.6</ele>
        <time>2020-01-28T08:16:57Z</time>
      </trkpt>
      <trkpt lat="43.3791140" lon="-5.8149050">
        <ele>-85.8</ele>
        <time>2020-01-28T08:16:59Z</time>
      </trkpt>
      <trkpt lat="43.3791520" lon="-5.8148850">
        <ele>-86.2</ele>
        <time>2020-01-28T08:17:02Z</time>
      </trkpt>
      <trkpt lat="43.3792220" lon="-5.8148480">
        <ele>-86.4</ele>
        <time>2020-01-28T08:17:07Z</time>
      </trkpt>
      <trkpt lat="43.3793100" lon="-5.8148220">
        <ele>-86.2</ele>
        <time>2020-01-28T08:17:13Z</time>
      </trkpt>
      <trkpt lat="43.3793600" lon="-5.8148070">
        <ele>-86.0</ele>
        <time>2020-01-28T08:17:17Z</time>
      </trkpt>
      <trkpt lat="43.3793990" lon="-5.8148020">
        <ele>-86.2</ele>
        <time>2020-01-28T08:17:20Z</time>
      </trkpt>
      <trkpt lat="43.3794110" lon="-5.8147970">
        <ele>-86.4</ele>
        <time>2020-01-28T08:17:21Z</time>
      </trkpt>
      <trkpt lat="43.3794470" lon="-5.8147850">
        <ele>-86.8</ele>
        <time>2020-01-28T08:17:24Z</time>
      </trkpt>
      <trkpt lat="43.3794660" lon="-5.8147750">
        <ele>-87.0</ele>
        <time>2020-01-28T08:17:26Z</time>
      </trkpt>
      <trkpt lat="43.3794780" lon="-5.8147710">
        <ele>-87.0</ele>
        <time>2020-01-28T08:17:27Z</time>
      </trkpt>
      <trkpt lat="43.3795970" lon="-5.8147190">
        <ele>-86.8</ele>
        <time>2020-01-28T08:17:35Z</time>
      </trkpt>
      <trkpt lat="43.3796240" lon="-5.8147060">
        <ele>-86.8</ele>
        <time>2020-01-28T08:17:37Z</time>
      </trkpt>
      <trkpt lat="43.3797150" lon="-5.8146800">
        <ele>-87.0</ele>
        <time>2020-01-28T08:17:43Z</time>
      </trkpt>
      <trkpt lat="43.3797460" lon="-5.8146700">
        <ele>-87.2</ele>
        <time>2020-01-28T08:17:45Z</time>
      </trkpt>
      <trkpt lat="43.3797770" lon="-5.8146590">
        <ele>-87.4</ele>
        <time>2020-01-28T08:17:47Z</time>
      </trkpt>
      <trkpt lat="43.3798200" lon="-5.8146420">
        <ele>-87.6</ele>
        <time>2020-01-28T08:17:50Z</time>
      </trkpt>
      <trkpt lat="43.3798370" lon="-5.8146380">
        <ele>-87.6</ele>
        <time>2020-01-28T08:17:51Z</time>
      </trkpt>
      <trkpt lat="43.3798650" lon="-5.8146270">
        <ele>-87.6</ele>
        <time>2020-01-28T08:17:53Z</time>
      </trkpt>
      <trkpt lat="43.3799240" lon="-5.8146180">
        <ele>-87.8</ele>
        <time>2020-01-28T08:17:57Z</time>
      </trkpt>
      <trkpt lat="43.3799870" lon="-5.8146000">
        <ele>-87.8</ele>
        <time>2020-01-28T08:18:01Z</time>
      </trkpt>
      <trkpt lat="43.3800660" lon="-5.8145680">
        <ele>-87.6</ele>
        <time>2020-01-28T08:18:07Z</time>
      </trkpt>
      <trkpt lat="43.3800780" lon="-5.8145660">
        <ele>-87.6</ele>
        <time>2020-01-28T08:18:08Z</time>
      </trkpt>
      <trkpt lat="43.3802040" lon="-5.8146100">
        <ele>-87.2</ele>
        <time>2020-01-28T08:18:17Z</time>
      </trkpt>
      <trkpt lat="43.3803240" lon="-5.8146630">
        <ele>-86.2</ele>
        <time>2020-01-28T08:18:26Z</time>
      </trkpt>
      <trkpt lat="43.3803360" lon="-5.8146700">
        <ele>-86.0</ele>
        <time>2020-01-28T08:18:27Z</time>
      </trkpt>
      <trkpt lat="43.3803630" lon="-5.8146800">
        <ele>-85.8</ele>
        <time>2020-01-28T08:18:29Z</time>
      </trkpt>
      <trkpt lat="43.3803890" lon="-5.8146960">
        <ele>-85.6</ele>
        <time>2020-01-28T08:18:32Z</time>
      </trkpt>
      <trkpt lat="43.3804040" lon="-5.8147100">
        <ele>-85.6</ele>
        <time>2020-01-28T08:18:34Z</time>
      </trkpt>
      <trkpt lat="43.3804470" lon="-5.8147110">
        <ele>-85.4</ele>
        <time>2020-01-28T08:18:37Z</time>
      </trkpt>
      <trkpt lat="43.3804590" lon="-5.8147130">
        <ele>-85.4</ele>
        <time>2020-01-28T08:18:38Z</time>
      </trkpt>
      <trkpt lat="43.3804710" lon="-5.8147170">
        <ele>-85.4</ele>
        <time>2020-01-28T08:18:39Z</time>
      </trkpt>
      <trkpt lat="43.3804840" lon="-5.8147230">
        <ele>-85.2</ele>
        <time>2020-01-28T08:18:40Z</time>
      </trkpt>
      <trkpt lat="43.3805060" lon="-5.8147460">
        <ele>-85.2</ele>
        <time>2020-01-28T08:18:42Z</time>
      </trkpt>
      <trkpt lat="43.3805500" lon="-5.8147900">
        <ele>-85.0</ele>
        <time>2020-01-28T08:18:46Z</time>
      </trkpt>
      <trkpt lat="43.3805630" lon="-5.8147960">
        <ele>-85.0</ele>
        <time>2020-01-28T08:18:47Z</time>
      </trkpt>
      <trkpt lat="43.3806450" lon="-5.8148190">
        <ele>-85.0</ele>
        <time>2020-01-28T08:18:53Z</time>
      </trkpt>
      <trkpt lat="43.3806770" lon="-5.8147990">
        <ele>-85.2</ele>
        <time>2020-01-28T08:18:55Z</time>
      </trkpt>
      <trkpt lat="43.3806990" lon="-5.8147530">
        <ele>-85.4</ele>
        <time>2020-01-28T08:18:57Z</time>
      </trkpt>
      <trkpt lat="43.3807220" lon="-5.8147010">
        <ele>-85.6</ele>
        <time>2020-01-28T08:19:00Z</time>
      </trkpt>
      <trkpt lat="43.3807350" lon="-5.8146950">
        <ele>-85.8</ele>
        <time>2020-01-28T08:19:01Z</time>
      </trkpt>
      <trkpt lat="43.3807860" lon="-5.8146660">
        <ele>-86.8</ele>
        <time>2020-01-28T08:19:05Z</time>
      </trkpt>
      <trkpt lat="43.3808150" lon="-5.8146610">
        <ele>-87.4</ele>
        <time>2020-01-28T08:19:07Z</time>
      </trkpt>
      <trkpt lat="43.3808570" lon="-5.8146680">
        <ele>-87.8</ele>
        <time>2020-01-28T08:19:10Z</time>
      </trkpt>
      <trkpt lat="43.3808700" lon="-5.8146740">
        <ele>-88.0</ele>
        <time>2020-01-28T08:19:11Z</time>
      </trkpt>
      <trkpt lat="43.3809360" lon="-5.8147050">
        <ele>-88.8</ele>
        <time>2020-01-28T08:19:17Z</time>
      </trkpt>
      <trkpt lat="43.3809620" lon="-5.8146550">
        <ele>-89.0</ele>
        <time>2020-01-28T08:19:20Z</time>
      </trkpt>
      <trkpt lat="43.3809990" lon="-5.8146230">
        <ele>-89.6</ele>
        <time>2020-01-28T08:19:23Z</time>
      </trkpt>
      <trkpt lat="43.3810180" lon="-5.8146160">
        <ele>-90.2</ele>
        <time>2020-01-28T08:19:25Z</time>
      </trkpt>
      <trkpt lat="43.3810430" lon="-5.8146130">
        <ele>-90.6</ele>
        <time>2020-01-28T08:19:27Z</time>
      </trkpt>
      <trkpt lat="43.3810720" lon="-5.8146090">
        <ele>-90.8</ele>
        <time>2020-01-28T08:19:29Z</time>
      </trkpt>
      <trkpt lat="43.3811280" lon="-5.8145840">
        <ele>-91.4</ele>
        <time>2020-01-28T08:19:33Z</time>
      </trkpt>
      <trkpt lat="43.3811670" lon="-5.8145330">
        <ele>-92.2</ele>
        <time>2020-01-28T08:19:36Z</time>
      </trkpt>
      <trkpt lat="43.3811750" lon="-5.8145130">
        <ele>-92.4</ele>
        <time>2020-01-28T08:19:37Z</time>
      </trkpt>
      <trkpt lat="43.3811810" lon="-5.8144960">
        <ele>-92.6</ele>
        <time>2020-01-28T08:19:38Z</time>
      </trkpt>
      <trkpt lat="43.3811910" lon="-5.8144350">
        <ele>-93.0</ele>
        <time>2020-01-28T08:19:42Z</time>
      </trkpt>
      <trkpt lat="43.3812090" lon="-5.8143430">
        <ele>-93.6</ele>
        <time>2020-01-28T08:19:46Z</time>
      </trkpt>
      <trkpt lat="43.3812130" lon="-5.8143220">
        <ele>-93.8</ele>
        <time>2020-01-28T08:19:47Z</time>
      </trkpt>
      <trkpt lat="43.3812310" lon="-5.8142660">
        <ele>-94.4</ele>
        <time>2020-01-28T08:19:50Z</time>
      </trkpt>
      <trkpt lat="43.3812400" lon="-5.8142500">
        <ele>-94.6</ele>
        <time>2020-01-28T08:19:51Z</time>
      </trkpt>
      <trkpt lat="43.3812590" lon="-5.8142290">
        <ele>-95.0</ele>
        <time>2020-01-28T08:19:53Z</time>
      </trkpt>
      <trkpt lat="43.3812690" lon="-5.8142160">
        <ele>-95.4</ele>
        <time>2020-01-28T08:19:56Z</time>
      </trkpt>
      <trkpt lat="43.3812770" lon="-5.8142100">
        <ele>-95.6</ele>
        <time>2020-01-28T08:19:57Z</time>
      </trkpt>
      <trkpt lat="43.3812890" lon="-5.8142050">
        <ele>-95.6</ele>
        <time>2020-01-28T08:19:58Z</time>
      </trkpt>
      <trkpt lat="43.3813140" lon="-5.8141960">
        <ele>-96.0</ele>
        <time>2020-01-28T08:20:00Z</time>
      </trkpt>
      <trkpt lat="43.3813280" lon="-5.8141940">
        <ele>-96.2</ele>
        <time>2020-01-28T08:20:01Z</time>
      </trkpt>
      <trkpt lat="43.3813590" lon="-5.8141890">
        <ele>-96.8</ele>
        <time>2020-01-28T08:20:03Z</time>
      </trkpt>
      <trkpt lat="43.3813900" lon="-5.8141740">
        <ele>-97.0</ele>
        <time>2020-01-28T08:20:06Z</time>
      </trkpt>
      <trkpt lat="43.3813950" lon="-5.8141650">
        <ele>-97.0</ele>
        <time>2020-01-28T08:20:07Z</time>
      </trkpt>
      <trkpt lat="43.3814150" lon="-5.8141640">
        <ele>-97.0</ele>
        <time>2020-01-28T08:20:09Z</time>
      </trkpt>
      <trkpt lat="43.3814760" lon="-5.8141320">
        <ele>-97.4</ele>
        <time>2020-01-28T08:20:14Z</time>
      </trkpt>
      <trkpt lat="43.3814930" lon="-5.8141310">
        <ele>-97.8</ele>
        <time>2020-01-28T08:20:16Z</time>
      </trkpt>
      <trkpt lat="43.3815050" lon="-5.8141280">
        <ele>-98.0</ele>
        <time>2020-01-28T08:20:17Z</time>
      </trkpt>
      <trkpt lat="43.3815810" lon="-5.8141030">
        <ele>-98.8</ele>
        <time>2020-01-28T08:20:22Z</time>
      </trkpt>
      <trkpt lat="43.3815960" lon="-5.8140970">
        <ele>-99.0</ele>
        <time>2020-01-28T08:20:23Z</time>
      </trkpt>
      <trkpt lat="43.3816530" lon="-5.8140790">
        <ele>-99.4</ele>
        <time>2020-01-28T08:20:27Z</time>
      </trkpt>
      <trkpt lat="43.3817280" lon="-5.8140630">
        <ele>-99.6</ele>
        <time>2020-01-28T08:20:32Z</time>
      </trkpt>
      <trkpt lat="43.3818080" lon="-5.8140550">
        <ele>-99.8</ele>
        <time>2020-01-28T08:20:37Z</time>
      </trkpt>
      <trkpt lat="43.3818700" lon="-5.8140480">
        <ele>-100.8</ele>
        <time>2020-01-28T08:20:41Z</time>
      </trkpt>
      <trkpt lat="43.3818870" lon="-5.8140470">
        <ele>-101.0</ele>
        <time>2020-01-28T08:20:42Z</time>
      </trkpt>
      <trkpt lat="43.3819640" lon="-5.8140380">
        <ele>-101.0</ele>
        <time>2020-01-28T08:20:47Z</time>
      </trkpt>
      <trkpt lat="43.3820230" lon="-5.8140310">
        <ele>-101.0</ele>
        <time>2020-01-28T08:20:51Z</time>
      </trkpt>
      <trkpt lat="43.3820390" lon="-5.8140230">
        <ele>-101.2</ele>
        <time>2020-01-28T08:20:52Z</time>
      </trkpt>
      <trkpt lat="43.3820810" lon="-5.8140120">
        <ele>-101.8</ele>
        <time>2020-01-28T08:20:55Z</time>
      </trkpt>
      <trkpt lat="43.3820970" lon="-5.8140110">
        <ele>-102.2</ele>
        <time>2020-01-28T08:20:56Z</time>
      </trkpt>
      <trkpt lat="43.3821080" lon="-5.8140100">
        <ele>-102.6</ele>
        <time>2020-01-28T08:20:57Z</time>
      </trkpt>
      <trkpt lat="43.3821370" lon="-5.8140020">
        <ele>-103.0</ele>
        <time>2020-01-28T08:20:59Z</time>
      </trkpt>
      <trkpt lat="43.3822640" lon="-5.8139550">
        <ele>-103.2</ele>
        <time>2020-01-28T08:21:07Z</time>
      </trkpt>
      <trkpt lat="43.3822800" lon="-5.8139490">
        <ele>-103.6</ele>
        <time>2020-01-28T08:21:08Z</time>
      </trkpt>
      <trkpt lat="43.3822950" lon="-5.8139410">
        <ele>-103.8</ele>
        <time>2020-01-28T08:21:09Z</time>
      </trkpt>
      <trkpt lat="43.3823460" lon="-5.8139210">
        <ele>-104.6</ele>
        <time>2020-01-28T08:21:12Z</time>
      </trkpt>
      <trkpt lat="43.3824140" lon="-5.8138880">
        <ele>-105.0</ele>
        <time>2020-01-28T08:21:16Z</time>
      </trkpt>
      <trkpt lat="43.3824290" lon="-5.8138810">
        <ele>-105.2</ele>
        <time>2020-01-28T08:21:17Z</time>
      </trkpt>
      <trkpt lat="43.3824450" lon="-5.8138740">
        <ele>-105.2</ele>
        <time>2020-01-28T08:21:18Z</time>
      </trkpt>
      <trkpt lat="43.3824780" lon="-5.8138550">
        <ele>-105.2</ele>
        <time>2020-01-28T08:21:20Z</time>
      </trkpt>
      <trkpt lat="43.3824950" lon="-5.8138460">
        <ele>-105.2</ele>
        <time>2020-01-28T08:21:21Z</time>
      </trkpt>
      <trkpt lat="43.3825380" lon="-5.8138180">
        <ele>-105.6</ele>
        <time>2020-01-28T08:21:24Z</time>
      </trkpt>
      <trkpt lat="43.3825840" lon="-5.8137950">
        <ele>-106.2</ele>
        <time>2020-01-28T08:21:27Z</time>
      </trkpt>
      <trkpt lat="43.3826240" lon="-5.8137630">
        <ele>-106.6</ele>
        <time>2020-01-28T08:21:30Z</time>
      </trkpt>
      <trkpt lat="43.3826810" lon="-5.8137400">
        <ele>-107.0</ele>
        <time>2020-01-28T08:21:34Z</time>
      </trkpt>
      <trkpt lat="43.3827210" lon="-5.8137170">
        <ele>-107.0</ele>
        <time>2020-01-28T08:21:37Z</time>
      </trkpt>
      <trkpt lat="43.3827980" lon="-5.8136710">
        <ele>-107.4</ele>
        <time>2020-01-28T08:21:42Z</time>
      </trkpt>
      <trkpt lat="43.3828290" lon="-5.8136510">
        <ele>-107.8</ele>
        <time>2020-01-28T08:21:44Z</time>
      </trkpt>
      <trkpt lat="43.3828780" lon="-5.8136180">
        <ele>-107.8</ele>
        <time>2020-01-28T08:21:47Z</time>
      </trkpt>
      <trkpt lat="43.3828890" lon="-5.8136060">
        <ele>-107.8</ele>
        <time>2020-01-28T08:21:48Z</time>
      </trkpt>
      <trkpt lat="43.3828970" lon="-5.8135820">
        <ele>-107.8</ele>
        <time>2020-01-28T08:21:50Z</time>
      </trkpt>
      <trkpt lat="43.3829040" lon="-5.8135730">
        <ele>-108.0</ele>
        <time>2020-01-28T08:21:51Z</time>
      </trkpt>
      <trkpt lat="43.3829610" lon="-5.8135400">
        <ele>-108.4</ele>
        <time>2020-01-28T08:21:55Z</time>
      </trkpt>
      <trkpt lat="43.3829890" lon="-5.8135200">
        <ele>-108.6</ele>
        <time>2020-01-28T08:21:57Z</time>
      </trkpt>
      <trkpt lat="43.3830460" lon="-5.8134880">
        <ele>-108.8</ele>
        <time>2020-01-28T08:22:01Z</time>
      </trkpt>
      <trkpt lat="43.3830780" lon="-5.8134730">
        <ele>-109.0</ele>
        <time>2020-01-28T08:22:03Z</time>
      </trkpt>
      <trkpt lat="43.3831330" lon="-5.8134480">
        <ele>-108.6</ele>
        <time>2020-01-28T08:22:07Z</time>
      </trkpt>
      <trkpt lat="43.3831460" lon="-5.8134440">
        <ele>-108.6</ele>
        <time>2020-01-28T08:22:08Z</time>
      </trkpt>
      <trkpt lat="43.3831580" lon="-5.8134350">
        <ele>-108.6</ele>
        <time>2020-01-28T08:22:09Z</time>
      </trkpt>
      <trkpt lat="43.3831680" lon="-5.8134230">
        <ele>-108.6</ele>
        <time>2020-01-28T08:22:10Z</time>
      </trkpt>
      <trkpt lat="43.3832730" lon="-5.8133770">
        <ele>-109.4</ele>
        <time>2020-01-28T08:22:17Z</time>
      </trkpt>
      <trkpt lat="43.3833060" lon="-5.8133700">
        <ele>-109.4</ele>
        <time>2020-01-28T08:22:19Z</time>
      </trkpt>
      <trkpt lat="43.3834110" lon="-5.8133310">
        <ele>-109.0</ele>
        <time>2020-01-28T08:22:26Z</time>
      </trkpt>
      <trkpt lat="43.3834260" lon="-5.8133260">
        <ele>-109.0</ele>
        <time>2020-01-28T08:22:27Z</time>
      </trkpt>
      <trkpt lat="43.3834410" lon="-5.8133200">
        <ele>-109.0</ele>
        <time>2020-01-28T08:22:28Z</time>
      </trkpt>
      <trkpt lat="43.3835380" lon="-5.8132820">
        <ele>-109.4</ele>
        <time>2020-01-28T08:22:34Z</time>
      </trkpt>
      <trkpt lat="43.3835550" lon="-5.8132810">
        <ele>-109.4</ele>
        <time>2020-01-28T08:22:35Z</time>
      </trkpt>
      <trkpt lat="43.3864630" lon="-5.8111370">
        <ele>159.5</ele>
        <time>2020-01-28T08:27:01Z</time>
      </trkpt>
      <trkpt lat="43.3864840" lon="-5.8110970">
        <ele>159.5</ele>
        <time>2020-01-28T08:27:02Z</time>
      </trkpt>
      <trkpt lat="43.3865580" lon="-5.8111140">
        <ele>159.5</ele>
        <time>2020-01-28T08:27:03Z</time>
      </trkpt>
      <trkpt lat="43.3865710" lon="-5.8111170">
        <ele>159.5</ele>
        <time>2020-01-28T08:27:04Z</time>
      </trkpt>
      <trkpt lat="43.3865830" lon="-5.8111190">
        <ele>159.5</ele>
        <time>2020-01-28T08:27:05Z</time>
      </trkpt>
      <trkpt lat="43.3865950" lon="-5.8111220">
        <ele>159.5</ele>
        <time>2020-01-28T08:27:06Z</time>
      </trkpt>
      <trkpt lat="43.3866060" lon="-5.8111130">
        <ele>159.5</ele>
        <time>2020-01-28T08:27:07Z</time>
      </trkpt>
      <trkpt lat="43.3866180" lon="-5.8111050">
        <ele>159.4</ele>
        <time>2020-01-28T08:27:08Z</time>
      </trkpt>
      <trkpt lat="43.3866290" lon="-5.8110960">
        <ele>159.3</ele>
        <time>2020-01-28T08:27:09Z</time>
      </trkpt>
      <trkpt lat="43.3866480" lon="-5.8110880">
        <ele>159.3</ele>
        <time>2020-01-28T08:27:10Z</time>
      </trkpt>
      <trkpt lat="43.3866600" lon="-5.8110860">
        <ele>159.3</ele>
        <time>2020-01-28T08:27:11Z</time>
      </trkpt>
      <trkpt lat="43.3866720" lon="-5.8110850">
        <ele>159.2</ele>
        <time>2020-01-28T08:27:12Z</time>
      </trkpt>
      <trkpt lat="43.3866910" lon="-5.8110780">
        <ele>159.2</ele>
        <time>2020-01-28T08:27:13Z</time>
      </trkpt>
      <trkpt lat="43.3867050" lon="-5.8110690">
        <ele>159.2</ele>
        <time>2020-01-28T08:27:14Z</time>
      </trkpt>
      <trkpt lat="43.3867210" lon="-5.8110600">
        <ele>159.1</ele>
        <time>2020-01-28T08:27:15Z</time>
      </trkpt>
      <trkpt lat="43.3867350" lon="-5.8110520">
        <ele>159.1</ele>
        <time>2020-01-28T08:27:16Z</time>
      </trkpt>
      <trkpt lat="43.3867530" lon="-5.8110370">
        <ele>159.0</ele>
        <time>2020-01-28T08:27:17Z</time>
      </trkpt>
      <trkpt lat="43.3867600" lon="-5.8110300">
        <ele>159.0</ele>
        <time>2020-01-28T08:27:18Z</time>
      </trkpt>
      <trkpt lat="43.3867670" lon="-5.8110240">
        <ele>159.0</ele>
        <time>2020-01-28T08:27:19Z</time>
      </trkpt>
      <trkpt lat="43.3867780" lon="-5.8110130">
        <ele>159.0</ele>
        <time>2020-01-28T08:27:20Z</time>
      </trkpt>
      <trkpt lat="43.3867890" lon="-5.8110010">
        <ele>158.9</ele>
        <time>2020-01-28T08:27:21Z</time>
      </trkpt>
      <trkpt lat="43.3868010" lon="-5.8109900">
        <ele>158.9</ele>
        <time>2020-01-28T08:27:22Z</time>
      </trkpt>
      <trkpt lat="43.3868120" lon="-5.8109790">
        <ele>158.9</ele>
        <time>2020-01-28T08:27:23Z</time>
      </trkpt>
      <trkpt lat="43.3868240" lon="-5.8109680">
        <ele>158.8</ele>
        <time>2020-01-28T08:27:24Z</time>
      </trkpt>
      <trkpt lat="43.3868370" lon="-5.8109580">
        <ele>158.8</ele>
        <time>2020-01-28T08:27:25Z</time>
      </trkpt>
      <trkpt lat="43.3868540" lon="-5.8109410">
        <ele>158.8</ele>
        <time>2020-01-28T08:27:26Z</time>
      </trkpt>
      <trkpt lat="43.3868610" lon="-5.8109340">
        <ele>158.7</ele>
        <time>2020-01-28T08:27:27Z</time>
      </trkpt>
      <trkpt lat="43.3868690" lon="-5.8109270">
        <ele>158.7</ele>
        <time>2020-01-28T08:27:28Z</time>
      </trkpt>
      <trkpt lat="43.3868810" lon="-5.8109160">
        <ele>158.7</ele>
        <time>2020-01-28T08:27:29Z</time>
      </trkpt>
      <trkpt lat="43.3868920" lon="-5.8109060">
        <ele>158.6</ele>
        <time>2020-01-28T08:27:30Z</time>
      </trkpt>
      <trkpt lat="43.3869040" lon="-5.8108990">
        <ele>158.6</ele>
        <time>2020-01-28T08:27:31Z</time>
      </trkpt>
      <trkpt lat="43.3869180" lon="-5.8108920">
        <ele>158.5</ele>
        <time>2020-01-28T08:27:32Z</time>
      </trkpt>
      <trkpt lat="43.3869330" lon="-5.8108860">
        <ele>158.5</ele>
        <time>2020-01-28T08:27:33Z</time>
      </trkpt>
      <trkpt lat="43.3869450" lon="-5.8108800">
        <ele>158.4</ele>
        <time>2020-01-28T08:27:34Z</time>
      </trkpt>
      <trkpt lat="43.3869690" lon="-5.8108600">
        <ele>158.3</ele>
        <time>2020-01-28T08:27:35Z</time>
      </trkpt>
      <trkpt lat="43.3869830" lon="-5.8108490">
        <ele>158.3</ele>
        <time>2020-01-28T08:27:36Z</time>
      </trkpt>
      <trkpt lat="43.3869960" lon="-5.8108390">
        <ele>158.2</ele>
        <time>2020-01-28T08:27:37Z</time>
      </trkpt>
      <trkpt lat="43.3870130" lon="-5.8108300">
        <ele>158.2</ele>
        <time>2020-01-28T08:27:38Z</time>
      </trkpt>
      <trkpt lat="43.3870290" lon="-5.8108220">
        <ele>158.1</ele>
        <time>2020-01-28T08:27:39Z</time>
      </trkpt>
      <trkpt lat="43.3870430" lon="-5.8108180">
        <ele>158.1</ele>
        <time>2020-01-28T08:27:40Z</time>
      </trkpt>
      <trkpt lat="43.3870430" lon="-5.8108180">
        <ele>158.1</ele>
        <time>2020-01-28T08:27:41Z</time>
      </trkpt>
      <trkpt lat="43.3870430" lon="-5.8108180">
        <ele>158.1</ele>
        <time>2020-01-28T08:27:42Z</time>
      </trkpt>
      <trkpt lat="43.3870430" lon="-5.8108180">
        <ele>158.1</ele>
        <time>2020-01-28T08:27:43Z</time>
      </trkpt>
      <trkpt lat="43.3870430" lon="-5.8108180">
        <ele>158.1</ele>
        <time>2020-01-28T08:27:44Z</time>
      </trkpt>
      <trkpt lat="43.3870430" lon="-5.8108180">
        <ele>158.1</ele>
        <time>2020-01-28T08:27:45Z</time>
      </trkpt>
      <trkpt lat="43.3870430" lon="-5.8108180">
        <ele>158.1</ele>
        <time>2020-01-28T08:27:46Z</time>
      </trkpt>
      <trkpt lat="43.3870430" lon="-5.8108180">
        <ele>158.1</ele>
        <time>2020-01-28T08:27:47Z</time>
      </trkpt>
      <trkpt lat="43.3870430" lon="-5.8108180">
        <ele>158.1</ele>
        <time>2020-01-28T08:27:48Z</time>
      </trkpt>
      <trkpt lat="43.3870730" lon="-5.8108310">
        <ele>158.0</ele>
        <time>2020-01-28T08:27:49Z</time>
      </trkpt>
      <trkpt lat="43.3870800" lon="-5.8108280">
        <ele>157.9</ele>
        <time>2020-01-28T08:27:50Z</time>
      </trkpt>
      <trkpt lat="43.3870890" lon="-5.8108220">
        <ele>157.9</ele>
        <time>2020-01-28T08:27:51Z</time>
      </trkpt>
      <trkpt lat="43.3870970" lon="-5.8108190">
        <ele>157.9</ele>
        <time>2020-01-28T08:27:52Z</time>
      </trkpt>
      <trkpt lat="43.3870970" lon="-5.8108190">
        <ele>157.9</ele>
        <time>2020-01-28T08:27:53Z</time>
      </trkpt>
      <trkpt lat="43.3870970" lon="-5.8108190">
        <ele>157.9</ele>
        <time>2020-01-28T08:27:54Z</time>
      </trkpt>
      <trkpt lat="43.3870970" lon="-5.8108190">
        <ele>157.9</ele>
        <time>2020-01-28T08:27:55Z</time>
      </trkpt>
      <trkpt lat="43.3870970" lon="-5.8108190">
        <ele>157.9</ele>
        <time>2020-01-28T08:27:56Z</time>
      </trkpt>
      <trkpt lat="43.3870970" lon="-5.8108190">
        <ele>157.9</ele>
        <time>2020-01-28T08:27:57Z</time>
      </trkpt>
      <trkpt lat="43.3870970" lon="-5.8108190">
        <ele>157.9</ele>
        <time>2020-01-28T08:27:58Z</time>
      </trkpt>
      <trkpt lat="43.3870970" lon="-5.8108190">
        <ele>157.9</ele>
        <time>2020-01-28T08:27:59Z</time>
      </trkpt>
      <trkpt lat="43.3870970" lon="-5.8108190">
        <ele>157.9</ele>
        <time>2020-01-28T08:28:00Z</time>
      </trkpt>
      <trkpt lat="43.3870970" lon="-5.8108190">
        <ele>157.9</ele>
        <time>2020-01-28T08:28:01Z</time>
      </trkpt>
      <trkpt lat="43.3870970" lon="-5.8108190">
        <ele>157.9</ele>
        <time>2020-01-28T08:28:02Z</time>
      </trkpt>
      <trkpt lat="43.3870970" lon="-5.8108190">
        <ele>157.9</ele>
        <time>2020-01-28T08:28:03Z</time>
      </trkpt>
      <trkpt lat="43.3870970" lon="-5.8108190">
        <ele>157.9</ele>
        <time>2020-01-28T08:28:04Z</time>
      </trkpt>
      <trkpt lat="43.3870970" lon="-5.8108190">
        <ele>157.9</ele>
        <time>2020-01-28T08:28:05Z</time>
      </trkpt>
      <trkpt lat="43.3870970" lon="-5.8108190">
        <ele>157.9</ele>
        <time>2020-01-28T08:28:06Z</time>
      </trkpt>
      <trkpt lat="43.3870970" lon="-5.8108190">
        <ele>157.9</ele>
        <time>2020-01-28T08:28:07Z</time>
      </trkpt>
      <trkpt lat="43.3870970" lon="-5.8108190">
        <ele>157.9</ele>
        <time>2020-01-28T08:28:08Z</time>
      </trkpt>
      <trkpt lat="43.3870970" lon="-5.8108190">
        <ele>157.9</ele>
        <time>2020-01-28T08:28:09Z</time>
      </trkpt>
      <trkpt lat="43.3870970" lon="-5.8108190">
        <ele>157.9</ele>
        <time>2020-01-28T08:28:10Z</time>
      </trkpt>
      <trkpt lat="43.3870970" lon="-5.8108190">
        <ele>157.9</ele>
        <time>2020-01-28T08:28:11Z</time>
      </trkpt>
      <trkpt lat="43.3870970" lon="-5.8108190">
        <ele>157.9</ele>
        <time>2020-01-28T08:28:12Z</time>
      </trkpt>
      <trkpt lat="43.3870970" lon="-5.8108190">
        <ele>157.9</ele>
        <time>2020-01-28T08:28:13Z</time>
      </trkpt>
      <trkpt lat="43.3870970" lon="-5.8108190">
        <ele>157.9</ele>
        <time>2020-01-28T08:28:14Z</time>
      </trkpt>
      <trkpt lat="43.3870970" lon="-5.8108190">
        <ele>157.9</ele>
        <time>2020-01-28T08:28:15Z</time>
      </trkpt>
      <trkpt lat="43.3870970" lon="-5.8108190">
        <ele>157.9</ele>
        <time>2020-01-28T08:28:16Z</time>
      </trkpt>
      <trkpt lat="43.3870970" lon="-5.8108190">
        <ele>157.9</ele>
        <time>2020-01-28T08:28:17Z</time>
      </trkpt>
      <trkpt lat="43.3870970" lon="-5.8108190">
        <ele>157.9</ele>
        <time>2020-01-28T08:28:18Z</time>
      </trkpt>
      <trkpt lat="43.3871050" lon="-5.8108260">
        <ele>157.8</ele>
        <time>2020-01-28T08:28:19Z</time>
      </trkpt>
      <trkpt lat="43.3871100" lon="-5.8108200">
        <ele>157.8</ele>
        <time>2020-01-28T08:28:20Z</time>
      </trkpt>
      <trkpt lat="43.3871200" lon="-5.8108110">
        <ele>157.8</ele>
        <time>2020-01-28T08:28:21Z</time>
      </trkpt>
      <trkpt lat="43.3871320" lon="-5.8108000">
        <ele>157.7</ele>
        <time>2020-01-28T08:28:22Z</time>
      </trkpt>
      <trkpt lat="43.3871450" lon="-5.8107920">
        <ele>157.7</ele>
        <time>2020-01-28T08:28:23Z</time>
      </trkpt>
      <trkpt lat="43.3871590" lon="-5.8107840">
        <ele>157.7</ele>
        <time>2020-01-28T08:28:24Z</time>
      </trkpt>
      <trkpt lat="43.3871720" lon="-5.8107750">
        <ele>157.7</ele>
        <time>2020-01-28T08:28:25Z</time>
      </trkpt>
      <trkpt lat="43.3871860" lon="-5.8107680">
        <ele>157.7</ele>
        <time>2020-01-28T08:28:26Z</time>
      </trkpt>
      <trkpt lat="43.3872050" lon="-5.8107550">
        <ele>157.6</ele>
        <time>2020-01-28T08:28:27Z</time>
      </trkpt>
      <trkpt lat="43.3872120" lon="-5.8107500">
        <ele>157.6</ele>
        <time>2020-01-28T08:28:28Z</time>
      </trkpt>
      <trkpt lat="43.3872190" lon="-5.8107450">
        <ele>157.6</ele>
        <time>2020-01-28T08:28:29Z</time>
      </trkpt>
      <trkpt lat="43.3872300" lon="-5.8107370">
        <ele>157.6</ele>
        <time>2020-01-28T08:28:30Z</time>
      </trkpt>
      <trkpt lat="43.3872430" lon="-5.8107280">
        <ele>157.6</ele>
        <time>2020-01-28T08:28:31Z</time>
      </trkpt>
      <trkpt lat="43.3872560" lon="-5.8107200">
        <ele>157.6</ele>
        <time>2020-01-28T08:28:32Z</time>
      </trkpt>
      <trkpt lat="43.3872690" lon="-5.8107110">
        <ele>157.6</ele>
        <time>2020-01-28T08:28:33Z</time>
      </trkpt>
      <trkpt lat="43.3872820" lon="-5.8107010">
        <ele>157.6</ele>
        <time>2020-01-28T08:28:34Z</time>
      </trkpt>
      <trkpt lat="43.3872940" lon="-5.8106910">
        <ele>157.5</ele>
        <time>2020-01-28T08:28:35Z</time>
      </trkpt>
      <trkpt lat="43.3873130" lon="-5.8106780">
        <ele>157.5</ele>
        <time>2020-01-28T08:28:36Z</time>
      </trkpt>
      <trkpt lat="43.3873220" lon="-5.8106720">
        <ele>157.6</ele>
        <time>2020-01-28T08:28:37Z</time>
      </trkpt>
      <trkpt lat="43.3873300" lon="-5.8106670">
        <ele>157.6</ele>
        <time>2020-01-28T08:28:38Z</time>
      </trkpt>
      <trkpt lat="43.3873400" lon="-5.8106600">
        <ele>157.6</ele>
        <time>2020-01-28T08:28:39Z</time>
      </trkpt>
      <trkpt lat="43.3873480" lon="-5.8106520">
        <ele>157.6</ele>
        <time>2020-01-28T08:28:40Z</time>
      </trkpt>
      <trkpt lat="43.3873570" lon="-5.8106410">
        <ele>157.6</ele>
        <time>2020-01-28T08:28:41Z</time>
      </trkpt>
      <trkpt lat="43.3873680" lon="-5.8106300">
        <ele>157.6</ele>
        <time>2020-01-28T08:28:42Z</time>
      </trkpt>
      <trkpt lat="43.3873820" lon="-5.8106180">
        <ele>157.7</ele>
        <time>2020-01-28T08:28:43Z</time>
      </trkpt>
      <trkpt lat="43.3873950" lon="-5.8106070">
        <ele>157.7</ele>
        <time>2020-01-28T08:28:44Z</time>
      </trkpt>
      <trkpt lat="43.3874110" lon="-5.8105960">
        <ele>157.7</ele>
        <time>2020-01-28T08:28:45Z</time>
      </trkpt>
      <trkpt lat="43.3874300" lon="-5.8105810">
        <ele>157.7</ele>
        <time>2020-01-28T08:28:46Z</time>
      </trkpt>
      <trkpt lat="43.3874370" lon="-5.8105750">
        <ele>157.7</ele>
        <time>2020-01-28T08:28:47Z</time>
      </trkpt>
      <trkpt lat="43.3874450" lon="-5.8105690">
        <ele>157.7</ele>
        <time>2020-01-28T08:28:48Z</time>
      </trkpt>
      <trkpt lat="43.3874610" lon="-5.8105600">
        <ele>157.8</ele>
        <time>2020-01-28T08:28:49Z</time>
      </trkpt>
      <trkpt lat="43.3874760" lon="-5.8105530">
        <ele>157.8</ele>
        <time>2020-01-28T08:28:50Z</time>
      </trkpt>
      <trkpt lat="43.3874980" lon="-5.8105500">
        <ele>157.8</ele>
        <time>2020-01-28T08:28:51Z</time>
      </trkpt>
      <trkpt lat="43.3875070" lon="-5.8105500">
        <ele>157.9</ele>
        <time>2020-01-28T08:28:52Z</time>
      </trkpt>
      <trkpt lat="43.3875170" lon="-5.8105500">
        <ele>157.9</ele>
        <time>2020-01-28T08:28:53Z</time>
      </trkpt>
      <trkpt lat="43.3875320" lon="-5.8105500">
        <ele>158.0</ele>
        <time>2020-01-28T08:28:54Z</time>
      </trkpt>
      <trkpt lat="43.3875450" lon="-5.8105520">
        <ele>158.1</ele>
        <time>2020-01-28T08:28:55Z</time>
      </trkpt>
      <trkpt lat="43.3875580" lon="-5.8105570">
        <ele>158.1</ele>
        <time>2020-01-28T08:28:56Z</time>
      </trkpt>
      <trkpt lat="43.3875720" lon="-5.8105660">
        <ele>158.1</ele>
        <time>2020-01-28T08:28:57Z</time>
      </trkpt>
      <trkpt lat="43.3875850" lon="-5.8105790">
        <ele>158.1</ele>
        <time>2020-01-28T08:28:58Z</time>
      </trkpt>
      <trkpt lat="43.3875950" lon="-5.8105930">
        <ele>158.1</ele>
        <time>2020-01-28T08:28:59Z</time>
      </trkpt>
      <trkpt lat="43.3876040" lon="-5.8106090">
        <ele>158.1</ele>
        <time>2020-01-28T08:29:00Z</time>
      </trkpt>
      <trkpt lat="43.3876130" lon="-5.8106270">
        <ele>158.1</ele>
        <time>2020-01-28T08:29:01Z</time>
      </trkpt>
      <trkpt lat="43.3876200" lon="-5.8106450">
        <ele>158.1</ele>
        <time>2020-01-28T08:29:02Z</time>
      </trkpt>
      <trkpt lat="43.3876270" lon="-5.8106650">
        <ele>158.1</ele>
        <time>2020-01-28T08:29:03Z</time>
      </trkpt>
      <trkpt lat="43.3876330" lon="-5.8106820">
        <ele>158.1</ele>
        <time>2020-01-28T08:29:04Z</time>
      </trkpt>
      <trkpt lat="43.3876380" lon="-5.8107000">
        <ele>158.1</ele>
        <time>2020-01-28T08:29:05Z</time>
      </trkpt>
      <trkpt lat="43.3876430" lon="-5.8107220">
        <ele>158.1</ele>
        <time>2020-01-28T08:29:06Z</time>
      </trkpt>
      <trkpt lat="43.3876460" lon="-5.8107440">
        <ele>158.1</ele>
        <time>2020-01-28T08:29:07Z</time>
      </trkpt>
      <trkpt lat="43.3876480" lon="-5.8107660">
        <ele>158.1</ele>
        <time>2020-01-28T08:29:08Z</time>
      </trkpt>
      <trkpt lat="43.3876500" lon="-5.8107860">
        <ele>158.1</ele>
        <time>2020-01-28T08:29:09Z</time>
      </trkpt>
      <trkpt lat="43.3876480" lon="-5.8108050">
        <ele>158.1</ele>
        <time>2020-01-28T08:29:10Z</time>
      </trkpt>
      <trkpt lat="43.3876440" lon="-5.8108250">
        <ele>158.1</ele>
        <time>2020-01-28T08:29:11Z</time>
      </trkpt>
      <trkpt lat="43.3876380" lon="-5.8108430">
        <ele>158.1</ele>
        <time>2020-01-28T08:29:12Z</time>
      </trkpt>
      <trkpt lat="43.3876340" lon="-5.8108630">
        <ele>158.1</ele>
        <time>2020-01-28T08:29:13Z</time>
      </trkpt>
      <trkpt lat="43.3876310" lon="-5.8108860">
        <ele>158.1</ele>
        <time>2020-01-28T08:29:14Z</time>
      </trkpt>
      <trkpt lat="43.3876320" lon="-5.8109090">
        <ele>158.1</ele>
        <time>2020-01-28T08:29:15Z</time>
      </trkpt>
      <trkpt lat="43.3876360" lon="-5.8109300">
        <ele>158.1</ele>
        <time>2020-01-28T08:29:16Z</time>
      </trkpt>
      <trkpt lat="43.3876400" lon="-5.8109490">
        <ele>158.1</ele>
        <time>2020-01-28T08:29:17Z</time>
      </trkpt>
      <trkpt lat="43.3876450" lon="-5.8109660">
        <ele>158.1</ele>
        <time>2020-01-28T08:29:18Z</time>
      </trkpt>
      <trkpt lat="43.3876500" lon="-5.8109870">
        <ele>158.1</ele>
        <time>2020-01-28T08:29:19Z</time>
      </trkpt>
      <trkpt lat="43.3876550" lon="-5.8110060">
        <ele>158.1</ele>
        <time>2020-01-28T08:29:20Z</time>
      </trkpt>
      <trkpt lat="43.3876610" lon="-5.8110250">
        <ele>158.1</ele>
        <time>2020-01-28T08:29:21Z</time>
      </trkpt>
      <trkpt lat="43.3876710" lon="-5.8110520">
        <ele>158.1</ele>
        <time>2020-01-28T08:29:22Z</time>
      </trkpt>
      <trkpt lat="43.3876750" lon="-5.8110640">
        <ele>158.1</ele>
        <time>2020-01-28T08:29:23Z</time>
      </trkpt>
      <trkpt lat="43.3876790" lon="-5.8110760">
        <ele>158.1</ele>
        <time>2020-01-28T08:29:24Z</time>
      </trkpt>
      <trkpt lat="43.3876850" lon="-5.8110950">
        <ele>158.1</ele>
        <time>2020-01-28T08:29:25Z</time>
      </trkpt>
      <trkpt lat="43.3876910" lon="-5.8111150">
        <ele>158.1</ele>
        <time>2020-01-28T08:29:26Z</time>
      </trkpt>
      <trkpt lat="43.3876950" lon="-5.8111320">
        <ele>158.1</ele>
        <time>2020-01-28T08:29:27Z</time>
      </trkpt>
      <trkpt lat="43.3877000" lon="-5.8111510">
        <ele>158.1</ele>
        <time>2020-01-28T08:29:28Z</time>
      </trkpt>
      <trkpt lat="43.3877050" lon="-5.8111730">
        <ele>158.1</ele>
        <time>2020-01-28T08:29:29Z</time>
      </trkpt>
      <trkpt lat="43.3877100" lon="-5.8111920">
        <ele>158.1</ele>
        <time>2020-01-28T08:29:30Z</time>
      </trkpt>
      <trkpt lat="43.3877150" lon="-5.8112110">
        <ele>158.1</ele>
        <time>2020-01-28T08:29:31Z</time>
      </trkpt>
      <trkpt lat="43.3877190" lon="-5.8112280">
        <ele>158.1</ele>
        <time>2020-01-28T08:29:32Z</time>
      </trkpt>
      <trkpt lat="43.3877230" lon="-5.8112450">
        <ele>158.1</ele>
        <time>2020-01-28T08:29:33Z</time>
      </trkpt>
      <trkpt lat="43.3877270" lon="-5.8112650">
        <ele>158.1</ele>
        <time>2020-01-28T08:29:34Z</time>
      </trkpt>
      <trkpt lat="43.3877310" lon="-5.8112820">
        <ele>158.1</ele>
        <time>2020-01-28T08:29:35Z</time>
      </trkpt>
      <trkpt lat="43.3877330" lon="-5.8112930">
        <ele>158.1</ele>
        <time>2020-01-28T08:29:36Z</time>
      </trkpt>
      <trkpt lat="43.3877340" lon="-5.8113030">
        <ele>158.1</ele>
        <time>2020-01-28T08:29:37Z</time>
      </trkpt>
      <trkpt lat="43.3877360" lon="-5.8113140">
        <ele>158.1</ele>
        <time>2020-01-28T08:29:38Z</time>
      </trkpt>
      <trkpt lat="43.3877370" lon="-5.8113240">
        <ele>158.1</ele>
        <time>2020-01-28T08:29:39Z</time>
      </trkpt>
      <trkpt lat="43.3877380" lon="-5.8113360">
        <ele>158.1</ele>
        <time>2020-01-28T08:29:40Z</time>
      </trkpt>
      <trkpt lat="43.3877400" lon="-5.8113510">
        <ele>158.1</ele>
        <time>2020-01-28T08:29:41Z</time>
      </trkpt>
      <trkpt lat="43.3877420" lon="-5.8113800">
        <ele>158.1</ele>
        <time>2020-01-28T08:29:42Z</time>
      </trkpt>
      <trkpt lat="43.3877430" lon="-5.8113910">
        <ele>158.1</ele>
        <time>2020-01-28T08:29:43Z</time>
      </trkpt>
      <trkpt lat="43.3877430" lon="-5.8114030">
        <ele>158.1</ele>
        <time>2020-01-28T08:29:44Z</time>
      </trkpt>
      <trkpt lat="43.3877450" lon="-5.8114330">
        <ele>158.1</ele>
        <time>2020-01-28T08:29:45Z</time>
      </trkpt>
      <trkpt lat="43.3877450" lon="-5.8114470">
        <ele>158.1</ele>
        <time>2020-01-28T08:29:46Z</time>
      </trkpt>
      <trkpt lat="43.3877460" lon="-5.8114600">
        <ele>158.1</ele>
        <time>2020-01-28T08:29:47Z</time>
      </trkpt>
      <trkpt lat="43.3877460" lon="-5.8114820">
        <ele>158.1</ele>
        <time>2020-01-28T08:29:48Z</time>
      </trkpt>
      <trkpt lat="43.3877450" lon="-5.8115030">
        <ele>158.1</ele>
        <time>2020-01-28T08:29:49Z</time>
      </trkpt>
      <trkpt lat="43.3877470" lon="-5.8115320">
        <ele>158.1</ele>
        <time>2020-01-28T08:29:50Z</time>
      </trkpt>
      <trkpt lat="43.3877480" lon="-5.8115430">
        <ele>158.1</ele>
        <time>2020-01-28T08:29:51Z</time>
      </trkpt>
      <trkpt lat="43.3877500" lon="-5.8115530">
        <ele>158.1</ele>
        <time>2020-01-28T08:29:52Z</time>
      </trkpt>
      <trkpt lat="43.3877550" lon="-5.8115640">
        <ele>158.1</ele>
        <time>2020-01-28T08:29:53Z</time>
      </trkpt>
      <trkpt lat="43.3877600" lon="-5.8115690">
        <ele>158.1</ele>
        <time>2020-01-28T08:29:54Z</time>
      </trkpt>
      <trkpt lat="43.3877620" lon="-5.8115710">
        <ele>158.1</ele>
        <time>2020-01-28T08:29:55Z</time>
      </trkpt>
      <trkpt lat="43.3877620" lon="-5.8115800">
        <ele>158.1</ele>
        <time>2020-01-28T08:29:56Z</time>
      </trkpt>
      <trkpt lat="43.3877590" lon="-5.8115970">
        <ele>158.1</ele>
        <time>2020-01-28T08:29:57Z</time>
      </trkpt>
      <trkpt lat="43.3877560" lon="-5.8116150">
        <ele>158.1</ele>
        <time>2020-01-28T08:29:58Z</time>
      </trkpt>
      <trkpt lat="43.3877530" lon="-5.8116340">
        <ele>158.1</ele>
        <time>2020-01-28T08:29:59Z</time>
      </trkpt>
      <trkpt lat="43.3877480" lon="-5.8116630">
        <ele>158.2</ele>
        <time>2020-01-28T08:30:00Z</time>
      </trkpt>
      <trkpt lat="43.3877450" lon="-5.8116740">
        <ele>158.2</ele>
        <time>2020-01-28T08:30:01Z</time>
      </trkpt>
      <trkpt lat="43.3877430" lon="-5.8116860">
        <ele>158.2</ele>
        <time>2020-01-28T08:30:02Z</time>
      </trkpt>
      <trkpt lat="43.3877380" lon="-5.8117020">
        <ele>158.2</ele>
        <time>2020-01-28T08:30:03Z</time>
      </trkpt>
      <trkpt lat="43.3877320" lon="-5.8117210">
        <ele>158.2</ele>
        <time>2020-01-28T08:30:04Z</time>
      </trkpt>
      <trkpt lat="43.3877280" lon="-5.8117410">
        <ele>158.2</ele>
        <time>2020-01-28T08:30:05Z</time>
      </trkpt>
      <trkpt lat="43.3877240" lon="-5.8117620">
        <ele>158.2</ele>
        <time>2020-01-28T08:30:06Z</time>
      </trkpt>
      <trkpt lat="43.3877210" lon="-5.8117830">
        <ele>158.2</ele>
        <time>2020-01-28T08:30:07Z</time>
      </trkpt>
      <trkpt lat="43.3877180" lon="-5.8118010">
        <ele>158.2</ele>
        <time>2020-01-28T08:30:08Z</time>
      </trkpt>
      <trkpt lat="43.3877150" lon="-5.8118190">
        <ele>158.2</ele>
        <time>2020-01-28T08:30:09Z</time>
      </trkpt>
      <trkpt lat="43.3877140" lon="-5.8118400">
        <ele>158.2</ele>
        <time>2020-01-28T08:30:10Z</time>
      </trkpt>
      <trkpt lat="43.3877150" lon="-5.8118620">
        <ele>158.2</ele>
        <time>2020-01-28T08:30:11Z</time>
      </trkpt>
      <trkpt lat="43.3877190" lon="-5.8118830">
        <ele>158.2</ele>
        <time>2020-01-28T08:30:12Z</time>
      </trkpt>
      <trkpt lat="43.3877230" lon="-5.8119040">
        <ele>158.2</ele>
        <time>2020-01-28T08:30:13Z</time>
      </trkpt>
      <trkpt lat="43.3877260" lon="-5.8119210">
        <ele>158.2</ele>
        <time>2020-01-28T08:30:14Z</time>
      </trkpt>
      <trkpt lat="43.3877220" lon="-5.8119480">
        <ele>158.2</ele>
        <time>2020-01-28T08:30:15Z</time>
      </trkpt>
      <trkpt lat="43.3877180" lon="-5.8119590">
        <ele>158.2</ele>
        <time>2020-01-28T08:30:16Z</time>
      </trkpt>
      <trkpt lat="43.3877150" lon="-5.8119700">
        <ele>158.2</ele>
        <time>2020-01-28T08:30:17Z</time>
      </trkpt>
      <trkpt lat="43.3877090" lon="-5.8119820">
        <ele>158.2</ele>
        <time>2020-01-28T08:30:18Z</time>
      </trkpt>
      <trkpt lat="43.3877040" lon="-5.8119940">
        <ele>158.2</ele>
        <time>2020-01-28T08:30:19Z</time>
      </trkpt>
      <trkpt lat="43.3876990" lon="-5.8120090">
        <ele>158.2</ele>
        <time>2020-01-28T08:30:20Z</time>
      </trkpt>
      <trkpt lat="43.3876920" lon="-5.8120240">
        <ele>158.2</ele>
        <time>2020-01-28T08:30:21Z</time>
      </trkpt>
      <trkpt lat="43.3876850" lon="-5.8120360">
        <ele>158.2</ele>
        <time>2020-01-28T08:30:22Z</time>
      </trkpt>
      <trkpt lat="43.3876780" lon="-5.8120490">
        <ele>158.2</ele>
        <time>2020-01-28T08:30:23Z</time>
      </trkpt>
      <trkpt lat="43.3876690" lon="-5.8120630">
        <ele>158.2</ele>
        <time>2020-01-28T08:30:24Z</time>
      </trkpt>
      <trkpt lat="43.3876590" lon="-5.8120790">
        <ele>158.2</ele>
        <time>2020-01-28T08:30:25Z</time>
      </trkpt>
      <trkpt lat="43.3876490" lon="-5.8120950">
        <ele>158.2</ele>
        <time>2020-01-28T08:30:26Z</time>
      </trkpt>
      <trkpt lat="43.3876390" lon="-5.8121090">
        <ele>158.2</ele>
        <time>2020-01-28T08:30:27Z</time>
      </trkpt>
      <trkpt lat="43.3876250" lon="-5.8121320">
        <ele>158.2</ele>
        <time>2020-01-28T08:30:28Z</time>
      </trkpt>
      <trkpt lat="43.3876190" lon="-5.8121410">
        <ele>158.2</ele>
        <time>2020-01-28T08:30:29Z</time>
      </trkpt>
      <trkpt lat="43.3876130" lon="-5.8121510">
        <ele>158.2</ele>
        <time>2020-01-28T08:30:30Z</time>
      </trkpt>
      <trkpt lat="43.3876000" lon="-5.8121770">
        <ele>158.2</ele>
        <time>2020-01-28T08:30:31Z</time>
      </trkpt>
      <trkpt lat="43.3875940" lon="-5.8121880">
        <ele>158.2</ele>
        <time>2020-01-28T08:30:32Z</time>
      </trkpt>
      <trkpt lat="43.3875890" lon="-5.8122000">
        <ele>158.2</ele>
        <time>2020-01-28T08:30:33Z</time>
      </trkpt>
      <trkpt lat="43.3875810" lon="-5.8122180">
        <ele>158.2</ele>
        <time>2020-01-28T08:30:34Z</time>
      </trkpt>
      <trkpt lat="43.3875730" lon="-5.8122370">
        <ele>158.2</ele>
        <time>2020-01-28T08:30:35Z</time>
      </trkpt>
      <trkpt lat="43.3875630" lon="-5.8122530">
        <ele>158.2</ele>
        <time>2020-01-28T08:30:36Z</time>
      </trkpt>
      <trkpt lat="43.3875540" lon="-5.8122700">
        <ele>158.2</ele>
        <time>2020-01-28T08:30:37Z</time>
      </trkpt>
      <trkpt lat="43.3875450" lon="-5.8122870">
        <ele>158.2</ele>
        <time>2020-01-28T08:30:38Z</time>
      </trkpt>
      <trkpt lat="43.3875360" lon="-5.8123050">
        <ele>158.2</ele>
        <time>2020-01-28T08:30:39Z</time>
      </trkpt>
      <trkpt lat="43.3875280" lon="-5.8123230">
        <ele>158.2</ele>
        <time>2020-01-28T08:30:40Z</time>
      </trkpt>
      <trkpt lat="43.3875200" lon="-5.8123420">
        <ele>158.2</ele>
        <time>2020-01-28T08:30:41Z</time>
      </trkpt>
      <trkpt lat="43.3875120" lon="-5.8123600">
        <ele>158.2</ele>
        <time>2020-01-28T08:30:42Z</time>
      </trkpt>
      <trkpt lat="43.3875040" lon="-5.8123770">
        <ele>158.2</ele>
        <time>2020-01-28T08:30:43Z</time>
      </trkpt>
      <trkpt lat="43.3874970" lon="-5.8123940">
        <ele>158.2</ele>
        <time>2020-01-28T08:30:44Z</time>
      </trkpt>
      <trkpt lat="43.3874900" lon="-5.8124130">
        <ele>158.2</ele>
        <time>2020-01-28T08:30:45Z</time>
      </trkpt>
      <trkpt lat="43.3874840" lon="-5.8124300">
        <ele>158.2</ele>
        <time>2020-01-28T08:30:46Z</time>
      </trkpt>
      <trkpt lat="43.3874780" lon="-5.8124480">
        <ele>158.2</ele>
        <time>2020-01-28T08:30:47Z</time>
      </trkpt>
      <trkpt lat="43.3874720" lon="-5.8124660">
        <ele>158.2</ele>
        <time>2020-01-28T08:30:48Z</time>
      </trkpt>
      <trkpt lat="43.3874660" lon="-5.8124840">
        <ele>158.2</ele>
        <time>2020-01-28T08:30:49Z</time>
      </trkpt>
      <trkpt lat="43.3874590" lon="-5.8125020">
        <ele>158.2</ele>
        <time>2020-01-28T08:30:50Z</time>
      </trkpt>
      <trkpt lat="43.3874510" lon="-5.8125170">
        <ele>158.2</ele>
        <time>2020-01-28T08:30:51Z</time>
      </trkpt>
      <trkpt lat="43.3874440" lon="-5.8125330">
        <ele>158.2</ele>
        <time>2020-01-28T08:30:52Z</time>
      </trkpt>
      <trkpt lat="43.3874370" lon="-5.8125510">
        <ele>158.2</ele>
        <time>2020-01-28T08:30:53Z</time>
      </trkpt>
      <trkpt lat="43.3874300" lon="-5.8125800">
        <ele>158.2</ele>
        <time>2020-01-28T08:30:54Z</time>
      </trkpt>
      <trkpt lat="43.3874290" lon="-5.8125930">
        <ele>158.2</ele>
        <time>2020-01-28T08:30:55Z</time>
      </trkpt>
      <trkpt lat="43.3874270" lon="-5.8126060">
        <ele>158.2</ele>
        <time>2020-01-28T08:30:56Z</time>
      </trkpt>
      <trkpt lat="43.3874260" lon="-5.8126270">
        <ele>158.2</ele>
        <time>2020-01-28T08:30:57Z</time>
      </trkpt>
      <trkpt lat="43.3874260" lon="-5.8126490">
        <ele>158.2</ele>
        <time>2020-01-28T08:30:58Z</time>
      </trkpt>
      <trkpt lat="43.3874260" lon="-5.8126710">
        <ele>158.2</ele>
        <time>2020-01-28T08:30:59Z</time>
      </trkpt>
      <trkpt lat="43.3874250" lon="-5.8126930">
        <ele>158.2</ele>
        <time>2020-01-28T08:31:00Z</time>
      </trkpt>
      <trkpt lat="43.3874240" lon="-5.8127150">
        <ele>158.2</ele>
        <time>2020-01-28T08:31:01Z</time>
      </trkpt>
      <trkpt lat="43.3874230" lon="-5.8127340">
        <ele>158.2</ele>
        <time>2020-01-28T08:31:02Z</time>
      </trkpt>
      <trkpt lat="43.3874230" lon="-5.8127550">
        <ele>158.2</ele>
        <time>2020-01-28T08:31:03Z</time>
      </trkpt>
      <trkpt lat="43.3874220" lon="-5.8127730">
        <ele>158.2</ele>
        <time>2020-01-28T08:31:04Z</time>
      </trkpt>
      <trkpt lat="43.3874220" lon="-5.8127930">
        <ele>158.2</ele>
        <time>2020-01-28T08:31:05Z</time>
      </trkpt>
      <trkpt lat="43.3874230" lon="-5.8128160">
        <ele>158.2</ele>
        <time>2020-01-28T08:31:06Z</time>
      </trkpt>
      <trkpt lat="43.3874250" lon="-5.8128380">
        <ele>158.2</ele>
        <time>2020-01-28T08:31:07Z</time>
      </trkpt>
      <trkpt lat="43.3874280" lon="-5.8128590">
        <ele>158.2</ele>
        <time>2020-01-28T08:31:08Z</time>
      </trkpt>
      <trkpt lat="43.3874310" lon="-5.8128780">
        <ele>158.2</ele>
        <time>2020-01-28T08:31:09Z</time>
      </trkpt>
      <trkpt lat="43.3874330" lon="-5.8128980">
        <ele>158.1</ele>
        <time>2020-01-28T08:31:10Z</time>
      </trkpt>
      <trkpt lat="43.3874370" lon="-5.8129200">
        <ele>158.1</ele>
        <time>2020-01-28T08:31:11Z</time>
      </trkpt>
      <trkpt lat="43.3874410" lon="-5.8129390">
        <ele>158.1</ele>
        <time>2020-01-28T08:31:12Z</time>
      </trkpt>
      <trkpt lat="43.3874450" lon="-5.8129580">
        <ele>158.1</ele>
        <time>2020-01-28T08:31:13Z</time>
      </trkpt>
      <trkpt lat="43.3874490" lon="-5.8129770">
        <ele>158.1</ele>
        <time>2020-01-28T08:31:14Z</time>
      </trkpt>
      <trkpt lat="43.3874530" lon="-5.8129970">
        <ele>158.0</ele>
        <time>2020-01-28T08:31:15Z</time>
      </trkpt>
      <trkpt lat="43.3874580" lon="-5.8130190">
        <ele>158.0</ele>
        <time>2020-01-28T08:31:16Z</time>
      </trkpt>
      <trkpt lat="43.3874640" lon="-5.8130380">
        <ele>158.0</ele>
        <time>2020-01-28T08:31:17Z</time>
      </trkpt>
      <trkpt lat="43.3874710" lon="-5.8130540">
        <ele>157.9</ele>
        <time>2020-01-28T08:31:18Z</time>
      </trkpt>
      <trkpt lat="43.3874830" lon="-5.8130800">
        <ele>157.9</ele>
        <time>2020-01-28T08:31:19Z</time>
      </trkpt>
      <trkpt lat="43.3874880" lon="-5.8130890">
        <ele>157.9</ele>
        <time>2020-01-28T08:31:20Z</time>
      </trkpt>
      <trkpt lat="43.3874930" lon="-5.8130990">
        <ele>157.8</ele>
        <time>2020-01-28T08:31:21Z</time>
      </trkpt>
      <trkpt lat="43.3875060" lon="-5.8131240">
        <ele>157.8</ele>
        <time>2020-01-28T08:31:22Z</time>
      </trkpt>
      <trkpt lat="43.3875110" lon="-5.8131330">
        <ele>157.8</ele>
        <time>2020-01-28T08:31:23Z</time>
      </trkpt>
      <trkpt lat="43.3875160" lon="-5.8131430">
        <ele>157.7</ele>
        <time>2020-01-28T08:31:24Z</time>
      </trkpt>
      <trkpt lat="43.3875230" lon="-5.8131590">
        <ele>157.7</ele>
        <time>2020-01-28T08:31:25Z</time>
      </trkpt>
      <trkpt lat="43.3875300" lon="-5.8131770">
        <ele>157.7</ele>
        <time>2020-01-28T08:31:26Z</time>
      </trkpt>
      <trkpt lat="43.3875410" lon="-5.8132040">
        <ele>157.6</ele>
        <time>2020-01-28T08:31:27Z</time>
      </trkpt>
      <trkpt lat="43.3875450" lon="-5.8132150">
        <ele>157.6</ele>
        <time>2020-01-28T08:31:28Z</time>
      </trkpt>
      <trkpt lat="43.3875500" lon="-5.8132260">
        <ele>157.6</ele>
        <time>2020-01-28T08:31:29Z</time>
      </trkpt>
      <trkpt lat="43.3875570" lon="-5.8132470">
        <ele>157.5</ele>
        <time>2020-01-28T08:31:30Z</time>
      </trkpt>
      <trkpt lat="43.3875620" lon="-5.8132680">
        <ele>157.5</ele>
        <time>2020-01-28T08:31:31Z</time>
      </trkpt>
      <trkpt lat="43.3875680" lon="-5.8132870">
        <ele>157.5</ele>
        <time>2020-01-28T08:31:32Z</time>
      </trkpt>
      <trkpt lat="43.3875730" lon="-5.8133050">
        <ele>157.5</ele>
        <time>2020-01-28T08:31:33Z</time>
      </trkpt>
      <trkpt lat="43.3875790" lon="-5.8133250">
        <ele>157.4</ele>
        <time>2020-01-28T08:31:34Z</time>
      </trkpt>
      <trkpt lat="43.3875840" lon="-5.8133440">
        <ele>157.4</ele>
        <time>2020-01-28T08:31:35Z</time>
      </trkpt>
      <trkpt lat="43.3875900" lon="-5.8133630">
        <ele>157.4</ele>
        <time>2020-01-28T08:31:36Z</time>
      </trkpt>
      <trkpt lat="43.3875960" lon="-5.8133800">
        <ele>157.4</ele>
        <time>2020-01-28T08:31:37Z</time>
      </trkpt>
      <trkpt lat="43.3876070" lon="-5.8134040">
        <ele>157.3</ele>
        <time>2020-01-28T08:31:38Z</time>
      </trkpt>
      <trkpt lat="43.3876130" lon="-5.8134120">
        <ele>157.3</ele>
        <time>2020-01-28T08:31:39Z</time>
      </trkpt>
      <trkpt lat="43.3876180" lon="-5.8134210">
        <ele>157.3</ele>
        <time>2020-01-28T08:31:40Z</time>
      </trkpt>
      <trkpt lat="43.3876270" lon="-5.8134320">
        <ele>157.3</ele>
        <time>2020-01-28T08:31:41Z</time>
      </trkpt>
      <trkpt lat="43.3876370" lon="-5.8134390">
        <ele>157.3</ele>
        <time>2020-01-28T08:31:42Z</time>
      </trkpt>
      <trkpt lat="43.3876490" lon="-5.8134420">
        <ele>157.3</ele>
        <time>2020-01-28T08:31:43Z</time>
      </trkpt>
      <trkpt lat="43.3876700" lon="-5.8134410">
        <ele>157.3</ele>
        <time>2020-01-28T08:31:44Z</time>
      </trkpt>
      <trkpt lat="43.3876780" lon="-5.8134390">
        <ele>157.3</ele>
        <time>2020-01-28T08:31:45Z</time>
      </trkpt>
      <trkpt lat="43.3876860" lon="-5.8134380">
        <ele>156.3</ele>
        <time>2020-01-28T08:31:46Z</time>
      </trkpt>
      <trkpt lat="43.3877080" lon="-5.8134350">
        <ele>156.1</ele>
        <time>2020-01-28T08:31:47Z</time>
      </trkpt>
      <trkpt lat="43.3877180" lon="-5.8134340">
        <ele>156.0</ele>
        <time>2020-01-28T08:31:48Z</time>
      </trkpt>
      <trkpt lat="43.3877280" lon="-5.8134320">
        <ele>155.9</ele>
        <time>2020-01-28T08:31:49Z</time>
      </trkpt>
      <trkpt lat="43.3877430" lon="-5.8134280">
        <ele>155.7</ele>
        <time>2020-01-28T08:31:50Z</time>
      </trkpt>
      <trkpt lat="43.3877570" lon="-5.8134240">
        <ele>155.6</ele>
        <time>2020-01-28T08:31:51Z</time>
      </trkpt>
      <trkpt lat="43.3877770" lon="-5.8134180">
        <ele>155.4</ele>
        <time>2020-01-28T08:31:52Z</time>
      </trkpt>
      <trkpt lat="43.3877850" lon="-5.8134160">
        <ele>155.3</ele>
        <time>2020-01-28T08:31:53Z</time>
      </trkpt>
      <trkpt lat="43.3877920" lon="-5.8134140">
        <ele>155.3</ele>
        <time>2020-01-28T08:31:54Z</time>
      </trkpt>
      <trkpt lat="43.3878110" lon="-5.8134080">
        <ele>155.1</ele>
        <time>2020-01-28T08:31:55Z</time>
      </trkpt>
      <trkpt lat="43.3878200" lon="-5.8134050">
        <ele>155.0</ele>
        <time>2020-01-28T08:31:56Z</time>
      </trkpt>
      <trkpt lat="43.3878290" lon="-5.8134020">
        <ele>155.0</ele>
        <time>2020-01-28T08:31:57Z</time>
      </trkpt>
      <trkpt lat="43.3878440" lon="-5.8134010">
        <ele>154.8</ele>
        <time>2020-01-28T08:31:58Z</time>
      </trkpt>
      <trkpt lat="43.3878600" lon="-5.8133990">
        <ele>154.7</ele>
        <time>2020-01-28T08:31:59Z</time>
      </trkpt>
      <trkpt lat="43.3878740" lon="-5.8133960">
        <ele>154.6</ele>
        <time>2020-01-28T08:32:00Z</time>
      </trkpt>
      <trkpt lat="43.3878900" lon="-5.8133900">
        <ele>154.5</ele>
        <time>2020-01-28T08:32:01Z</time>
      </trkpt>
      <trkpt lat="43.3879060" lon="-5.8133820">
        <ele>154.4</ele>
        <time>2020-01-28T08:32:02Z</time>
      </trkpt>
      <trkpt lat="43.3879220" lon="-5.8133760">
        <ele>154.3</ele>
        <time>2020-01-28T08:32:03Z</time>
      </trkpt>
      <trkpt lat="43.3879380" lon="-5.8133710">
        <ele>154.2</ele>
        <time>2020-01-28T08:32:04Z</time>
      </trkpt>
      <trkpt lat="43.3879540" lon="-5.8133660">
        <ele>154.1</ele>
        <time>2020-01-28T08:32:05Z</time>
      </trkpt>
      <trkpt lat="43.3879680" lon="-5.8133610">
        <ele>154.0</ele>
        <time>2020-01-28T08:32:06Z</time>
      </trkpt>
      <trkpt lat="43.3879820" lon="-5.8133550">
        <ele>154.0</ele>
        <time>2020-01-28T08:32:07Z</time>
      </trkpt>
      <trkpt lat="43.3879950" lon="-5.8133480">
        <ele>153.9</ele>
        <time>2020-01-28T08:32:08Z</time>
      </trkpt>
      <trkpt lat="43.3880080" lon="-5.8133420">
        <ele>153.9</ele>
        <time>2020-01-28T08:32:09Z</time>
      </trkpt>
      <trkpt lat="43.3880220" lon="-5.8133380">
        <ele>153.8</ele>
        <time>2020-01-28T08:32:10Z</time>
      </trkpt>
      <trkpt lat="43.3880350" lon="-5.8133340">
        <ele>153.8</ele>
        <time>2020-01-28T08:32:11Z</time>
      </trkpt>
      <trkpt lat="43.3880490" lon="-5.8133280">
        <ele>153.7</ele>
        <time>2020-01-28T08:32:12Z</time>
      </trkpt>
      <trkpt lat="43.3880620" lon="-5.8133230">
        <ele>153.7</ele>
        <time>2020-01-28T08:32:13Z</time>
      </trkpt>
      <trkpt lat="43.3880750" lon="-5.8133160">
        <ele>153.7</ele>
        <time>2020-01-28T08:32:14Z</time>
      </trkpt>
      <trkpt lat="43.3880910" lon="-5.8133090">
        <ele>153.7</ele>
        <time>2020-01-28T08:32:15Z</time>
      </trkpt>
      <trkpt lat="43.3881060" lon="-5.8133010">
        <ele>153.7</ele>
        <time>2020-01-28T08:32:16Z</time>
      </trkpt>
      <trkpt lat="43.3881220" lon="-5.8132930">
        <ele>153.7</ele>
        <time>2020-01-28T08:32:17Z</time>
      </trkpt>
      <trkpt lat="43.3881360" lon="-5.8132870">
        <ele>153.7</ele>
        <time>2020-01-28T08:32:18Z</time>
      </trkpt>
      <trkpt lat="43.3881490" lon="-5.8132820">
        <ele>153.7</ele>
        <time>2020-01-28T08:32:19Z</time>
      </trkpt>
      <trkpt lat="43.3881650" lon="-5.8132790">
        <ele>153.7</ele>
        <time>2020-01-28T08:32:20Z</time>
      </trkpt>
      <trkpt lat="43.3881810" lon="-5.8132760">
        <ele>153.8</ele>
        <time>2020-01-28T08:32:21Z</time>
      </trkpt>
      <trkpt lat="43.3881970" lon="-5.8132740">
        <ele>153.8</ele>
        <time>2020-01-28T08:32:22Z</time>
      </trkpt>
      <trkpt lat="43.3882120" lon="-5.8132710">
        <ele>153.9</ele>
        <time>2020-01-28T08:32:23Z</time>
      </trkpt>
      <trkpt lat="43.3882290" lon="-5.8132680">
        <ele>153.9</ele>
        <time>2020-01-28T08:32:24Z</time>
      </trkpt>
      <trkpt lat="43.3882460" lon="-5.8132660">
        <ele>154.0</ele>
        <time>2020-01-28T08:32:25Z</time>
      </trkpt>
      <trkpt lat="43.3882600" lon="-5.8132640">
        <ele>154.1</ele>
        <time>2020-01-28T08:32:26Z</time>
      </trkpt>
      <trkpt lat="43.3882740" lon="-5.8132640">
        <ele>154.2</ele>
        <time>2020-01-28T08:32:27Z</time>
      </trkpt>
      <trkpt lat="43.3882870" lon="-5.8132640">
        <ele>154.2</ele>
        <time>2020-01-28T08:32:28Z</time>
      </trkpt>
      <trkpt lat="43.3883020" lon="-5.8132640">
        <ele>154.3</ele>
        <time>2020-01-28T08:32:29Z</time>
      </trkpt>
      <trkpt lat="43.3883170" lon="-5.8132630">
        <ele>154.4</ele>
        <time>2020-01-28T08:32:30Z</time>
      </trkpt>
      <trkpt lat="43.3883300" lon="-5.8132620">
        <ele>154.5</ele>
        <time>2020-01-28T08:32:31Z</time>
      </trkpt>
      <trkpt lat="43.3883460" lon="-5.8132610">
        <ele>154.6</ele>
        <time>2020-01-28T08:32:32Z</time>
      </trkpt>
      <trkpt lat="43.3883620" lon="-5.8132600">
        <ele>154.8</ele>
        <time>2020-01-28T08:32:33Z</time>
      </trkpt>
      <trkpt lat="43.3883770" lon="-5.8132590">
        <ele>154.9</ele>
        <time>2020-01-28T08:32:34Z</time>
      </trkpt>
      <trkpt lat="43.3883930" lon="-5.8132590">
        <ele>155.0</ele>
        <time>2020-01-28T08:32:35Z</time>
      </trkpt>
      <trkpt lat="43.3884090" lon="-5.8132590">
        <ele>155.1</ele>
        <time>2020-01-28T08:32:36Z</time>
      </trkpt>
      <trkpt lat="43.3884240" lon="-5.8132610">
        <ele>155.2</ele>
        <time>2020-01-28T08:32:37Z</time>
      </trkpt>
      <trkpt lat="43.3884380" lon="-5.8132640">
        <ele>155.4</ele>
        <time>2020-01-28T08:32:38Z</time>
      </trkpt>
      <trkpt lat="43.3884540" lon="-5.8132680">
        <ele>155.5</ele>
        <time>2020-01-28T08:32:39Z</time>
      </trkpt>
      <trkpt lat="43.3884690" lon="-5.8132730">
        <ele>155.6</ele>
        <time>2020-01-28T08:32:40Z</time>
      </trkpt>
      <trkpt lat="43.3884840" lon="-5.8132800">
        <ele>155.8</ele>
        <time>2020-01-28T08:32:41Z</time>
      </trkpt>
      <trkpt lat="43.3884970" lon="-5.8132900">
        <ele>155.9</ele>
        <time>2020-01-28T08:32:42Z</time>
      </trkpt>
      <trkpt lat="43.3885080" lon="-5.8133010">
        <ele>156.0</ele>
        <time>2020-01-28T08:32:43Z</time>
      </trkpt>
      <trkpt lat="43.3885190" lon="-5.8133150">
        <ele>156.1</ele>
        <time>2020-01-28T08:32:44Z</time>
      </trkpt>
      <trkpt lat="43.3885280" lon="-5.8133310">
        <ele>156.3</ele>
        <time>2020-01-28T08:32:45Z</time>
      </trkpt>
      <trkpt lat="43.3885430" lon="-5.8133530">
        <ele>156.4</ele>
        <time>2020-01-28T08:32:46Z</time>
      </trkpt>
      <trkpt lat="43.3885490" lon="-5.8133600">
        <ele>156.5</ele>
        <time>2020-01-28T08:32:47Z</time>
      </trkpt>
      <trkpt lat="43.3885550" lon="-5.8133680">
        <ele>156.6</ele>
        <time>2020-01-28T08:32:48Z</time>
      </trkpt>
      <trkpt lat="43.3885640" lon="-5.8133830">
        <ele>156.7</ele>
        <time>2020-01-28T08:32:49Z</time>
      </trkpt>
      <trkpt lat="43.3885720" lon="-5.8134020">
        <ele>156.8</ele>
        <time>2020-01-28T08:32:50Z</time>
      </trkpt>
      <trkpt lat="43.3885840" lon="-5.8134290">
        <ele>157.0</ele>
        <time>2020-01-28T08:32:51Z</time>
      </trkpt>
      <trkpt lat="43.3885890" lon="-5.8134370">
        <ele>157.0</ele>
        <time>2020-01-28T08:32:52Z</time>
      </trkpt>
      <trkpt lat="43.3885930" lon="-5.8134460">
        <ele>157.1</ele>
        <time>2020-01-28T08:32:53Z</time>
      </trkpt>
      <trkpt lat="43.3886010" lon="-5.8134590">
        <ele>157.2</ele>
        <time>2020-01-28T08:32:54Z</time>
      </trkpt>
      <trkpt lat="43.3886110" lon="-5.8134740">
        <ele>157.3</ele>
        <time>2020-01-28T08:32:55Z</time>
      </trkpt>
      <trkpt lat="43.3886250" lon="-5.8134980">
        <ele>157.5</ele>
        <time>2020-01-28T08:32:56Z</time>
      </trkpt>
      <trkpt lat="43.3886300" lon="-5.8135070">
        <ele>157.6</ele>
        <time>2020-01-28T08:32:57Z</time>
      </trkpt>
      <trkpt lat="43.3886360" lon="-5.8135150">
        <ele>157.6</ele>
        <time>2020-01-28T08:32:58Z</time>
      </trkpt>
      <trkpt lat="43.3886450" lon="-5.8135240">
        <ele>157.7</ele>
        <time>2020-01-28T08:32:59Z</time>
      </trkpt>
      <trkpt lat="43.3886530" lon="-5.8135290">
        <ele>157.8</ele>
        <time>2020-01-28T08:33:00Z</time>
      </trkpt>
      <trkpt lat="43.3886610" lon="-5.8135390">
        <ele>157.9</ele>
        <time>2020-01-28T08:33:01Z</time>
      </trkpt>
      <trkpt lat="43.3886720" lon="-5.8135540">
        <ele>158.0</ele>
        <time>2020-01-28T08:33:02Z</time>
      </trkpt>
      <trkpt lat="43.3886830" lon="-5.8135720">
        <ele>158.1</ele>
        <time>2020-01-28T08:33:03Z</time>
      </trkpt>
      <trkpt lat="43.3886920" lon="-5.8135880">
        <ele>158.2</ele>
        <time>2020-01-28T08:33:04Z</time>
      </trkpt>
      <trkpt lat="43.3887030" lon="-5.8136010">
        <ele>158.3</ele>
        <time>2020-01-28T08:33:05Z</time>
      </trkpt>
      <trkpt lat="43.3887120" lon="-5.8136100">
        <ele>158.4</ele>
        <time>2020-01-28T08:33:06Z</time>
      </trkpt>
      <trkpt lat="43.3887210" lon="-5.8136220">
        <ele>158.5</ele>
        <time>2020-01-28T08:33:07Z</time>
      </trkpt>
      <trkpt lat="43.3887270" lon="-5.8136360">
        <ele>158.6</ele>
        <time>2020-01-28T08:33:08Z</time>
      </trkpt>
      <trkpt lat="43.3887330" lon="-5.8136540">
        <ele>158.7</ele>
        <time>2020-01-28T08:33:09Z</time>
      </trkpt>
      <trkpt lat="43.3887390" lon="-5.8136760">
        <ele>158.8</ele>
        <time>2020-01-28T08:33:10Z</time>
      </trkpt>
      <trkpt lat="43.3887440" lon="-5.8136980">
        <ele>158.9</ele>
        <time>2020-01-28T08:33:11Z</time>
      </trkpt>
      <trkpt lat="43.3887440" lon="-5.8137030">
        <ele>158.9</ele>
        <time>2020-01-28T08:33:12Z</time>
      </trkpt>
      <trkpt lat="43.3887440" lon="-5.8137070">
        <ele>158.9</ele>
        <time>2020-01-28T08:33:13Z</time>
      </trkpt>
      <trkpt lat="43.3887450" lon="-5.8137120">
        <ele>158.9</ele>
        <time>2020-01-28T08:33:14Z</time>
      </trkpt>
      <trkpt lat="43.3887450" lon="-5.8137170">
        <ele>159.0</ele>
        <time>2020-01-28T08:33:15Z</time>
      </trkpt>
      <trkpt lat="43.3887450" lon="-5.8137220">
        <ele>159.0</ele>
        <time>2020-01-28T08:33:16Z</time>
      </trkpt>
      <trkpt lat="43.3887450" lon="-5.8137270">
        <ele>159.0</ele>
        <time>2020-01-28T08:33:17Z</time>
      </trkpt>
      <trkpt lat="43.3887450" lon="-5.8137310">
        <ele>159.0</ele>
        <time>2020-01-28T08:33:18Z</time>
      </trkpt>
      <trkpt lat="43.3887450" lon="-5.8137360">
        <ele>159.0</ele>
        <time>2020-01-28T08:33:19Z</time>
      </trkpt>
      <trkpt lat="43.3887450" lon="-5.8137410">
        <ele>159.0</ele>
        <time>2020-01-28T08:33:20Z</time>
      </trkpt>
      <trkpt lat="43.3887450" lon="-5.8137460">
        <ele>159.1</ele>
        <time>2020-01-28T08:33:21Z</time>
      </trkpt>
      <trkpt lat="43.3887460" lon="-5.8137510">
        <ele>159.1</ele>
        <time>2020-01-28T08:33:22Z</time>
      </trkpt>
      <trkpt lat="43.3887460" lon="-5.8137550">
        <ele>159.1</ele>
        <time>2020-01-28T08:33:23Z</time>
      </trkpt>
      <trkpt lat="43.3887460" lon="-5.8137600">
        <ele>159.1</ele>
        <time>2020-01-28T08:33:24Z</time>
      </trkpt>
      <trkpt lat="43.3887460" lon="-5.8137650">
        <ele>159.1</ele>
        <time>2020-01-28T08:33:25Z</time>
      </trkpt>
      <trkpt lat="43.3887480" lon="-5.8137680">
        <ele>159.2</ele>
        <time>2020-01-28T08:33:26Z</time>
      </trkpt>
      <trkpt lat="43.3887510" lon="-5.8137710">
        <ele>159.2</ele>
        <time>2020-01-28T08:33:27Z</time>
      </trkpt>
      <trkpt lat="43.3887530" lon="-5.8137730">
        <ele>159.2</ele>
        <time>2020-01-28T08:33:28Z</time>
      </trkpt>
      <trkpt lat="43.3887560" lon="-5.8137760">
        <ele>159.2</ele>
        <time>2020-01-28T08:33:29Z</time>
      </trkpt>
      <trkpt lat="43.3887580" lon="-5.8137790">
        <ele>159.2</ele>
        <time>2020-01-28T08:33:30Z</time>
      </trkpt>
      <trkpt lat="43.3887610" lon="-5.8137820">
        <ele>159.2</ele>
        <time>2020-01-28T08:33:31Z</time>
      </trkpt>
      <trkpt lat="43.3887630" lon="-5.8137850">
        <ele>159.2</ele>
        <time>2020-01-28T08:33:32Z</time>
      </trkpt>
      <trkpt lat="43.3887650" lon="-5.8137880">
        <ele>159.3</ele>
        <time>2020-01-28T08:33:33Z</time>
      </trkpt>
      <trkpt lat="43.3887680" lon="-5.8137900">
        <ele>159.3</ele>
        <time>2020-01-28T08:33:34Z</time>
      </trkpt>
      <trkpt lat="43.3887700" lon="-5.8137930">
        <ele>159.3</ele>
        <time>2020-01-28T08:33:35Z</time>
      </trkpt>
      <trkpt lat="43.3887730" lon="-5.8137960">
        <ele>159.3</ele>
        <time>2020-01-28T08:33:36Z</time>
      </trkpt>
      <trkpt lat="43.3887750" lon="-5.8137990">
        <ele>159.3</ele>
        <time>2020-01-28T08:33:37Z</time>
      </trkpt>
      <trkpt lat="43.3887870" lon="-5.8138110">
        <ele>159.4</ele>
        <time>2020-01-28T08:33:38Z</time>
      </trkpt>
      <trkpt lat="43.3887980" lon="-5.8138240">
        <ele>159.5</ele>
        <time>2020-01-28T08:33:39Z</time>
      </trkpt>
      <trkpt lat="43.3888070" lon="-5.8138400">
        <ele>159.5</ele>
        <time>2020-01-28T08:33:40Z</time>
      </trkpt>
      <trkpt lat="43.3888170" lon="-5.8138530">
        <ele>159.6</ele>
        <time>2020-01-28T08:33:41Z</time>
      </trkpt>
      <trkpt lat="43.3888270" lon="-5.8138690">
        <ele>159.7</ele>
        <time>2020-01-28T08:33:42Z</time>
      </trkpt>
      <trkpt lat="43.3888370" lon="-5.8138850">
        <ele>159.7</ele>
        <time>2020-01-28T08:33:43Z</time>
      </trkpt>
      <trkpt lat="43.3888530" lon="-5.8139200">
        <ele>159.9</ele>
        <time>2020-01-28T08:33:44Z</time>
      </trkpt>
      <trkpt lat="43.3888580" lon="-5.8139330">
        <ele>160.0</ele>
        <time>2020-01-28T08:33:45Z</time>
      </trkpt>
      <trkpt lat="43.3888690" lon="-5.8139540">
        <ele>160.1</ele>
        <time>2020-01-28T08:33:46Z</time>
      </trkpt>
      <trkpt lat="43.3888800" lon="-5.8139730">
        <ele>160.2</ele>
        <time>2020-01-28T08:33:47Z</time>
      </trkpt>
      <trkpt lat="43.3888900" lon="-5.8139880">
        <ele>160.2</ele>
        <time>2020-01-28T08:33:48Z</time>
      </trkpt>
      <trkpt lat="43.3889010" lon="-5.8140040">
        <ele>160.3</ele>
        <time>2020-01-28T08:33:49Z</time>
      </trkpt>
      <trkpt lat="43.3889130" lon="-5.8140190">
        <ele>160.4</ele>
        <time>2020-01-28T08:33:50Z</time>
      </trkpt>
      <trkpt lat="43.3889250" lon="-5.8140340">
        <ele>160.6</ele>
        <time>2020-01-28T08:33:51Z</time>
      </trkpt>
      <trkpt lat="43.3889380" lon="-5.8140490">
        <ele>160.7</ele>
        <time>2020-01-28T08:33:52Z</time>
      </trkpt>
      <trkpt lat="43.3889500" lon="-5.8140600">
        <ele>160.8</ele>
        <time>2020-01-28T08:33:53Z</time>
      </trkpt>
      <trkpt lat="43.3889620" lon="-5.8140710">
        <ele>160.9</ele>
        <time>2020-01-28T08:33:54Z</time>
      </trkpt>
      <trkpt lat="43.3889740" lon="-5.8140830">
        <ele>161.0</ele>
        <time>2020-01-28T08:33:55Z</time>
      </trkpt>
      <trkpt lat="43.3889860" lon="-5.8140970">
        <ele>161.1</ele>
        <time>2020-01-28T08:33:56Z</time>
      </trkpt>
      <trkpt lat="43.3889980" lon="-5.8141100">
        <ele>161.2</ele>
        <time>2020-01-28T08:33:57Z</time>
      </trkpt>
      <trkpt lat="43.3890100" lon="-5.8141190">
        <ele>161.3</ele>
        <time>2020-01-28T08:33:58Z</time>
      </trkpt>
      <trkpt lat="43.3890200" lon="-5.8141290">
        <ele>161.4</ele>
        <time>2020-01-28T08:33:59Z</time>
      </trkpt>
      <trkpt lat="43.3890300" lon="-5.8141330">
        <ele>161.4</ele>
        <time>2020-01-28T08:34:00Z</time>
      </trkpt>
      <trkpt lat="43.3890480" lon="-5.8141420">
        <ele>161.5</ele>
        <time>2020-01-28T08:34:01Z</time>
      </trkpt>
      <trkpt lat="43.3890560" lon="-5.8141480">
        <ele>161.6</ele>
        <time>2020-01-28T08:34:02Z</time>
      </trkpt>
      <trkpt lat="43.3890640" lon="-5.8141530">
        <ele>161.6</ele>
        <time>2020-01-28T08:34:03Z</time>
      </trkpt>
      <trkpt lat="43.3890760" lon="-5.8141630">
        <ele>161.7</ele>
        <time>2020-01-28T08:34:04Z</time>
      </trkpt>
      <trkpt lat="43.3890880" lon="-5.8141710">
        <ele>161.8</ele>
        <time>2020-01-28T08:34:05Z</time>
      </trkpt>
      <trkpt lat="43.3890990" lon="-5.8141850">
        <ele>161.9</ele>
        <time>2020-01-28T08:34:06Z</time>
      </trkpt>
      <trkpt lat="43.3891120" lon="-5.8142060">
        <ele>161.9</ele>
        <time>2020-01-28T08:34:07Z</time>
      </trkpt>
      <trkpt lat="43.3891230" lon="-5.8142240">
        <ele>162.0</ele>
        <time>2020-01-28T08:34:08Z</time>
      </trkpt>
      <trkpt lat="43.3891320" lon="-5.8142410">
        <ele>162.1</ele>
        <time>2020-01-28T08:34:09Z</time>
      </trkpt>
      <trkpt lat="43.3891420" lon="-5.8142570">
        <ele>162.1</ele>
        <time>2020-01-28T08:34:10Z</time>
      </trkpt>
      <trkpt lat="43.3891520" lon="-5.8142700">
        <ele>162.1</ele>
        <time>2020-01-28T08:34:11Z</time>
      </trkpt>
      <trkpt lat="43.3891710" lon="-5.8142860">
        <ele>162.2</ele>
        <time>2020-01-28T08:34:12Z</time>
      </trkpt>
      <trkpt lat="43.3891780" lon="-5.8142940">
        <ele>162.2</ele>
        <time>2020-01-28T08:34:13Z</time>
      </trkpt>
      <trkpt lat="43.3891860" lon="-5.8143020">
        <ele>162.2</ele>
        <time>2020-01-28T08:34:14Z</time>
      </trkpt>
      <trkpt lat="43.3891970" lon="-5.8143190">
        <ele>162.2</ele>
        <time>2020-01-28T08:34:15Z</time>
      </trkpt>
      <trkpt lat="43.3892070" lon="-5.8143390">
        <ele>162.2</ele>
        <time>2020-01-28T08:34:16Z</time>
      </trkpt>
      <trkpt lat="43.3892190" lon="-5.8143560">
        <ele>162.2</ele>
        <time>2020-01-28T08:34:17Z</time>
      </trkpt>
      <trkpt lat="43.3892290" lon="-5.8143660">
        <ele>162.2</ele>
        <time>2020-01-28T08:34:18Z</time>
      </trkpt>
      <trkpt lat="43.3892390" lon="-5.8143820">
        <ele>162.1</ele>
        <time>2020-01-28T08:34:19Z</time>
      </trkpt>
      <trkpt lat="43.3892510" lon="-5.8143960">
        <ele>162.1</ele>
        <time>2020-01-28T08:34:20Z</time>
      </trkpt>
      <trkpt lat="43.3892630" lon="-5.8144110">
        <ele>162.1</ele>
        <time>2020-01-28T08:34:21Z</time>
      </trkpt>
      <trkpt lat="43.3892750" lon="-5.8144280">
        <ele>162.0</ele>
        <time>2020-01-28T08:34:22Z</time>
      </trkpt>
      <trkpt lat="43.3892880" lon="-5.8144450">
        <ele>162.0</ele>
        <time>2020-01-28T08:34:23Z</time>
      </trkpt>
      <trkpt lat="43.3892990" lon="-5.8144630">
        <ele>161.9</ele>
        <time>2020-01-28T08:34:24Z</time>
      </trkpt>
      <trkpt lat="43.3893130" lon="-5.8144960">
        <ele>161.8</ele>
        <time>2020-01-28T08:34:25Z</time>
      </trkpt>
      <trkpt lat="43.3893170" lon="-5.8145080">
        <ele>161.7</ele>
        <time>2020-01-28T08:34:26Z</time>
      </trkpt>
      <trkpt lat="43.3893250" lon="-5.8145290">
        <ele>161.6</ele>
        <time>2020-01-28T08:34:27Z</time>
      </trkpt>
      <trkpt lat="43.3893320" lon="-5.8145480">
        <ele>161.5</ele>
        <time>2020-01-28T08:34:28Z</time>
      </trkpt>
      <trkpt lat="43.3893400" lon="-5.8145660">
        <ele>161.5</ele>
        <time>2020-01-28T08:34:29Z</time>
      </trkpt>
      <trkpt lat="43.3893480" lon="-5.8145870">
        <ele>161.4</ele>
        <time>2020-01-28T08:34:30Z</time>
      </trkpt>
      <trkpt lat="43.3893610" lon="-5.8146230">
        <ele>161.1</ele>
        <time>2020-01-28T08:34:31Z</time>
      </trkpt>
      <trkpt lat="43.3893640" lon="-5.8146340">
        <ele>161.1</ele>
        <time>2020-01-28T08:34:32Z</time>
      </trkpt>
      <trkpt lat="43.3893690" lon="-5.8146540">
        <ele>160.9</ele>
        <time>2020-01-28T08:34:33Z</time>
      </trkpt>
      <trkpt lat="43.3893770" lon="-5.8146800">
        <ele>160.8</ele>
        <time>2020-01-28T08:34:34Z</time>
      </trkpt>
      <trkpt lat="43.3893960" lon="-5.8147100">
        <ele>160.5</ele>
        <time>2020-01-28T08:34:35Z</time>
      </trkpt>
      <trkpt lat="43.3894020" lon="-5.8147200">
        <ele>160.4</ele>
        <time>2020-01-28T08:34:36Z</time>
      </trkpt>
      <trkpt lat="43.3894160" lon="-5.8147360">
        <ele>160.2</ele>
        <time>2020-01-28T08:34:37Z</time>
      </trkpt>
      <trkpt lat="43.3894270" lon="-5.8147530">
        <ele>160.1</ele>
        <time>2020-01-28T08:34:38Z</time>
      </trkpt>
      <trkpt lat="43.3894370" lon="-5.8147720">
        <ele>159.9</ele>
        <time>2020-01-28T08:34:39Z</time>
      </trkpt>
      <trkpt lat="43.3894450" lon="-5.8147900">
        <ele>159.8</ele>
        <time>2020-01-28T08:34:40Z</time>
      </trkpt>
      <trkpt lat="43.3894540" lon="-5.8148100">
        <ele>159.6</ele>
        <time>2020-01-28T08:34:41Z</time>
      </trkpt>
      <trkpt lat="43.3894640" lon="-5.8148300">
        <ele>159.5</ele>
        <time>2020-01-28T08:34:42Z</time>
      </trkpt>
      <trkpt lat="43.3894780" lon="-5.8148520">
        <ele>159.2</ele>
        <time>2020-01-28T08:34:43Z</time>
      </trkpt>
      <trkpt lat="43.3894850" lon="-5.8148620">
        <ele>159.1</ele>
        <time>2020-01-28T08:34:44Z</time>
      </trkpt>
      <trkpt lat="43.3894910" lon="-5.8148730">
        <ele>159.0</ele>
        <time>2020-01-28T08:34:45Z</time>
      </trkpt>
      <trkpt lat="43.3895080" lon="-5.8149080">
        <ele>158.8</ele>
        <time>2020-01-28T08:34:46Z</time>
      </trkpt>
      <trkpt lat="43.3895120" lon="-5.8149190">
        <ele>158.7</ele>
        <time>2020-01-28T08:34:47Z</time>
      </trkpt>
      <trkpt lat="43.3895270" lon="-5.8149410">
        <ele>158.5</ele>
        <time>2020-01-28T08:34:48Z</time>
      </trkpt>
      <trkpt lat="43.3895330" lon="-5.8149510">
        <ele>158.4</ele>
        <time>2020-01-28T08:34:49Z</time>
      </trkpt>
      <trkpt lat="43.3895390" lon="-5.8149610">
        <ele>158.4</ele>
        <time>2020-01-28T08:34:50Z</time>
      </trkpt>
      <trkpt lat="43.3895490" lon="-5.8149750">
        <ele>158.3</ele>
        <time>2020-01-28T08:34:51Z</time>
      </trkpt>
      <trkpt lat="43.3895560" lon="-5.8149910">
        <ele>158.2</ele>
        <time>2020-01-28T08:34:52Z</time>
      </trkpt>
      <trkpt lat="43.3895630" lon="-5.8150070">
        <ele>158.1</ele>
        <time>2020-01-28T08:34:53Z</time>
      </trkpt>
      <trkpt lat="43.3895720" lon="-5.8150250">
        <ele>157.9</ele>
        <time>2020-01-28T08:34:54Z</time>
      </trkpt>
      <trkpt lat="43.3895800" lon="-5.8150450">
        <ele>157.8</ele>
        <time>2020-01-28T08:34:55Z</time>
      </trkpt>
      <trkpt lat="43.3895880" lon="-5.8150630">
        <ele>157.7</ele>
        <time>2020-01-28T08:34:56Z</time>
      </trkpt>
      <trkpt lat="43.3895980" lon="-5.8150900">
        <ele>157.6</ele>
        <time>2020-01-28T08:34:57Z</time>
      </trkpt>
      <trkpt lat="43.3896030" lon="-5.8151010">
        <ele>157.5</ele>
        <time>2020-01-28T08:34:58Z</time>
      </trkpt>
      <trkpt lat="43.3896070" lon="-5.8151120">
        <ele>157.5</ele>
        <time>2020-01-28T08:34:59Z</time>
      </trkpt>
      <trkpt lat="43.3896150" lon="-5.8151320">
        <ele>157.4</ele>
        <time>2020-01-28T08:35:00Z</time>
      </trkpt>
      <trkpt lat="43.3896230" lon="-5.8151500">
        <ele>157.3</ele>
        <time>2020-01-28T08:35:01Z</time>
      </trkpt>
      <trkpt lat="43.3896320" lon="-5.8151690">
        <ele>157.2</ele>
        <time>2020-01-28T08:35:02Z</time>
      </trkpt>
      <trkpt lat="43.3896410" lon="-5.8151890">
        <ele>157.1</ele>
        <time>2020-01-28T08:35:03Z</time>
      </trkpt>
      <trkpt lat="43.3896500" lon="-5.8152060">
        <ele>157.0</ele>
        <time>2020-01-28T08:35:04Z</time>
      </trkpt>
      <trkpt lat="43.3896580" lon="-5.8152240">
        <ele>157.0</ele>
        <time>2020-01-28T08:35:05Z</time>
      </trkpt>
      <trkpt lat="43.3896670" lon="-5.8152410">
        <ele>156.9</ele>
        <time>2020-01-28T08:35:06Z</time>
      </trkpt>
      <trkpt lat="43.3896760" lon="-5.8152540">
        <ele>156.9</ele>
        <time>2020-01-28T08:35:07Z</time>
      </trkpt>
      <trkpt lat="43.3896830" lon="-5.8152640">
        <ele>156.8</ele>
        <time>2020-01-28T08:35:08Z</time>
      </trkpt>
      <trkpt lat="43.3896870" lon="-5.8152680">
        <ele>156.8</ele>
        <time>2020-01-28T08:35:09Z</time>
      </trkpt>
      <trkpt lat="43.3896920" lon="-5.8152730">
        <ele>156.8</ele>
        <time>2020-01-28T08:35:10Z</time>
      </trkpt>
      <trkpt lat="43.3897010" lon="-5.8152800">
        <ele>156.8</ele>
        <time>2020-01-28T08:35:11Z</time>
      </trkpt>
      <trkpt lat="43.3897160" lon="-5.8153020">
        <ele>156.7</ele>
        <time>2020-01-28T08:35:12Z</time>
      </trkpt>
      <trkpt lat="43.3897210" lon="-5.8153120">
        <ele>156.7</ele>
        <time>2020-01-28T08:35:13Z</time>
      </trkpt>
      <trkpt lat="43.3897260" lon="-5.8153220">
        <ele>156.7</ele>
        <time>2020-01-28T08:35:14Z</time>
      </trkpt>
      <trkpt lat="43.3897350" lon="-5.8153400">
        <ele>156.6</ele>
        <time>2020-01-28T08:35:15Z</time>
      </trkpt>
      <trkpt lat="43.3897440" lon="-5.8153580">
        <ele>156.6</ele>
        <time>2020-01-28T08:35:16Z</time>
      </trkpt>
      <trkpt lat="43.3897540" lon="-5.8153740">
        <ele>156.6</ele>
        <time>2020-01-28T08:35:17Z</time>
      </trkpt>
      <trkpt lat="43.3897640" lon="-5.8153900">
        <ele>156.6</ele>
        <time>2020-01-28T08:35:18Z</time>
      </trkpt>
      <trkpt lat="43.3897710" lon="-5.8154060">
        <ele>156.5</ele>
        <time>2020-01-28T08:35:19Z</time>
      </trkpt>
      <trkpt lat="43.3897780" lon="-5.8154200">
        <ele>156.5</ele>
        <time>2020-01-28T08:35:20Z</time>
      </trkpt>
      <trkpt lat="43.3897840" lon="-5.8154290">
        <ele>156.5</ele>
        <time>2020-01-28T08:35:21Z</time>
      </trkpt>
      <trkpt lat="43.3897970" lon="-5.8154500">
        <ele>156.6</ele>
        <time>2020-01-28T08:35:22Z</time>
      </trkpt>
      <trkpt lat="43.3898040" lon="-5.8154600">
        <ele>156.6</ele>
        <time>2020-01-28T08:35:23Z</time>
      </trkpt>
      <trkpt lat="43.3898100" lon="-5.8154700">
        <ele>156.6</ele>
        <time>2020-01-28T08:35:24Z</time>
      </trkpt>
      <trkpt lat="43.3898180" lon="-5.8154870">
        <ele>156.7</ele>
        <time>2020-01-28T08:35:25Z</time>
      </trkpt>
      <trkpt lat="43.3898250" lon="-5.8155020">
        <ele>156.7</ele>
        <time>2020-01-28T08:35:26Z</time>
      </trkpt>
      <trkpt lat="43.3898320" lon="-5.8155180">
        <ele>156.7</ele>
        <time>2020-01-28T08:35:27Z</time>
      </trkpt>
      <trkpt lat="43.3898390" lon="-5.8155370">
        <ele>156.8</ele>
        <time>2020-01-28T08:35:28Z</time>
      </trkpt>
      <trkpt lat="43.3898460" lon="-5.8155580">
        <ele>156.9</ele>
        <time>2020-01-28T08:35:29Z</time>
      </trkpt>
      <trkpt lat="43.3898520" lon="-5.8155790">
        <ele>157.0</ele>
        <time>2020-01-28T08:35:30Z</time>
      </trkpt>
      <trkpt lat="43.3898580" lon="-5.8155990">
        <ele>157.1</ele>
        <time>2020-01-28T08:35:31Z</time>
      </trkpt>
      <trkpt lat="43.3898630" lon="-5.8156190">
        <ele>157.2</ele>
        <time>2020-01-28T08:35:32Z</time>
      </trkpt>
      <trkpt lat="43.3898720" lon="-5.8156460">
        <ele>157.4</ele>
        <time>2020-01-28T08:35:33Z</time>
      </trkpt>
      <trkpt lat="43.3898760" lon="-5.8156580">
        <ele>157.4</ele>
        <time>2020-01-28T08:35:34Z</time>
      </trkpt>
      <trkpt lat="43.3898800" lon="-5.8156690">
        <ele>157.5</ele>
        <time>2020-01-28T08:35:35Z</time>
      </trkpt>
      <trkpt lat="43.3898880" lon="-5.8156880">
        <ele>157.6</ele>
        <time>2020-01-28T08:35:36Z</time>
      </trkpt>
      <trkpt lat="43.3898950" lon="-5.8157060">
        <ele>157.7</ele>
        <time>2020-01-28T08:35:37Z</time>
      </trkpt>
      <trkpt lat="43.3898990" lon="-5.8157240">
        <ele>157.7</ele>
        <time>2020-01-28T08:35:38Z</time>
      </trkpt>
      <trkpt lat="43.3899030" lon="-5.8157440">
        <ele>157.7</ele>
        <time>2020-01-28T08:35:39Z</time>
      </trkpt>
      <trkpt lat="43.3899070" lon="-5.8157640">
        <ele>157.7</ele>
        <time>2020-01-28T08:35:40Z</time>
      </trkpt>
      <trkpt lat="43.3899100" lon="-5.8157840">
        <ele>157.7</ele>
        <time>2020-01-28T08:35:41Z</time>
      </trkpt>
      <trkpt lat="43.3899140" lon="-5.8158060">
        <ele>157.7</ele>
        <time>2020-01-28T08:35:42Z</time>
      </trkpt>
      <trkpt lat="43.3899170" lon="-5.8158270">
        <ele>157.7</ele>
        <time>2020-01-28T08:35:43Z</time>
      </trkpt>
      <trkpt lat="43.3899200" lon="-5.8158510">
        <ele>157.7</ele>
        <time>2020-01-28T08:35:44Z</time>
      </trkpt>
      <trkpt lat="43.3899220" lon="-5.8158750">
        <ele>157.7</ele>
        <time>2020-01-28T08:35:45Z</time>
      </trkpt>
      <trkpt lat="43.3899240" lon="-5.8158970">
        <ele>157.7</ele>
        <time>2020-01-28T08:35:46Z</time>
      </trkpt>
      <trkpt lat="43.3899250" lon="-5.8159180">
        <ele>157.7</ele>
        <time>2020-01-28T08:35:47Z</time>
      </trkpt>
      <trkpt lat="43.3899270" lon="-5.8159390">
        <ele>157.7</ele>
        <time>2020-01-28T08:35:48Z</time>
      </trkpt>
      <trkpt lat="43.3899300" lon="-5.8159600">
        <ele>157.7</ele>
        <time>2020-01-28T08:35:49Z</time>
      </trkpt>
      <trkpt lat="43.3899310" lon="-5.8159830">
        <ele>157.7</ele>
        <time>2020-01-28T08:35:50Z</time>
      </trkpt>
      <trkpt lat="43.3899320" lon="-5.8160060">
        <ele>157.7</ele>
        <time>2020-01-28T08:35:51Z</time>
      </trkpt>
      <trkpt lat="43.3899330" lon="-5.8160280">
        <ele>157.7</ele>
        <time>2020-01-28T08:35:52Z</time>
      </trkpt>
      <trkpt lat="43.3899330" lon="-5.8160500">
        <ele>157.7</ele>
        <time>2020-01-28T08:35:53Z</time>
      </trkpt>
      <trkpt lat="43.3899330" lon="-5.8160710">
        <ele>157.7</ele>
        <time>2020-01-28T08:35:54Z</time>
      </trkpt>
      <trkpt lat="43.3899320" lon="-5.8160990">
        <ele>157.7</ele>
        <time>2020-01-28T08:35:55Z</time>
      </trkpt>
      <trkpt lat="43.3899290" lon="-5.8161440">
        <ele>157.7</ele>
        <time>2020-01-28T08:35:56Z</time>
      </trkpt>
      <trkpt lat="43.3899270" lon="-5.8161570">
        <ele>157.7</ele>
        <time>2020-01-28T08:35:57Z</time>
      </trkpt>
      <trkpt lat="43.3899220" lon="-5.8161770">
        <ele>157.7</ele>
        <time>2020-01-28T08:35:58Z</time>
      </trkpt>
      <trkpt lat="43.3899190" lon="-5.8161950">
        <ele>157.7</ele>
        <time>2020-01-28T08:35:59Z</time>
      </trkpt>
      <trkpt lat="43.3899160" lon="-5.8162150">
        <ele>157.7</ele>
        <time>2020-01-28T08:36:00Z</time>
      </trkpt>
      <trkpt lat="43.3899130" lon="-5.8162360">
        <ele>157.7</ele>
        <time>2020-01-28T08:36:01Z</time>
      </trkpt>
      <trkpt lat="43.3899100" lon="-5.8162550">
        <ele>157.7</ele>
        <time>2020-01-28T08:36:02Z</time>
      </trkpt>
      <trkpt lat="43.3899080" lon="-5.8162740">
        <ele>157.7</ele>
        <time>2020-01-28T08:36:03Z</time>
      </trkpt>
      <trkpt lat="43.3899050" lon="-5.8162960">
        <ele>157.7</ele>
        <time>2020-01-28T08:36:04Z</time>
      </trkpt>
      <trkpt lat="43.3899020" lon="-5.8163180">
        <ele>157.7</ele>
        <time>2020-01-28T08:36:05Z</time>
      </trkpt>
      <trkpt lat="43.3899000" lon="-5.8163400">
        <ele>157.7</ele>
        <time>2020-01-28T08:36:06Z</time>
      </trkpt>
      <trkpt lat="43.3898980" lon="-5.8163640">
        <ele>157.7</ele>
        <time>2020-01-28T08:36:07Z</time>
      </trkpt>
      <trkpt lat="43.3898970" lon="-5.8163860">
        <ele>157.7</ele>
        <time>2020-01-28T08:36:08Z</time>
      </trkpt>
      <trkpt lat="43.3898960" lon="-5.8164060">
        <ele>157.7</ele>
        <time>2020-01-28T08:36:09Z</time>
      </trkpt>
      <trkpt lat="43.3898960" lon="-5.8164250">
        <ele>157.7</ele>
        <time>2020-01-28T08:36:10Z</time>
      </trkpt>
      <trkpt lat="43.3898960" lon="-5.8164440">
        <ele>157.7</ele>
        <time>2020-01-28T08:36:11Z</time>
      </trkpt>
      <trkpt lat="43.3898970" lon="-5.8164670">
        <ele>157.7</ele>
        <time>2020-01-28T08:36:12Z</time>
      </trkpt>
      <trkpt lat="43.3899010" lon="-5.8164900">
        <ele>157.7</ele>
        <time>2020-01-28T08:36:13Z</time>
      </trkpt>
      <trkpt lat="43.3899070" lon="-5.8165190">
        <ele>157.7</ele>
        <time>2020-01-28T08:36:14Z</time>
      </trkpt>
      <trkpt lat="43.3899100" lon="-5.8165300">
        <ele>157.7</ele>
        <time>2020-01-28T08:36:15Z</time>
      </trkpt>
      <trkpt lat="43.3899130" lon="-5.8165410">
        <ele>157.7</ele>
        <time>2020-01-28T08:36:16Z</time>
      </trkpt>
      <trkpt lat="43.3899180" lon="-5.8165630">
        <ele>157.7</ele>
        <time>2020-01-28T08:36:17Z</time>
      </trkpt>
      <trkpt lat="43.3899240" lon="-5.8165820">
        <ele>157.7</ele>
        <time>2020-01-28T08:36:18Z</time>
      </trkpt>
      <trkpt lat="43.3899300" lon="-5.8166020">
        <ele>157.7</ele>
        <time>2020-01-28T08:36:19Z</time>
      </trkpt>
      <trkpt lat="43.3899370" lon="-5.8166180">
        <ele>157.7</ele>
        <time>2020-01-28T08:36:20Z</time>
      </trkpt>
      <trkpt lat="43.3899520" lon="-5.8166390">
        <ele>157.6</ele>
        <time>2020-01-28T08:36:21Z</time>
      </trkpt>
      <trkpt lat="43.3899590" lon="-5.8166470">
        <ele>157.6</ele>
        <time>2020-01-28T08:36:22Z</time>
      </trkpt>
      <trkpt lat="43.3899660" lon="-5.8166550">
        <ele>157.6</ele>
        <time>2020-01-28T08:36:23Z</time>
      </trkpt>
      <trkpt lat="43.3899760" lon="-5.8166700">
        <ele>157.6</ele>
        <time>2020-01-28T08:36:24Z</time>
      </trkpt>
      <trkpt lat="43.3899840" lon="-5.8166860">
        <ele>157.6</ele>
        <time>2020-01-28T08:36:25Z</time>
      </trkpt>
      <trkpt lat="43.3899910" lon="-5.8167030">
        <ele>157.6</ele>
        <time>2020-01-28T08:36:26Z</time>
      </trkpt>
      <trkpt lat="43.3899970" lon="-5.8167220">
        <ele>157.6</ele>
        <time>2020-01-28T08:36:27Z</time>
      </trkpt>
      <trkpt lat="43.3900030" lon="-5.8167410">
        <ele>157.6</ele>
        <time>2020-01-28T08:36:28Z</time>
      </trkpt>
      <trkpt lat="43.3900100" lon="-5.8167600">
        <ele>157.6</ele>
        <time>2020-01-28T08:36:29Z</time>
      </trkpt>
      <trkpt lat="43.3900160" lon="-5.8167730">
        <ele>157.6</ele>
        <time>2020-01-28T08:36:30Z</time>
      </trkpt>
      <trkpt lat="43.3900230" lon="-5.8167870">
        <ele>157.6</ele>
        <time>2020-01-28T08:36:31Z</time>
      </trkpt>
      <trkpt lat="43.3900310" lon="-5.8168000">
        <ele>157.6</ele>
        <time>2020-01-28T08:36:32Z</time>
      </trkpt>
      <trkpt lat="43.3900400" lon="-5.8168170">
        <ele>157.6</ele>
        <time>2020-01-28T08:36:33Z</time>
      </trkpt>
      <trkpt lat="43.3900490" lon="-5.8168340">
        <ele>157.6</ele>
        <time>2020-01-28T08:36:34Z</time>
      </trkpt>
      <trkpt lat="43.3900540" lon="-5.8168450">
        <ele>157.6</ele>
        <time>2020-01-28T08:36:35Z</time>
      </trkpt>
      <trkpt lat="43.3900600" lon="-5.8168510">
        <ele>157.6</ele>
        <time>2020-01-28T08:36:36Z</time>
      </trkpt>
      <trkpt lat="43.3900670" lon="-5.8168570">
        <ele>157.6</ele>
        <time>2020-01-28T08:36:37Z</time>
      </trkpt>
      <trkpt lat="43.3900750" lon="-5.8168670">
        <ele>157.6</ele>
        <time>2020-01-28T08:36:38Z</time>
      </trkpt>
      <trkpt lat="43.3900810" lon="-5.8168770">
        <ele>157.6</ele>
        <time>2020-01-28T08:36:39Z</time>
      </trkpt>
      <trkpt lat="43.3900870" lon="-5.8168880">
        <ele>157.6</ele>
        <time>2020-01-28T08:36:40Z</time>
      </trkpt>
      <trkpt lat="43.3900940" lon="-5.8169030">
        <ele>157.6</ele>
        <time>2020-01-28T08:36:41Z</time>
      </trkpt>
      <trkpt lat="43.3901010" lon="-5.8169200">
        <ele>157.6</ele>
        <time>2020-01-28T08:36:42Z</time>
      </trkpt>
      <trkpt lat="43.3901080" lon="-5.8169400">
        <ele>157.6</ele>
        <time>2020-01-28T08:36:43Z</time>
      </trkpt>
      <trkpt lat="43.3901200" lon="-5.8169770">
        <ele>157.6</ele>
        <time>2020-01-28T08:36:44Z</time>
      </trkpt>
      <trkpt lat="43.3901230" lon="-5.8169880">
        <ele>157.6</ele>
        <time>2020-01-28T08:36:45Z</time>
      </trkpt>
      <trkpt lat="43.3901230" lon="-5.8170260">
        <ele>157.6</ele>
        <time>2020-01-28T08:36:46Z</time>
      </trkpt>
      <trkpt lat="43.3901220" lon="-5.8170410">
        <ele>157.6</ele>
        <time>2020-01-28T08:36:47Z</time>
      </trkpt>
      <trkpt lat="43.3901150" lon="-5.8170800">
        <ele>157.6</ele>
        <time>2020-01-28T08:36:48Z</time>
      </trkpt>
      <trkpt lat="43.3901120" lon="-5.8170910">
        <ele>157.6</ele>
        <time>2020-01-28T08:36:49Z</time>
      </trkpt>
      <trkpt lat="43.3901060" lon="-5.8171100">
        <ele>157.6</ele>
        <time>2020-01-28T08:36:50Z</time>
      </trkpt>
      <trkpt lat="43.3900990" lon="-5.8171260">
        <ele>157.6</ele>
        <time>2020-01-28T08:36:51Z</time>
      </trkpt>
      <trkpt lat="43.3900890" lon="-5.8171390">
        <ele>157.6</ele>
        <time>2020-01-28T08:36:52Z</time>
      </trkpt>
      <trkpt lat="43.3900780" lon="-5.8171510">
        <ele>157.6</ele>
        <time>2020-01-28T08:36:53Z</time>
      </trkpt>
      <trkpt lat="43.3900690" lon="-5.8171600">
        <ele>157.6</ele>
        <time>2020-01-28T08:36:54Z</time>
      </trkpt>
      <trkpt lat="43.3900600" lon="-5.8171690">
        <ele>157.6</ele>
        <time>2020-01-28T08:36:55Z</time>
      </trkpt>
      <trkpt lat="43.3900500" lon="-5.8171770">
        <ele>157.6</ele>
        <time>2020-01-28T08:36:56Z</time>
      </trkpt>
      <trkpt lat="43.3900380" lon="-5.8171870">
        <ele>157.6</ele>
        <time>2020-01-28T08:36:57Z</time>
      </trkpt>
      <trkpt lat="43.3900260" lon="-5.8171980">
        <ele>157.6</ele>
        <time>2020-01-28T08:36:58Z</time>
      </trkpt>
      <trkpt lat="43.3900150" lon="-5.8172080">
        <ele>157.6</ele>
        <time>2020-01-28T08:36:59Z</time>
      </trkpt>
      <trkpt lat="43.3900060" lon="-5.8172150">
        <ele>157.6</ele>
        <time>2020-01-28T08:37:00Z</time>
      </trkpt>
      <trkpt lat="43.3899980" lon="-5.8172200">
        <ele>157.6</ele>
        <time>2020-01-28T08:37:01Z</time>
      </trkpt>
      <trkpt lat="43.3899880" lon="-5.8172280">
        <ele>157.7</ele>
        <time>2020-01-28T08:37:02Z</time>
      </trkpt>
      <trkpt lat="43.3899810" lon="-5.8172350">
        <ele>157.7</ele>
        <time>2020-01-28T08:37:03Z</time>
      </trkpt>
      <trkpt lat="43.3899780" lon="-5.8172380">
        <ele>157.7</ele>
        <time>2020-01-28T08:37:04Z</time>
      </trkpt>
      <trkpt lat="43.3899740" lon="-5.8172410">
        <ele>157.7</ele>
        <time>2020-01-28T08:37:05Z</time>
      </trkpt>
      <trkpt lat="43.3899610" lon="-5.8172600">
        <ele>157.7</ele>
        <time>2020-01-28T08:37:06Z</time>
      </trkpt>
      <trkpt lat="43.3899560" lon="-5.8172710">
        <ele>157.7</ele>
        <time>2020-01-28T08:37:07Z</time>
      </trkpt>
      <trkpt lat="43.3899500" lon="-5.8172810">
        <ele>157.7</ele>
        <time>2020-01-28T08:37:08Z</time>
      </trkpt>
      <trkpt lat="43.3899440" lon="-5.8172990">
        <ele>157.7</ele>
        <time>2020-01-28T08:37:09Z</time>
      </trkpt>
      <trkpt lat="43.3899390" lon="-5.8173170">
        <ele>157.8</ele>
        <time>2020-01-28T08:37:10Z</time>
      </trkpt>
      <trkpt lat="43.3899390" lon="-5.8173450">
        <ele>157.8</ele>
        <time>2020-01-28T08:37:11Z</time>
      </trkpt>
      <trkpt lat="43.3899410" lon="-5.8173560">
        <ele>157.8</ele>
        <time>2020-01-28T08:37:12Z</time>
      </trkpt>
      <trkpt lat="43.3899430" lon="-5.8173680">
        <ele>157.8</ele>
        <time>2020-01-28T08:37:13Z</time>
      </trkpt>
      <trkpt lat="43.3899510" lon="-5.8173840">
        <ele>157.8</ele>
        <time>2020-01-28T08:37:14Z</time>
      </trkpt>
      <trkpt lat="43.3899620" lon="-5.8174010">
        <ele>157.8</ele>
        <time>2020-01-28T08:37:15Z</time>
      </trkpt>
      <trkpt lat="43.3899720" lon="-5.8174170">
        <ele>157.8</ele>
        <time>2020-01-28T08:37:16Z</time>
      </trkpt>
      <trkpt lat="43.3899810" lon="-5.8174350">
        <ele>157.8</ele>
        <time>2020-01-28T08:37:17Z</time>
      </trkpt>
      <trkpt lat="43.3899900" lon="-5.8174560">
        <ele>157.8</ele>
        <time>2020-01-28T08:37:18Z</time>
      </trkpt>
      <trkpt lat="43.3899990" lon="-5.8174730">
        <ele>157.8</ele>
        <time>2020-01-28T08:37:19Z</time>
      </trkpt>
      <trkpt lat="43.3900080" lon="-5.8174880">
        <ele>157.8</ele>
        <time>2020-01-28T08:37:20Z</time>
      </trkpt>
      <trkpt lat="43.3900180" lon="-5.8175050">
        <ele>157.8</ele>
        <time>2020-01-28T08:37:21Z</time>
      </trkpt>
      <trkpt lat="43.3900290" lon="-5.8175200">
        <ele>157.9</ele>
        <time>2020-01-28T08:37:22Z</time>
      </trkpt>
      <trkpt lat="43.3900400" lon="-5.8175360">
        <ele>157.9</ele>
        <time>2020-01-28T08:37:23Z</time>
      </trkpt>
      <trkpt lat="43.3900500" lon="-5.8175500">
        <ele>157.9</ele>
        <time>2020-01-28T08:37:24Z</time>
      </trkpt>
      <trkpt lat="43.3900600" lon="-5.8175630">
        <ele>157.9</ele>
        <time>2020-01-28T08:37:25Z</time>
      </trkpt>
      <trkpt lat="43.3900710" lon="-5.8175780">
        <ele>157.9</ele>
        <time>2020-01-28T08:37:26Z</time>
      </trkpt>
      <trkpt lat="43.3900820" lon="-5.8175910">
        <ele>157.9</ele>
        <time>2020-01-28T08:37:27Z</time>
      </trkpt>
      <trkpt lat="43.3900920" lon="-5.8176050">
        <ele>157.9</ele>
        <time>2020-01-28T08:37:28Z</time>
      </trkpt>
      <trkpt lat="43.3901010" lon="-5.8176220">
        <ele>158.0</ele>
        <time>2020-01-28T08:37:29Z</time>
      </trkpt>
      <trkpt lat="43.3901110" lon="-5.8176360">
        <ele>158.0</ele>
        <time>2020-01-28T08:37:30Z</time>
      </trkpt>
      <trkpt lat="43.3901220" lon="-5.8176530">
        <ele>158.0</ele>
        <time>2020-01-28T08:37:31Z</time>
      </trkpt>
      <trkpt lat="43.3901300" lon="-5.8176760">
        <ele>158.0</ele>
        <time>2020-01-28T08:37:32Z</time>
      </trkpt>
      <trkpt lat="43.3901390" lon="-5.8176980">
        <ele>158.0</ele>
        <time>2020-01-28T08:37:33Z</time>
      </trkpt>
      <trkpt lat="43.3901460" lon="-5.8177150">
        <ele>158.0</ele>
        <time>2020-01-28T08:37:34Z</time>
      </trkpt>
      <trkpt lat="43.3901530" lon="-5.8177350">
        <ele>158.0</ele>
        <time>2020-01-28T08:37:35Z</time>
      </trkpt>
      <trkpt lat="43.3901610" lon="-5.8177580">
        <ele>158.0</ele>
        <time>2020-01-28T08:37:36Z</time>
      </trkpt>
      <trkpt lat="43.3901690" lon="-5.8177780">
        <ele>158.0</ele>
        <time>2020-01-28T08:37:37Z</time>
      </trkpt>
      <trkpt lat="43.3901810" lon="-5.8178120">
        <ele>158.0</ele>
        <time>2020-01-28T08:37:38Z</time>
      </trkpt>
      <trkpt lat="43.3901850" lon="-5.8178240">
        <ele>158.0</ele>
        <time>2020-01-28T08:37:39Z</time>
      </trkpt>
      <trkpt lat="43.3901970" lon="-5.8178620">
        <ele>158.0</ele>
        <time>2020-01-28T08:37:40Z</time>
      </trkpt>
      <trkpt lat="43.3902000" lon="-5.8178750">
        <ele>158.0</ele>
        <time>2020-01-28T08:37:41Z</time>
      </trkpt>
      <trkpt lat="43.3902060" lon="-5.8178960">
        <ele>158.0</ele>
        <time>2020-01-28T08:37:42Z</time>
      </trkpt>
      <trkpt lat="43.3902120" lon="-5.8179170">
        <ele>158.0</ele>
        <time>2020-01-28T08:37:43Z</time>
      </trkpt>
      <trkpt lat="43.3902240" lon="-5.8179500">
        <ele>158.0</ele>
        <time>2020-01-28T08:37:44Z</time>
      </trkpt>
      <trkpt lat="43.3902280" lon="-5.8179620">
        <ele>158.0</ele>
        <time>2020-01-28T08:37:45Z</time>
      </trkpt>
      <trkpt lat="43.3902350" lon="-5.8179850">
        <ele>158.0</ele>
        <time>2020-01-28T08:37:46Z</time>
      </trkpt>
      <trkpt lat="43.3902430" lon="-5.8180060">
        <ele>158.0</ele>
        <time>2020-01-28T08:37:47Z</time>
      </trkpt>
      <trkpt lat="43.3902520" lon="-5.8180260">
        <ele>157.9</ele>
        <time>2020-01-28T08:37:48Z</time>
      </trkpt>
      <trkpt lat="43.3902620" lon="-5.8180460">
        <ele>157.9</ele>
        <time>2020-01-28T08:37:49Z</time>
      </trkpt>
      <trkpt lat="43.3902730" lon="-5.8180610">
        <ele>157.9</ele>
        <time>2020-01-28T08:37:50Z</time>
      </trkpt>
      <trkpt lat="43.3902860" lon="-5.8180730">
        <ele>157.9</ele>
        <time>2020-01-28T08:37:51Z</time>
      </trkpt>
      <trkpt lat="43.3902990" lon="-5.8180760">
        <ele>157.9</ele>
        <time>2020-01-28T08:37:52Z</time>
      </trkpt>
      <trkpt lat="43.3903100" lon="-5.8180770">
        <ele>157.8</ele>
        <time>2020-01-28T08:37:53Z</time>
      </trkpt>
      <trkpt lat="43.3903200" lon="-5.8180770">
        <ele>157.8</ele>
        <time>2020-01-28T08:37:54Z</time>
      </trkpt>
      <trkpt lat="43.3903290" lon="-5.8180750">
        <ele>157.8</ele>
        <time>2020-01-28T08:37:55Z</time>
      </trkpt>
      <trkpt lat="43.3903380" lon="-5.8180700">
        <ele>157.8</ele>
        <time>2020-01-28T08:37:56Z</time>
      </trkpt>
      <trkpt lat="43.3903500" lon="-5.8180640">
        <ele>157.8</ele>
        <time>2020-01-28T08:37:57Z</time>
      </trkpt>
      <trkpt lat="43.3903710" lon="-5.8180640">
        <ele>157.8</ele>
        <time>2020-01-28T08:37:58Z</time>
      </trkpt>
      <trkpt lat="43.3903800" lon="-5.8180660">
        <ele>157.8</ele>
        <time>2020-01-28T08:37:59Z</time>
      </trkpt>
      <trkpt lat="43.3903880" lon="-5.8180690">
        <ele>157.8</ele>
        <time>2020-01-28T08:38:00Z</time>
      </trkpt>
      <trkpt lat="43.3904070" lon="-5.8180840">
        <ele>157.7</ele>
        <time>2020-01-28T08:38:01Z</time>
      </trkpt>
      <trkpt lat="43.3904140" lon="-5.8180900">
        <ele>157.7</ele>
        <time>2020-01-28T08:38:02Z</time>
      </trkpt>
      <trkpt lat="43.3904210" lon="-5.8180960">
        <ele>157.7</ele>
        <time>2020-01-28T08:38:03Z</time>
      </trkpt>
      <trkpt lat="43.3904310" lon="-5.8181060">
        <ele>157.7</ele>
        <time>2020-01-28T08:38:04Z</time>
      </trkpt>
      <trkpt lat="43.3904400" lon="-5.8181130">
        <ele>157.6</ele>
        <time>2020-01-28T08:38:05Z</time>
      </trkpt>
      <trkpt lat="43.3904440" lon="-5.8181160">
        <ele>157.6</ele>
        <time>2020-01-28T08:38:06Z</time>
      </trkpt>
      <trkpt lat="43.3904460" lon="-5.8181190">
        <ele>157.6</ele>
        <time>2020-01-28T08:38:07Z</time>
      </trkpt>
      <trkpt lat="43.3904500" lon="-5.8181230">
        <ele>157.6</ele>
        <time>2020-01-28T08:38:08Z</time>
      </trkpt>
      <trkpt lat="43.3904600" lon="-5.8181320">
        <ele>157.6</ele>
        <time>2020-01-28T08:38:09Z</time>
      </trkpt>
      <trkpt lat="43.3904690" lon="-5.8181450">
        <ele>157.6</ele>
        <time>2020-01-28T08:38:10Z</time>
      </trkpt>
      <trkpt lat="43.3904790" lon="-5.8181570">
        <ele>157.5</ele>
        <time>2020-01-28T08:38:11Z</time>
      </trkpt>
      <trkpt lat="43.3904890" lon="-5.8181710">
        <ele>157.5</ele>
        <time>2020-01-28T08:38:12Z</time>
      </trkpt>
      <trkpt lat="43.3904980" lon="-5.8181910">
        <ele>157.5</ele>
        <time>2020-01-28T08:38:13Z</time>
      </trkpt>
      <trkpt lat="43.3905070" lon="-5.8182110">
        <ele>157.4</ele>
        <time>2020-01-28T08:38:14Z</time>
      </trkpt>
      <trkpt lat="43.3905160" lon="-5.8182270">
        <ele>157.4</ele>
        <time>2020-01-28T08:38:15Z</time>
      </trkpt>
      <trkpt lat="43.3905260" lon="-5.8182440">
        <ele>157.4</ele>
        <time>2020-01-28T08:38:16Z</time>
      </trkpt>
      <trkpt lat="43.3905360" lon="-5.8182640">
        <ele>157.3</ele>
        <time>2020-01-28T08:38:17Z</time>
      </trkpt>
      <trkpt lat="43.3905450" lon="-5.8182830">
        <ele>157.3</ele>
        <time>2020-01-28T08:38:18Z</time>
      </trkpt>
      <trkpt lat="43.3905570" lon="-5.8183180">
        <ele>157.2</ele>
        <time>2020-01-28T08:38:19Z</time>
      </trkpt>
      <trkpt lat="43.3905610" lon="-5.8183300">
        <ele>157.1</ele>
        <time>2020-01-28T08:38:20Z</time>
      </trkpt>
      <trkpt lat="43.3905670" lon="-5.8183510">
        <ele>157.1</ele>
        <time>2020-01-28T08:38:21Z</time>
      </trkpt>
      <trkpt lat="43.3905750" lon="-5.8183750">
        <ele>157.0</ele>
        <time>2020-01-28T08:38:22Z</time>
      </trkpt>
      <trkpt lat="43.3905820" lon="-5.8183950">
        <ele>157.0</ele>
        <time>2020-01-28T08:38:23Z</time>
      </trkpt>
      <trkpt lat="43.3905890" lon="-5.8184140">
        <ele>156.9</ele>
        <time>2020-01-28T08:38:24Z</time>
      </trkpt>
      <trkpt lat="43.3905960" lon="-5.8184320">
        <ele>156.9</ele>
        <time>2020-01-28T08:38:25Z</time>
      </trkpt>
      <trkpt lat="43.3906030" lon="-5.8184480">
        <ele>156.9</ele>
        <time>2020-01-28T08:38:26Z</time>
      </trkpt>
      <trkpt lat="43.3906100" lon="-5.8184660">
        <ele>156.8</ele>
        <time>2020-01-28T08:38:27Z</time>
      </trkpt>
      <trkpt lat="43.3906180" lon="-5.8184800">
        <ele>156.8</ele>
        <time>2020-01-28T08:38:28Z</time>
      </trkpt>
      <trkpt lat="43.3906290" lon="-5.8184930">
        <ele>156.8</ele>
        <time>2020-01-28T08:38:29Z</time>
      </trkpt>
      <trkpt lat="43.3906400" lon="-5.8185040">
        <ele>156.8</ele>
        <time>2020-01-28T08:38:30Z</time>
      </trkpt>
      <trkpt lat="43.3906540" lon="-5.8185110">
        <ele>156.9</ele>
        <time>2020-01-28T08:38:31Z</time>
      </trkpt>
      <trkpt lat="43.3906690" lon="-5.8185170">
        <ele>156.9</ele>
        <time>2020-01-28T08:38:32Z</time>
      </trkpt>
      <trkpt lat="43.3906830" lon="-5.8185210">
        <ele>156.9</ele>
        <time>2020-01-28T08:38:33Z</time>
      </trkpt>
      <trkpt lat="43.3906970" lon="-5.8185250">
        <ele>157.0</ele>
        <time>2020-01-28T08:38:34Z</time>
      </trkpt>
      <trkpt lat="43.3907130" lon="-5.8185280">
        <ele>157.0</ele>
        <time>2020-01-28T08:38:35Z</time>
      </trkpt>
      <trkpt lat="43.3907290" lon="-5.8185280">
        <ele>157.0</ele>
        <time>2020-01-28T08:38:36Z</time>
      </trkpt>
      <trkpt lat="43.3907510" lon="-5.8185250">
        <ele>157.0</ele>
        <time>2020-01-28T08:38:37Z</time>
      </trkpt>
      <trkpt lat="43.3907580" lon="-5.8185240">
        <ele>157.0</ele>
        <time>2020-01-28T08:38:38Z</time>
      </trkpt>
      <trkpt lat="43.3907660" lon="-5.8185220">
        <ele>157.1</ele>
        <time>2020-01-28T08:38:39Z</time>
      </trkpt>
      <trkpt lat="43.3907800" lon="-5.8185180">
        <ele>157.1</ele>
        <time>2020-01-28T08:38:40Z</time>
      </trkpt>
      <trkpt lat="43.3907940" lon="-5.8185120">
        <ele>157.1</ele>
        <time>2020-01-28T08:38:41Z</time>
      </trkpt>
      <trkpt lat="43.3908080" lon="-5.8185070">
        <ele>157.1</ele>
        <time>2020-01-28T08:38:42Z</time>
      </trkpt>
      <trkpt lat="43.3908210" lon="-5.8185030">
        <ele>157.2</ele>
        <time>2020-01-28T08:38:43Z</time>
      </trkpt>
      <trkpt lat="43.3908350" lon="-5.8185000">
        <ele>157.2</ele>
        <time>2020-01-28T08:38:44Z</time>
      </trkpt>
      <trkpt lat="43.3908520" lon="-5.8184960">
        <ele>157.3</ele>
        <time>2020-01-28T08:38:45Z</time>
      </trkpt>
      <trkpt lat="43.3908670" lon="-5.8184930">
        <ele>157.3</ele>
        <time>2020-01-28T08:38:46Z</time>
      </trkpt>
      <trkpt lat="43.3908830" lon="-5.8184900">
        <ele>157.3</ele>
        <time>2020-01-28T08:38:47Z</time>
      </trkpt>
      <trkpt lat="43.3908970" lon="-5.8184870">
        <ele>157.4</ele>
        <time>2020-01-28T08:38:48Z</time>
      </trkpt>
      <trkpt lat="43.3909110" lon="-5.8184830">
        <ele>157.4</ele>
        <time>2020-01-28T08:38:49Z</time>
      </trkpt>
      <trkpt lat="43.3909250" lon="-5.8184780">
        <ele>157.4</ele>
        <time>2020-01-28T08:38:50Z</time>
      </trkpt>
      <trkpt lat="43.3909380" lon="-5.8184720">
        <ele>157.5</ele>
        <time>2020-01-28T08:38:51Z</time>
      </trkpt>
      <trkpt lat="43.3909580" lon="-5.8184630">
        <ele>157.5</ele>
        <time>2020-01-28T08:38:52Z</time>
      </trkpt>
      <trkpt lat="43.3909670" lon="-5.8184580">
        <ele>157.5</ele>
        <time>2020-01-28T08:38:53Z</time>
      </trkpt>
      <trkpt lat="43.3909750" lon="-5.8184540">
        <ele>157.5</ele>
        <time>2020-01-28T08:38:54Z</time>
      </trkpt>
      <trkpt lat="43.3909910" lon="-5.8184510">
        <ele>157.6</ele>
        <time>2020-01-28T08:38:55Z</time>
      </trkpt>
      <trkpt lat="43.3910060" lon="-5.8184470">
        <ele>157.6</ele>
        <time>2020-01-28T08:38:56Z</time>
      </trkpt>
      <trkpt lat="43.3910180" lon="-5.8184420">
        <ele>157.6</ele>
        <time>2020-01-28T08:38:57Z</time>
      </trkpt>
      <trkpt lat="43.3910270" lon="-5.8184370">
        <ele>157.6</ele>
        <time>2020-01-28T08:38:58Z</time>
      </trkpt>
      <trkpt lat="43.3910300" lon="-5.8184340">
        <ele>157.6</ele>
        <time>2020-01-28T08:38:59Z</time>
      </trkpt>
      <trkpt lat="43.3910300" lon="-5.8184340">
        <ele>157.6</ele>
        <time>2020-01-28T08:39:00Z</time>
      </trkpt>
      <trkpt lat="43.3910300" lon="-5.8184340">
        <ele>157.6</ele>
        <time>2020-01-28T08:39:01Z</time>
      </trkpt>
      <trkpt lat="43.3910300" lon="-5.8184340">
        <ele>157.6</ele>
        <time>2020-01-28T08:39:02Z</time>
      </trkpt>
      <trkpt lat="43.3910300" lon="-5.8184340">
        <ele>157.6</ele>
        <time>2020-01-28T08:39:03Z</time>
      </trkpt>
      <trkpt lat="43.3910300" lon="-5.8184340">
        <ele>157.6</ele>
        <time>2020-01-28T08:39:04Z</time>
      </trkpt>
      <trkpt lat="43.3910300" lon="-5.8184340">
        <ele>157.6</ele>
        <time>2020-01-28T08:39:05Z</time>
      </trkpt>
      <trkpt lat="43.3910300" lon="-5.8184340">
        <ele>157.6</ele>
        <time>2020-01-28T08:39:06Z</time>
      </trkpt>
      <trkpt lat="43.3910300" lon="-5.8184340">
        <ele>157.6</ele>
        <time>2020-01-28T08:39:07Z</time>
      </trkpt>
      <trkpt lat="43.3910300" lon="-5.8184340">
        <ele>157.6</ele>
        <time>2020-01-28T08:39:08Z</time>
      </trkpt>
      <trkpt lat="43.3910300" lon="-5.8184340">
        <ele>157.6</ele>
        <time>2020-01-28T08:39:09Z</time>
      </trkpt>
      <trkpt lat="43.3910300" lon="-5.8184340">
        <ele>157.6</ele>
        <time>2020-01-28T08:39:10Z</time>
      </trkpt>
      <trkpt lat="43.3910300" lon="-5.8184340">
        <ele>157.6</ele>
        <time>2020-01-28T08:39:11Z</time>
      </trkpt>
      <trkpt lat="43.3910300" lon="-5.8184340">
        <ele>157.6</ele>
        <time>2020-01-28T08:39:12Z</time>
      </trkpt>
      <trkpt lat="43.3910300" lon="-5.8184340">
        <ele>157.6</ele>
        <time>2020-01-28T08:39:13Z</time>
      </trkpt>
      <trkpt lat="43.3910320" lon="-5.8184330">
        <ele>157.6</ele>
        <time>2020-01-28T08:39:14Z</time>
      </trkpt>
      <trkpt lat="43.3910500" lon="-5.8184340">
        <ele>157.7</ele>
        <time>2020-01-28T08:39:15Z</time>
      </trkpt>
      <trkpt lat="43.3910600" lon="-5.8184360">
        <ele>157.7</ele>
        <time>2020-01-28T08:39:16Z</time>
      </trkpt>
      <trkpt lat="43.3910690" lon="-5.8184370">
        <ele>157.7</ele>
        <time>2020-01-28T08:39:17Z</time>
      </trkpt>
      <trkpt lat="43.3910830" lon="-5.8184360">
        <ele>157.7</ele>
        <time>2020-01-28T08:39:18Z</time>
      </trkpt>
      <trkpt lat="43.3910980" lon="-5.8184350">
        <ele>157.7</ele>
        <time>2020-01-28T08:39:19Z</time>
      </trkpt>
      <trkpt lat="43.3911090" lon="-5.8184350">
        <ele>157.7</ele>
        <time>2020-01-28T08:39:20Z</time>
      </trkpt>
      <trkpt lat="43.3911160" lon="-5.8184350">
        <ele>157.7</ele>
        <time>2020-01-28T08:39:21Z</time>
      </trkpt>
      <trkpt lat="43.3911260" lon="-5.8184340">
        <ele>157.8</ele>
        <time>2020-01-28T08:39:22Z</time>
      </trkpt>
      <trkpt lat="43.3911400" lon="-5.8184310">
        <ele>157.8</ele>
        <time>2020-01-28T08:39:23Z</time>
      </trkpt>
      <trkpt lat="43.3911480" lon="-5.8184300">
        <ele>157.8</ele>
        <time>2020-01-28T08:39:24Z</time>
      </trkpt>
      <trkpt lat="43.3911520" lon="-5.8184320">
        <ele>157.8</ele>
        <time>2020-01-28T08:39:25Z</time>
      </trkpt>
      <trkpt lat="43.3911570" lon="-5.8184370">
        <ele>157.8</ele>
        <time>2020-01-28T08:39:26Z</time>
      </trkpt>
      <trkpt lat="43.3911770" lon="-5.8184410">
        <ele>157.8</ele>
        <time>2020-01-28T08:39:27Z</time>
      </trkpt>
      <trkpt lat="43.3911870" lon="-5.8184380">
        <ele>157.8</ele>
        <time>2020-01-28T08:39:28Z</time>
      </trkpt>
      <trkpt lat="43.3911970" lon="-5.8184360">
        <ele>157.9</ele>
        <time>2020-01-28T08:39:29Z</time>
      </trkpt>
      <trkpt lat="43.3912250" lon="-5.8184250">
        <ele>157.9</ele>
        <time>2020-01-28T08:39:30Z</time>
      </trkpt>
      <trkpt lat="43.3912340" lon="-5.8184220">
        <ele>158.0</ele>
        <time>2020-01-28T08:39:31Z</time>
      </trkpt>
      <trkpt lat="43.3912490" lon="-5.8184220">
        <ele>158.0</ele>
        <time>2020-01-28T08:39:32Z</time>
      </trkpt>
      <trkpt lat="43.3912620" lon="-5.8184230">
        <ele>158.0</ele>
        <time>2020-01-28T08:39:33Z</time>
      </trkpt>
      <trkpt lat="43.3912620" lon="-5.8184230">
        <ele>158.0</ele>
        <time>2020-01-28T08:39:34Z</time>
      </trkpt>
      <trkpt lat="43.3912620" lon="-5.8184230">
        <ele>158.0</ele>
        <time>2020-01-28T08:39:35Z</time>
      </trkpt>
      <trkpt lat="43.3912620" lon="-5.8184230">
        <ele>158.0</ele>
        <time>2020-01-28T08:39:36Z</time>
      </trkpt>
      <trkpt lat="43.3912620" lon="-5.8184230">
        <ele>158.0</ele>
        <time>2020-01-28T08:39:37Z</time>
      </trkpt>
      <trkpt lat="43.3912620" lon="-5.8184230">
        <ele>158.0</ele>
        <time>2020-01-28T08:39:38Z</time>
      </trkpt>
      <trkpt lat="43.3912620" lon="-5.8184230">
        <ele>158.0</ele>
        <time>2020-01-28T08:39:39Z</time>
      </trkpt>
      <trkpt lat="43.3912620" lon="-5.8184230">
        <ele>158.0</ele>
        <time>2020-01-28T08:39:40Z</time>
      </trkpt>
      <trkpt lat="43.3912620" lon="-5.8184230">
        <ele>158.0</ele>
        <time>2020-01-28T08:39:41Z</time>
      </trkpt>
      <trkpt lat="43.3912620" lon="-5.8184230">
        <ele>158.0</ele>
        <time>2020-01-28T08:39:42Z</time>
      </trkpt>
      <trkpt lat="43.3912620" lon="-5.8184230">
        <ele>158.0</ele>
        <time>2020-01-28T08:39:43Z</time>
      </trkpt>
      <trkpt lat="43.3912810" lon="-5.8184230">
        <ele>158.0</ele>
        <time>2020-01-28T08:39:44Z</time>
      </trkpt>
      <trkpt lat="43.3912870" lon="-5.8184190">
        <ele>158.0</ele>
        <time>2020-01-28T08:39:45Z</time>
      </trkpt>
      <trkpt lat="43.3912940" lon="-5.8184140">
        <ele>158.1</ele>
        <time>2020-01-28T08:39:46Z</time>
      </trkpt>
      <trkpt lat="43.3913130" lon="-5.8184020">
        <ele>158.1</ele>
        <time>2020-01-28T08:39:47Z</time>
      </trkpt>
      <trkpt lat="43.3913220" lon="-5.8183970">
        <ele>158.1</ele>
        <time>2020-01-28T08:39:48Z</time>
      </trkpt>
      <trkpt lat="43.3913300" lon="-5.8183910">
        <ele>158.1</ele>
        <time>2020-01-28T08:39:49Z</time>
      </trkpt>
      <trkpt lat="43.3913410" lon="-5.8183770">
        <ele>158.1</ele>
        <time>2020-01-28T08:39:50Z</time>
      </trkpt>
      <trkpt lat="43.3913530" lon="-5.8183620">
        <ele>158.2</ele>
        <time>2020-01-28T08:39:51Z</time>
      </trkpt>
      <trkpt lat="43.3913650" lon="-5.8183480">
        <ele>158.2</ele>
        <time>2020-01-28T08:39:52Z</time>
      </trkpt>
      <trkpt lat="43.3913770" lon="-5.8183360">
        <ele>158.2</ele>
        <time>2020-01-28T08:39:53Z</time>
      </trkpt>
      <trkpt lat="43.3913890" lon="-5.8183240">
        <ele>158.2</ele>
        <time>2020-01-28T08:39:54Z</time>
      </trkpt>
      <trkpt lat="43.3914000" lon="-5.8183110">
        <ele>158.2</ele>
        <time>2020-01-28T08:39:55Z</time>
      </trkpt>
      <trkpt lat="43.3914150" lon="-5.8182880">
        <ele>158.2</ele>
        <time>2020-01-28T08:39:56Z</time>
      </trkpt>
      <trkpt lat="43.3914220" lon="-5.8182790">
        <ele>158.3</ele>
        <time>2020-01-28T08:39:57Z</time>
      </trkpt>
      <trkpt lat="43.3914280" lon="-5.8182700">
        <ele>158.3</ele>
        <time>2020-01-28T08:39:58Z</time>
      </trkpt>
      <trkpt lat="43.3914390" lon="-5.8182560">
        <ele>158.3</ele>
        <time>2020-01-28T08:39:59Z</time>
      </trkpt>
      <trkpt lat="43.3914520" lon="-5.8182400">
        <ele>158.3</ele>
        <time>2020-01-28T08:40:00Z</time>
      </trkpt>
      <trkpt lat="43.3914660" lon="-5.8182270">
        <ele>158.3</ele>
        <time>2020-01-28T08:40:01Z</time>
      </trkpt>
      <trkpt lat="43.3914750" lon="-5.8182170">
        <ele>158.3</ele>
        <time>2020-01-28T08:40:02Z</time>
      </trkpt>
      <trkpt lat="43.3914750" lon="-5.8182170">
        <ele>158.3</ele>
        <time>2020-01-28T08:40:03Z</time>
      </trkpt>
      <trkpt lat="43.3914740" lon="-5.8182100">
        <ele>158.3</ele>
        <time>2020-01-28T08:40:04Z</time>
      </trkpt>
      <trkpt lat="43.3914760" lon="-5.8182080">
        <ele>158.3</ele>
        <time>2020-01-28T08:40:05Z</time>
      </trkpt>
      <trkpt lat="43.3914850" lon="-5.8182070">
        <ele>158.3</ele>
        <time>2020-01-28T08:40:06Z</time>
      </trkpt>
      <trkpt lat="43.3914970" lon="-5.8182080">
        <ele>158.3</ele>
        <time>2020-01-28T08:40:07Z</time>
      </trkpt>
      <trkpt lat="43.3915070" lon="-5.8182130">
        <ele>158.4</ele>
        <time>2020-01-28T08:40:08Z</time>
      </trkpt>
      <trkpt lat="43.3915160" lon="-5.8182190">
        <ele>158.4</ele>
        <time>2020-01-28T08:40:09Z</time>
      </trkpt>
      <trkpt lat="43.3915270" lon="-5.8182280">
        <ele>158.4</ele>
        <time>2020-01-28T08:40:10Z</time>
      </trkpt>
      <trkpt lat="43.3915390" lon="-5.8182380">
        <ele>158.4</ele>
        <time>2020-01-28T08:40:11Z</time>
      </trkpt>
      <trkpt lat="43.3915570" lon="-5.8182530">
        <ele>158.4</ele>
        <time>2020-01-28T08:40:12Z</time>
      </trkpt>
      <trkpt lat="43.3915630" lon="-5.8182570">
        <ele>158.4</ele>
        <time>2020-01-28T08:40:13Z</time>
      </trkpt>
      <trkpt lat="43.3915700" lon="-5.8182620">
        <ele>158.4</ele>
        <time>2020-01-28T08:40:14Z</time>
      </trkpt>
      <trkpt lat="43.3915810" lon="-5.8182680">
        <ele>158.4</ele>
        <time>2020-01-28T08:40:15Z</time>
      </trkpt>
      <trkpt lat="43.3915930" lon="-5.8182740">
        <ele>158.4</ele>
        <time>2020-01-28T08:40:16Z</time>
      </trkpt>
      <trkpt lat="43.3916050" lon="-5.8182760">
        <ele>158.4</ele>
        <time>2020-01-28T08:40:17Z</time>
      </trkpt>
      <trkpt lat="43.3916180" lon="-5.8182790">
        <ele>158.4</ele>
        <time>2020-01-28T08:40:18Z</time>
      </trkpt>
      <trkpt lat="43.3916320" lon="-5.8182850">
        <ele>158.4</ele>
        <time>2020-01-28T08:40:19Z</time>
      </trkpt>
      <trkpt lat="43.3916480" lon="-5.8182850">
        <ele>158.4</ele>
        <time>2020-01-28T08:40:20Z</time>
      </trkpt>
      <trkpt lat="43.3916640" lon="-5.8182880">
        <ele>158.4</ele>
        <time>2020-01-28T08:40:21Z</time>
      </trkpt>
      <trkpt lat="43.3916800" lon="-5.8182930">
        <ele>158.4</ele>
        <time>2020-01-28T08:40:22Z</time>
      </trkpt>
      <trkpt lat="43.3916950" lon="-5.8183000">
        <ele>158.5</ele>
        <time>2020-01-28T08:40:23Z</time>
      </trkpt>
      <trkpt lat="43.3917140" lon="-5.8183160">
        <ele>158.5</ele>
        <time>2020-01-28T08:40:24Z</time>
      </trkpt>
      <trkpt lat="43.3917200" lon="-5.8183220">
        <ele>158.5</ele>
        <time>2020-01-28T08:40:25Z</time>
      </trkpt>
      <trkpt lat="43.3917270" lon="-5.8183280">
        <ele>158.5</ele>
        <time>2020-01-28T08:40:26Z</time>
      </trkpt>
      <trkpt lat="43.3917350" lon="-5.8183300">
        <ele>158.5</ele>
        <time>2020-01-28T08:40:27Z</time>
      </trkpt>
      <trkpt lat="43.3917390" lon="-5.8183290">
        <ele>158.5</ele>
        <time>2020-01-28T08:40:28Z</time>
      </trkpt>
      <trkpt lat="43.3917430" lon="-5.8183270">
        <ele>158.5</ele>
        <time>2020-01-28T08:40:29Z</time>
      </trkpt>
      <trkpt lat="43.3917470" lon="-5.8183260">
        <ele>158.5</ele>
        <time>2020-01-28T08:40:30Z</time>
      </trkpt>
      <trkpt lat="43.3917520" lon="-5.8183250">
        <ele>158.5</ele>
        <time>2020-01-28T08:40:31Z</time>
      </trkpt>
      <trkpt lat="43.3917560" lon="-5.8183240">
        <ele>158.5</ele>
        <time>2020-01-28T08:40:32Z</time>
      </trkpt>
      <trkpt lat="43.3917600" lon="-5.8183220">
        <ele>158.5</ele>
        <time>2020-01-28T08:40:33Z</time>
      </trkpt>
      <trkpt lat="43.3917640" lon="-5.8183210">
        <ele>158.5</ele>
        <time>2020-01-28T08:40:34Z</time>
      </trkpt>
      <trkpt lat="43.3917680" lon="-5.8183200">
        <ele>158.5</ele>
        <time>2020-01-28T08:40:35Z</time>
      </trkpt>
      <trkpt lat="43.3917740" lon="-5.8183250">
        <ele>158.6</ele>
        <time>2020-01-28T08:40:36Z</time>
      </trkpt>
      <trkpt lat="43.3917820" lon="-5.8183320">
        <ele>158.6</ele>
        <time>2020-01-28T08:40:37Z</time>
      </trkpt>
      <trkpt lat="43.3917900" lon="-5.8183450">
        <ele>158.6</ele>
        <time>2020-01-28T08:40:38Z</time>
      </trkpt>
      <trkpt lat="43.3917980" lon="-5.8183620">
        <ele>158.6</ele>
        <time>2020-01-28T08:40:39Z</time>
      </trkpt>
      <trkpt lat="43.3918040" lon="-5.8183830">
        <ele>158.6</ele>
        <time>2020-01-28T08:40:40Z</time>
      </trkpt>
      <trkpt lat="43.3918090" lon="-5.8184050">
        <ele>158.6</ele>
        <time>2020-01-28T08:40:41Z</time>
      </trkpt>
      <trkpt lat="43.3918130" lon="-5.8184260">
        <ele>158.7</ele>
        <time>2020-01-28T08:40:42Z</time>
      </trkpt>
      <trkpt lat="43.3918180" lon="-5.8184450">
        <ele>158.7</ele>
        <time>2020-01-28T08:40:43Z</time>
      </trkpt>
      <trkpt lat="43.3918230" lon="-5.8184600">
        <ele>158.7</ele>
        <time>2020-01-28T08:40:44Z</time>
      </trkpt>
      <trkpt lat="43.3918250" lon="-5.8184650">
        <ele>158.7</ele>
        <time>2020-01-28T08:40:45Z</time>
      </trkpt>
      <trkpt lat="43.3918240" lon="-5.8184710">
        <ele>158.7</ele>
        <time>2020-01-28T08:40:46Z</time>
      </trkpt>
      <trkpt lat="43.3918220" lon="-5.8184890">
        <ele>158.7</ele>
        <time>2020-01-28T08:40:47Z</time>
      </trkpt>
      <trkpt lat="43.3918190" lon="-5.8185110">
        <ele>158.8</ele>
        <time>2020-01-28T08:40:48Z</time>
      </trkpt>
      <trkpt lat="43.3918150" lon="-5.8185340">
        <ele>158.8</ele>
        <time>2020-01-28T08:40:49Z</time>
      </trkpt>
      <trkpt lat="43.3918090" lon="-5.8185540">
        <ele>158.8</ele>
        <time>2020-01-28T08:40:50Z</time>
      </trkpt>
      <trkpt lat="43.3918000" lon="-5.8185710">
        <ele>158.8</ele>
        <time>2020-01-28T08:40:51Z</time>
      </trkpt>
      <trkpt lat="43.3917890" lon="-5.8185850">
        <ele>158.7</ele>
        <time>2020-01-28T08:40:52Z</time>
      </trkpt>
      <trkpt lat="43.3917780" lon="-5.8185990">
        <ele>158.7</ele>
        <time>2020-01-28T08:40:53Z</time>
      </trkpt>
      <trkpt lat="43.3917670" lon="-5.8186150">
        <ele>158.7</ele>
        <time>2020-01-28T08:40:54Z</time>
      </trkpt>
      <trkpt lat="43.3917550" lon="-5.8186310">
        <ele>158.7</ele>
        <time>2020-01-28T08:40:55Z</time>
      </trkpt>
      <trkpt lat="43.3917440" lon="-5.8186440">
        <ele>158.7</ele>
        <time>2020-01-28T08:40:56Z</time>
      </trkpt>
      <trkpt lat="43.3917340" lon="-5.8186570">
        <ele>158.7</ele>
        <time>2020-01-28T08:40:57Z</time>
      </trkpt>
      <trkpt lat="43.3917230" lon="-5.8186680">
        <ele>158.7</ele>
        <time>2020-01-28T08:40:58Z</time>
      </trkpt>
      <trkpt lat="43.3917120" lon="-5.8186800">
        <ele>158.7</ele>
        <time>2020-01-28T08:40:59Z</time>
      </trkpt>
      <trkpt lat="43.3916990" lon="-5.8186910">
        <ele>158.6</ele>
        <time>2020-01-28T08:41:00Z</time>
      </trkpt>
      <trkpt lat="43.3916870" lon="-5.8187040">
        <ele>158.6</ele>
        <time>2020-01-28T08:41:01Z</time>
      </trkpt>
      <trkpt lat="43.3916740" lon="-5.8187160">
        <ele>158.6</ele>
        <time>2020-01-28T08:41:02Z</time>
      </trkpt>
      <trkpt lat="43.3916580" lon="-5.8187370">
        <ele>158.6</ele>
        <time>2020-01-28T08:41:03Z</time>
      </trkpt>
      <trkpt lat="43.3916530" lon="-5.8187460">
        <ele>158.6</ele>
        <time>2020-01-28T08:41:04Z</time>
      </trkpt>
      <trkpt lat="43.3916470" lon="-5.8187560">
        <ele>158.6</ele>
        <time>2020-01-28T08:41:05Z</time>
      </trkpt>
      <trkpt lat="43.3916320" lon="-5.8187770">
        <ele>158.6</ele>
        <time>2020-01-28T08:41:06Z</time>
      </trkpt>
      <trkpt lat="43.3916260" lon="-5.8187850">
        <ele>158.6</ele>
        <time>2020-01-28T08:41:07Z</time>
      </trkpt>
      <trkpt lat="43.3916190" lon="-5.8187930">
        <ele>158.6</ele>
        <time>2020-01-28T08:41:08Z</time>
      </trkpt>
      <trkpt lat="43.3916060" lon="-5.8188060">
        <ele>158.6</ele>
        <time>2020-01-28T08:41:09Z</time>
      </trkpt>
      <trkpt lat="43.3915950" lon="-5.8188160">
        <ele>158.6</ele>
        <time>2020-01-28T08:41:10Z</time>
      </trkpt>
      <trkpt lat="43.3915770" lon="-5.8188290">
        <ele>158.5</ele>
        <time>2020-01-28T08:41:11Z</time>
      </trkpt>
      <trkpt lat="43.3915700" lon="-5.8188340">
        <ele>158.5</ele>
        <time>2020-01-28T08:41:12Z</time>
      </trkpt>
      <trkpt lat="43.3915630" lon="-5.8188400">
        <ele>158.5</ele>
        <time>2020-01-28T08:41:13Z</time>
      </trkpt>
      <trkpt lat="43.3915540" lon="-5.8188500">
        <ele>158.5</ele>
        <time>2020-01-28T08:41:14Z</time>
      </trkpt>
      <trkpt lat="43.3915460" lon="-5.8188600">
        <ele>158.5</ele>
        <time>2020-01-28T08:41:15Z</time>
      </trkpt>
      <trkpt lat="43.3915370" lon="-5.8188720">
        <ele>158.5</ele>
        <time>2020-01-28T08:41:16Z</time>
      </trkpt>
      <trkpt lat="43.3915150" lon="-5.8188920">
        <ele>158.5</ele>
        <time>2020-01-28T08:41:17Z</time>
      </trkpt>
      <trkpt lat="43.3915060" lon="-5.8188980">
        <ele>158.5</ele>
        <time>2020-01-28T08:41:18Z</time>
      </trkpt>
      <trkpt lat="43.3914910" lon="-5.8189090">
        <ele>158.5</ele>
        <time>2020-01-28T08:41:19Z</time>
      </trkpt>
      <trkpt lat="43.3914770" lon="-5.8189190">
        <ele>158.5</ele>
        <time>2020-01-28T08:41:20Z</time>
      </trkpt>
      <trkpt lat="43.3914640" lon="-5.8189290">
        <ele>158.4</ele>
        <time>2020-01-28T08:41:21Z</time>
      </trkpt>
      <trkpt lat="43.3914510" lon="-5.8189390">
        <ele>158.4</ele>
        <time>2020-01-28T08:41:22Z</time>
      </trkpt>
      <trkpt lat="43.3914370" lon="-5.8189520">
        <ele>158.3</ele>
        <time>2020-01-28T08:41:23Z</time>
      </trkpt>
      <trkpt lat="43.3914240" lon="-5.8189640">
        <ele>158.3</ele>
        <time>2020-01-28T08:41:24Z</time>
      </trkpt>
      <trkpt lat="43.3914110" lon="-5.8189760">
        <ele>158.3</ele>
        <time>2020-01-28T08:41:25Z</time>
      </trkpt>
      <trkpt lat="43.3913990" lon="-5.8189860">
        <ele>158.2</ele>
        <time>2020-01-28T08:41:26Z</time>
      </trkpt>
      <trkpt lat="43.3913870" lon="-5.8189960">
        <ele>158.2</ele>
        <time>2020-01-28T08:41:27Z</time>
      </trkpt>
      <trkpt lat="43.3913730" lon="-5.8190080">
        <ele>158.1</ele>
        <time>2020-01-28T08:41:28Z</time>
      </trkpt>
      <trkpt lat="43.3913590" lon="-5.8190200">
        <ele>158.0</ele>
        <time>2020-01-28T08:41:29Z</time>
      </trkpt>
      <trkpt lat="43.3913460" lon="-5.8190280">
        <ele>158.0</ele>
        <time>2020-01-28T08:41:30Z</time>
      </trkpt>
      <trkpt lat="43.3913340" lon="-5.8190380">
        <ele>157.9</ele>
        <time>2020-01-28T08:41:31Z</time>
      </trkpt>
      <trkpt lat="43.3913200" lon="-5.8190490">
        <ele>157.9</ele>
        <time>2020-01-28T08:41:32Z</time>
      </trkpt>
      <trkpt lat="43.3913060" lon="-5.8190620">
        <ele>157.8</ele>
        <time>2020-01-28T08:41:33Z</time>
      </trkpt>
      <trkpt lat="43.3912940" lon="-5.8190740">
        <ele>157.8</ele>
        <time>2020-01-28T08:41:34Z</time>
      </trkpt>
      <trkpt lat="43.3912810" lon="-5.8190830">
        <ele>157.7</ele>
        <time>2020-01-28T08:41:35Z</time>
      </trkpt>
      <trkpt lat="43.3912680" lon="-5.8190940">
        <ele>157.7</ele>
        <time>2020-01-28T08:41:36Z</time>
      </trkpt>
      <trkpt lat="43.3912490" lon="-5.8191110">
        <ele>157.6</ele>
        <time>2020-01-28T08:41:37Z</time>
      </trkpt>
      <trkpt lat="43.3912410" lon="-5.8191180">
        <ele>157.6</ele>
        <time>2020-01-28T08:41:38Z</time>
      </trkpt>
      <trkpt lat="43.3912340" lon="-5.8191260">
        <ele>157.6</ele>
        <time>2020-01-28T08:41:39Z</time>
      </trkpt>
      <trkpt lat="43.3912160" lon="-5.8191440">
        <ele>157.5</ele>
        <time>2020-01-28T08:41:40Z</time>
      </trkpt>
      <trkpt lat="43.3912090" lon="-5.8191510">
        <ele>157.5</ele>
        <time>2020-01-28T08:41:41Z</time>
      </trkpt>
      <trkpt lat="43.3912010" lon="-5.8191580">
        <ele>157.5</ele>
        <time>2020-01-28T08:41:42Z</time>
      </trkpt>
      <trkpt lat="43.3911890" lon="-5.8191670">
        <ele>157.5</ele>
        <time>2020-01-28T08:41:43Z</time>
      </trkpt>
      <trkpt lat="43.3911750" lon="-5.8191730">
        <ele>157.4</ele>
        <time>2020-01-28T08:41:44Z</time>
      </trkpt>
      <trkpt lat="43.3911600" lon="-5.8191780">
        <ele>157.4</ele>
        <time>2020-01-28T08:41:45Z</time>
      </trkpt>
      <trkpt lat="43.3911440" lon="-5.8191830">
        <ele>157.4</ele>
        <time>2020-01-28T08:41:46Z</time>
      </trkpt>
      <trkpt lat="43.3911300" lon="-5.8191900">
        <ele>157.4</ele>
        <time>2020-01-28T08:41:47Z</time>
      </trkpt>
      <trkpt lat="43.3911160" lon="-5.8191980">
        <ele>157.4</ele>
        <time>2020-01-28T08:41:48Z</time>
      </trkpt>
      <trkpt lat="43.3911020" lon="-5.8192080">
        <ele>157.4</ele>
        <time>2020-01-28T08:41:49Z</time>
      </trkpt>
      <trkpt lat="43.3910880" lon="-5.8192180">
        <ele>157.4</ele>
        <time>2020-01-28T08:41:50Z</time>
      </trkpt>
      <trkpt lat="43.3910750" lon="-5.8192270">
        <ele>157.3</ele>
        <time>2020-01-28T08:41:51Z</time>
      </trkpt>
      <trkpt lat="43.3910610" lon="-5.8192350">
        <ele>157.3</ele>
        <time>2020-01-28T08:41:52Z</time>
      </trkpt>
      <trkpt lat="43.3910480" lon="-5.8192430">
        <ele>157.3</ele>
        <time>2020-01-28T08:41:53Z</time>
      </trkpt>
      <trkpt lat="43.3910350" lon="-5.8192490">
        <ele>157.3</ele>
        <time>2020-01-28T08:41:54Z</time>
      </trkpt>
      <trkpt lat="43.3910220" lon="-5.8192560">
        <ele>157.3</ele>
        <time>2020-01-28T08:41:55Z</time>
      </trkpt>
      <trkpt lat="43.3910090" lon="-5.8192620">
        <ele>157.3</ele>
        <time>2020-01-28T08:41:56Z</time>
      </trkpt>
      <trkpt lat="43.3909880" lon="-5.8192690">
        <ele>157.3</ele>
        <time>2020-01-28T08:41:57Z</time>
      </trkpt>
      <trkpt lat="43.3909810" lon="-5.8192710">
        <ele>157.3</ele>
        <time>2020-01-28T08:41:58Z</time>
      </trkpt>
      <trkpt lat="43.3909730" lon="-5.8192740">
        <ele>157.3</ele>
        <time>2020-01-28T08:41:59Z</time>
      </trkpt>
      <trkpt lat="43.3909520" lon="-5.8192820">
        <ele>157.3</ele>
        <time>2020-01-28T08:42:00Z</time>
      </trkpt>
      <trkpt lat="43.3909420" lon="-5.8192870">
        <ele>157.3</ele>
        <time>2020-01-28T08:42:01Z</time>
      </trkpt>
      <trkpt lat="43.3909320" lon="-5.8192910">
        <ele>157.3</ele>
        <time>2020-01-28T08:42:02Z</time>
      </trkpt>
      <trkpt lat="43.3909160" lon="-5.8193000">
        <ele>157.3</ele>
        <time>2020-01-28T08:42:03Z</time>
      </trkpt>
      <trkpt lat="43.3909000" lon="-5.8193090">
        <ele>157.3</ele>
        <time>2020-01-28T08:42:04Z</time>
      </trkpt>
      <trkpt lat="43.3908840" lon="-5.8193190">
        <ele>157.3</ele>
        <time>2020-01-28T08:42:05Z</time>
      </trkpt>
      <trkpt lat="43.3908690" lon="-5.8193280">
        <ele>157.2</ele>
        <time>2020-01-28T08:42:06Z</time>
      </trkpt>
      <trkpt lat="43.3908550" lon="-5.8193380">
        <ele>157.2</ele>
        <time>2020-01-28T08:42:07Z</time>
      </trkpt>
      <trkpt lat="43.3908410" lon="-5.8193470">
        <ele>157.1</ele>
        <time>2020-01-28T08:42:08Z</time>
      </trkpt>
      <trkpt lat="43.3908260" lon="-5.8193550">
        <ele>157.1</ele>
        <time>2020-01-28T08:42:09Z</time>
      </trkpt>
      <trkpt lat="43.3908120" lon="-5.8193640">
        <ele>157.1</ele>
        <time>2020-01-28T08:42:10Z</time>
      </trkpt>
      <trkpt lat="43.3907970" lon="-5.8193730">
        <ele>157.1</ele>
        <time>2020-01-28T08:42:11Z</time>
      </trkpt>
      <trkpt lat="43.3907830" lon="-5.8193830">
        <ele>157.1</ele>
        <time>2020-01-28T08:42:12Z</time>
      </trkpt>
      <trkpt lat="43.3907680" lon="-5.8193920">
        <ele>157.0</ele>
        <time>2020-01-28T08:42:13Z</time>
      </trkpt>
      <trkpt lat="43.3907540" lon="-5.8194000">
        <ele>157.0</ele>
        <time>2020-01-28T08:42:14Z</time>
      </trkpt>
      <trkpt lat="43.3907400" lon="-5.8194080">
        <ele>157.0</ele>
        <time>2020-01-28T08:42:15Z</time>
      </trkpt>
      <trkpt lat="43.3907250" lon="-5.8194140">
        <ele>157.0</ele>
        <time>2020-01-28T08:42:16Z</time>
      </trkpt>
      <trkpt lat="43.3907100" lon="-5.8194180">
        <ele>157.0</ele>
        <time>2020-01-28T08:42:17Z</time>
      </trkpt>
      <trkpt lat="43.3906940" lon="-5.8194210">
        <ele>156.8</ele>
        <time>2020-01-28T08:42:18Z</time>
      </trkpt>
      <trkpt lat="43.3906780" lon="-5.8194220">
        <ele>156.8</ele>
        <time>2020-01-28T08:42:19Z</time>
      </trkpt>
      <trkpt lat="43.3906600" lon="-5.8194210">
        <ele>156.7</ele>
        <time>2020-01-28T08:42:20Z</time>
      </trkpt>
      <trkpt lat="43.3906440" lon="-5.8194170">
        <ele>156.7</ele>
        <time>2020-01-28T08:42:21Z</time>
      </trkpt>
      <trkpt lat="43.3906270" lon="-5.8194100">
        <ele>156.6</ele>
        <time>2020-01-28T08:42:22Z</time>
      </trkpt>
      <trkpt lat="43.3906140" lon="-5.8194000">
        <ele>156.6</ele>
        <time>2020-01-28T08:42:23Z</time>
      </trkpt>
      <trkpt lat="43.3906010" lon="-5.8193870">
        <ele>156.5</ele>
        <time>2020-01-28T08:42:24Z</time>
      </trkpt>
      <trkpt lat="43.3905890" lon="-5.8193740">
        <ele>156.4</ele>
        <time>2020-01-28T08:42:25Z</time>
      </trkpt>
      <trkpt lat="43.3905790" lon="-5.8193610">
        <ele>156.4</ele>
        <time>2020-01-28T08:42:26Z</time>
      </trkpt>
      <trkpt lat="43.3905680" lon="-5.8193480">
        <ele>156.4</ele>
        <time>2020-01-28T08:42:27Z</time>
      </trkpt>
      <trkpt lat="43.3905580" lon="-5.8193370">
        <ele>156.4</ele>
        <time>2020-01-28T08:42:28Z</time>
      </trkpt>
      <trkpt lat="43.3905390" lon="-5.8193210">
        <ele>156.4</ele>
        <time>2020-01-28T08:42:29Z</time>
      </trkpt>
      <trkpt lat="43.3905310" lon="-5.8193150">
        <ele>156.3</ele>
        <time>2020-01-28T08:42:30Z</time>
      </trkpt>
      <trkpt lat="43.3905230" lon="-5.8193090">
        <ele>156.3</ele>
        <time>2020-01-28T08:42:31Z</time>
      </trkpt>
      <trkpt lat="43.3905110" lon="-5.8193010">
        <ele>156.3</ele>
        <time>2020-01-28T08:42:32Z</time>
      </trkpt>
      <trkpt lat="43.3905010" lon="-5.8192950">
        <ele>156.3</ele>
        <time>2020-01-28T08:42:33Z</time>
      </trkpt>
      <trkpt lat="43.3904920" lon="-5.8192920">
        <ele>156.3</ele>
        <time>2020-01-28T08:42:34Z</time>
      </trkpt>
      <trkpt lat="43.3904790" lon="-5.8192890">
        <ele>156.3</ele>
        <time>2020-01-28T08:42:35Z</time>
      </trkpt>
      <trkpt lat="43.3904670" lon="-5.8192920">
        <ele>156.3</ele>
        <time>2020-01-28T08:42:36Z</time>
      </trkpt>
      <trkpt lat="43.3904580" lon="-5.8193020">
        <ele>156.2</ele>
        <time>2020-01-28T08:42:37Z</time>
      </trkpt>
      <trkpt lat="43.3904520" lon="-5.8193170">
        <ele>156.2</ele>
        <time>2020-01-28T08:42:38Z</time>
      </trkpt>
      <trkpt lat="43.3904470" lon="-5.8193300">
        <ele>156.2</ele>
        <time>2020-01-28T08:42:39Z</time>
      </trkpt>
      <trkpt lat="43.3904430" lon="-5.8193390">
        <ele>156.2</ele>
        <time>2020-01-28T08:42:40Z</time>
      </trkpt>
      <trkpt lat="43.3904370" lon="-5.8193470">
        <ele>156.2</ele>
        <time>2020-01-28T08:42:41Z</time>
      </trkpt>
      <trkpt lat="43.3904300" lon="-5.8193560">
        <ele>156.2</ele>
        <time>2020-01-28T08:42:42Z</time>
      </trkpt>
      <trkpt lat="43.3904210" lon="-5.8193660">
        <ele>156.2</ele>
        <time>2020-01-28T08:42:43Z</time>
      </trkpt>
      <trkpt lat="43.3904130" lon="-5.8193720">
        <ele>156.1</ele>
        <time>2020-01-28T08:42:44Z</time>
      </trkpt>
      <trkpt lat="43.3904030" lon="-5.8193730">
        <ele>156.1</ele>
        <time>2020-01-28T08:42:45Z</time>
      </trkpt>
      <trkpt lat="43.3903940" lon="-5.8193740">
        <ele>156.1</ele>
        <time>2020-01-28T08:42:46Z</time>
      </trkpt>
      <trkpt lat="43.3903830" lon="-5.8193750">
        <ele>156.1</ele>
        <time>2020-01-28T08:42:47Z</time>
      </trkpt>
      <trkpt lat="43.3903700" lon="-5.8193810">
        <ele>156.1</ele>
        <time>2020-01-28T08:42:48Z</time>
      </trkpt>
      <trkpt lat="43.3903590" lon="-5.8193860">
        <ele>156.1</ele>
        <time>2020-01-28T08:42:49Z</time>
      </trkpt>
      <trkpt lat="43.3903390" lon="-5.8193900">
        <ele>156.0</ele>
        <time>2020-01-28T08:42:50Z</time>
      </trkpt>
      <trkpt lat="43.3903290" lon="-5.8193910">
        <ele>156.0</ele>
        <time>2020-01-28T08:42:51Z</time>
      </trkpt>
      <trkpt lat="43.3903200" lon="-5.8193910">
        <ele>156.0</ele>
        <time>2020-01-28T08:42:52Z</time>
      </trkpt>
      <trkpt lat="43.3903060" lon="-5.8193890">
        <ele>156.0</ele>
        <time>2020-01-28T08:42:53Z</time>
      </trkpt>
      <trkpt lat="43.3902910" lon="-5.8193850">
        <ele>156.0</ele>
        <time>2020-01-28T08:42:54Z</time>
      </trkpt>
      <trkpt lat="43.3902770" lon="-5.8193800">
        <ele>156.0</ele>
        <time>2020-01-28T08:42:55Z</time>
      </trkpt>
      <trkpt lat="43.3902630" lon="-5.8193740">
        <ele>155.9</ele>
        <time>2020-01-28T08:42:56Z</time>
      </trkpt>
      <trkpt lat="43.3902470" lon="-5.8193680">
        <ele>155.9</ele>
        <time>2020-01-28T08:42:57Z</time>
      </trkpt>
      <trkpt lat="43.3902320" lon="-5.8193610">
        <ele>155.9</ele>
        <time>2020-01-28T08:42:58Z</time>
      </trkpt>
      <trkpt lat="43.3902050" lon="-5.8193430">
        <ele>155.9</ele>
        <time>2020-01-28T08:42:59Z</time>
      </trkpt>
      <trkpt lat="43.3901950" lon="-5.8193370">
        <ele>155.8</ele>
        <time>2020-01-28T08:43:00Z</time>
      </trkpt>
      <trkpt lat="43.3901700" lon="-5.8193190">
        <ele>155.8</ele>
        <time>2020-01-28T08:43:01Z</time>
      </trkpt>
      <trkpt lat="43.3901610" lon="-5.8193140">
        <ele>155.8</ele>
        <time>2020-01-28T08:43:02Z</time>
      </trkpt>
      <trkpt lat="43.3901450" lon="-5.8193100">
        <ele>155.8</ele>
        <time>2020-01-28T08:43:03Z</time>
      </trkpt>
      <trkpt lat="43.3901310" lon="-5.8193090">
        <ele>155.8</ele>
        <time>2020-01-28T08:43:04Z</time>
      </trkpt>
      <trkpt lat="43.3901150" lon="-5.8193080">
        <ele>155.7</ele>
        <time>2020-01-28T08:43:05Z</time>
      </trkpt>
      <trkpt lat="43.3900990" lon="-5.8193110">
        <ele>155.7</ele>
        <time>2020-01-28T08:43:06Z</time>
      </trkpt>
      <trkpt lat="43.3900840" lon="-5.8193180">
        <ele>155.8</ele>
        <time>2020-01-28T08:43:07Z</time>
      </trkpt>
      <trkpt lat="43.3900730" lon="-5.8193280">
        <ele>155.8</ele>
        <time>2020-01-28T08:43:08Z</time>
      </trkpt>
      <trkpt lat="43.3900630" lon="-5.8193410">
        <ele>155.8</ele>
        <time>2020-01-28T08:43:09Z</time>
      </trkpt>
      <trkpt lat="43.3900560" lon="-5.8193580">
        <ele>155.9</ele>
        <time>2020-01-28T08:43:10Z</time>
      </trkpt>
      <trkpt lat="43.3900510" lon="-5.8193770">
        <ele>155.9</ele>
        <time>2020-01-28T08:43:11Z</time>
      </trkpt>
      <trkpt lat="43.3900500" lon="-5.8193950">
        <ele>155.9</ele>
        <time>2020-01-28T08:43:12Z</time>
      </trkpt>
      <trkpt lat="43.3900510" lon="-5.8194100">
        <ele>155.9</ele>
        <time>2020-01-28T08:43:13Z</time>
      </trkpt>
      <trkpt lat="43.3900560" lon="-5.8194230">
        <ele>155.9</ele>
        <time>2020-01-28T08:43:14Z</time>
      </trkpt>
      <trkpt lat="43.3900620" lon="-5.8194380">
        <ele>155.9</ele>
        <time>2020-01-28T08:43:15Z</time>
      </trkpt>
      <trkpt lat="43.3900680" lon="-5.8194540">
        <ele>155.9</ele>
        <time>2020-01-28T08:43:16Z</time>
      </trkpt>
      <trkpt lat="43.3900710" lon="-5.8194610">
        <ele>156.0</ele>
        <time>2020-01-28T08:43:17Z</time>
      </trkpt>
      <trkpt lat="43.3900710" lon="-5.8194610">
        <ele>156.0</ele>
        <time>2020-01-28T08:43:18Z</time>
      </trkpt>
      <trkpt lat="43.3900700" lon="-5.8194680">
        <ele>156.0</ele>
        <time>2020-01-28T08:43:19Z</time>
      </trkpt>
      <trkpt lat="43.3900690" lon="-5.8194820">
        <ele>156.0</ele>
        <time>2020-01-28T08:43:20Z</time>
      </trkpt>
      <trkpt lat="43.3900640" lon="-5.8195110">
        <ele>156.0</ele>
        <time>2020-01-28T08:43:21Z</time>
      </trkpt>
      <trkpt lat="43.3900610" lon="-5.8195220">
        <ele>156.0</ele>
        <time>2020-01-28T08:43:22Z</time>
      </trkpt>
      <trkpt lat="43.3900590" lon="-5.8195340">
        <ele>156.0</ele>
        <time>2020-01-28T08:43:23Z</time>
      </trkpt>
      <trkpt lat="43.3900550" lon="-5.8195530">
        <ele>156.0</ele>
        <time>2020-01-28T08:43:24Z</time>
      </trkpt>
      <trkpt lat="43.3900510" lon="-5.8195730">
        <ele>156.1</ele>
        <time>2020-01-28T08:43:25Z</time>
      </trkpt>
      <trkpt lat="43.3900470" lon="-5.8195930">
        <ele>156.2</ele>
        <time>2020-01-28T08:43:26Z</time>
      </trkpt>
      <trkpt lat="43.3900440" lon="-5.8196130">
        <ele>156.2</ele>
        <time>2020-01-28T08:43:27Z</time>
      </trkpt>
      <trkpt lat="43.3900410" lon="-5.8196360">
        <ele>156.2</ele>
        <time>2020-01-28T08:43:28Z</time>
      </trkpt>
      <trkpt lat="43.3900390" lon="-5.8196540">
        <ele>156.3</ele>
        <time>2020-01-28T08:43:29Z</time>
      </trkpt>
      <trkpt lat="43.3900360" lon="-5.8196680">
        <ele>156.3</ele>
        <time>2020-01-28T08:43:30Z</time>
      </trkpt>
      <trkpt lat="43.3900330" lon="-5.8196840">
        <ele>156.3</ele>
        <time>2020-01-28T08:43:31Z</time>
      </trkpt>
      <trkpt lat="43.3900300" lon="-5.8196930">
        <ele>156.3</ele>
        <time>2020-01-28T08:43:32Z</time>
      </trkpt>
      <trkpt lat="43.3900280" lon="-5.8196970">
        <ele>156.4</ele>
        <time>2020-01-28T08:43:33Z</time>
      </trkpt>
      <trkpt lat="43.3900260" lon="-5.8197010">
        <ele>156.4</ele>
        <time>2020-01-28T08:43:34Z</time>
      </trkpt>
      <trkpt lat="43.3900240" lon="-5.8197050">
        <ele>156.4</ele>
        <time>2020-01-28T08:43:35Z</time>
      </trkpt>
      <trkpt lat="43.3900220" lon="-5.8197090">
        <ele>156.4</ele>
        <time>2020-01-28T08:43:36Z</time>
      </trkpt>
      <trkpt lat="43.3900200" lon="-5.8197130">
        <ele>156.4</ele>
        <time>2020-01-28T08:43:37Z</time>
      </trkpt>
      <trkpt lat="43.3900180" lon="-5.8197170">
        <ele>156.4</ele>
        <time>2020-01-28T08:43:38Z</time>
      </trkpt>
      <trkpt lat="43.3900160" lon="-5.8197210">
        <ele>156.4</ele>
        <time>2020-01-28T08:43:39Z</time>
      </trkpt>
      <trkpt lat="43.3900140" lon="-5.8197250">
        <ele>156.4</ele>
        <time>2020-01-28T08:43:40Z</time>
      </trkpt>
      <trkpt lat="43.3900120" lon="-5.8197290">
        <ele>156.4</ele>
        <time>2020-01-28T08:43:41Z</time>
      </trkpt>
      <trkpt lat="43.3900100" lon="-5.8197330">
        <ele>156.6</ele>
        <time>2020-01-28T08:43:42Z</time>
      </trkpt>
      <trkpt lat="43.3900080" lon="-5.8197370">
        <ele>156.6</ele>
        <time>2020-01-28T08:43:43Z</time>
      </trkpt>
      <trkpt lat="43.3900080" lon="-5.8197490">
        <ele>156.6</ele>
        <time>2020-01-28T08:43:44Z</time>
      </trkpt>
      <trkpt lat="43.3900080" lon="-5.8197620">
        <ele>156.6</ele>
        <time>2020-01-28T08:43:45Z</time>
      </trkpt>
      <trkpt lat="43.3900060" lon="-5.8197750">
        <ele>156.6</ele>
        <time>2020-01-28T08:43:46Z</time>
      </trkpt>
      <trkpt lat="43.3900040" lon="-5.8197860">
        <ele>156.6</ele>
        <time>2020-01-28T08:43:47Z</time>
      </trkpt>
      <trkpt lat="43.3899970" lon="-5.8197940">
        <ele>156.6</ele>
        <time>2020-01-28T08:43:48Z</time>
      </trkpt>
      <trkpt lat="43.3899870" lon="-5.8198030">
        <ele>156.7</ele>
        <time>2020-01-28T08:43:49Z</time>
      </trkpt>
      <trkpt lat="43.3899730" lon="-5.8198110">
        <ele>156.7</ele>
        <time>2020-01-28T08:43:50Z</time>
      </trkpt>
      <trkpt lat="43.3899580" lon="-5.8198200">
        <ele>156.7</ele>
        <time>2020-01-28T08:43:51Z</time>
      </trkpt>
      <trkpt lat="43.3899450" lon="-5.8198270">
        <ele>156.7</ele>
        <time>2020-01-28T08:43:52Z</time>
      </trkpt>
      <trkpt lat="43.3899310" lon="-5.8198350">
        <ele>156.9</ele>
        <time>2020-01-28T08:43:53Z</time>
      </trkpt>
      <trkpt lat="43.3899100" lon="-5.8198480">
        <ele>156.9</ele>
        <time>2020-01-28T08:43:54Z</time>
      </trkpt>
      <trkpt lat="43.3899010" lon="-5.8198530">
        <ele>156.9</ele>
        <time>2020-01-28T08:43:55Z</time>
      </trkpt>
      <trkpt lat="43.3898930" lon="-5.8198590">
        <ele>156.9</ele>
        <time>2020-01-28T08:43:56Z</time>
      </trkpt>
      <trkpt lat="43.3898800" lon="-5.8198680">
        <ele>157.0</ele>
        <time>2020-01-28T08:43:57Z</time>
      </trkpt>
      <trkpt lat="43.3898670" lon="-5.8198760">
        <ele>157.0</ele>
        <time>2020-01-28T08:43:58Z</time>
      </trkpt>
      <trkpt lat="43.3898540" lon="-5.8198840">
        <ele>157.0</ele>
        <time>2020-01-28T08:43:59Z</time>
      </trkpt>
      <trkpt lat="43.3898400" lon="-5.8198920">
        <ele>157.0</ele>
        <time>2020-01-28T08:44:00Z</time>
      </trkpt>
      <trkpt lat="43.3898260" lon="-5.8199000">
        <ele>157.1</ele>
        <time>2020-01-28T08:44:01Z</time>
      </trkpt>
      <trkpt lat="43.3898110" lon="-5.8199080">
        <ele>157.1</ele>
        <time>2020-01-28T08:44:02Z</time>
      </trkpt>
      <trkpt lat="43.3897960" lon="-5.8199160">
        <ele>157.1</ele>
        <time>2020-01-28T08:44:03Z</time>
      </trkpt>
      <trkpt lat="43.3897800" lon="-5.8199240">
        <ele>157.2</ele>
        <time>2020-01-28T08:44:04Z</time>
      </trkpt>
      <trkpt lat="43.3897660" lon="-5.8199330">
        <ele>157.2</ele>
        <time>2020-01-28T08:44:05Z</time>
      </trkpt>
      <trkpt lat="43.3897520" lon="-5.8199430">
        <ele>157.2</ele>
        <time>2020-01-28T08:44:06Z</time>
      </trkpt>
      <trkpt lat="43.3897400" lon="-5.8199550">
        <ele>157.3</ele>
        <time>2020-01-28T08:44:07Z</time>
      </trkpt>
      <trkpt lat="43.3897270" lon="-5.8199660">
        <ele>157.3</ele>
        <time>2020-01-28T08:44:08Z</time>
      </trkpt>
      <trkpt lat="43.3897130" lon="-5.8199750">
        <ele>157.3</ele>
        <time>2020-01-28T08:44:09Z</time>
      </trkpt>
      <trkpt lat="43.3896980" lon="-5.8199840">
        <ele>157.4</ele>
        <time>2020-01-28T08:44:10Z</time>
      </trkpt>
      <trkpt lat="43.3896830" lon="-5.8199910">
        <ele>157.4</ele>
        <time>2020-01-28T08:44:11Z</time>
      </trkpt>
      <trkpt lat="43.3896690" lon="-5.8199960">
        <ele>157.4</ele>
        <time>2020-01-28T08:44:12Z</time>
      </trkpt>
      <trkpt lat="43.3896540" lon="-5.8200010">
        <ele>157.5</ele>
        <time>2020-01-28T08:44:13Z</time>
      </trkpt>
      <trkpt lat="43.3896400" lon="-5.8200060">
        <ele>157.5</ele>
        <time>2020-01-28T08:44:14Z</time>
      </trkpt>
      <trkpt lat="43.3896260" lon="-5.8200120">
        <ele>157.5</ele>
        <time>2020-01-28T08:44:15Z</time>
      </trkpt>
      <trkpt lat="43.3896120" lon="-5.8200190">
        <ele>157.5</ele>
        <time>2020-01-28T08:44:16Z</time>
      </trkpt>
      <trkpt lat="43.3895990" lon="-5.8200280">
        <ele>157.6</ele>
        <time>2020-01-28T08:44:17Z</time>
      </trkpt>
      <trkpt lat="43.3895850" lon="-5.8200360">
        <ele>157.6</ele>
        <time>2020-01-28T08:44:18Z</time>
      </trkpt>
      <trkpt lat="43.3895710" lon="-5.8200430">
        <ele>157.6</ele>
        <time>2020-01-28T08:44:19Z</time>
      </trkpt>
      <trkpt lat="43.3895570" lon="-5.8200500">
        <ele>157.7</ele>
        <time>2020-01-28T08:44:20Z</time>
      </trkpt>
      <trkpt lat="43.3895430" lon="-5.8200580">
        <ele>157.7</ele>
        <time>2020-01-28T08:44:21Z</time>
      </trkpt>
      <trkpt lat="43.3895280" lon="-5.8200680">
        <ele>157.8</ele>
        <time>2020-01-28T08:44:22Z</time>
      </trkpt>
      <trkpt lat="43.3895140" lon="-5.8200790">
        <ele>157.8</ele>
        <time>2020-01-28T08:44:23Z</time>
      </trkpt>
      <trkpt lat="43.3895000" lon="-5.8200890">
        <ele>157.8</ele>
        <time>2020-01-28T08:44:24Z</time>
      </trkpt>
      <trkpt lat="43.3894870" lon="-5.8200980">
        <ele>157.9</ele>
        <time>2020-01-28T08:44:25Z</time>
      </trkpt>
      <trkpt lat="43.3894730" lon="-5.8201060">
        <ele>157.9</ele>
        <time>2020-01-28T08:44:26Z</time>
      </trkpt>
      <trkpt lat="43.3894590" lon="-5.8201110">
        <ele>157.9</ele>
        <time>2020-01-28T08:44:27Z</time>
      </trkpt>
      <trkpt lat="43.3894450" lon="-5.8201150">
        <ele>158.0</ele>
        <time>2020-01-28T08:44:28Z</time>
      </trkpt>
      <trkpt lat="43.3894300" lon="-5.8201180">
        <ele>158.0</ele>
        <time>2020-01-28T08:44:29Z</time>
      </trkpt>
      <trkpt lat="43.3894140" lon="-5.8201200">
        <ele>158.1</ele>
        <time>2020-01-28T08:44:30Z</time>
      </trkpt>
      <trkpt lat="43.3893990" lon="-5.8201230">
        <ele>158.1</ele>
        <time>2020-01-28T08:44:31Z</time>
      </trkpt>
      <trkpt lat="43.3893840" lon="-5.8201280">
        <ele>158.2</ele>
        <time>2020-01-28T08:44:32Z</time>
      </trkpt>
      <trkpt lat="43.3893700" lon="-5.8201320">
        <ele>158.2</ele>
        <time>2020-01-28T08:44:33Z</time>
      </trkpt>
      <trkpt lat="43.3893550" lon="-5.8201370">
        <ele>158.2</ele>
        <time>2020-01-28T08:44:34Z</time>
      </trkpt>
      <trkpt lat="43.3893400" lon="-5.8201430">
        <ele>158.3</ele>
        <time>2020-01-28T08:44:35Z</time>
      </trkpt>
      <trkpt lat="43.3893250" lon="-5.8201500">
        <ele>158.3</ele>
        <time>2020-01-28T08:44:36Z</time>
      </trkpt>
      <trkpt lat="43.3893100" lon="-5.8201570">
        <ele>158.3</ele>
        <time>2020-01-28T08:44:37Z</time>
      </trkpt>
      <trkpt lat="43.3892950" lon="-5.8201630">
        <ele>158.4</ele>
        <time>2020-01-28T08:44:38Z</time>
      </trkpt>
      <trkpt lat="43.3892820" lon="-5.8201680">
        <ele>158.4</ele>
        <time>2020-01-28T08:44:39Z</time>
      </trkpt>
      <trkpt lat="43.3892680" lon="-5.8201740">
        <ele>158.5</ele>
        <time>2020-01-28T08:44:40Z</time>
      </trkpt>
      <trkpt lat="43.3892540" lon="-5.8201820">
        <ele>158.5</ele>
        <time>2020-01-28T08:44:41Z</time>
      </trkpt>
      <trkpt lat="43.3892400" lon="-5.8201900">
        <ele>158.5</ele>
        <time>2020-01-28T08:44:42Z</time>
      </trkpt>
      <trkpt lat="43.3892250" lon="-5.8201980">
        <ele>158.6</ele>
        <time>2020-01-28T08:44:43Z</time>
      </trkpt>
      <trkpt lat="43.3892110" lon="-5.8202060">
        <ele>158.6</ele>
        <time>2020-01-28T08:44:44Z</time>
      </trkpt>
      <trkpt lat="43.3891970" lon="-5.8202130">
        <ele>158.6</ele>
        <time>2020-01-28T08:44:45Z</time>
      </trkpt>
      <trkpt lat="43.3891830" lon="-5.8202210">
        <ele>158.7</ele>
        <time>2020-01-28T08:44:46Z</time>
      </trkpt>
      <trkpt lat="43.3891680" lon="-5.8202270">
        <ele>158.7</ele>
        <time>2020-01-28T08:44:47Z</time>
      </trkpt>
      <trkpt lat="43.3891540" lon="-5.8202330">
        <ele>158.8</ele>
        <time>2020-01-28T08:44:48Z</time>
      </trkpt>
      <trkpt lat="43.3891400" lon="-5.8202400">
        <ele>158.8</ele>
        <time>2020-01-28T08:44:49Z</time>
      </trkpt>
      <trkpt lat="43.3891270" lon="-5.8202470">
        <ele>158.8</ele>
        <time>2020-01-28T08:44:50Z</time>
      </trkpt>
      <trkpt lat="43.3891130" lon="-5.8202530">
        <ele>158.9</ele>
        <time>2020-01-28T08:44:51Z</time>
      </trkpt>
      <trkpt lat="43.3890990" lon="-5.8202580">
        <ele>158.9</ele>
        <time>2020-01-28T08:44:52Z</time>
      </trkpt>
      <trkpt lat="43.3890840" lon="-5.8202620">
        <ele>158.9</ele>
        <time>2020-01-28T08:44:53Z</time>
      </trkpt>
      <trkpt lat="43.3890710" lon="-5.8202680">
        <ele>159.0</ele>
        <time>2020-01-28T08:44:54Z</time>
      </trkpt>
      <trkpt lat="43.3890570" lon="-5.8202760">
        <ele>159.0</ele>
        <time>2020-01-28T08:44:55Z</time>
      </trkpt>
      <trkpt lat="43.3890420" lon="-5.8202830">
        <ele>159.0</ele>
        <time>2020-01-28T08:44:56Z</time>
      </trkpt>
      <trkpt lat="43.3890280" lon="-5.8202920">
        <ele>159.0</ele>
        <time>2020-01-28T08:44:57Z</time>
      </trkpt>
      <trkpt lat="43.3890150" lon="-5.8203010">
        <ele>159.0</ele>
        <time>2020-01-28T08:44:58Z</time>
      </trkpt>
      <trkpt lat="43.3890040" lon="-5.8203120">
        <ele>159.0</ele>
        <time>2020-01-28T08:44:59Z</time>
      </trkpt>
      <trkpt lat="43.3889960" lon="-5.8203200">
        <ele>159.1</ele>
        <time>2020-01-28T08:45:00Z</time>
      </trkpt>
      <trkpt lat="43.3889890" lon="-5.8203250">
        <ele>159.1</ele>
        <time>2020-01-28T08:45:01Z</time>
      </trkpt>
      <trkpt lat="43.3889800" lon="-5.8203300">
        <ele>159.1</ele>
        <time>2020-01-28T08:45:02Z</time>
      </trkpt>
      <trkpt lat="43.3889670" lon="-5.8203350">
        <ele>159.1</ele>
        <time>2020-01-28T08:45:03Z</time>
      </trkpt>
      <trkpt lat="43.3889550" lon="-5.8203390">
        <ele>159.1</ele>
        <time>2020-01-28T08:45:04Z</time>
      </trkpt>
      <trkpt lat="43.3889340" lon="-5.8203490">
        <ele>159.1</ele>
        <time>2020-01-28T08:45:05Z</time>
      </trkpt>
      <trkpt lat="43.3889240" lon="-5.8203540">
        <ele>159.1</ele>
        <time>2020-01-28T08:45:06Z</time>
      </trkpt>
      <trkpt lat="43.3889150" lon="-5.8203590">
        <ele>159.1</ele>
        <time>2020-01-28T08:45:07Z</time>
      </trkpt>
      <trkpt lat="43.3889000" lon="-5.8203670">
        <ele>159.1</ele>
        <time>2020-01-28T08:45:08Z</time>
      </trkpt>
      <trkpt lat="43.3888850" lon="-5.8203750">
        <ele>159.1</ele>
        <time>2020-01-28T08:45:09Z</time>
      </trkpt>
      <trkpt lat="43.3888700" lon="-5.8203840">
        <ele>159.1</ele>
        <time>2020-01-28T08:45:10Z</time>
      </trkpt>
      <trkpt lat="43.3888540" lon="-5.8203920">
        <ele>159.2</ele>
        <time>2020-01-28T08:45:11Z</time>
      </trkpt>
      <trkpt lat="43.3888390" lon="-5.8204010">
        <ele>159.2</ele>
        <time>2020-01-28T08:45:12Z</time>
      </trkpt>
      <trkpt lat="43.3888240" lon="-5.8204100">
        <ele>159.2</ele>
        <time>2020-01-28T08:45:13Z</time>
      </trkpt>
      <trkpt lat="43.3888090" lon="-5.8204190">
        <ele>159.2</ele>
        <time>2020-01-28T08:45:14Z</time>
      </trkpt>
      <trkpt lat="43.3887940" lon="-5.8204300">
        <ele>159.2</ele>
        <time>2020-01-28T08:45:15Z</time>
      </trkpt>
      <trkpt lat="43.3887790" lon="-5.8204420">
        <ele>159.2</ele>
        <time>2020-01-28T08:45:16Z</time>
      </trkpt>
      <trkpt lat="43.3887650" lon="-5.8204540">
        <ele>159.2</ele>
        <time>2020-01-28T08:45:17Z</time>
      </trkpt>
      <trkpt lat="43.3887510" lon="-5.8204680">
        <ele>159.3</ele>
        <time>2020-01-28T08:45:18Z</time>
      </trkpt>
      <trkpt lat="43.3887360" lon="-5.8204810">
        <ele>159.3</ele>
        <time>2020-01-28T08:45:19Z</time>
      </trkpt>
      <trkpt lat="43.3887220" lon="-5.8204910">
        <ele>159.3</ele>
        <time>2020-01-28T08:45:20Z</time>
      </trkpt>
      <trkpt lat="43.3887090" lon="-5.8204970">
        <ele>159.3</ele>
        <time>2020-01-28T08:45:21Z</time>
      </trkpt>
      <trkpt lat="43.3886940" lon="-5.8205030">
        <ele>159.3</ele>
        <time>2020-01-28T08:45:22Z</time>
      </trkpt>
      <trkpt lat="43.3886820" lon="-5.8205100">
        <ele>159.3</ele>
        <time>2020-01-28T08:45:23Z</time>
      </trkpt>
      <trkpt lat="43.3886690" lon="-5.8205200">
        <ele>159.4</ele>
        <time>2020-01-28T08:45:24Z</time>
      </trkpt>
      <trkpt lat="43.3886550" lon="-5.8205330">
        <ele>159.4</ele>
        <time>2020-01-28T08:45:25Z</time>
      </trkpt>
      <trkpt lat="43.3886440" lon="-5.8205470">
        <ele>159.4</ele>
        <time>2020-01-28T08:45:26Z</time>
      </trkpt>
      <trkpt lat="43.3886340" lon="-5.8205610">
        <ele>159.4</ele>
        <time>2020-01-28T08:45:27Z</time>
      </trkpt>
      <trkpt lat="43.3886220" lon="-5.8205740">
        <ele>159.4</ele>
        <time>2020-01-28T08:45:28Z</time>
      </trkpt>
      <trkpt lat="43.3886110" lon="-5.8205850">
        <ele>159.4</ele>
        <time>2020-01-28T08:45:29Z</time>
      </trkpt>
      <trkpt lat="43.3885940" lon="-5.8205970">
        <ele>159.5</ele>
        <time>2020-01-28T08:45:30Z</time>
      </trkpt>
      <trkpt lat="43.3885890" lon="-5.8206010">
        <ele>159.5</ele>
        <time>2020-01-28T08:45:31Z</time>
      </trkpt>
      <trkpt lat="43.3885830" lon="-5.8206040">
        <ele>159.5</ele>
        <time>2020-01-28T08:45:32Z</time>
      </trkpt>
      <trkpt lat="43.3885770" lon="-5.8206070">
        <ele>159.5</ele>
        <time>2020-01-28T08:45:33Z</time>
      </trkpt>
      <trkpt lat="43.3885640" lon="-5.8206180">
        <ele>159.5</ele>
        <time>2020-01-28T08:45:34Z</time>
      </trkpt>
      <trkpt lat="43.3885600" lon="-5.8206210">
        <ele>159.6</ele>
        <time>2020-01-28T08:45:35Z</time>
      </trkpt>
      <trkpt lat="43.3885570" lon="-5.8206250">
        <ele>159.6</ele>
        <time>2020-01-28T08:45:36Z</time>
      </trkpt>
      <trkpt lat="43.3885530" lon="-5.8206280">
        <ele>159.6</ele>
        <time>2020-01-28T08:45:37Z</time>
      </trkpt>
      <trkpt lat="43.3885500" lon="-5.8206320">
        <ele>159.6</ele>
        <time>2020-01-28T08:45:38Z</time>
      </trkpt>
      <trkpt lat="43.3885460" lon="-5.8206350">
        <ele>159.6</ele>
        <time>2020-01-28T08:45:39Z</time>
      </trkpt>
      <trkpt lat="43.3885270" lon="-5.8206480">
        <ele>159.6</ele>
        <time>2020-01-28T08:45:40Z</time>
      </trkpt>
      <trkpt lat="43.3885180" lon="-5.8206540">
        <ele>159.6</ele>
        <time>2020-01-28T08:45:41Z</time>
      </trkpt>
      <trkpt lat="43.3885100" lon="-5.8206600">
        <ele>159.7</ele>
        <time>2020-01-28T08:45:42Z</time>
      </trkpt>
      <trkpt lat="43.3885020" lon="-5.8206690">
        <ele>159.7</ele>
        <time>2020-01-28T08:45:43Z</time>
      </trkpt>
      <trkpt lat="43.3885000" lon="-5.8206760">
        <ele>159.7</ele>
        <time>2020-01-28T08:45:44Z</time>
      </trkpt>
      <trkpt lat="43.3885020" lon="-5.8206860">
        <ele>159.7</ele>
        <time>2020-01-28T08:45:45Z</time>
      </trkpt>
      <trkpt lat="43.3885070" lon="-5.8207000">
        <ele>159.7</ele>
        <time>2020-01-28T08:45:46Z</time>
      </trkpt>
      <trkpt lat="43.3885020" lon="-5.8207260">
        <ele>159.8</ele>
        <time>2020-01-28T08:45:47Z</time>
      </trkpt>
      <trkpt lat="43.3884950" lon="-5.8207360">
        <ele>159.8</ele>
        <time>2020-01-28T08:45:48Z</time>
      </trkpt>
      <trkpt lat="43.3884890" lon="-5.8207470">
        <ele>159.8</ele>
        <time>2020-01-28T08:45:49Z</time>
      </trkpt>
      <trkpt lat="43.3884740" lon="-5.8207590">
        <ele>159.8</ele>
        <time>2020-01-28T08:45:50Z</time>
      </trkpt>
      <trkpt lat="43.3884610" lon="-5.8207710">
        <ele>159.9</ele>
        <time>2020-01-28T08:45:51Z</time>
      </trkpt>
      <trkpt lat="43.3884450" lon="-5.8207840">
        <ele>159.9</ele>
        <time>2020-01-28T08:45:52Z</time>
      </trkpt>
      <trkpt lat="43.3884290" lon="-5.8207970">
        <ele>159.9</ele>
        <time>2020-01-28T08:45:53Z</time>
      </trkpt>
      <trkpt lat="43.3884150" lon="-5.8208060">
        <ele>160.0</ele>
        <time>2020-01-28T08:45:54Z</time>
      </trkpt>
      <trkpt lat="43.3884030" lon="-5.8208120">
        <ele>160.0</ele>
        <time>2020-01-28T08:45:55Z</time>
      </trkpt>
      <trkpt lat="43.3883900" lon="-5.8208180">
        <ele>160.1</ele>
        <time>2020-01-28T08:45:56Z</time>
      </trkpt>
      <trkpt lat="43.3883770" lon="-5.8208260">
        <ele>160.2</ele>
        <time>2020-01-28T08:45:57Z</time>
      </trkpt>
      <trkpt lat="43.3883620" lon="-5.8208350">
        <ele>160.3</ele>
        <time>2020-01-28T08:45:58Z</time>
      </trkpt>
      <trkpt lat="43.3883490" lon="-5.8208420">
        <ele>160.3</ele>
        <time>2020-01-28T08:45:59Z</time>
      </trkpt>
      <trkpt lat="43.3883400" lon="-5.8208450">
        <ele>160.3</ele>
        <time>2020-01-28T08:46:00Z</time>
      </trkpt>
      <trkpt lat="43.3883360" lon="-5.8208470">
        <ele>160.3</ele>
        <time>2020-01-28T08:46:01Z</time>
      </trkpt>
      <trkpt lat="43.3883280" lon="-5.8208520">
        <ele>160.3</ele>
        <time>2020-01-28T08:46:02Z</time>
      </trkpt>
      <trkpt lat="43.3883180" lon="-5.8208620">
        <ele>160.3</ele>
        <time>2020-01-28T08:46:03Z</time>
      </trkpt>
      <trkpt lat="43.3883060" lon="-5.8208730">
        <ele>160.3</ele>
        <time>2020-01-28T08:46:04Z</time>
      </trkpt>
      <trkpt lat="43.3882950" lon="-5.8208860">
        <ele>160.3</ele>
        <time>2020-01-28T08:46:05Z</time>
      </trkpt>
      <trkpt lat="43.3882820" lon="-5.8208990">
        <ele>160.3</ele>
        <time>2020-01-28T08:46:06Z</time>
      </trkpt>
      <trkpt lat="43.3882680" lon="-5.8209120">
        <ele>160.4</ele>
        <time>2020-01-28T08:46:07Z</time>
      </trkpt>
      <trkpt lat="43.3882550" lon="-5.8209250">
        <ele>160.4</ele>
        <time>2020-01-28T08:46:08Z</time>
      </trkpt>
      <trkpt lat="43.3882430" lon="-5.8209380">
        <ele>160.4</ele>
        <time>2020-01-28T08:46:09Z</time>
      </trkpt>
      <trkpt lat="43.3882330" lon="-5.8209500">
        <ele>160.4</ele>
        <time>2020-01-28T08:46:10Z</time>
      </trkpt>
      <trkpt lat="43.3882210" lon="-5.8209610">
        <ele>160.4</ele>
        <time>2020-01-28T08:46:11Z</time>
      </trkpt>
      <trkpt lat="43.3882080" lon="-5.8209700">
        <ele>160.4</ele>
        <time>2020-01-28T08:46:12Z</time>
      </trkpt>
      <trkpt lat="43.3881950" lon="-5.8209790">
        <ele>160.4</ele>
        <time>2020-01-28T08:46:13Z</time>
      </trkpt>
      <trkpt lat="43.3881820" lon="-5.8209890">
        <ele>160.5</ele>
        <time>2020-01-28T08:46:14Z</time>
      </trkpt>
      <trkpt lat="43.3881690" lon="-5.8209990">
        <ele>160.5</ele>
        <time>2020-01-28T08:46:15Z</time>
      </trkpt>
      <trkpt lat="43.3881560" lon="-5.8210080">
        <ele>160.5</ele>
        <time>2020-01-28T08:46:16Z</time>
      </trkpt>
      <trkpt lat="43.3881440" lon="-5.8210180">
        <ele>160.5</ele>
        <time>2020-01-28T08:46:17Z</time>
      </trkpt>
      <trkpt lat="43.3881320" lon="-5.8210310">
        <ele>160.5</ele>
        <time>2020-01-28T08:46:18Z</time>
      </trkpt>
      <trkpt lat="43.3881210" lon="-5.8210440">
        <ele>160.5</ele>
        <time>2020-01-28T08:46:19Z</time>
      </trkpt>
      <trkpt lat="43.3881090" lon="-5.8210590">
        <ele>160.5</ele>
        <time>2020-01-28T08:46:20Z</time>
      </trkpt>
      <trkpt lat="43.3880980" lon="-5.8210740">
        <ele>160.5</ele>
        <time>2020-01-28T08:46:21Z</time>
      </trkpt>
      <trkpt lat="43.3880870" lon="-5.8210880">
        <ele>160.5</ele>
        <time>2020-01-28T08:46:22Z</time>
      </trkpt>
      <trkpt lat="43.3880750" lon="-5.8211010">
        <ele>160.5</ele>
        <time>2020-01-28T08:46:23Z</time>
      </trkpt>
      <trkpt lat="43.3880570" lon="-5.8211190">
        <ele>160.6</ele>
        <time>2020-01-28T08:46:24Z</time>
      </trkpt>
      <trkpt lat="43.3880480" lon="-5.8211270">
        <ele>160.6</ele>
        <time>2020-01-28T08:46:25Z</time>
      </trkpt>
      <trkpt lat="43.3880400" lon="-5.8211340">
        <ele>160.7</ele>
        <time>2020-01-28T08:46:26Z</time>
      </trkpt>
      <trkpt lat="43.3880280" lon="-5.8211440">
        <ele>160.7</ele>
        <time>2020-01-28T08:46:27Z</time>
      </trkpt>
      <trkpt lat="43.3880130" lon="-5.8211530">
        <ele>160.7</ele>
        <time>2020-01-28T08:46:28Z</time>
      </trkpt>
      <trkpt lat="43.3879980" lon="-5.8211630">
        <ele>160.7</ele>
        <time>2020-01-28T08:46:29Z</time>
      </trkpt>
      <trkpt lat="43.3879840" lon="-5.8211710">
        <ele>160.8</ele>
        <time>2020-01-28T08:46:30Z</time>
      </trkpt>
      <trkpt lat="43.3879730" lon="-5.8211760">
        <ele>160.8</ele>
        <time>2020-01-28T08:46:31Z</time>
      </trkpt>
      <trkpt lat="43.3879640" lon="-5.8211820">
        <ele>160.8</ele>
        <time>2020-01-28T08:46:32Z</time>
      </trkpt>
      <trkpt lat="43.3879580" lon="-5.8211870">
        <ele>160.8</ele>
        <time>2020-01-28T08:46:33Z</time>
      </trkpt>
      <trkpt lat="43.3879580" lon="-5.8211870">
        <ele>160.8</ele>
        <time>2020-01-28T08:46:34Z</time>
      </trkpt>
      <trkpt lat="43.3879530" lon="-5.8211900">
        <ele>160.8</ele>
        <time>2020-01-28T08:46:35Z</time>
      </trkpt>
      <trkpt lat="43.3879440" lon="-5.8211980">
        <ele>160.8</ele>
        <time>2020-01-28T08:46:36Z</time>
      </trkpt>
      <trkpt lat="43.3879330" lon="-5.8212060">
        <ele>160.8</ele>
        <time>2020-01-28T08:46:37Z</time>
      </trkpt>
      <trkpt lat="43.3879200" lon="-5.8212140">
        <ele>160.9</ele>
        <time>2020-01-28T08:46:38Z</time>
      </trkpt>
      <trkpt lat="43.3879050" lon="-5.8212210">
        <ele>160.9</ele>
        <time>2020-01-28T08:46:39Z</time>
      </trkpt>
      <trkpt lat="43.3878850" lon="-5.8212290">
        <ele>160.9</ele>
        <time>2020-01-28T08:46:40Z</time>
      </trkpt>
      <trkpt lat="43.3878770" lon="-5.8212310">
        <ele>160.9</ele>
        <time>2020-01-28T08:46:41Z</time>
      </trkpt>
      <trkpt lat="43.3878690" lon="-5.8212340">
        <ele>161.0</ele>
        <time>2020-01-28T08:46:42Z</time>
      </trkpt>
      <trkpt lat="43.3878570" lon="-5.8212400">
        <ele>161.0</ele>
        <time>2020-01-28T08:46:43Z</time>
      </trkpt>
      <trkpt lat="43.3878440" lon="-5.8212490">
        <ele>161.0</ele>
        <time>2020-01-28T08:46:44Z</time>
      </trkpt>
      <trkpt lat="43.3878320" lon="-5.8212580">
        <ele>161.0</ele>
        <time>2020-01-28T08:46:45Z</time>
      </trkpt>
      <trkpt lat="43.3878200" lon="-5.8212670">
        <ele>161.0</ele>
        <time>2020-01-28T08:46:46Z</time>
      </trkpt>
      <trkpt lat="43.3878070" lon="-5.8212780">
        <ele>161.1</ele>
        <time>2020-01-28T08:46:47Z</time>
      </trkpt>
      <trkpt lat="43.3877950" lon="-5.8212880">
        <ele>161.1</ele>
        <time>2020-01-28T08:46:48Z</time>
      </trkpt>
      <trkpt lat="43.3877780" lon="-5.8213060">
        <ele>161.2</ele>
        <time>2020-01-28T08:46:49Z</time>
      </trkpt>
      <trkpt lat="43.3877700" lon="-5.8213140">
        <ele>161.3</ele>
        <time>2020-01-28T08:46:50Z</time>
      </trkpt>
      <trkpt lat="43.3877630" lon="-5.8213210">
        <ele>161.3</ele>
        <time>2020-01-28T08:46:51Z</time>
      </trkpt>
      <trkpt lat="43.3877500" lon="-5.8213320">
        <ele>161.4</ele>
        <time>2020-01-28T08:46:52Z</time>
      </trkpt>
      <trkpt lat="43.3877360" lon="-5.8213420">
        <ele>161.4</ele>
        <time>2020-01-28T08:46:53Z</time>
      </trkpt>
      <trkpt lat="43.3877230" lon="-5.8213520">
        <ele>161.5</ele>
        <time>2020-01-28T08:46:54Z</time>
      </trkpt>
      <trkpt lat="43.3877110" lon="-5.8213620">
        <ele>161.5</ele>
        <time>2020-01-28T08:46:55Z</time>
      </trkpt>
      <trkpt lat="43.3877000" lon="-5.8213730">
        <ele>161.6</ele>
        <time>2020-01-28T08:46:56Z</time>
      </trkpt>
      <trkpt lat="43.3876870" lon="-5.8213860">
        <ele>161.7</ele>
        <time>2020-01-28T08:46:57Z</time>
      </trkpt>
      <trkpt lat="43.3876740" lon="-5.8213990">
        <ele>161.7</ele>
        <time>2020-01-28T08:46:58Z</time>
      </trkpt>
      <trkpt lat="43.3876620" lon="-5.8214100">
        <ele>161.8</ele>
        <time>2020-01-28T08:46:59Z</time>
      </trkpt>
      <trkpt lat="43.3876520" lon="-5.8214200">
        <ele>161.8</ele>
        <time>2020-01-28T08:47:00Z</time>
      </trkpt>
      <trkpt lat="43.3876430" lon="-5.8214280">
        <ele>161.9</ele>
        <time>2020-01-28T08:47:01Z</time>
      </trkpt>
      <trkpt lat="43.3876330" lon="-5.8214370">
        <ele>161.9</ele>
        <time>2020-01-28T08:47:02Z</time>
      </trkpt>
      <trkpt lat="43.3876240" lon="-5.8214490">
        <ele>162.0</ele>
        <time>2020-01-28T08:47:03Z</time>
      </trkpt>
      <trkpt lat="43.3876130" lon="-5.8214650">
        <ele>162.1</ele>
        <time>2020-01-28T08:47:04Z</time>
      </trkpt>
      <trkpt lat="43.3876050" lon="-5.8214820">
        <ele>162.1</ele>
        <time>2020-01-28T08:47:05Z</time>
      </trkpt>
      <trkpt lat="43.3875970" lon="-5.8214990">
        <ele>162.2</ele>
        <time>2020-01-28T08:47:06Z</time>
      </trkpt>
      <trkpt lat="43.3875870" lon="-5.8215170">
        <ele>162.3</ele>
        <time>2020-01-28T08:47:07Z</time>
      </trkpt>
      <trkpt lat="43.3875780" lon="-5.8215320">
        <ele>162.4</ele>
        <time>2020-01-28T08:47:08Z</time>
      </trkpt>
      <trkpt lat="43.3875690" lon="-5.8215440">
        <ele>162.4</ele>
        <time>2020-01-28T08:47:09Z</time>
      </trkpt>
      <trkpt lat="43.3875620" lon="-5.8215540">
        <ele>162.5</ele>
        <time>2020-01-28T08:47:10Z</time>
      </trkpt>
      <trkpt lat="43.3875520" lon="-5.8215600">
        <ele>162.6</ele>
        <time>2020-01-28T08:47:11Z</time>
      </trkpt>
      <trkpt lat="43.3875410" lon="-5.8215650">
        <ele>162.6</ele>
        <time>2020-01-28T08:47:12Z</time>
      </trkpt>
      <trkpt lat="43.3875300" lon="-5.8215680">
        <ele>162.7</ele>
        <time>2020-01-28T08:47:13Z</time>
      </trkpt>
      <trkpt lat="43.3875180" lon="-5.8215700">
        <ele>162.8</ele>
        <time>2020-01-28T08:47:14Z</time>
      </trkpt>
      <trkpt lat="43.3875070" lon="-5.8215750">
        <ele>162.9</ele>
        <time>2020-01-28T08:47:15Z</time>
      </trkpt>
      <trkpt lat="43.3874970" lon="-5.8215850">
        <ele>162.9</ele>
        <time>2020-01-28T08:47:16Z</time>
      </trkpt>
      <trkpt lat="43.3874880" lon="-5.8215960">
        <ele>163.0</ele>
        <time>2020-01-28T08:47:17Z</time>
      </trkpt>
      <trkpt lat="43.3874770" lon="-5.8216220">
        <ele>163.2</ele>
        <time>2020-01-28T08:47:18Z</time>
      </trkpt>
      <trkpt lat="43.3874710" lon="-5.8216330">
        <ele>163.5</ele>
        <time>2020-01-28T08:47:19Z</time>
      </trkpt>
      <trkpt lat="43.3874660" lon="-5.8216450">
        <ele>163.5</ele>
        <time>2020-01-28T08:47:20Z</time>
      </trkpt>
      <trkpt lat="43.3874570" lon="-5.8216610">
        <ele>163.6</ele>
        <time>2020-01-28T08:47:21Z</time>
      </trkpt>
      <trkpt lat="43.3874480" lon="-5.8216760">
        <ele>163.6</ele>
        <time>2020-01-28T08:47:22Z</time>
      </trkpt>
      <trkpt lat="43.3874340" lon="-5.8216980">
        <ele>163.8</ele>
        <time>2020-01-28T08:47:23Z</time>
      </trkpt>
      <trkpt lat="43.3874280" lon="-5.8217080">
        <ele>163.8</ele>
        <time>2020-01-28T08:47:24Z</time>
      </trkpt>
      <trkpt lat="43.3874220" lon="-5.8217170">
        <ele>163.8</ele>
        <time>2020-01-28T08:47:25Z</time>
      </trkpt>
      <trkpt lat="43.3874110" lon="-5.8217320">
        <ele>163.9</ele>
        <time>2020-01-28T08:47:26Z</time>
      </trkpt>
      <trkpt lat="43.3874000" lon="-5.8217460">
        <ele>164.0</ele>
        <time>2020-01-28T08:47:27Z</time>
      </trkpt>
      <trkpt lat="43.3873890" lon="-5.8217580">
        <ele>164.0</ele>
        <time>2020-01-28T08:47:28Z</time>
      </trkpt>
      <trkpt lat="43.3873780" lon="-5.8217700">
        <ele>164.1</ele>
        <time>2020-01-28T08:47:29Z</time>
      </trkpt>
      <trkpt lat="43.3873650" lon="-5.8217830">
        <ele>164.2</ele>
        <time>2020-01-28T08:47:30Z</time>
      </trkpt>
      <trkpt lat="43.3873540" lon="-5.8217960">
        <ele>164.2</ele>
        <time>2020-01-28T08:47:31Z</time>
      </trkpt>
      <trkpt lat="43.3873430" lon="-5.8218090">
        <ele>164.3</ele>
        <time>2020-01-28T08:47:32Z</time>
      </trkpt>
      <trkpt lat="43.3873330" lon="-5.8218210">
        <ele>164.4</ele>
        <time>2020-01-28T08:47:33Z</time>
      </trkpt>
      <trkpt lat="43.3873210" lon="-5.8218310">
        <ele>164.4</ele>
        <time>2020-01-28T08:47:34Z</time>
      </trkpt>
      <trkpt lat="43.3873080" lon="-5.8218420">
        <ele>164.5</ele>
        <time>2020-01-28T08:47:35Z</time>
      </trkpt>
      <trkpt lat="43.3872980" lon="-5.8218530">
        <ele>164.5</ele>
        <time>2020-01-28T08:47:36Z</time>
      </trkpt>
      <trkpt lat="43.3872870" lon="-5.8218660">
        <ele>164.6</ele>
        <time>2020-01-28T08:47:37Z</time>
      </trkpt>
      <trkpt lat="43.3872740" lon="-5.8218810">
        <ele>164.6</ele>
        <time>2020-01-28T08:47:38Z</time>
      </trkpt>
      <trkpt lat="43.3872610" lon="-5.8218950">
        <ele>164.7</ele>
        <time>2020-01-28T08:47:39Z</time>
      </trkpt>
      <trkpt lat="43.3872480" lon="-5.8219100">
        <ele>164.8</ele>
        <time>2020-01-28T08:47:40Z</time>
      </trkpt>
      <trkpt lat="43.3872330" lon="-5.8219230">
        <ele>164.8</ele>
        <time>2020-01-28T08:47:41Z</time>
      </trkpt>
      <trkpt lat="43.3872180" lon="-5.8219370">
        <ele>164.9</ele>
        <time>2020-01-28T08:47:42Z</time>
      </trkpt>
      <trkpt lat="43.3872040" lon="-5.8219480">
        <ele>164.9</ele>
        <time>2020-01-28T08:47:43Z</time>
      </trkpt>
      <trkpt lat="43.3871910" lon="-5.8219590">
        <ele>165.0</ele>
        <time>2020-01-28T08:47:44Z</time>
      </trkpt>
      <trkpt lat="43.3871790" lon="-5.8219710">
        <ele>165.0</ele>
        <time>2020-01-28T08:47:45Z</time>
      </trkpt>
      <trkpt lat="43.3871680" lon="-5.8219820">
        <ele>165.1</ele>
        <time>2020-01-28T08:47:46Z</time>
      </trkpt>
      <trkpt lat="43.3871560" lon="-5.8219940">
        <ele>165.1</ele>
        <time>2020-01-28T08:47:47Z</time>
      </trkpt>
      <trkpt lat="43.3871430" lon="-5.8220070">
        <ele>165.2</ele>
        <time>2020-01-28T08:47:48Z</time>
      </trkpt>
      <trkpt lat="43.3871300" lon="-5.8220180">
        <ele>165.2</ele>
        <time>2020-01-28T08:47:49Z</time>
      </trkpt>
      <trkpt lat="43.3871180" lon="-5.8220290">
        <ele>165.3</ele>
        <time>2020-01-28T08:47:50Z</time>
      </trkpt>
      <trkpt lat="43.3871070" lon="-5.8220390">
        <ele>165.3</ele>
        <time>2020-01-28T08:47:51Z</time>
      </trkpt>
      <trkpt lat="43.3870970" lon="-5.8220480">
        <ele>165.4</ele>
        <time>2020-01-28T08:47:52Z</time>
      </trkpt>
      <trkpt lat="43.3870840" lon="-5.8220580">
        <ele>165.4</ele>
        <time>2020-01-28T08:47:53Z</time>
      </trkpt>
      <trkpt lat="43.3870700" lon="-5.8220700">
        <ele>165.4</ele>
        <time>2020-01-28T08:47:54Z</time>
      </trkpt>
      <trkpt lat="43.3870580" lon="-5.8220820">
        <ele>165.5</ele>
        <time>2020-01-28T08:47:55Z</time>
      </trkpt>
      <trkpt lat="43.3870390" lon="-5.8221010">
        <ele>165.5</ele>
        <time>2020-01-28T08:47:56Z</time>
      </trkpt>
      <trkpt lat="43.3870320" lon="-5.8221090">
        <ele>165.5</ele>
        <time>2020-01-28T08:47:57Z</time>
      </trkpt>
      <trkpt lat="43.3870240" lon="-5.8221170">
        <ele>165.6</ele>
        <time>2020-01-28T08:47:58Z</time>
      </trkpt>
      <trkpt lat="43.3870110" lon="-5.8221270">
        <ele>165.6</ele>
        <time>2020-01-28T08:47:59Z</time>
      </trkpt>
      <trkpt lat="43.3869970" lon="-5.8221360">
        <ele>165.6</ele>
        <time>2020-01-28T08:48:00Z</time>
      </trkpt>
      <trkpt lat="43.3869850" lon="-5.8221450">
        <ele>165.7</ele>
        <time>2020-01-28T08:48:01Z</time>
      </trkpt>
      <trkpt lat="43.3869740" lon="-5.8221560">
        <ele>165.7</ele>
        <time>2020-01-28T08:48:02Z</time>
      </trkpt>
      <trkpt lat="43.3869620" lon="-5.8221690">
        <ele>165.7</ele>
        <time>2020-01-28T08:48:03Z</time>
      </trkpt>
      <trkpt lat="43.3869510" lon="-5.8221800">
        <ele>165.8</ele>
        <time>2020-01-28T08:48:04Z</time>
      </trkpt>
      <trkpt lat="43.3869400" lon="-5.8221900">
        <ele>165.8</ele>
        <time>2020-01-28T08:48:05Z</time>
      </trkpt>
      <trkpt lat="43.3869280" lon="-5.8222010">
        <ele>165.9</ele>
        <time>2020-01-28T08:48:06Z</time>
      </trkpt>
      <trkpt lat="43.3869160" lon="-5.8222100">
        <ele>165.9</ele>
        <time>2020-01-28T08:48:07Z</time>
      </trkpt>
      <trkpt lat="43.3869080" lon="-5.8222170">
        <ele>165.9</ele>
        <time>2020-01-28T08:48:08Z</time>
      </trkpt>
      <trkpt lat="43.3869000" lon="-5.8222260">
        <ele>166.0</ele>
        <time>2020-01-28T08:48:09Z</time>
      </trkpt>
      <trkpt lat="43.3868840" lon="-5.8222450">
        <ele>166.0</ele>
        <time>2020-01-28T08:48:10Z</time>
      </trkpt>
      <trkpt lat="43.3868760" lon="-5.8222540">
        <ele>166.1</ele>
        <time>2020-01-28T08:48:11Z</time>
      </trkpt>
      <trkpt lat="43.3868690" lon="-5.8222630">
        <ele>166.1</ele>
        <time>2020-01-28T08:48:12Z</time>
      </trkpt>
      <trkpt lat="43.3868580" lon="-5.8222760">
        <ele>166.1</ele>
        <time>2020-01-28T08:48:13Z</time>
      </trkpt>
      <trkpt lat="43.3868480" lon="-5.8222870">
        <ele>166.2</ele>
        <time>2020-01-28T08:48:14Z</time>
      </trkpt>
      <trkpt lat="43.3868370" lon="-5.8222960">
        <ele>166.2</ele>
        <time>2020-01-28T08:48:15Z</time>
      </trkpt>
      <trkpt lat="43.3868240" lon="-5.8223070">
        <ele>166.3</ele>
        <time>2020-01-28T08:48:16Z</time>
      </trkpt>
      <trkpt lat="43.3868120" lon="-5.8223160">
        <ele>166.3</ele>
        <time>2020-01-28T08:48:17Z</time>
      </trkpt>
      <trkpt lat="43.3867990" lon="-5.8223240">
        <ele>166.3</ele>
        <time>2020-01-28T08:48:18Z</time>
      </trkpt>
      <trkpt lat="43.3867790" lon="-5.8223380">
        <ele>166.4</ele>
        <time>2020-01-28T08:48:19Z</time>
      </trkpt>
      <trkpt lat="43.3867710" lon="-5.8223440">
        <ele>166.4</ele>
        <time>2020-01-28T08:48:20Z</time>
      </trkpt>
      <trkpt lat="43.3867630" lon="-5.8223510">
        <ele>166.4</ele>
        <time>2020-01-28T08:48:21Z</time>
      </trkpt>
      <trkpt lat="43.3867520" lon="-5.8223620">
        <ele>166.5</ele>
        <time>2020-01-28T08:48:22Z</time>
      </trkpt>
      <trkpt lat="43.3867400" lon="-5.8223720">
        <ele>166.5</ele>
        <time>2020-01-28T08:48:23Z</time>
      </trkpt>
      <trkpt lat="43.3867210" lon="-5.8223900">
        <ele>166.6</ele>
        <time>2020-01-28T08:48:24Z</time>
      </trkpt>
      <trkpt lat="43.3867140" lon="-5.8223970">
        <ele>166.6</ele>
        <time>2020-01-28T08:48:25Z</time>
      </trkpt>
      <trkpt lat="43.3867060" lon="-5.8224050">
        <ele>166.6</ele>
        <time>2020-01-28T08:48:26Z</time>
      </trkpt>
      <trkpt lat="43.3866930" lon="-5.8224170">
        <ele>166.6</ele>
        <time>2020-01-28T08:48:27Z</time>
      </trkpt>
      <trkpt lat="43.3866810" lon="-5.8224270">
        <ele>166.7</ele>
        <time>2020-01-28T08:48:28Z</time>
      </trkpt>
      <trkpt lat="43.3866700" lon="-5.8224350">
        <ele>166.7</ele>
        <time>2020-01-28T08:48:29Z</time>
      </trkpt>
      <trkpt lat="43.3866600" lon="-5.8224420">
        <ele>166.7</ele>
        <time>2020-01-28T08:48:30Z</time>
      </trkpt>
      <trkpt lat="43.3866530" lon="-5.8224460">
        <ele>166.8</ele>
        <time>2020-01-28T08:48:31Z</time>
      </trkpt>
      <trkpt lat="43.3866530" lon="-5.8224460">
        <ele>166.8</ele>
        <time>2020-01-28T08:48:32Z</time>
      </trkpt>
      <trkpt lat="43.3866530" lon="-5.8224460">
        <ele>166.8</ele>
        <time>2020-01-28T08:48:33Z</time>
      </trkpt>
      <trkpt lat="43.3866530" lon="-5.8224460">
        <ele>166.8</ele>
        <time>2020-01-28T08:48:34Z</time>
      </trkpt>
      <trkpt lat="43.3866530" lon="-5.8224460">
        <ele>166.8</ele>
        <time>2020-01-28T08:48:35Z</time>
      </trkpt>
      <trkpt lat="43.3866530" lon="-5.8224460">
        <ele>166.8</ele>
        <time>2020-01-28T08:48:36Z</time>
      </trkpt>
      <trkpt lat="43.3866350" lon="-5.8224610">
        <ele>166.8</ele>
        <time>2020-01-28T08:48:37Z</time>
      </trkpt>
      <trkpt lat="43.3866290" lon="-5.8224660">
        <ele>166.8</ele>
        <time>2020-01-28T08:48:38Z</time>
      </trkpt>
      <trkpt lat="43.3866290" lon="-5.8224660">
        <ele>166.8</ele>
        <time>2020-01-28T08:48:39Z</time>
      </trkpt>
      <trkpt lat="43.3866290" lon="-5.8224660">
        <ele>166.8</ele>
        <time>2020-01-28T08:48:40Z</time>
      </trkpt>
      <trkpt lat="43.3866290" lon="-5.8224660">
        <ele>166.8</ele>
        <time>2020-01-28T08:48:41Z</time>
      </trkpt>
      <trkpt lat="43.3866140" lon="-5.8224750">
        <ele>166.9</ele>
        <time>2020-01-28T08:48:42Z</time>
      </trkpt>
      <trkpt lat="43.3866050" lon="-5.8224860">
        <ele>166.9</ele>
        <time>2020-01-28T08:48:43Z</time>
      </trkpt>
      <trkpt lat="43.3865970" lon="-5.8224960">
        <ele>167.0</ele>
        <time>2020-01-28T08:48:44Z</time>
      </trkpt>
      <trkpt lat="43.3865920" lon="-5.8225010">
        <ele>167.0</ele>
        <time>2020-01-28T08:48:45Z</time>
      </trkpt>
      <trkpt lat="43.3865920" lon="-5.8225010">
        <ele>167.0</ele>
        <time>2020-01-28T08:48:46Z</time>
      </trkpt>
      <trkpt lat="43.3865920" lon="-5.8225010">
        <ele>167.0</ele>
        <time>2020-01-28T08:48:47Z</time>
      </trkpt>
      <trkpt lat="43.3865920" lon="-5.8225010">
        <ele>167.0</ele>
        <time>2020-01-28T08:48:48Z</time>
      </trkpt>
      <trkpt lat="43.3865790" lon="-5.8225140">
        <ele>167.1</ele>
        <time>2020-01-28T08:48:49Z</time>
      </trkpt>
      <trkpt lat="43.3865700" lon="-5.8225260">
        <ele>167.1</ele>
        <time>2020-01-28T08:48:50Z</time>
      </trkpt>
      <trkpt lat="43.3865600" lon="-5.8225420">
        <ele>167.2</ele>
        <time>2020-01-28T08:48:51Z</time>
      </trkpt>
      <trkpt lat="43.3865500" lon="-5.8225580">
        <ele>167.2</ele>
        <time>2020-01-28T08:48:52Z</time>
      </trkpt>
      <trkpt lat="43.3865400" lon="-5.8225720">
        <ele>167.3</ele>
        <time>2020-01-28T08:48:53Z</time>
      </trkpt>
      <trkpt lat="43.3865280" lon="-5.8225850">
        <ele>167.3</ele>
        <time>2020-01-28T08:48:54Z</time>
      </trkpt>
      <trkpt lat="43.3865160" lon="-5.8225970">
        <ele>167.4</ele>
        <time>2020-01-28T08:48:55Z</time>
      </trkpt>
      <trkpt lat="43.3865030" lon="-5.8226070">
        <ele>167.4</ele>
        <time>2020-01-28T08:48:56Z</time>
      </trkpt>
      <trkpt lat="43.3864890" lon="-5.8226170">
        <ele>167.5</ele>
        <time>2020-01-28T08:48:57Z</time>
      </trkpt>
      <trkpt lat="43.3864760" lon="-5.8226280">
        <ele>167.5</ele>
        <time>2020-01-28T08:48:58Z</time>
      </trkpt>
      <trkpt lat="43.3864620" lon="-5.8226390">
        <ele>167.6</ele>
        <time>2020-01-28T08:48:59Z</time>
      </trkpt>
      <trkpt lat="43.3864490" lon="-5.8226500">
        <ele>167.7</ele>
        <time>2020-01-28T08:49:00Z</time>
      </trkpt>
      <trkpt lat="43.3864370" lon="-5.8226610">
        <ele>167.7</ele>
        <time>2020-01-28T08:49:01Z</time>
      </trkpt>
      <trkpt lat="43.3864250" lon="-5.8226730">
        <ele>167.8</ele>
        <time>2020-01-28T08:49:02Z</time>
      </trkpt>
      <trkpt lat="43.3864120" lon="-5.8226840">
        <ele>167.8</ele>
        <time>2020-01-28T08:49:03Z</time>
      </trkpt>
      <trkpt lat="43.3863990" lon="-5.8226950">
        <ele>167.9</ele>
        <time>2020-01-28T08:49:04Z</time>
      </trkpt>
      <trkpt lat="43.3863860" lon="-5.8227060">
        <ele>168.0</ele>
        <time>2020-01-28T08:49:05Z</time>
      </trkpt>
      <trkpt lat="43.3863730" lon="-5.8227170">
        <ele>168.0</ele>
        <time>2020-01-28T08:49:06Z</time>
      </trkpt>
      <trkpt lat="43.3863590" lon="-5.8227280">
        <ele>168.1</ele>
        <time>2020-01-28T08:49:07Z</time>
      </trkpt>
      <trkpt lat="43.3863470" lon="-5.8227380">
        <ele>168.2</ele>
        <time>2020-01-28T08:49:08Z</time>
      </trkpt>
      <trkpt lat="43.3863350" lon="-5.8227490">
        <ele>168.2</ele>
        <time>2020-01-28T08:49:09Z</time>
      </trkpt>
      <trkpt lat="43.3863260" lon="-5.8227590">
        <ele>168.3</ele>
        <time>2020-01-28T08:49:10Z</time>
      </trkpt>
      <trkpt lat="43.3863170" lon="-5.8227680">
        <ele>168.4</ele>
        <time>2020-01-28T08:49:11Z</time>
      </trkpt>
      <trkpt lat="43.3863080" lon="-5.8227770">
        <ele>168.4</ele>
        <time>2020-01-28T08:49:12Z</time>
      </trkpt>
      <trkpt lat="43.3862990" lon="-5.8227860">
        <ele>168.5</ele>
        <time>2020-01-28T08:49:13Z</time>
      </trkpt>
      <trkpt lat="43.3862910" lon="-5.8227960">
        <ele>168.5</ele>
        <time>2020-01-28T08:49:14Z</time>
      </trkpt>
      <trkpt lat="43.3862830" lon="-5.8228050">
        <ele>168.6</ele>
        <time>2020-01-28T08:49:15Z</time>
      </trkpt>
      <trkpt lat="43.3862760" lon="-5.8228140">
        <ele>168.6</ele>
        <time>2020-01-28T08:49:16Z</time>
      </trkpt>
      <trkpt lat="43.3862720" lon="-5.8228190">
        <ele>168.6</ele>
        <time>2020-01-28T08:49:17Z</time>
      </trkpt>
      <trkpt lat="43.3862720" lon="-5.8228190">
        <ele>168.6</ele>
        <time>2020-01-28T08:49:18Z</time>
      </trkpt>
      <trkpt lat="43.3862720" lon="-5.8228250">
        <ele>168.7</ele>
        <time>2020-01-28T08:49:19Z</time>
      </trkpt>
      <trkpt lat="43.3862730" lon="-5.8228310">
        <ele>168.7</ele>
        <time>2020-01-28T08:49:20Z</time>
      </trkpt>
      <trkpt lat="43.3862730" lon="-5.8228310">
        <ele>168.7</ele>
        <time>2020-01-28T08:49:21Z</time>
      </trkpt>
      <trkpt lat="43.3862730" lon="-5.8228310">
        <ele>168.7</ele>
        <time>2020-01-28T08:49:22Z</time>
      </trkpt>
      <trkpt lat="43.3862730" lon="-5.8228310">
        <ele>168.7</ele>
        <time>2020-01-28T08:49:23Z</time>
      </trkpt>
      <trkpt lat="43.3862730" lon="-5.8228310">
        <ele>168.7</ele>
        <time>2020-01-28T08:49:24Z</time>
      </trkpt>
      <trkpt lat="43.3862730" lon="-5.8228310">
        <ele>168.7</ele>
        <time>2020-01-28T08:49:25Z</time>
      </trkpt>
      <trkpt lat="43.3862730" lon="-5.8228310">
        <ele>168.7</ele>
        <time>2020-01-28T08:49:26Z</time>
      </trkpt>
      <trkpt lat="43.3862730" lon="-5.8228310">
        <ele>168.7</ele>
        <time>2020-01-28T08:49:27Z</time>
      </trkpt>
      <trkpt lat="43.3862730" lon="-5.8228310">
        <ele>168.7</ele>
        <time>2020-01-28T08:49:28Z</time>
      </trkpt>
      <trkpt lat="43.3862730" lon="-5.8228310">
        <ele>168.7</ele>
        <time>2020-01-28T08:49:29Z</time>
      </trkpt>
      <trkpt lat="43.3862730" lon="-5.8228310">
        <ele>168.7</ele>
        <time>2020-01-28T08:49:30Z</time>
      </trkpt>
      <trkpt lat="43.3862730" lon="-5.8228310">
        <ele>168.7</ele>
        <time>2020-01-28T08:49:31Z</time>
      </trkpt>
      <trkpt lat="43.3862730" lon="-5.8228310">
        <ele>168.7</ele>
        <time>2020-01-28T08:49:32Z</time>
      </trkpt>
      <trkpt lat="43.3862740" lon="-5.8228340">
        <ele>168.7</ele>
        <time>2020-01-28T08:49:33Z</time>
      </trkpt>
      <trkpt lat="43.3862680" lon="-5.8228450">
        <ele>168.8</ele>
        <time>2020-01-28T08:49:34Z</time>
      </trkpt>
      <trkpt lat="43.3862610" lon="-5.8228560">
        <ele>168.8</ele>
        <time>2020-01-28T08:49:35Z</time>
      </trkpt>
      <trkpt lat="43.3862530" lon="-5.8228660">
        <ele>168.9</ele>
        <time>2020-01-28T08:49:36Z</time>
      </trkpt>
      <trkpt lat="43.3862440" lon="-5.8228760">
        <ele>168.9</ele>
        <time>2020-01-28T08:49:37Z</time>
      </trkpt>
      <trkpt lat="43.3862260" lon="-5.8228920">
        <ele>169.0</ele>
        <time>2020-01-28T08:49:38Z</time>
      </trkpt>
      <trkpt lat="43.3862180" lon="-5.8228980">
        <ele>169.1</ele>
        <time>2020-01-28T08:49:39Z</time>
      </trkpt>
      <trkpt lat="43.3862100" lon="-5.8229040">
        <ele>169.1</ele>
        <time>2020-01-28T08:49:40Z</time>
      </trkpt>
      <trkpt lat="43.3862030" lon="-5.8229120">
        <ele>169.1</ele>
        <time>2020-01-28T08:49:41Z</time>
      </trkpt>
      <trkpt lat="43.3861970" lon="-5.8229200">
        <ele>169.2</ele>
        <time>2020-01-28T08:49:42Z</time>
      </trkpt>
      <trkpt lat="43.3861920" lon="-5.8229280">
        <ele>169.2</ele>
        <time>2020-01-28T08:49:43Z</time>
      </trkpt>
      <trkpt lat="43.3861850" lon="-5.8229360">
        <ele>169.3</ele>
        <time>2020-01-28T08:49:44Z</time>
      </trkpt>
      <trkpt lat="43.3861710" lon="-5.8229530">
        <ele>169.4</ele>
        <time>2020-01-28T08:49:45Z</time>
      </trkpt>
      <trkpt lat="43.3861630" lon="-5.8229610">
        <ele>169.4</ele>
        <time>2020-01-28T08:49:46Z</time>
      </trkpt>
      <trkpt lat="43.3861560" lon="-5.8229680">
        <ele>169.4</ele>
        <time>2020-01-28T08:49:47Z</time>
      </trkpt>
      <trkpt lat="43.3861440" lon="-5.8229780">
        <ele>169.5</ele>
        <time>2020-01-28T08:49:48Z</time>
      </trkpt>
      <trkpt lat="43.3861320" lon="-5.8229860">
        <ele>169.6</ele>
        <time>2020-01-28T08:49:49Z</time>
      </trkpt>
      <trkpt lat="43.3861130" lon="-5.8230020">
        <ele>169.7</ele>
        <time>2020-01-28T08:49:50Z</time>
      </trkpt>
      <trkpt lat="43.3861050" lon="-5.8230100">
        <ele>169.8</ele>
        <time>2020-01-28T08:49:51Z</time>
      </trkpt>
      <trkpt lat="43.3860980" lon="-5.8230170">
        <ele>169.8</ele>
        <time>2020-01-28T08:49:52Z</time>
      </trkpt>
      <trkpt lat="43.3860860" lon="-5.8230290">
        <ele>169.9</ele>
        <time>2020-01-28T08:49:53Z</time>
      </trkpt>
      <trkpt lat="43.3860740" lon="-5.8230410">
        <ele>170.0</ele>
        <time>2020-01-28T08:49:54Z</time>
      </trkpt>
      <trkpt lat="43.3860630" lon="-5.8230500">
        <ele>170.1</ele>
        <time>2020-01-28T08:49:55Z</time>
      </trkpt>
      <trkpt lat="43.3860520" lon="-5.8230610">
        <ele>170.2</ele>
        <time>2020-01-28T08:49:56Z</time>
      </trkpt>
      <trkpt lat="43.3860390" lon="-5.8230740">
        <ele>170.3</ele>
        <time>2020-01-28T08:49:57Z</time>
      </trkpt>
      <trkpt lat="43.3860290" lon="-5.8230880">
        <ele>170.4</ele>
        <time>2020-01-28T08:49:58Z</time>
      </trkpt>
      <trkpt lat="43.3860180" lon="-5.8231010">
        <ele>170.5</ele>
        <time>2020-01-28T08:49:59Z</time>
      </trkpt>
      <trkpt lat="43.3860080" lon="-5.8231150">
        <ele>170.6</ele>
        <time>2020-01-28T08:50:00Z</time>
      </trkpt>
      <trkpt lat="43.3859890" lon="-5.8231330">
        <ele>170.7</ele>
        <time>2020-01-28T08:50:01Z</time>
      </trkpt>
      <trkpt lat="43.3859810" lon="-5.8231400">
        <ele>170.8</ele>
        <time>2020-01-28T08:50:02Z</time>
      </trkpt>
      <trkpt lat="43.3859730" lon="-5.8231460">
        <ele>170.8</ele>
        <time>2020-01-28T08:50:03Z</time>
      </trkpt>
      <trkpt lat="43.3859600" lon="-5.8231540">
        <ele>170.9</ele>
        <time>2020-01-28T08:50:04Z</time>
      </trkpt>
      <trkpt lat="43.3859470" lon="-5.8231630">
        <ele>171.1</ele>
        <time>2020-01-28T08:50:05Z</time>
      </trkpt>
      <trkpt lat="43.3859360" lon="-5.8231700">
        <ele>171.1</ele>
        <time>2020-01-28T08:50:06Z</time>
      </trkpt>
      <trkpt lat="43.3859230" lon="-5.8231800">
        <ele>171.2</ele>
        <time>2020-01-28T08:50:07Z</time>
      </trkpt>
      <trkpt lat="43.3859090" lon="-5.8231900">
        <ele>171.3</ele>
        <time>2020-01-28T08:50:08Z</time>
      </trkpt>
      <trkpt lat="43.3858960" lon="-5.8232000">
        <ele>171.4</ele>
        <time>2020-01-28T08:50:09Z</time>
      </trkpt>
      <trkpt lat="43.3858830" lon="-5.8232110">
        <ele>171.5</ele>
        <time>2020-01-28T08:50:10Z</time>
      </trkpt>
      <trkpt lat="43.3858710" lon="-5.8232230">
        <ele>171.6</ele>
        <time>2020-01-28T08:50:11Z</time>
      </trkpt>
      <trkpt lat="43.3858610" lon="-5.8232340">
        <ele>171.7</ele>
        <time>2020-01-28T08:50:12Z</time>
      </trkpt>
      <trkpt lat="43.3858480" lon="-5.8232450">
        <ele>171.8</ele>
        <time>2020-01-28T08:50:13Z</time>
      </trkpt>
      <trkpt lat="43.3858370" lon="-5.8232550">
        <ele>171.8</ele>
        <time>2020-01-28T08:50:14Z</time>
      </trkpt>
      <trkpt lat="43.3858250" lon="-5.8232660">
        <ele>171.9</ele>
        <time>2020-01-28T08:50:15Z</time>
      </trkpt>
      <trkpt lat="43.3858130" lon="-5.8232780">
        <ele>172.0</ele>
        <time>2020-01-28T08:50:16Z</time>
      </trkpt>
      <trkpt lat="43.3858010" lon="-5.8232880">
        <ele>172.0</ele>
        <time>2020-01-28T08:50:17Z</time>
      </trkpt>
      <trkpt lat="43.3857810" lon="-5.8233050">
        <ele>172.1</ele>
        <time>2020-01-28T08:50:18Z</time>
      </trkpt>
      <trkpt lat="43.3857750" lon="-5.8233130">
        <ele>172.1</ele>
        <time>2020-01-28T08:50:19Z</time>
      </trkpt>
      <trkpt lat="43.3857680" lon="-5.8233200">
        <ele>172.2</ele>
        <time>2020-01-28T08:50:20Z</time>
      </trkpt>
      <trkpt lat="43.3857570" lon="-5.8233350">
        <ele>172.2</ele>
        <time>2020-01-28T08:50:21Z</time>
      </trkpt>
      <trkpt lat="43.3857460" lon="-5.8233490">
        <ele>172.3</ele>
        <time>2020-01-28T08:50:22Z</time>
      </trkpt>
      <trkpt lat="43.3857350" lon="-5.8233630">
        <ele>172.4</ele>
        <time>2020-01-28T08:50:23Z</time>
      </trkpt>
      <trkpt lat="43.3857250" lon="-5.8233760">
        <ele>172.4</ele>
        <time>2020-01-28T08:50:24Z</time>
      </trkpt>
      <trkpt lat="43.3857190" lon="-5.8233830">
        <ele>172.4</ele>
        <time>2020-01-28T08:50:25Z</time>
      </trkpt>
      <trkpt lat="43.3857110" lon="-5.8233920">
        <ele>172.5</ele>
        <time>2020-01-28T08:50:26Z</time>
      </trkpt>
      <trkpt lat="43.3856990" lon="-5.8234000">
        <ele>172.6</ele>
        <time>2020-01-28T08:50:27Z</time>
      </trkpt>
      <trkpt lat="43.3856810" lon="-5.8234150">
        <ele>172.7</ele>
        <time>2020-01-28T08:50:28Z</time>
      </trkpt>
      <trkpt lat="43.3856740" lon="-5.8234220">
        <ele>172.7</ele>
        <time>2020-01-28T08:50:29Z</time>
      </trkpt>
      <trkpt lat="43.3856660" lon="-5.8234290">
        <ele>172.8</ele>
        <time>2020-01-28T08:50:30Z</time>
      </trkpt>
      <trkpt lat="43.3856510" lon="-5.8234500">
        <ele>172.9</ele>
        <time>2020-01-28T08:50:31Z</time>
      </trkpt>
      <trkpt lat="43.3856460" lon="-5.8234580">
        <ele>173.0</ele>
        <time>2020-01-28T08:50:32Z</time>
      </trkpt>
      <trkpt lat="43.3856410" lon="-5.8234660">
        <ele>173.0</ele>
        <time>2020-01-28T08:50:33Z</time>
      </trkpt>
      <trkpt lat="43.3856300" lon="-5.8234800">
        <ele>173.1</ele>
        <time>2020-01-28T08:50:34Z</time>
      </trkpt>
      <trkpt lat="43.3856250" lon="-5.8234870">
        <ele>173.2</ele>
        <time>2020-01-28T08:50:35Z</time>
      </trkpt>
      <trkpt lat="43.3856200" lon="-5.8234940">
        <ele>173.2</ele>
        <time>2020-01-28T08:50:36Z</time>
      </trkpt>
      <trkpt lat="43.3856150" lon="-5.8235010">
        <ele>173.3</ele>
        <time>2020-01-28T08:50:37Z</time>
      </trkpt>
      <trkpt lat="43.3855950" lon="-5.8235130">
        <ele>173.4</ele>
        <time>2020-01-28T08:50:38Z</time>
      </trkpt>
      <trkpt lat="43.3855870" lon="-5.8235180">
        <ele>173.5</ele>
        <time>2020-01-28T08:50:39Z</time>
      </trkpt>
      <trkpt lat="43.3855790" lon="-5.8235220">
        <ele>173.5</ele>
        <time>2020-01-28T08:50:40Z</time>
      </trkpt>
      <trkpt lat="43.3855600" lon="-5.8235390">
        <ele>173.7</ele>
        <time>2020-01-28T08:50:41Z</time>
      </trkpt>
      <trkpt lat="43.3855530" lon="-5.8235450">
        <ele>173.7</ele>
        <time>2020-01-28T08:50:42Z</time>
      </trkpt>
      <trkpt lat="43.3855460" lon="-5.8235520">
        <ele>173.8</ele>
        <time>2020-01-28T08:50:43Z</time>
      </trkpt>
      <trkpt lat="43.3855340" lon="-5.8235630">
        <ele>173.9</ele>
        <time>2020-01-28T08:50:44Z</time>
      </trkpt>
      <trkpt lat="43.3855240" lon="-5.8235740">
        <ele>174.0</ele>
        <time>2020-01-28T08:50:45Z</time>
      </trkpt>
      <trkpt lat="43.3855090" lon="-5.8235940">
        <ele>174.1</ele>
        <time>2020-01-28T08:50:46Z</time>
      </trkpt>
      <trkpt lat="43.3855020" lon="-5.8236030">
        <ele>174.2</ele>
        <time>2020-01-28T08:50:47Z</time>
      </trkpt>
      <trkpt lat="43.3854960" lon="-5.8236110">
        <ele>174.2</ele>
        <time>2020-01-28T08:50:48Z</time>
      </trkpt>
      <trkpt lat="43.3854860" lon="-5.8236240">
        <ele>174.3</ele>
        <time>2020-01-28T08:50:49Z</time>
      </trkpt>
      <trkpt lat="43.3854760" lon="-5.8236360">
        <ele>174.4</ele>
        <time>2020-01-28T08:50:50Z</time>
      </trkpt>
      <trkpt lat="43.3854580" lon="-5.8236560">
        <ele>174.5</ele>
        <time>2020-01-28T08:50:51Z</time>
      </trkpt>
      <trkpt lat="43.3854510" lon="-5.8236620">
        <ele>174.5</ele>
        <time>2020-01-28T08:50:52Z</time>
      </trkpt>
      <trkpt lat="43.3854440" lon="-5.8236690">
        <ele>174.6</ele>
        <time>2020-01-28T08:50:53Z</time>
      </trkpt>
      <trkpt lat="43.3854320" lon="-5.8236800">
        <ele>174.6</ele>
        <time>2020-01-28T08:50:54Z</time>
      </trkpt>
      <trkpt lat="43.3854180" lon="-5.8236910">
        <ele>174.7</ele>
        <time>2020-01-28T08:50:55Z</time>
      </trkpt>
      <trkpt lat="43.3854040" lon="-5.8237030">
        <ele>174.8</ele>
        <time>2020-01-28T08:50:56Z</time>
      </trkpt>
      <trkpt lat="43.3853920" lon="-5.8237140">
        <ele>174.8</ele>
        <time>2020-01-28T08:50:57Z</time>
      </trkpt>
      <trkpt lat="43.3853800" lon="-5.8237240">
        <ele>174.9</ele>
        <time>2020-01-28T08:50:58Z</time>
      </trkpt>
      <trkpt lat="43.3853670" lon="-5.8237370">
        <ele>175.0</ele>
        <time>2020-01-28T08:50:59Z</time>
      </trkpt>
      <trkpt lat="43.3853550" lon="-5.8237490">
        <ele>175.0</ele>
        <time>2020-01-28T08:51:00Z</time>
      </trkpt>
      <trkpt lat="43.3853420" lon="-5.8237620">
        <ele>175.1</ele>
        <time>2020-01-28T08:51:01Z</time>
      </trkpt>
      <trkpt lat="43.3853290" lon="-5.8237730">
        <ele>175.1</ele>
        <time>2020-01-28T08:51:02Z</time>
      </trkpt>
      <trkpt lat="43.3853150" lon="-5.8237830">
        <ele>175.2</ele>
        <time>2020-01-28T08:51:03Z</time>
      </trkpt>
      <trkpt lat="43.3853010" lon="-5.8237940">
        <ele>175.2</ele>
        <time>2020-01-28T08:51:04Z</time>
      </trkpt>
      <trkpt lat="43.3852880" lon="-5.8238040">
        <ele>175.3</ele>
        <time>2020-01-28T08:51:05Z</time>
      </trkpt>
      <trkpt lat="43.3852690" lon="-5.8238210">
        <ele>175.3</ele>
        <time>2020-01-28T08:51:06Z</time>
      </trkpt>
      <trkpt lat="43.3852620" lon="-5.8238300">
        <ele>175.4</ele>
        <time>2020-01-28T08:51:07Z</time>
      </trkpt>
      <trkpt lat="43.3852540" lon="-5.8238380">
        <ele>175.4</ele>
        <time>2020-01-28T08:51:08Z</time>
      </trkpt>
      <trkpt lat="43.3852420" lon="-5.8238520">
        <ele>175.4</ele>
        <time>2020-01-28T08:51:09Z</time>
      </trkpt>
      <trkpt lat="43.3852310" lon="-5.8238660">
        <ele>175.5</ele>
        <time>2020-01-28T08:51:10Z</time>
      </trkpt>
      <trkpt lat="43.3852200" lon="-5.8238800">
        <ele>175.5</ele>
        <time>2020-01-28T08:51:11Z</time>
      </trkpt>
      <trkpt lat="43.3852100" lon="-5.8238930">
        <ele>175.5</ele>
        <time>2020-01-28T08:51:12Z</time>
      </trkpt>
      <trkpt lat="43.3851980" lon="-5.8239070">
        <ele>175.5</ele>
        <time>2020-01-28T08:51:13Z</time>
      </trkpt>
      <trkpt lat="43.3851860" lon="-5.8239200">
        <ele>175.6</ele>
        <time>2020-01-28T08:51:14Z</time>
      </trkpt>
      <trkpt lat="43.3851740" lon="-5.8239300">
        <ele>175.6</ele>
        <time>2020-01-28T08:51:15Z</time>
      </trkpt>
      <trkpt lat="43.3851610" lon="-5.8239420">
        <ele>175.6</ele>
        <time>2020-01-28T08:51:16Z</time>
      </trkpt>
      <trkpt lat="43.3851470" lon="-5.8239550">
        <ele>175.7</ele>
        <time>2020-01-28T08:51:17Z</time>
      </trkpt>
      <trkpt lat="43.3851330" lon="-5.8239680">
        <ele>175.7</ele>
        <time>2020-01-28T08:51:18Z</time>
      </trkpt>
      <trkpt lat="43.3851180" lon="-5.8239810">
        <ele>175.7</ele>
        <time>2020-01-28T08:51:19Z</time>
      </trkpt>
      <trkpt lat="43.3851060" lon="-5.8239940">
        <ele>175.7</ele>
        <time>2020-01-28T08:51:20Z</time>
      </trkpt>
      <trkpt lat="43.3850930" lon="-5.8240070">
        <ele>175.8</ele>
        <time>2020-01-28T08:51:21Z</time>
      </trkpt>
      <trkpt lat="43.3850790" lon="-5.8240190">
        <ele>175.8</ele>
        <time>2020-01-28T08:51:22Z</time>
      </trkpt>
      <trkpt lat="43.3850660" lon="-5.8240310">
        <ele>175.9</ele>
        <time>2020-01-28T08:51:23Z</time>
      </trkpt>
      <trkpt lat="43.3850540" lon="-5.8240430">
        <ele>175.9</ele>
        <time>2020-01-28T08:51:24Z</time>
      </trkpt>
      <trkpt lat="43.3850400" lon="-5.8240550">
        <ele>176.0</ele>
        <time>2020-01-28T08:51:25Z</time>
      </trkpt>
      <trkpt lat="43.3850250" lon="-5.8240670">
        <ele>176.0</ele>
        <time>2020-01-28T08:51:26Z</time>
      </trkpt>
      <trkpt lat="43.3850120" lon="-5.8240760">
        <ele>176.1</ele>
        <time>2020-01-28T08:51:27Z</time>
      </trkpt>
      <trkpt lat="43.3849970" lon="-5.8240860">
        <ele>176.2</ele>
        <time>2020-01-28T08:51:28Z</time>
      </trkpt>
      <trkpt lat="43.3849810" lon="-5.8240960">
        <ele>176.3</ele>
        <time>2020-01-28T08:51:29Z</time>
      </trkpt>
      <trkpt lat="43.3849660" lon="-5.8241070">
        <ele>176.3</ele>
        <time>2020-01-28T08:51:30Z</time>
      </trkpt>
      <trkpt lat="43.3849530" lon="-5.8241190">
        <ele>176.4</ele>
        <time>2020-01-28T08:51:31Z</time>
      </trkpt>
      <trkpt lat="43.3849410" lon="-5.8241310">
        <ele>176.5</ele>
        <time>2020-01-28T08:51:32Z</time>
      </trkpt>
      <trkpt lat="43.3849290" lon="-5.8241440">
        <ele>176.6</ele>
        <time>2020-01-28T08:51:33Z</time>
      </trkpt>
      <trkpt lat="43.3849170" lon="-5.8241570">
        <ele>176.7</ele>
        <time>2020-01-28T08:51:34Z</time>
      </trkpt>
      <trkpt lat="43.3849060" lon="-5.8241690">
        <ele>176.8</ele>
        <time>2020-01-28T08:51:35Z</time>
      </trkpt>
      <trkpt lat="43.3848940" lon="-5.8241810">
        <ele>176.9</ele>
        <time>2020-01-28T08:51:36Z</time>
      </trkpt>
      <trkpt lat="43.3848820" lon="-5.8241920">
        <ele>177.0</ele>
        <time>2020-01-28T08:51:37Z</time>
      </trkpt>
      <trkpt lat="43.3848700" lon="-5.8242010">
        <ele>177.1</ele>
        <time>2020-01-28T08:51:38Z</time>
      </trkpt>
      <trkpt lat="43.3848560" lon="-5.8242090">
        <ele>177.2</ele>
        <time>2020-01-28T08:51:39Z</time>
      </trkpt>
      <trkpt lat="43.3848440" lon="-5.8242150">
        <ele>177.6</ele>
        <time>2020-01-28T08:51:40Z</time>
      </trkpt>
      <trkpt lat="43.3848230" lon="-5.8242210">
        <ele>177.5</ele>
        <time>2020-01-28T08:51:41Z</time>
      </trkpt>
      <trkpt lat="43.3848150" lon="-5.8242220">
        <ele>177.4</ele>
        <time>2020-01-28T08:51:42Z</time>
      </trkpt>
      <trkpt lat="43.3848070" lon="-5.8242240">
        <ele>177.4</ele>
        <time>2020-01-28T08:51:43Z</time>
      </trkpt>
      <trkpt lat="43.3847950" lon="-5.8242250">
        <ele>177.3</ele>
        <time>2020-01-28T08:51:44Z</time>
      </trkpt>
      <trkpt lat="43.3847830" lon="-5.8242220">
        <ele>177.2</ele>
        <time>2020-01-28T08:51:45Z</time>
      </trkpt>
      <trkpt lat="43.3847720" lon="-5.8242180">
        <ele>177.2</ele>
        <time>2020-01-28T08:51:46Z</time>
      </trkpt>
      <trkpt lat="43.3847530" lon="-5.8242090">
        <ele>177.1</ele>
        <time>2020-01-28T08:51:47Z</time>
      </trkpt>
      <trkpt lat="43.3847440" lon="-5.8242060">
        <ele>177.0</ele>
        <time>2020-01-28T08:51:48Z</time>
      </trkpt>
      <trkpt lat="43.3847350" lon="-5.8242020">
        <ele>177.0</ele>
        <time>2020-01-28T08:51:49Z</time>
      </trkpt>
      <trkpt lat="43.3847220" lon="-5.8242000">
        <ele>176.9</ele>
        <time>2020-01-28T08:51:50Z</time>
      </trkpt>
      <trkpt lat="43.3847080" lon="-5.8242000">
        <ele>176.8</ele>
        <time>2020-01-28T08:51:51Z</time>
      </trkpt>
      <trkpt lat="43.3846940" lon="-5.8241990">
        <ele>176.8</ele>
        <time>2020-01-28T08:51:52Z</time>
      </trkpt>
      <trkpt lat="43.3846840" lon="-5.8241930">
        <ele>176.7</ele>
        <time>2020-01-28T08:51:53Z</time>
      </trkpt>
      <trkpt lat="43.3846740" lon="-5.8241860">
        <ele>176.7</ele>
        <time>2020-01-28T08:51:54Z</time>
      </trkpt>
      <trkpt lat="43.3846640" lon="-5.8241810">
        <ele>176.6</ele>
        <time>2020-01-28T08:51:55Z</time>
      </trkpt>
      <trkpt lat="43.3846530" lon="-5.8241790">
        <ele>176.6</ele>
        <time>2020-01-28T08:51:56Z</time>
      </trkpt>
      <trkpt lat="43.3846450" lon="-5.8241760">
        <ele>176.6</ele>
        <time>2020-01-28T08:51:57Z</time>
      </trkpt>
      <trkpt lat="43.3846300" lon="-5.8241800">
        <ele>176.6</ele>
        <time>2020-01-28T08:51:58Z</time>
      </trkpt>
      <trkpt lat="43.3846240" lon="-5.8241840">
        <ele>176.6</ele>
        <time>2020-01-28T08:51:59Z</time>
      </trkpt>
      <trkpt lat="43.3846170" lon="-5.8241880">
        <ele>176.6</ele>
        <time>2020-01-28T08:52:00Z</time>
      </trkpt>
      <trkpt lat="43.3846100" lon="-5.8241920">
        <ele>176.6</ele>
        <time>2020-01-28T08:52:01Z</time>
      </trkpt>
      <trkpt lat="43.3845960" lon="-5.8241980">
        <ele>176.5</ele>
        <time>2020-01-28T08:52:02Z</time>
      </trkpt>
      <trkpt lat="43.3845780" lon="-5.8242040">
        <ele>176.5</ele>
        <time>2020-01-28T08:52:03Z</time>
      </trkpt>
      <trkpt lat="43.3845590" lon="-5.8242080">
        <ele>176.5</ele>
        <time>2020-01-28T08:52:04Z</time>
      </trkpt>
      <trkpt lat="43.3845440" lon="-5.8242130">
        <ele>176.4</ele>
        <time>2020-01-28T08:52:05Z</time>
      </trkpt>
      <trkpt lat="43.3845280" lon="-5.8242170">
        <ele>176.4</ele>
        <time>2020-01-28T08:52:06Z</time>
      </trkpt>
      <trkpt lat="43.3845100" lon="-5.8242170">
        <ele>176.4</ele>
        <time>2020-01-28T08:52:07Z</time>
      </trkpt>
      <trkpt lat="43.3844990" lon="-5.8242170">
        <ele>176.4</ele>
        <time>2020-01-28T08:52:08Z</time>
      </trkpt>
      <trkpt lat="43.3844910" lon="-5.8242170">
        <ele>176.3</ele>
        <time>2020-01-28T08:52:09Z</time>
      </trkpt>
      <trkpt lat="43.3844910" lon="-5.8242170">
        <ele>176.3</ele>
        <time>2020-01-28T08:52:10Z</time>
      </trkpt>
      <trkpt lat="43.3844790" lon="-5.8242190">
        <ele>176.3</ele>
        <time>2020-01-28T08:52:11Z</time>
      </trkpt>
      <trkpt lat="43.3844790" lon="-5.8242200">
        <ele>176.3</ele>
        <time>2020-01-28T08:52:12Z</time>
      </trkpt>
      <trkpt lat="43.3844790" lon="-5.8242220">
        <ele>176.3</ele>
        <time>2020-01-28T08:52:13Z</time>
      </trkpt>
      <trkpt lat="43.3844790" lon="-5.8242220">
        <ele>176.3</ele>
        <time>2020-01-28T08:52:14Z</time>
      </trkpt>
      <trkpt lat="43.3844790" lon="-5.8242220">
        <ele>176.3</ele>
        <time>2020-01-28T08:52:15Z</time>
      </trkpt>
      <trkpt lat="43.3844740" lon="-5.8242190">
        <ele>176.3</ele>
        <time>2020-01-28T08:52:16Z</time>
      </trkpt>
      <trkpt lat="43.3844740" lon="-5.8242190">
        <ele>176.3</ele>
        <time>2020-01-28T08:52:17Z</time>
      </trkpt>
      <trkpt lat="43.3844730" lon="-5.8242060">
        <ele>176.3</ele>
        <time>2020-01-28T08:52:18Z</time>
      </trkpt>
      <trkpt lat="43.3844670" lon="-5.8241950">
        <ele>176.3</ele>
        <time>2020-01-28T08:52:19Z</time>
      </trkpt>
      <trkpt lat="43.3844580" lon="-5.8241840">
        <ele>176.3</ele>
        <time>2020-01-28T08:52:20Z</time>
      </trkpt>
      <trkpt lat="43.3844510" lon="-5.8241750">
        <ele>176.2</ele>
        <time>2020-01-28T08:52:21Z</time>
      </trkpt>
      <trkpt lat="43.3844440" lon="-5.8241660">
        <ele>176.2</ele>
        <time>2020-01-28T08:52:22Z</time>
      </trkpt>
      <trkpt lat="43.3844390" lon="-5.8241620">
        <ele>176.2</ele>
        <time>2020-01-28T08:52:23Z</time>
      </trkpt>
      <trkpt lat="43.3844360" lon="-5.8241590">
        <ele>176.2</ele>
        <time>2020-01-28T08:52:24Z</time>
      </trkpt>
      <trkpt lat="43.3844320" lon="-5.8241570">
        <ele>176.2</ele>
        <time>2020-01-28T08:52:25Z</time>
      </trkpt>
      <trkpt lat="43.3844320" lon="-5.8241570">
        <ele>176.2</ele>
        <time>2020-01-28T08:52:26Z</time>
      </trkpt>
      <trkpt lat="43.3844320" lon="-5.8241570">
        <ele>176.2</ele>
        <time>2020-01-28T08:52:27Z</time>
      </trkpt>
      <trkpt lat="43.3844320" lon="-5.8241570">
        <ele>176.2</ele>
        <time>2020-01-28T08:52:28Z</time>
      </trkpt>
      <trkpt lat="43.3844190" lon="-5.8241770">
        <ele>176.2</ele>
        <time>2020-01-28T08:52:29Z</time>
      </trkpt>
      <trkpt lat="43.3844140" lon="-5.8241880">
        <ele>176.2</ele>
        <time>2020-01-28T08:52:30Z</time>
      </trkpt>
      <trkpt lat="43.3844010" lon="-5.8242110">
        <ele>176.1</ele>
        <time>2020-01-28T08:52:31Z</time>
      </trkpt>
      <trkpt lat="43.3843960" lon="-5.8242210">
        <ele>176.1</ele>
        <time>2020-01-28T08:52:32Z</time>
      </trkpt>
      <trkpt lat="43.3843910" lon="-5.8242300">
        <ele>176.1</ele>
        <time>2020-01-28T08:52:33Z</time>
      </trkpt>
      <trkpt lat="43.3843850" lon="-5.8242370">
        <ele>176.1</ele>
        <time>2020-01-28T08:52:34Z</time>
      </trkpt>
      <trkpt lat="43.3843760" lon="-5.8242470">
        <ele>176.1</ele>
        <time>2020-01-28T08:52:35Z</time>
      </trkpt>
      <trkpt lat="43.3843680" lon="-5.8242620">
        <ele>176.0</ele>
        <time>2020-01-28T08:52:36Z</time>
      </trkpt>
      <trkpt lat="43.3843660" lon="-5.8242830">
        <ele>176.0</ele>
        <time>2020-01-28T08:52:37Z</time>
      </trkpt>
      <trkpt lat="43.3843660" lon="-5.8242830">
        <ele>176.0</ele>
        <time>2020-01-28T08:52:38Z</time>
      </trkpt>
      <trkpt lat="43.3843600" lon="-5.8243100">
        <ele>176.0</ele>
        <time>2020-01-28T08:52:39Z</time>
      </trkpt>
      <trkpt lat="43.3843530" lon="-5.8243250">
        <ele>176.0</ele>
        <time>2020-01-28T08:52:40Z</time>
      </trkpt>
      <trkpt lat="43.3843440" lon="-5.8243450">
        <ele>175.9</ele>
        <time>2020-01-28T08:52:41Z</time>
      </trkpt>
      <trkpt lat="43.3843350" lon="-5.8243800">
        <ele>175.9</ele>
        <time>2020-01-28T08:52:42Z</time>
      </trkpt>
      <trkpt lat="43.3843320" lon="-5.8243920">
        <ele>175.9</ele>
        <time>2020-01-28T08:52:43Z</time>
      </trkpt>
      <trkpt lat="43.3843250" lon="-5.8244120">
        <ele>175.8</ele>
        <time>2020-01-28T08:52:44Z</time>
      </trkpt>
      <trkpt lat="43.3843170" lon="-5.8244280">
        <ele>175.8</ele>
        <time>2020-01-28T08:52:45Z</time>
      </trkpt>
      <trkpt lat="43.3843060" lon="-5.8244410">
        <ele>175.8</ele>
        <time>2020-01-28T08:52:46Z</time>
      </trkpt>
      <trkpt lat="43.3842930" lon="-5.8244570">
        <ele>175.8</ele>
        <time>2020-01-28T08:52:47Z</time>
      </trkpt>
      <trkpt lat="43.3842800" lon="-5.8244750">
        <ele>175.8</ele>
        <time>2020-01-28T08:52:48Z</time>
      </trkpt>
      <trkpt lat="43.3842700" lon="-5.8244950">
        <ele>175.8</ele>
        <time>2020-01-28T08:52:49Z</time>
      </trkpt>
      <trkpt lat="43.3842620" lon="-5.8245130">
        <ele>175.8</ele>
        <time>2020-01-28T08:52:50Z</time>
      </trkpt>
      <trkpt lat="43.3842530" lon="-5.8245260">
        <ele>175.8</ele>
        <time>2020-01-28T08:52:51Z</time>
      </trkpt>
      <trkpt lat="43.3842330" lon="-5.8245410">
        <ele>175.8</ele>
        <time>2020-01-28T08:52:52Z</time>
      </trkpt>
      <trkpt lat="43.3842250" lon="-5.8245450">
        <ele>175.8</ele>
        <time>2020-01-28T08:52:53Z</time>
      </trkpt>
      <trkpt lat="43.3842160" lon="-5.8245490">
        <ele>175.8</ele>
        <time>2020-01-28T08:52:54Z</time>
      </trkpt>
      <trkpt lat="43.3842090" lon="-5.8245600">
        <ele>175.8</ele>
        <time>2020-01-28T08:52:55Z</time>
      </trkpt>
      <trkpt lat="43.3842010" lon="-5.8245730">
        <ele>175.8</ele>
        <time>2020-01-28T08:52:56Z</time>
      </trkpt>
      <trkpt lat="43.3841960" lon="-5.8245850">
        <ele>175.8</ele>
        <time>2020-01-28T08:52:57Z</time>
      </trkpt>
      <trkpt lat="43.3841930" lon="-5.8246010">
        <ele>175.8</ele>
        <time>2020-01-28T08:52:58Z</time>
      </trkpt>
      <trkpt lat="43.3841930" lon="-5.8246230">
        <ele>175.8</ele>
        <time>2020-01-28T08:52:59Z</time>
      </trkpt>
      <trkpt lat="43.3842080" lon="-5.8246550">
        <ele>175.8</ele>
        <time>2020-01-28T08:53:00Z</time>
      </trkpt>
      <trkpt lat="43.3842150" lon="-5.8246670">
        <ele>175.8</ele>
        <time>2020-01-28T08:53:01Z</time>
      </trkpt>
      <trkpt lat="43.3842390" lon="-5.8246910">
        <ele>175.8</ele>
        <time>2020-01-28T08:53:02Z</time>
      </trkpt>
      <trkpt lat="43.3842740" lon="-5.8247130">
        <ele>175.8</ele>
        <time>2020-01-28T08:53:03Z</time>
      </trkpt>
      <trkpt lat="43.3842850" lon="-5.8247200">
        <ele>175.8</ele>
        <time>2020-01-28T08:53:04Z</time>
      </trkpt>
      <trkpt lat="43.3842980" lon="-5.8247330">
        <ele>175.8</ele>
        <time>2020-01-28T08:53:05Z</time>
      </trkpt>
      <trkpt lat="43.3842990" lon="-5.8247520">
        <ele>175.8</ele>
        <time>2020-01-28T08:53:06Z</time>
      </trkpt>
      <trkpt lat="43.3842900" lon="-5.8247910">
        <ele>175.8</ele>
        <time>2020-01-28T08:53:07Z</time>
      </trkpt>
      <trkpt lat="43.3842850" lon="-5.8248050">
        <ele>175.8</ele>
        <time>2020-01-28T08:53:08Z</time>
      </trkpt>
      <trkpt lat="43.3842700" lon="-5.8248550">
        <ele>175.8</ele>
        <time>2020-01-28T08:53:09Z</time>
      </trkpt>
      <trkpt lat="43.3842650" lon="-5.8248710">
        <ele>175.8</ele>
        <time>2020-01-28T08:53:10Z</time>
      </trkpt>
      <trkpt lat="43.3842520" lon="-5.8249160">
        <ele>175.8</ele>
        <time>2020-01-28T08:53:11Z</time>
      </trkpt>
      <trkpt lat="43.3842470" lon="-5.8249310">
        <ele>175.8</ele>
        <time>2020-01-28T08:53:12Z</time>
      </trkpt>
      <trkpt lat="43.3842350" lon="-5.8249770">
        <ele>175.8</ele>
        <time>2020-01-28T08:53:13Z</time>
      </trkpt>
      <trkpt lat="43.3842310" lon="-5.8249920">
        <ele>175.8</ele>
        <time>2020-01-28T08:53:14Z</time>
      </trkpt>
      <trkpt lat="43.3842170" lon="-5.8250300">
        <ele>175.8</ele>
        <time>2020-01-28T08:53:15Z</time>
      </trkpt>
      <trkpt lat="43.3842120" lon="-5.8250430">
        <ele>175.8</ele>
        <time>2020-01-28T08:53:16Z</time>
      </trkpt>
      <trkpt lat="43.3842020" lon="-5.8250630">
        <ele>175.8</ele>
        <time>2020-01-28T08:53:17Z</time>
      </trkpt>
      <trkpt lat="43.3841910" lon="-5.8250810">
        <ele>175.8</ele>
        <time>2020-01-28T08:53:18Z</time>
      </trkpt>
      <trkpt lat="43.3841800" lon="-5.8250990">
        <ele>175.8</ele>
        <time>2020-01-28T08:53:19Z</time>
      </trkpt>
      <trkpt lat="43.3841690" lon="-5.8251140">
        <ele>175.8</ele>
        <time>2020-01-28T08:53:20Z</time>
      </trkpt>
      <trkpt lat="43.3841560" lon="-5.8251260">
        <ele>175.8</ele>
        <time>2020-01-28T08:53:21Z</time>
      </trkpt>
      <trkpt lat="43.3841410" lon="-5.8251430">
        <ele>175.8</ele>
        <time>2020-01-28T08:53:22Z</time>
      </trkpt>
      <trkpt lat="43.3841200" lon="-5.8251670">
        <ele>175.8</ele>
        <time>2020-01-28T08:53:23Z</time>
      </trkpt>
      <trkpt lat="43.3841120" lon="-5.8251750">
        <ele>175.8</ele>
        <time>2020-01-28T08:53:24Z</time>
      </trkpt>
      <trkpt lat="43.3840980" lon="-5.8251910">
        <ele>175.7</ele>
        <time>2020-01-28T08:53:25Z</time>
      </trkpt>
      <trkpt lat="43.3840850" lon="-5.8252040">
        <ele>175.7</ele>
        <time>2020-01-28T08:53:26Z</time>
      </trkpt>
      <trkpt lat="43.3840730" lon="-5.8252180">
        <ele>175.7</ele>
        <time>2020-01-28T08:53:27Z</time>
      </trkpt>
      <trkpt lat="43.3840630" lon="-5.8252320">
        <ele>175.6</ele>
        <time>2020-01-28T08:53:28Z</time>
      </trkpt>
      <trkpt lat="43.3840570" lon="-5.8252470">
        <ele>175.6</ele>
        <time>2020-01-28T08:53:29Z</time>
      </trkpt>
      <trkpt lat="43.3840490" lon="-5.8252640">
        <ele>175.6</ele>
        <time>2020-01-28T08:53:30Z</time>
      </trkpt>
      <trkpt lat="43.3840350" lon="-5.8252880">
        <ele>175.5</ele>
        <time>2020-01-28T08:53:31Z</time>
      </trkpt>
      <trkpt lat="43.3840280" lon="-5.8252960">
        <ele>175.5</ele>
        <time>2020-01-28T08:53:32Z</time>
      </trkpt>
      <trkpt lat="43.3840220" lon="-5.8253030">
        <ele>175.5</ele>
        <time>2020-01-28T08:53:33Z</time>
      </trkpt>
      <trkpt lat="43.3840110" lon="-5.8253170">
        <ele>175.5</ele>
        <time>2020-01-28T08:53:34Z</time>
      </trkpt>
      <trkpt lat="43.3840010" lon="-5.8253300">
        <ele>175.4</ele>
        <time>2020-01-28T08:53:35Z</time>
      </trkpt>
      <trkpt lat="43.3839910" lon="-5.8253440">
        <ele>175.4</ele>
        <time>2020-01-28T08:53:36Z</time>
      </trkpt>
      <trkpt lat="43.3839810" lon="-5.8253590">
        <ele>175.4</ele>
        <time>2020-01-28T08:53:37Z</time>
      </trkpt>
      <trkpt lat="43.3839730" lon="-5.8253740">
        <ele>175.4</ele>
        <time>2020-01-28T08:53:38Z</time>
      </trkpt>
      <trkpt lat="43.3839710" lon="-5.8253850">
        <ele>175.4</ele>
        <time>2020-01-28T08:53:39Z</time>
      </trkpt>
      <trkpt lat="43.3839700" lon="-5.8253920">
        <ele>175.4</ele>
        <time>2020-01-28T08:53:40Z</time>
      </trkpt>
      <trkpt lat="43.3839670" lon="-5.8254000">
        <ele>175.4</ele>
        <time>2020-01-28T08:53:41Z</time>
      </trkpt>
      <trkpt lat="43.3839610" lon="-5.8254070">
        <ele>175.4</ele>
        <time>2020-01-28T08:53:42Z</time>
      </trkpt>
      <trkpt lat="43.3839540" lon="-5.8254190">
        <ele>175.4</ele>
        <time>2020-01-28T08:53:43Z</time>
      </trkpt>
      <trkpt lat="43.3839440" lon="-5.8254370">
        <ele>175.4</ele>
        <time>2020-01-28T08:53:44Z</time>
      </trkpt>
      <trkpt lat="43.3839350" lon="-5.8254540">
        <ele>175.4</ele>
        <time>2020-01-28T08:53:45Z</time>
      </trkpt>
      <trkpt lat="43.3839260" lon="-5.8254710">
        <ele>175.4</ele>
        <time>2020-01-28T08:53:46Z</time>
      </trkpt>
      <trkpt lat="43.3839150" lon="-5.8254870">
        <ele>175.4</ele>
        <time>2020-01-28T08:53:47Z</time>
      </trkpt>
      <trkpt lat="43.3839030" lon="-5.8255030">
        <ele>175.4</ele>
        <time>2020-01-28T08:53:48Z</time>
      </trkpt>
      <trkpt lat="43.3838930" lon="-5.8255160">
        <ele>175.4</ele>
        <time>2020-01-28T08:53:49Z</time>
      </trkpt>
      <trkpt lat="43.3838840" lon="-5.8255310">
        <ele>175.4</ele>
        <time>2020-01-28T08:53:50Z</time>
      </trkpt>
      <trkpt lat="43.3838740" lon="-5.8255470">
        <ele>175.4</ele>
        <time>2020-01-28T08:53:51Z</time>
      </trkpt>
      <trkpt lat="43.3838640" lon="-5.8255610">
        <ele>175.4</ele>
        <time>2020-01-28T08:53:52Z</time>
      </trkpt>
      <trkpt lat="43.3838540" lon="-5.8255650">
        <ele>175.4</ele>
        <time>2020-01-28T08:53:53Z</time>
      </trkpt>
      <trkpt lat="43.3838480" lon="-5.8255640">
        <ele>175.4</ele>
        <time>2020-01-28T08:53:54Z</time>
      </trkpt>
      <trkpt lat="43.3838480" lon="-5.8255640">
        <ele>175.4</ele>
        <time>2020-01-28T08:53:55Z</time>
      </trkpt>
      <trkpt lat="43.3838480" lon="-5.8255640">
        <ele>175.4</ele>
        <time>2020-01-28T08:53:56Z</time>
      </trkpt>
      <trkpt lat="43.3838480" lon="-5.8255640">
        <ele>175.4</ele>
        <time>2020-01-28T08:53:57Z</time>
      </trkpt>
      <trkpt lat="43.3838340" lon="-5.8255530">
        <ele>175.4</ele>
        <time>2020-01-28T08:53:58Z</time>
      </trkpt>
      <trkpt lat="43.3838240" lon="-5.8255620">
        <ele>175.4</ele>
        <time>2020-01-28T08:53:59Z</time>
      </trkpt>
      <trkpt lat="43.3838120" lon="-5.8255750">
        <ele>175.4</ele>
        <time>2020-01-28T08:54:00Z</time>
      </trkpt>
      <trkpt lat="43.3838010" lon="-5.8255880">
        <ele>175.4</ele>
        <time>2020-01-28T08:54:01Z</time>
      </trkpt>
      <trkpt lat="43.3837900" lon="-5.8256000">
        <ele>175.4</ele>
        <time>2020-01-28T08:54:02Z</time>
      </trkpt>
      <trkpt lat="43.3837780" lon="-5.8256140">
        <ele>175.4</ele>
        <time>2020-01-28T08:54:03Z</time>
      </trkpt>
      <trkpt lat="43.3837640" lon="-5.8256270">
        <ele>175.4</ele>
        <time>2020-01-28T08:54:04Z</time>
      </trkpt>
      <trkpt lat="43.3837570" lon="-5.8256340">
        <ele>175.4</ele>
        <time>2020-01-28T08:54:05Z</time>
      </trkpt>
      <trkpt lat="43.3837550" lon="-5.8256340">
        <ele>175.4</ele>
        <time>2020-01-28T08:54:06Z</time>
      </trkpt>
      <trkpt lat="43.3837550" lon="-5.8256340">
        <ele>175.4</ele>
        <time>2020-01-28T08:54:07Z</time>
      </trkpt>
      <trkpt lat="43.3837530" lon="-5.8256320">
        <ele>175.4</ele>
        <time>2020-01-28T08:54:08Z</time>
      </trkpt>
      <trkpt lat="43.3837480" lon="-5.8256390">
        <ele>175.4</ele>
        <time>2020-01-28T08:54:09Z</time>
      </trkpt>
      <trkpt lat="43.3837380" lon="-5.8256550">
        <ele>175.4</ele>
        <time>2020-01-28T08:54:10Z</time>
      </trkpt>
      <trkpt lat="43.3837260" lon="-5.8256690">
        <ele>175.4</ele>
        <time>2020-01-28T08:54:11Z</time>
      </trkpt>
      <trkpt lat="43.3837190" lon="-5.8256770">
        <ele>175.4</ele>
        <time>2020-01-28T08:54:12Z</time>
      </trkpt>
      <trkpt lat="43.3837190" lon="-5.8256770">
        <ele>175.4</ele>
        <time>2020-01-28T08:54:13Z</time>
      </trkpt>
      <trkpt lat="43.3837190" lon="-5.8256770">
        <ele>175.4</ele>
        <time>2020-01-28T08:54:14Z</time>
      </trkpt>
      <trkpt lat="43.3837180" lon="-5.8256850">
        <ele>175.4</ele>
        <time>2020-01-28T08:54:15Z</time>
      </trkpt>
      <trkpt lat="43.3837180" lon="-5.8256850">
        <ele>175.4</ele>
        <time>2020-01-28T08:54:16Z</time>
      </trkpt>
      <trkpt lat="43.3837180" lon="-5.8256850">
        <ele>175.4</ele>
        <time>2020-01-28T08:54:17Z</time>
      </trkpt>
      <trkpt lat="43.3837270" lon="-5.8256930">
        <ele>175.4</ele>
        <time>2020-01-28T08:54:18Z</time>
      </trkpt>
      <trkpt lat="43.3837320" lon="-5.8256950">
        <ele>175.4</ele>
        <time>2020-01-28T08:54:19Z</time>
      </trkpt>
      <trkpt lat="43.3837320" lon="-5.8256950">
        <ele>175.4</ele>
        <time>2020-01-28T08:54:20Z</time>
      </trkpt>
      <trkpt lat="43.3837320" lon="-5.8256950">
        <ele>175.4</ele>
        <time>2020-01-28T08:54:21Z</time>
      </trkpt>
      <trkpt lat="43.3837320" lon="-5.8256950">
        <ele>175.4</ele>
        <time>2020-01-28T08:54:22Z</time>
      </trkpt>
      <trkpt lat="43.3837320" lon="-5.8256950">
        <ele>175.4</ele>
        <time>2020-01-28T08:54:23Z</time>
      </trkpt>
      <trkpt lat="43.3837320" lon="-5.8256950">
        <ele>175.4</ele>
        <time>2020-01-28T08:54:24Z</time>
      </trkpt>
      <trkpt lat="43.3837320" lon="-5.8256950">
        <ele>175.4</ele>
        <time>2020-01-28T08:54:25Z</time>
      </trkpt>
      <trkpt lat="43.3837210" lon="-5.8257160">
        <ele>175.4</ele>
        <time>2020-01-28T08:54:26Z</time>
      </trkpt>
      <trkpt lat="43.3837110" lon="-5.8257270">
        <ele>175.4</ele>
        <time>2020-01-28T08:54:27Z</time>
      </trkpt>
      <trkpt lat="43.3836990" lon="-5.8257390">
        <ele>175.4</ele>
        <time>2020-01-28T08:54:28Z</time>
      </trkpt>
      <trkpt lat="43.3836860" lon="-5.8257500">
        <ele>175.4</ele>
        <time>2020-01-28T08:54:29Z</time>
      </trkpt>
      <trkpt lat="43.3836710" lon="-5.8257620">
        <ele>175.4</ele>
        <time>2020-01-28T08:54:30Z</time>
      </trkpt>
      <trkpt lat="43.3836580" lon="-5.8257740">
        <ele>175.4</ele>
        <time>2020-01-28T08:54:31Z</time>
      </trkpt>
      <trkpt lat="43.3836400" lon="-5.8257920">
        <ele>175.4</ele>
        <time>2020-01-28T08:54:32Z</time>
      </trkpt>
      <trkpt lat="43.3836320" lon="-5.8258000">
        <ele>175.4</ele>
        <time>2020-01-28T08:54:33Z</time>
      </trkpt>
      <trkpt lat="43.3836250" lon="-5.8258070">
        <ele>175.4</ele>
        <time>2020-01-28T08:54:34Z</time>
      </trkpt>
      <trkpt lat="43.3836090" lon="-5.8258160">
        <ele>175.5</ele>
        <time>2020-01-28T08:54:35Z</time>
      </trkpt>
      <trkpt lat="43.3835920" lon="-5.8258250">
        <ele>175.5</ele>
        <time>2020-01-28T08:54:36Z</time>
      </trkpt>
      <trkpt lat="43.3835660" lon="-5.8258420">
        <ele>175.5</ele>
        <time>2020-01-28T08:54:37Z</time>
      </trkpt>
      <trkpt lat="43.3835570" lon="-5.8258480">
        <ele>175.5</ele>
        <time>2020-01-28T08:54:38Z</time>
      </trkpt>
      <trkpt lat="43.3835420" lon="-5.8258610">
        <ele>175.4</ele>
        <time>2020-01-28T08:54:39Z</time>
      </trkpt>
      <trkpt lat="43.3835270" lon="-5.8258740">
        <ele>175.4</ele>
        <time>2020-01-28T08:54:40Z</time>
      </trkpt>
      <trkpt lat="43.3835130" lon="-5.8258860">
        <ele>175.4</ele>
        <time>2020-01-28T08:54:41Z</time>
      </trkpt>
      <trkpt lat="43.3834980" lon="-5.8258960">
        <ele>175.4</ele>
        <time>2020-01-28T08:54:42Z</time>
      </trkpt>
      <trkpt lat="43.3834840" lon="-5.8259040">
        <ele>175.4</ele>
        <time>2020-01-28T08:54:43Z</time>
      </trkpt>
      <trkpt lat="43.3834700" lon="-5.8259100">
        <ele>175.4</ele>
        <time>2020-01-28T08:54:44Z</time>
      </trkpt>
      <trkpt lat="43.3834570" lon="-5.8259190">
        <ele>175.4</ele>
        <time>2020-01-28T08:54:45Z</time>
      </trkpt>
      <trkpt lat="43.3834430" lon="-5.8259320">
        <ele>175.4</ele>
        <time>2020-01-28T08:54:46Z</time>
      </trkpt>
      <trkpt lat="43.3834310" lon="-5.8259450">
        <ele>175.4</ele>
        <time>2020-01-28T08:54:47Z</time>
      </trkpt>
      <trkpt lat="43.3834200" lon="-5.8259600">
        <ele>175.4</ele>
        <time>2020-01-28T08:54:48Z</time>
      </trkpt>
      <trkpt lat="43.3834090" lon="-5.8259740">
        <ele>175.4</ele>
        <time>2020-01-28T08:54:49Z</time>
      </trkpt>
      <trkpt lat="43.3833980" lon="-5.8259910">
        <ele>175.4</ele>
        <time>2020-01-28T08:54:50Z</time>
      </trkpt>
      <trkpt lat="43.3833870" lon="-5.8260070">
        <ele>175.4</ele>
        <time>2020-01-28T08:54:51Z</time>
      </trkpt>
      <trkpt lat="43.3833770" lon="-5.8260230">
        <ele>175.4</ele>
        <time>2020-01-28T08:54:52Z</time>
      </trkpt>
      <trkpt lat="43.3833660" lon="-5.8260380">
        <ele>175.3</ele>
        <time>2020-01-28T08:54:53Z</time>
      </trkpt>
      <trkpt lat="43.3833560" lon="-5.8260520">
        <ele>175.3</ele>
        <time>2020-01-28T08:54:54Z</time>
      </trkpt>
      <trkpt lat="43.3833460" lon="-5.8260650">
        <ele>175.3</ele>
        <time>2020-01-28T08:54:55Z</time>
      </trkpt>
      <trkpt lat="43.3833350" lon="-5.8260790">
        <ele>175.3</ele>
        <time>2020-01-28T08:54:56Z</time>
      </trkpt>
      <trkpt lat="43.3833250" lon="-5.8260940">
        <ele>175.3</ele>
        <time>2020-01-28T08:54:57Z</time>
      </trkpt>
      <trkpt lat="43.3833150" lon="-5.8261090">
        <ele>175.2</ele>
        <time>2020-01-28T08:54:58Z</time>
      </trkpt>
      <trkpt lat="43.3833020" lon="-5.8261320">
        <ele>175.2</ele>
        <time>2020-01-28T08:54:59Z</time>
      </trkpt>
      <trkpt lat="43.3832970" lon="-5.8261400">
        <ele>175.2</ele>
        <time>2020-01-28T08:55:00Z</time>
      </trkpt>
      <trkpt lat="43.3832920" lon="-5.8261490">
        <ele>175.2</ele>
        <time>2020-01-28T08:55:01Z</time>
      </trkpt>
      <trkpt lat="43.3832770" lon="-5.8261680">
        <ele>175.1</ele>
        <time>2020-01-28T08:55:02Z</time>
      </trkpt>
      <trkpt lat="43.3832710" lon="-5.8261750">
        <ele>175.1</ele>
        <time>2020-01-28T08:55:03Z</time>
      </trkpt>
      <trkpt lat="43.3832640" lon="-5.8261830">
        <ele>175.1</ele>
        <time>2020-01-28T08:55:04Z</time>
      </trkpt>
      <trkpt lat="43.3832520" lon="-5.8261950">
        <ele>175.0</ele>
        <time>2020-01-28T08:55:05Z</time>
      </trkpt>
      <trkpt lat="43.3832410" lon="-5.8262090">
        <ele>175.0</ele>
        <time>2020-01-28T08:55:06Z</time>
      </trkpt>
      <trkpt lat="43.3832300" lon="-5.8262240">
        <ele>175.0</ele>
        <time>2020-01-28T08:55:07Z</time>
      </trkpt>
      <trkpt lat="43.3832180" lon="-5.8262380">
        <ele>174.9</ele>
        <time>2020-01-28T08:55:08Z</time>
      </trkpt>
      <trkpt lat="43.3832070" lon="-5.8262520">
        <ele>174.9</ele>
        <time>2020-01-28T08:55:09Z</time>
      </trkpt>
      <trkpt lat="43.3831960" lon="-5.8262660">
        <ele>174.8</ele>
        <time>2020-01-28T08:55:10Z</time>
      </trkpt>
      <trkpt lat="43.3831850" lon="-5.8262780">
        <ele>174.8</ele>
        <time>2020-01-28T08:55:11Z</time>
      </trkpt>
      <trkpt lat="43.3831730" lon="-5.8262900">
        <ele>174.7</ele>
        <time>2020-01-28T08:55:12Z</time>
      </trkpt>
      <trkpt lat="43.3831620" lon="-5.8263030">
        <ele>174.6</ele>
        <time>2020-01-28T08:55:13Z</time>
      </trkpt>
      <trkpt lat="43.3831500" lon="-5.8263150">
        <ele>174.6</ele>
        <time>2020-01-28T08:55:14Z</time>
      </trkpt>
      <trkpt lat="43.3831380" lon="-5.8263270">
        <ele>174.5</ele>
        <time>2020-01-28T08:55:15Z</time>
      </trkpt>
      <trkpt lat="43.3831260" lon="-5.8263400">
        <ele>174.5</ele>
        <time>2020-01-28T08:55:16Z</time>
      </trkpt>
      <trkpt lat="43.3831140" lon="-5.8263530">
        <ele>174.4</ele>
        <time>2020-01-28T08:55:17Z</time>
      </trkpt>
      <trkpt lat="43.3831020" lon="-5.8263700">
        <ele>174.4</ele>
        <time>2020-01-28T08:55:18Z</time>
      </trkpt>
      <trkpt lat="43.3830890" lon="-5.8263840">
        <ele>174.4</ele>
        <time>2020-01-28T08:55:19Z</time>
      </trkpt>
      <trkpt lat="43.3830830" lon="-5.8263890">
        <ele>174.4</ele>
        <time>2020-01-28T08:55:20Z</time>
      </trkpt>
      <trkpt lat="43.3830830" lon="-5.8263890">
        <ele>174.4</ele>
        <time>2020-01-28T08:55:21Z</time>
      </trkpt>
      <trkpt lat="43.3830770" lon="-5.8263880">
        <ele>174.4</ele>
        <time>2020-01-28T08:55:22Z</time>
      </trkpt>
      <trkpt lat="43.3830710" lon="-5.8263930">
        <ele>174.4</ele>
        <time>2020-01-28T08:55:23Z</time>
      </trkpt>
      <trkpt lat="43.3830620" lon="-5.8264050">
        <ele>174.4</ele>
        <time>2020-01-28T08:55:24Z</time>
      </trkpt>
      <trkpt lat="43.3830530" lon="-5.8264190">
        <ele>174.4</ele>
        <time>2020-01-28T08:55:25Z</time>
      </trkpt>
      <trkpt lat="43.3830440" lon="-5.8264350">
        <ele>174.4</ele>
        <time>2020-01-28T08:55:26Z</time>
      </trkpt>
      <trkpt lat="43.3830340" lon="-5.8264500">
        <ele>174.4</ele>
        <time>2020-01-28T08:55:27Z</time>
      </trkpt>
      <trkpt lat="43.3830240" lon="-5.8264660">
        <ele>174.4</ele>
        <time>2020-01-28T08:55:28Z</time>
      </trkpt>
      <trkpt lat="43.3830140" lon="-5.8264820">
        <ele>174.4</ele>
        <time>2020-01-28T08:55:29Z</time>
      </trkpt>
      <trkpt lat="43.3830040" lon="-5.8264970">
        <ele>174.3</ele>
        <time>2020-01-28T08:55:30Z</time>
      </trkpt>
      <trkpt lat="43.3829940" lon="-5.8265110">
        <ele>174.3</ele>
        <time>2020-01-28T08:55:31Z</time>
      </trkpt>
      <trkpt lat="43.3829850" lon="-5.8265240">
        <ele>174.3</ele>
        <time>2020-01-28T08:55:32Z</time>
      </trkpt>
      <trkpt lat="43.3829760" lon="-5.8265390">
        <ele>174.3</ele>
        <time>2020-01-28T08:55:33Z</time>
      </trkpt>
      <trkpt lat="43.3829660" lon="-5.8265550">
        <ele>174.3</ele>
        <time>2020-01-28T08:55:34Z</time>
      </trkpt>
      <trkpt lat="43.3829550" lon="-5.8265710">
        <ele>174.3</ele>
        <time>2020-01-28T08:55:35Z</time>
      </trkpt>
      <trkpt lat="43.3829430" lon="-5.8265840">
        <ele>174.3</ele>
        <time>2020-01-28T08:55:36Z</time>
      </trkpt>
      <trkpt lat="43.3829320" lon="-5.8265960">
        <ele>174.3</ele>
        <time>2020-01-28T08:55:37Z</time>
      </trkpt>
      <trkpt lat="43.3829200" lon="-5.8266080">
        <ele>174.3</ele>
        <time>2020-01-28T08:55:38Z</time>
      </trkpt>
      <trkpt lat="43.3829070" lon="-5.8266220">
        <ele>174.3</ele>
        <time>2020-01-28T08:55:39Z</time>
      </trkpt>
      <trkpt lat="43.3828950" lon="-5.8266330">
        <ele>174.4</ele>
        <time>2020-01-28T08:55:40Z</time>
      </trkpt>
      <trkpt lat="43.3828830" lon="-5.8266430">
        <ele>174.4</ele>
        <time>2020-01-28T08:55:41Z</time>
      </trkpt>
      <trkpt lat="43.3828700" lon="-5.8266510">
        <ele>174.5</ele>
        <time>2020-01-28T08:55:42Z</time>
      </trkpt>
      <trkpt lat="43.3828580" lon="-5.8266600">
        <ele>174.5</ele>
        <time>2020-01-28T08:55:43Z</time>
      </trkpt>
      <trkpt lat="43.3828450" lon="-5.8266690">
        <ele>174.5</ele>
        <time>2020-01-28T08:55:44Z</time>
      </trkpt>
      <trkpt lat="43.3828330" lon="-5.8266770">
        <ele>174.6</ele>
        <time>2020-01-28T08:55:45Z</time>
      </trkpt>
      <trkpt lat="43.3828240" lon="-5.8266840">
        <ele>174.6</ele>
        <time>2020-01-28T08:55:46Z</time>
      </trkpt>
      <trkpt lat="43.3828150" lon="-5.8266910">
        <ele>174.6</ele>
        <time>2020-01-28T08:55:47Z</time>
      </trkpt>
      <trkpt lat="43.3828050" lon="-5.8266950">
        <ele>174.7</ele>
        <time>2020-01-28T08:55:48Z</time>
      </trkpt>
      <trkpt lat="43.3827950" lon="-5.8266990">
        <ele>174.7</ele>
        <time>2020-01-28T08:55:49Z</time>
      </trkpt>
      <trkpt lat="43.3827850" lon="-5.8267060">
        <ele>174.7</ele>
        <time>2020-01-28T08:55:50Z</time>
      </trkpt>
      <trkpt lat="43.3827740" lon="-5.8267130">
        <ele>174.8</ele>
        <time>2020-01-28T08:55:51Z</time>
      </trkpt>
      <trkpt lat="43.3827530" lon="-5.8267150">
        <ele>174.8</ele>
        <time>2020-01-28T08:55:52Z</time>
      </trkpt>
      <trkpt lat="43.3827440" lon="-5.8267130">
        <ele>174.8</ele>
        <time>2020-01-28T08:55:53Z</time>
      </trkpt>
      <trkpt lat="43.3827350" lon="-5.8267120">
        <ele>174.9</ele>
        <time>2020-01-28T08:55:54Z</time>
      </trkpt>
      <trkpt lat="43.3827160" lon="-5.8266950">
        <ele>175.0</ele>
        <time>2020-01-28T08:55:55Z</time>
      </trkpt>
      <trkpt lat="43.3827080" lon="-5.8266860">
        <ele>174.9</ele>
        <time>2020-01-28T08:55:56Z</time>
      </trkpt>
      <trkpt lat="43.3827010" lon="-5.8266770">
        <ele>174.9</ele>
        <time>2020-01-28T08:55:57Z</time>
      </trkpt>
      <trkpt lat="43.3826900" lon="-5.8266630">
        <ele>174.9</ele>
        <time>2020-01-28T08:55:58Z</time>
      </trkpt>
      <trkpt lat="43.3826830" lon="-5.8266520">
        <ele>174.9</ele>
        <time>2020-01-28T08:55:59Z</time>
      </trkpt>
      <trkpt lat="43.3826790" lon="-5.8266480">
        <ele>174.9</ele>
        <time>2020-01-28T08:56:00Z</time>
      </trkpt>
      <trkpt lat="43.3826630" lon="-5.8266330">
        <ele>174.8</ele>
        <time>2020-01-28T08:56:01Z</time>
      </trkpt>
      <trkpt lat="43.3826530" lon="-5.8266260">
        <ele>174.8</ele>
        <time>2020-01-28T08:56:02Z</time>
      </trkpt>
      <trkpt lat="43.3826440" lon="-5.8266190">
        <ele>174.8</ele>
        <time>2020-01-28T08:56:03Z</time>
      </trkpt>
      <trkpt lat="43.3826300" lon="-5.8266120">
        <ele>174.7</ele>
        <time>2020-01-28T08:56:04Z</time>
      </trkpt>
      <trkpt lat="43.3826170" lon="-5.8266060">
        <ele>174.7</ele>
        <time>2020-01-28T08:56:05Z</time>
      </trkpt>
      <trkpt lat="43.3826030" lon="-5.8265970">
        <ele>174.7</ele>
        <time>2020-01-28T08:56:06Z</time>
      </trkpt>
      <trkpt lat="43.3825880" lon="-5.8265860">
        <ele>174.6</ele>
        <time>2020-01-28T08:56:07Z</time>
      </trkpt>
      <trkpt lat="43.3825740" lon="-5.8265760">
        <ele>174.6</ele>
        <time>2020-01-28T08:56:08Z</time>
      </trkpt>
      <trkpt lat="43.3825630" lon="-5.8265670">
        <ele>174.6</ele>
        <time>2020-01-28T08:56:09Z</time>
      </trkpt>
      <trkpt lat="43.3825540" lon="-5.8265600">
        <ele>174.5</ele>
        <time>2020-01-28T08:56:10Z</time>
      </trkpt>
      <trkpt lat="43.3825450" lon="-5.8265550">
        <ele>174.5</ele>
        <time>2020-01-28T08:56:11Z</time>
      </trkpt>
      <trkpt lat="43.3825390" lon="-5.8265510">
        <ele>174.5</ele>
        <time>2020-01-28T08:56:12Z</time>
      </trkpt>
      <trkpt lat="43.3825390" lon="-5.8265510">
        <ele>174.5</ele>
        <time>2020-01-28T08:56:13Z</time>
      </trkpt>
      <trkpt lat="43.3825310" lon="-5.8265540">
        <ele>174.6</ele>
        <time>2020-01-28T08:56:14Z</time>
      </trkpt>
      <trkpt lat="43.3825170" lon="-5.8265710">
        <ele>174.6</ele>
        <time>2020-01-28T08:56:15Z</time>
      </trkpt>
      <trkpt lat="43.3825100" lon="-5.8265800">
        <ele>174.6</ele>
        <time>2020-01-28T08:56:16Z</time>
      </trkpt>
      <trkpt lat="43.3825040" lon="-5.8265880">
        <ele>174.7</ele>
        <time>2020-01-28T08:56:17Z</time>
      </trkpt>
      <trkpt lat="43.3824940" lon="-5.8266030">
        <ele>174.7</ele>
        <time>2020-01-28T08:56:18Z</time>
      </trkpt>
      <trkpt lat="43.3824850" lon="-5.8266170">
        <ele>174.8</ele>
        <time>2020-01-28T08:56:19Z</time>
      </trkpt>
      <trkpt lat="43.3824730" lon="-5.8266370">
        <ele>174.8</ele>
        <time>2020-01-28T08:56:20Z</time>
      </trkpt>
      <trkpt lat="43.3824670" lon="-5.8266460">
        <ele>174.8</ele>
        <time>2020-01-28T08:56:21Z</time>
      </trkpt>
      <trkpt lat="43.3824620" lon="-5.8266560">
        <ele>174.9</ele>
        <time>2020-01-28T08:56:22Z</time>
      </trkpt>
      <trkpt lat="43.3824540" lon="-5.8266750">
        <ele>174.9</ele>
        <time>2020-01-28T08:56:23Z</time>
      </trkpt>
      <trkpt lat="43.3824450" lon="-5.8266900">
        <ele>174.9</ele>
        <time>2020-01-28T08:56:24Z</time>
      </trkpt>
      <trkpt lat="43.3824380" lon="-5.8267080">
        <ele>175.0</ele>
        <time>2020-01-28T08:56:25Z</time>
      </trkpt>
      <trkpt lat="43.3824350" lon="-5.8267290">
        <ele>175.0</ele>
        <time>2020-01-28T08:56:26Z</time>
      </trkpt>
      <trkpt lat="43.3824390" lon="-5.8267600">
        <ele>175.1</ele>
        <time>2020-01-28T08:56:27Z</time>
      </trkpt>
      <trkpt lat="43.3824410" lon="-5.8267730">
        <ele>175.1</ele>
        <time>2020-01-28T08:56:28Z</time>
      </trkpt>
      <trkpt lat="43.3824440" lon="-5.8267860">
        <ele>175.1</ele>
        <time>2020-01-28T08:56:29Z</time>
      </trkpt>
      <trkpt lat="43.3824470" lon="-5.8268040">
        <ele>175.2</ele>
        <time>2020-01-28T08:56:30Z</time>
      </trkpt>
      <trkpt lat="43.3824510" lon="-5.8268240">
        <ele>175.2</ele>
        <time>2020-01-28T08:56:31Z</time>
      </trkpt>
      <trkpt lat="43.3824560" lon="-5.8268470">
        <ele>175.3</ele>
        <time>2020-01-28T08:56:32Z</time>
      </trkpt>
      <trkpt lat="43.3824600" lon="-5.8268670">
        <ele>175.3</ele>
        <time>2020-01-28T08:56:33Z</time>
      </trkpt>
      <trkpt lat="43.3824640" lon="-5.8268850">
        <ele>175.4</ele>
        <time>2020-01-28T08:56:34Z</time>
      </trkpt>
      <trkpt lat="43.3824670" lon="-5.8269040">
        <ele>175.5</ele>
        <time>2020-01-28T08:56:35Z</time>
      </trkpt>
      <trkpt lat="43.3824690" lon="-5.8269320">
        <ele>175.6</ele>
        <time>2020-01-28T08:56:36Z</time>
      </trkpt>
      <trkpt lat="43.3824700" lon="-5.8269430">
        <ele>175.6</ele>
        <time>2020-01-28T08:56:37Z</time>
      </trkpt>
      <trkpt lat="43.3824700" lon="-5.8269540">
        <ele>175.6</ele>
        <time>2020-01-28T08:56:38Z</time>
      </trkpt>
      <trkpt lat="43.3824670" lon="-5.8269690">
        <ele>175.6</ele>
        <time>2020-01-28T08:56:39Z</time>
      </trkpt>
      <trkpt lat="43.3824620" lon="-5.8269830">
        <ele>175.6</ele>
        <time>2020-01-28T08:56:40Z</time>
      </trkpt>
      <trkpt lat="43.3824540" lon="-5.8269970">
        <ele>175.7</ele>
        <time>2020-01-28T08:56:41Z</time>
      </trkpt>
      <trkpt lat="43.3824450" lon="-5.8270090">
        <ele>175.7</ele>
        <time>2020-01-28T08:56:42Z</time>
      </trkpt>
      <trkpt lat="43.3824370" lon="-5.8270200">
        <ele>175.7</ele>
        <time>2020-01-28T08:56:43Z</time>
      </trkpt>
      <trkpt lat="43.3824280" lon="-5.8270320">
        <ele>175.7</ele>
        <time>2020-01-28T08:56:44Z</time>
      </trkpt>
      <trkpt lat="43.3824190" lon="-5.8270470">
        <ele>175.8</ele>
        <time>2020-01-28T08:56:45Z</time>
      </trkpt>
      <trkpt lat="43.3824100" lon="-5.8270600">
        <ele>175.8</ele>
        <time>2020-01-28T08:56:46Z</time>
      </trkpt>
      <trkpt lat="43.3824030" lon="-5.8270680">
        <ele>175.8</ele>
        <time>2020-01-28T08:56:47Z</time>
      </trkpt>
      <trkpt lat="43.3823930" lon="-5.8270790">
        <ele>175.8</ele>
        <time>2020-01-28T08:56:48Z</time>
      </trkpt>
      <trkpt lat="43.3823830" lon="-5.8270890">
        <ele>175.9</ele>
        <time>2020-01-28T08:56:49Z</time>
      </trkpt>
      <trkpt lat="43.3823660" lon="-5.8271050">
        <ele>175.9</ele>
        <time>2020-01-28T08:56:50Z</time>
      </trkpt>
      <trkpt lat="43.3823590" lon="-5.8271110">
        <ele>175.9</ele>
        <time>2020-01-28T08:56:51Z</time>
      </trkpt>
      <trkpt lat="43.3823520" lon="-5.8271180">
        <ele>175.9</ele>
        <time>2020-01-28T08:56:52Z</time>
      </trkpt>
      <trkpt lat="43.3823410" lon="-5.8271300">
        <ele>176.0</ele>
        <time>2020-01-28T08:56:53Z</time>
      </trkpt>
      <trkpt lat="43.3823310" lon="-5.8271440">
        <ele>176.6</ele>
        <time>2020-01-28T08:56:54Z</time>
      </trkpt>
      <trkpt lat="43.3823140" lon="-5.8271630">
        <ele>176.6</ele>
        <time>2020-01-28T08:56:55Z</time>
      </trkpt>
      <trkpt lat="43.3823070" lon="-5.8271710">
        <ele>176.6</ele>
        <time>2020-01-28T08:56:56Z</time>
      </trkpt>
      <trkpt lat="43.3823000" lon="-5.8271780">
        <ele>176.7</ele>
        <time>2020-01-28T08:56:57Z</time>
      </trkpt>
      <trkpt lat="43.3822880" lon="-5.8271900">
        <ele>176.7</ele>
        <time>2020-01-28T08:56:58Z</time>
      </trkpt>
      <trkpt lat="43.3822770" lon="-5.8272010">
        <ele>176.7</ele>
        <time>2020-01-28T08:56:59Z</time>
      </trkpt>
      <trkpt lat="43.3822650" lon="-5.8272150">
        <ele>176.8</ele>
        <time>2020-01-28T08:57:00Z</time>
      </trkpt>
      <trkpt lat="43.3822550" lon="-5.8272280">
        <ele>176.8</ele>
        <time>2020-01-28T08:57:01Z</time>
      </trkpt>
      <trkpt lat="43.3822470" lon="-5.8272380">
        <ele>176.8</ele>
        <time>2020-01-28T08:57:02Z</time>
      </trkpt>
      <trkpt lat="43.3822390" lon="-5.8272490">
        <ele>176.8</ele>
        <time>2020-01-28T08:57:03Z</time>
      </trkpt>
      <trkpt lat="43.3822310" lon="-5.8272600">
        <ele>176.9</ele>
        <time>2020-01-28T08:57:04Z</time>
      </trkpt>
      <trkpt lat="43.3822160" lon="-5.8272820">
        <ele>176.9</ele>
        <time>2020-01-28T08:57:05Z</time>
      </trkpt>
      <trkpt lat="43.3822110" lon="-5.8272900">
        <ele>176.9</ele>
        <time>2020-01-28T08:57:06Z</time>
      </trkpt>
      <trkpt lat="43.3822050" lon="-5.8272990">
        <ele>177.0</ele>
        <time>2020-01-28T08:57:07Z</time>
      </trkpt>
      <trkpt lat="43.3821910" lon="-5.8273220">
        <ele>177.0</ele>
        <time>2020-01-28T08:57:08Z</time>
      </trkpt>
      <trkpt lat="43.3821860" lon="-5.8273300">
        <ele>177.0</ele>
        <time>2020-01-28T08:57:09Z</time>
      </trkpt>
      <trkpt lat="43.3821800" lon="-5.8273390">
        <ele>177.0</ele>
        <time>2020-01-28T08:57:10Z</time>
      </trkpt>
      <trkpt lat="43.3821680" lon="-5.8273540">
        <ele>177.1</ele>
        <time>2020-01-28T08:57:11Z</time>
      </trkpt>
      <trkpt lat="43.3821600" lon="-5.8273670">
        <ele>177.1</ele>
        <time>2020-01-28T08:57:12Z</time>
      </trkpt>
      <trkpt lat="43.3821450" lon="-5.8273880">
        <ele>177.2</ele>
        <time>2020-01-28T08:57:13Z</time>
      </trkpt>
      <trkpt lat="43.3821380" lon="-5.8273970">
        <ele>177.2</ele>
        <time>2020-01-28T08:57:14Z</time>
      </trkpt>
      <trkpt lat="43.3821320" lon="-5.8274060">
        <ele>177.2</ele>
        <time>2020-01-28T08:57:15Z</time>
      </trkpt>
      <trkpt lat="43.3821210" lon="-5.8274190">
        <ele>177.2</ele>
        <time>2020-01-28T08:57:16Z</time>
      </trkpt>
      <trkpt lat="43.3821100" lon="-5.8274330">
        <ele>177.3</ele>
        <time>2020-01-28T08:57:17Z</time>
      </trkpt>
      <trkpt lat="43.3820980" lon="-5.8274480">
        <ele>177.3</ele>
        <time>2020-01-28T08:57:18Z</time>
      </trkpt>
      <trkpt lat="43.3820850" lon="-5.8274600">
        <ele>177.3</ele>
        <time>2020-01-28T08:57:19Z</time>
      </trkpt>
      <trkpt lat="43.3820730" lon="-5.8274730">
        <ele>177.3</ele>
        <time>2020-01-28T08:57:20Z</time>
      </trkpt>
      <trkpt lat="43.3820600" lon="-5.8274860">
        <ele>177.4</ele>
        <time>2020-01-28T08:57:21Z</time>
      </trkpt>
      <trkpt lat="43.3820490" lon="-5.8275010">
        <ele>177.4</ele>
        <time>2020-01-28T08:57:22Z</time>
      </trkpt>
      <trkpt lat="43.3820370" lon="-5.8275150">
        <ele>177.4</ele>
        <time>2020-01-28T08:57:23Z</time>
      </trkpt>
      <trkpt lat="43.3820250" lon="-5.8275300">
        <ele>177.4</ele>
        <time>2020-01-28T08:57:24Z</time>
      </trkpt>
      <trkpt lat="43.3820130" lon="-5.8275440">
        <ele>177.4</ele>
        <time>2020-01-28T08:57:25Z</time>
      </trkpt>
      <trkpt lat="43.3820010" lon="-5.8275580">
        <ele>177.5</ele>
        <time>2020-01-28T08:57:26Z</time>
      </trkpt>
      <trkpt lat="43.3819880" lon="-5.8275720">
        <ele>177.5</ele>
        <time>2020-01-28T08:57:27Z</time>
      </trkpt>
      <trkpt lat="43.3819740" lon="-5.8275850">
        <ele>177.5</ele>
        <time>2020-01-28T08:57:28Z</time>
      </trkpt>
      <trkpt lat="43.3819600" lon="-5.8275990">
        <ele>177.5</ele>
        <time>2020-01-28T08:57:29Z</time>
      </trkpt>
      <trkpt lat="43.3819480" lon="-5.8276120">
        <ele>177.6</ele>
        <time>2020-01-28T08:57:30Z</time>
      </trkpt>
      <trkpt lat="43.3819360" lon="-5.8276270">
        <ele>177.6</ele>
        <time>2020-01-28T08:57:31Z</time>
      </trkpt>
      <trkpt lat="43.3819240" lon="-5.8276400">
        <ele>177.6</ele>
        <time>2020-01-28T08:57:32Z</time>
      </trkpt>
      <trkpt lat="43.3819120" lon="-5.8276530">
        <ele>177.6</ele>
        <time>2020-01-28T08:57:33Z</time>
      </trkpt>
      <trkpt lat="43.3819000" lon="-5.8276670">
        <ele>177.7</ele>
        <time>2020-01-28T08:57:34Z</time>
      </trkpt>
      <trkpt lat="43.3818880" lon="-5.8276800">
        <ele>177.7</ele>
        <time>2020-01-28T08:57:35Z</time>
      </trkpt>
      <trkpt lat="43.3818770" lon="-5.8276940">
        <ele>177.7</ele>
        <time>2020-01-28T08:57:36Z</time>
      </trkpt>
      <trkpt lat="43.3818660" lon="-5.8277080">
        <ele>177.7</ele>
        <time>2020-01-28T08:57:37Z</time>
      </trkpt>
      <trkpt lat="43.3818550" lon="-5.8277210">
        <ele>177.8</ele>
        <time>2020-01-28T08:57:38Z</time>
      </trkpt>
      <trkpt lat="43.3818440" lon="-5.8277330">
        <ele>177.8</ele>
        <time>2020-01-28T08:57:39Z</time>
      </trkpt>
      <trkpt lat="43.3818290" lon="-5.8277540">
        <ele>177.8</ele>
        <time>2020-01-28T08:57:40Z</time>
      </trkpt>
      <trkpt lat="43.3818230" lon="-5.8277620">
        <ele>177.8</ele>
        <time>2020-01-28T08:57:41Z</time>
      </trkpt>
      <trkpt lat="43.3818180" lon="-5.8277700">
        <ele>177.8</ele>
        <time>2020-01-28T08:57:42Z</time>
      </trkpt>
      <trkpt lat="43.3818050" lon="-5.8277910">
        <ele>177.9</ele>
        <time>2020-01-28T08:57:43Z</time>
      </trkpt>
      <trkpt lat="43.3817990" lon="-5.8278010">
        <ele>177.9</ele>
        <time>2020-01-28T08:57:44Z</time>
      </trkpt>
      <trkpt lat="43.3817940" lon="-5.8278100">
        <ele>177.9</ele>
        <time>2020-01-28T08:57:45Z</time>
      </trkpt>
      <trkpt lat="43.3817870" lon="-5.8278280">
        <ele>177.9</ele>
        <time>2020-01-28T08:57:46Z</time>
      </trkpt>
      <trkpt lat="43.3817800" lon="-5.8278470">
        <ele>177.9</ele>
        <time>2020-01-28T08:57:47Z</time>
      </trkpt>
      <trkpt lat="43.3817730" lon="-5.8278670">
        <ele>178.0</ele>
        <time>2020-01-28T08:57:48Z</time>
      </trkpt>
      <trkpt lat="43.3817680" lon="-5.8278870">
        <ele>178.0</ele>
        <time>2020-01-28T08:57:49Z</time>
      </trkpt>
      <trkpt lat="43.3817630" lon="-5.8279040">
        <ele>178.0</ele>
        <time>2020-01-28T08:57:50Z</time>
      </trkpt>
      <trkpt lat="43.3817580" lon="-5.8279230">
        <ele>178.0</ele>
        <time>2020-01-28T08:57:51Z</time>
      </trkpt>
      <trkpt lat="43.3817530" lon="-5.8279400">
        <ele>178.1</ele>
        <time>2020-01-28T08:57:52Z</time>
      </trkpt>
      <trkpt lat="43.3817460" lon="-5.8279570">
        <ele>178.1</ele>
        <time>2020-01-28T08:57:53Z</time>
      </trkpt>
      <trkpt lat="43.3817370" lon="-5.8279750">
        <ele>178.1</ele>
        <time>2020-01-28T08:57:54Z</time>
      </trkpt>
      <trkpt lat="43.3817280" lon="-5.8279920">
        <ele>178.1</ele>
        <time>2020-01-28T08:57:55Z</time>
      </trkpt>
      <trkpt lat="43.3817200" lon="-5.8280110">
        <ele>178.2</ele>
        <time>2020-01-28T08:57:56Z</time>
      </trkpt>
      <trkpt lat="43.3817140" lon="-5.8280310">
        <ele>178.2</ele>
        <time>2020-01-28T08:57:57Z</time>
      </trkpt>
      <trkpt lat="43.3817090" lon="-5.8280510">
        <ele>178.2</ele>
        <time>2020-01-28T08:57:58Z</time>
      </trkpt>
      <trkpt lat="43.3817050" lon="-5.8280680">
        <ele>178.3</ele>
        <time>2020-01-28T08:57:59Z</time>
      </trkpt>
      <trkpt lat="43.3817000" lon="-5.8280830">
        <ele>178.3</ele>
        <time>2020-01-28T08:58:00Z</time>
      </trkpt>
      <trkpt lat="43.3816960" lon="-5.8280960">
        <ele>178.4</ele>
        <time>2020-01-28T08:58:01Z</time>
      </trkpt>
      <trkpt lat="43.3816920" lon="-5.8281090">
        <ele>178.4</ele>
        <time>2020-01-28T08:58:02Z</time>
      </trkpt>
      <trkpt lat="43.3816860" lon="-5.8281220">
        <ele>178.5</ele>
        <time>2020-01-28T08:58:03Z</time>
      </trkpt>
      <trkpt lat="43.3816780" lon="-5.8281350">
        <ele>178.5</ele>
        <time>2020-01-28T08:58:04Z</time>
      </trkpt>
      <trkpt lat="43.3816690" lon="-5.8281470">
        <ele>178.6</ele>
        <time>2020-01-28T08:58:05Z</time>
      </trkpt>
      <trkpt lat="43.3816600" lon="-5.8281580">
        <ele>178.6</ele>
        <time>2020-01-28T08:58:06Z</time>
      </trkpt>
      <trkpt lat="43.3816490" lon="-5.8281710">
        <ele>178.6</ele>
        <time>2020-01-28T08:58:07Z</time>
      </trkpt>
      <trkpt lat="43.3816370" lon="-5.8281830">
        <ele>178.7</ele>
        <time>2020-01-28T08:58:08Z</time>
      </trkpt>
      <trkpt lat="43.3816240" lon="-5.8281940">
        <ele>178.7</ele>
        <time>2020-01-28T08:58:09Z</time>
      </trkpt>
      <trkpt lat="43.3816050" lon="-5.8282100">
        <ele>178.8</ele>
        <time>2020-01-28T08:58:10Z</time>
      </trkpt>
      <trkpt lat="43.3815970" lon="-5.8282170">
        <ele>178.8</ele>
        <time>2020-01-28T08:58:11Z</time>
      </trkpt>
      <trkpt lat="43.3815880" lon="-5.8282240">
        <ele>178.8</ele>
        <time>2020-01-28T08:58:12Z</time>
      </trkpt>
      <trkpt lat="43.3815750" lon="-5.8282350">
        <ele>178.9</ele>
        <time>2020-01-28T08:58:13Z</time>
      </trkpt>
      <trkpt lat="43.3815630" lon="-5.8282450">
        <ele>178.9</ele>
        <time>2020-01-28T08:58:14Z</time>
      </trkpt>
      <trkpt lat="43.3815500" lon="-5.8282520">
        <ele>178.9</ele>
        <time>2020-01-28T08:58:15Z</time>
      </trkpt>
      <trkpt lat="43.3815380" lon="-5.8282600">
        <ele>179.0</ele>
        <time>2020-01-28T08:58:16Z</time>
      </trkpt>
      <trkpt lat="43.3815250" lon="-5.8282700">
        <ele>179.0</ele>
        <time>2020-01-28T08:58:17Z</time>
      </trkpt>
      <trkpt lat="43.3815120" lon="-5.8282800">
        <ele>179.0</ele>
        <time>2020-01-28T08:58:18Z</time>
      </trkpt>
      <trkpt lat="43.3815000" lon="-5.8282930">
        <ele>179.1</ele>
        <time>2020-01-28T08:58:19Z</time>
      </trkpt>
      <trkpt lat="43.3814870" lon="-5.8283070">
        <ele>179.1</ele>
        <time>2020-01-28T08:58:20Z</time>
      </trkpt>
      <trkpt lat="43.3814740" lon="-5.8283210">
        <ele>179.1</ele>
        <time>2020-01-28T08:58:21Z</time>
      </trkpt>
      <trkpt lat="43.3814620" lon="-5.8283320">
        <ele>179.1</ele>
        <time>2020-01-28T08:58:22Z</time>
      </trkpt>
      <trkpt lat="43.3814420" lon="-5.8283470">
        <ele>179.1</ele>
        <time>2020-01-28T08:58:23Z</time>
      </trkpt>
      <trkpt lat="43.3814330" lon="-5.8283540">
        <ele>179.1</ele>
        <time>2020-01-28T08:58:24Z</time>
      </trkpt>
      <trkpt lat="43.3814240" lon="-5.8283600">
        <ele>179.2</ele>
        <time>2020-01-28T08:58:25Z</time>
      </trkpt>
      <trkpt lat="43.3814040" lon="-5.8283750">
        <ele>179.2</ele>
        <time>2020-01-28T08:58:26Z</time>
      </trkpt>
      <trkpt lat="43.3813970" lon="-5.8283810">
        <ele>179.2</ele>
        <time>2020-01-28T08:58:27Z</time>
      </trkpt>
      <trkpt lat="43.3813890" lon="-5.8283880">
        <ele>179.2</ele>
        <time>2020-01-28T08:58:28Z</time>
      </trkpt>
      <trkpt lat="43.3813780" lon="-5.8283980">
        <ele>179.2</ele>
        <time>2020-01-28T08:58:29Z</time>
      </trkpt>
      <trkpt lat="43.3813650" lon="-5.8284080">
        <ele>179.2</ele>
        <time>2020-01-28T08:58:30Z</time>
      </trkpt>
      <trkpt lat="43.3813530" lon="-5.8284190">
        <ele>179.2</ele>
        <time>2020-01-28T08:58:31Z</time>
      </trkpt>
      <trkpt lat="43.3813430" lon="-5.8284290">
        <ele>179.3</ele>
        <time>2020-01-28T08:58:32Z</time>
      </trkpt>
      <trkpt lat="43.3813310" lon="-5.8284400">
        <ele>179.3</ele>
        <time>2020-01-28T08:58:33Z</time>
      </trkpt>
      <trkpt lat="43.3813180" lon="-5.8284500">
        <ele>179.3</ele>
        <time>2020-01-28T08:58:34Z</time>
      </trkpt>
      <trkpt lat="43.3813040" lon="-5.8284580">
        <ele>179.3</ele>
        <time>2020-01-28T08:58:35Z</time>
      </trkpt>
      <trkpt lat="43.3812900" lon="-5.8284670">
        <ele>179.3</ele>
        <time>2020-01-28T08:58:36Z</time>
      </trkpt>
      <trkpt lat="43.3812770" lon="-5.8284760">
        <ele>179.3</ele>
        <time>2020-01-28T08:58:37Z</time>
      </trkpt>
      <trkpt lat="43.3812640" lon="-5.8284880">
        <ele>179.4</ele>
        <time>2020-01-28T08:58:38Z</time>
      </trkpt>
      <trkpt lat="43.3812510" lon="-5.8285010">
        <ele>179.4</ele>
        <time>2020-01-28T08:58:39Z</time>
      </trkpt>
      <trkpt lat="43.3812380" lon="-5.8285130">
        <ele>179.4</ele>
        <time>2020-01-28T08:58:40Z</time>
      </trkpt>
      <trkpt lat="43.3812250" lon="-5.8285230">
        <ele>179.4</ele>
        <time>2020-01-28T08:58:41Z</time>
      </trkpt>
      <trkpt lat="43.3812110" lon="-5.8285320">
        <ele>179.4</ele>
        <time>2020-01-28T08:58:42Z</time>
      </trkpt>
      <trkpt lat="43.3811980" lon="-5.8285380">
        <ele>179.4</ele>
        <time>2020-01-28T08:58:43Z</time>
      </trkpt>
      <trkpt lat="43.3811840" lon="-5.8285450">
        <ele>179.5</ele>
        <time>2020-01-28T08:58:44Z</time>
      </trkpt>
      <trkpt lat="43.3811710" lon="-5.8285520">
        <ele>179.5</ele>
        <time>2020-01-28T08:58:45Z</time>
      </trkpt>
      <trkpt lat="43.3811570" lon="-5.8285600">
        <ele>179.6</ele>
        <time>2020-01-28T08:58:46Z</time>
      </trkpt>
      <trkpt lat="43.3811430" lon="-5.8285680">
        <ele>179.6</ele>
        <time>2020-01-28T08:58:47Z</time>
      </trkpt>
      <trkpt lat="43.3811290" lon="-5.8285770">
        <ele>179.6</ele>
        <time>2020-01-28T08:58:48Z</time>
      </trkpt>
      <trkpt lat="43.3811160" lon="-5.8285860">
        <ele>179.6</ele>
        <time>2020-01-28T08:58:49Z</time>
      </trkpt>
      <trkpt lat="43.3811020" lon="-5.8285970">
        <ele>179.7</ele>
        <time>2020-01-28T08:58:50Z</time>
      </trkpt>
      <trkpt lat="43.3810870" lon="-5.8286080">
        <ele>179.7</ele>
        <time>2020-01-28T08:58:51Z</time>
      </trkpt>
      <trkpt lat="43.3810740" lon="-5.8286190">
        <ele>179.8</ele>
        <time>2020-01-28T08:58:52Z</time>
      </trkpt>
      <trkpt lat="43.3810610" lon="-5.8286300">
        <ele>179.7</ele>
        <time>2020-01-28T08:58:53Z</time>
      </trkpt>
      <trkpt lat="43.3810480" lon="-5.8286400">
        <ele>179.7</ele>
        <time>2020-01-28T08:58:54Z</time>
      </trkpt>
      <trkpt lat="43.3810350" lon="-5.8286510">
        <ele>179.7</ele>
        <time>2020-01-28T08:58:55Z</time>
      </trkpt>
      <trkpt lat="43.3810240" lon="-5.8286590">
        <ele>179.7</ele>
        <time>2020-01-28T08:58:56Z</time>
      </trkpt>
      <trkpt lat="43.3810060" lon="-5.8286750">
        <ele>179.7</ele>
        <time>2020-01-28T08:58:57Z</time>
      </trkpt>
      <trkpt lat="43.3809980" lon="-5.8286820">
        <ele>179.6</ele>
        <time>2020-01-28T08:58:58Z</time>
      </trkpt>
      <trkpt lat="43.3809900" lon="-5.8286890">
        <ele>179.6</ele>
        <time>2020-01-28T08:58:59Z</time>
      </trkpt>
      <trkpt lat="43.3809700" lon="-5.8287040">
        <ele>179.6</ele>
        <time>2020-01-28T08:59:00Z</time>
      </trkpt>
      <trkpt lat="43.3809630" lon="-5.8287100">
        <ele>179.6</ele>
        <time>2020-01-28T08:59:01Z</time>
      </trkpt>
      <trkpt lat="43.3809550" lon="-5.8287150">
        <ele>179.7</ele>
        <time>2020-01-28T08:59:02Z</time>
      </trkpt>
      <trkpt lat="43.3809420" lon="-5.8287250">
        <ele>179.7</ele>
        <time>2020-01-28T08:59:03Z</time>
      </trkpt>
      <trkpt lat="43.3809290" lon="-5.8287350">
        <ele>179.7</ele>
        <time>2020-01-28T08:59:04Z</time>
      </trkpt>
      <trkpt lat="43.3809160" lon="-5.8287450">
        <ele>179.7</ele>
        <time>2020-01-28T08:59:05Z</time>
      </trkpt>
      <trkpt lat="43.3809040" lon="-5.8287520">
        <ele>179.8</ele>
        <time>2020-01-28T08:59:06Z</time>
      </trkpt>
      <trkpt lat="43.3808910" lon="-5.8287610">
        <ele>179.8</ele>
        <time>2020-01-28T08:59:07Z</time>
      </trkpt>
      <trkpt lat="43.3808770" lon="-5.8287710">
        <ele>179.8</ele>
        <time>2020-01-28T08:59:08Z</time>
      </trkpt>
      <trkpt lat="43.3808630" lon="-5.8287820">
        <ele>179.9</ele>
        <time>2020-01-28T08:59:09Z</time>
      </trkpt>
      <trkpt lat="43.3808500" lon="-5.8287920">
        <ele>179.9</ele>
        <time>2020-01-28T08:59:10Z</time>
      </trkpt>
      <trkpt lat="43.3808380" lon="-5.8288010">
        <ele>179.9</ele>
        <time>2020-01-28T08:59:11Z</time>
      </trkpt>
      <trkpt lat="43.3808250" lon="-5.8288090">
        <ele>180.0</ele>
        <time>2020-01-28T08:59:12Z</time>
      </trkpt>
      <trkpt lat="43.3808120" lon="-5.8288200">
        <ele>180.0</ele>
        <time>2020-01-28T08:59:13Z</time>
      </trkpt>
      <trkpt lat="43.3808010" lon="-5.8288300">
        <ele>180.0</ele>
        <time>2020-01-28T08:59:14Z</time>
      </trkpt>
      <trkpt lat="43.3807890" lon="-5.8288420">
        <ele>180.1</ele>
        <time>2020-01-28T08:59:15Z</time>
      </trkpt>
      <trkpt lat="43.3807740" lon="-5.8288540">
        <ele>180.1</ele>
        <time>2020-01-28T08:59:16Z</time>
      </trkpt>
      <trkpt lat="43.3807620" lon="-5.8288630">
        <ele>180.1</ele>
        <time>2020-01-28T08:59:17Z</time>
      </trkpt>
      <trkpt lat="43.3807500" lon="-5.8288710">
        <ele>180.2</ele>
        <time>2020-01-28T08:59:18Z</time>
      </trkpt>
      <trkpt lat="43.3807320" lon="-5.8288840">
        <ele>180.2</ele>
        <time>2020-01-28T08:59:19Z</time>
      </trkpt>
      <trkpt lat="43.3807250" lon="-5.8288890">
        <ele>180.2</ele>
        <time>2020-01-28T08:59:20Z</time>
      </trkpt>
      <trkpt lat="43.3807180" lon="-5.8288950">
        <ele>180.2</ele>
        <time>2020-01-28T08:59:21Z</time>
      </trkpt>
      <trkpt lat="43.3807070" lon="-5.8289050">
        <ele>180.3</ele>
        <time>2020-01-28T08:59:22Z</time>
      </trkpt>
      <trkpt lat="43.3806950" lon="-5.8289150">
        <ele>180.3</ele>
        <time>2020-01-28T08:59:23Z</time>
      </trkpt>
      <trkpt lat="43.3806840" lon="-5.8289250">
        <ele>180.3</ele>
        <time>2020-01-28T08:59:24Z</time>
      </trkpt>
      <trkpt lat="43.3806710" lon="-5.8289340">
        <ele>180.3</ele>
        <time>2020-01-28T08:59:25Z</time>
      </trkpt>
      <trkpt lat="43.3806560" lon="-5.8289450">
        <ele>180.4</ele>
        <time>2020-01-28T08:59:26Z</time>
      </trkpt>
      <trkpt lat="43.3806430" lon="-5.8289530">
        <ele>180.5</ele>
        <time>2020-01-28T08:59:27Z</time>
      </trkpt>
      <trkpt lat="43.3806290" lon="-5.8289620">
        <ele>180.5</ele>
        <time>2020-01-28T08:59:28Z</time>
      </trkpt>
      <trkpt lat="43.3806160" lon="-5.8289730">
        <ele>180.6</ele>
        <time>2020-01-28T08:59:29Z</time>
      </trkpt>
      <trkpt lat="43.3806020" lon="-5.8289840">
        <ele>180.6</ele>
        <time>2020-01-28T08:59:30Z</time>
      </trkpt>
      <trkpt lat="43.3805880" lon="-5.8289950">
        <ele>180.7</ele>
        <time>2020-01-28T08:59:31Z</time>
      </trkpt>
      <trkpt lat="43.3805750" lon="-5.8290070">
        <ele>180.7</ele>
        <time>2020-01-28T08:59:32Z</time>
      </trkpt>
      <trkpt lat="43.3805610" lon="-5.8290180">
        <ele>180.9</ele>
        <time>2020-01-28T08:59:33Z</time>
      </trkpt>
      <trkpt lat="43.3805500" lon="-5.8290280">
        <ele>180.9</ele>
        <time>2020-01-28T08:59:34Z</time>
      </trkpt>
      <trkpt lat="43.3805380" lon="-5.8290380">
        <ele>181.0</ele>
        <time>2020-01-28T08:59:35Z</time>
      </trkpt>
      <trkpt lat="43.3805260" lon="-5.8290500">
        <ele>181.0</ele>
        <time>2020-01-28T08:59:36Z</time>
      </trkpt>
      <trkpt lat="43.3805140" lon="-5.8290620">
        <ele>181.0</ele>
        <time>2020-01-28T08:59:37Z</time>
      </trkpt>
      <trkpt lat="43.3805020" lon="-5.8290740">
        <ele>181.0</ele>
        <time>2020-01-28T08:59:38Z</time>
      </trkpt>
      <trkpt lat="43.3804900" lon="-5.8290850">
        <ele>181.1</ele>
        <time>2020-01-28T08:59:39Z</time>
      </trkpt>
      <trkpt lat="43.3804790" lon="-5.8290940">
        <ele>181.1</ele>
        <time>2020-01-28T08:59:40Z</time>
      </trkpt>
      <trkpt lat="43.3804660" lon="-5.8291040">
        <ele>181.1</ele>
        <time>2020-01-28T08:59:41Z</time>
      </trkpt>
      <trkpt lat="43.3804550" lon="-5.8291150">
        <ele>181.1</ele>
        <time>2020-01-28T08:59:42Z</time>
      </trkpt>
      <trkpt lat="43.3804450" lon="-5.8291280">
        <ele>181.2</ele>
        <time>2020-01-28T08:59:43Z</time>
      </trkpt>
      <trkpt lat="43.3804330" lon="-5.8291420">
        <ele>181.2</ele>
        <time>2020-01-28T08:59:44Z</time>
      </trkpt>
      <trkpt lat="43.3804230" lon="-5.8291560">
        <ele>181.2</ele>
        <time>2020-01-28T08:59:45Z</time>
      </trkpt>
      <trkpt lat="43.3803980" lon="-5.8291700">
        <ele>181.2</ele>
        <time>2020-01-28T08:59:46Z</time>
      </trkpt>
      <trkpt lat="43.3803880" lon="-5.8291730">
        <ele>181.2</ele>
        <time>2020-01-28T08:59:47Z</time>
      </trkpt>
      <trkpt lat="43.3803700" lon="-5.8291780">
        <ele>181.2</ele>
        <time>2020-01-28T08:59:48Z</time>
      </trkpt>
      <trkpt lat="43.3803540" lon="-5.8291830">
        <ele>181.2</ele>
        <time>2020-01-28T08:59:49Z</time>
      </trkpt>
      <trkpt lat="43.3803390" lon="-5.8291890">
        <ele>181.2</ele>
        <time>2020-01-28T08:59:50Z</time>
      </trkpt>
      <trkpt lat="43.3803250" lon="-5.8291960">
        <ele>181.2</ele>
        <time>2020-01-28T08:59:51Z</time>
      </trkpt>
      <trkpt lat="43.3803050" lon="-5.8292080">
        <ele>181.2</ele>
        <time>2020-01-28T08:59:52Z</time>
      </trkpt>
      <trkpt lat="43.3802960" lon="-5.8292130">
        <ele>181.2</ele>
        <time>2020-01-28T08:59:53Z</time>
      </trkpt>
      <trkpt lat="43.3802880" lon="-5.8292190">
        <ele>181.2</ele>
        <time>2020-01-28T08:59:54Z</time>
      </trkpt>
      <trkpt lat="43.3802760" lon="-5.8292280">
        <ele>181.2</ele>
        <time>2020-01-28T08:59:55Z</time>
      </trkpt>
      <trkpt lat="43.3802630" lon="-5.8292360">
        <ele>181.2</ele>
        <time>2020-01-28T08:59:56Z</time>
      </trkpt>
      <trkpt lat="43.3802430" lon="-5.8292480">
        <ele>181.2</ele>
        <time>2020-01-28T08:59:57Z</time>
      </trkpt>
      <trkpt lat="43.3802360" lon="-5.8292540">
        <ele>181.2</ele>
        <time>2020-01-28T08:59:58Z</time>
      </trkpt>
      <trkpt lat="43.3802280" lon="-5.8292590">
        <ele>181.2</ele>
        <time>2020-01-28T08:59:59Z</time>
      </trkpt>
      <trkpt lat="43.3802130" lon="-5.8292680">
        <ele>181.2</ele>
        <time>2020-01-28T09:00:00Z</time>
      </trkpt>
      <trkpt lat="43.3801980" lon="-5.8292770">
        <ele>181.2</ele>
        <time>2020-01-28T09:00:01Z</time>
      </trkpt>
      <trkpt lat="43.3801880" lon="-5.8292830">
        <ele>181.2</ele>
        <time>2020-01-28T09:00:02Z</time>
      </trkpt>
      <trkpt lat="43.3801790" lon="-5.8292860">
        <ele>181.2</ele>
        <time>2020-01-28T09:00:03Z</time>
      </trkpt>
      <trkpt lat="43.3801660" lon="-5.8292910">
        <ele>181.2</ele>
        <time>2020-01-28T09:00:04Z</time>
      </trkpt>
      <trkpt lat="43.3801450" lon="-5.8293010">
        <ele>181.2</ele>
        <time>2020-01-28T09:00:05Z</time>
      </trkpt>
      <trkpt lat="43.3801360" lon="-5.8293050">
        <ele>181.2</ele>
        <time>2020-01-28T09:00:06Z</time>
      </trkpt>
      <trkpt lat="43.3801270" lon="-5.8293100">
        <ele>181.2</ele>
        <time>2020-01-28T09:00:07Z</time>
      </trkpt>
      <trkpt lat="43.3801130" lon="-5.8293200">
        <ele>181.2</ele>
        <time>2020-01-28T09:00:08Z</time>
      </trkpt>
      <trkpt lat="43.3800980" lon="-5.8293320">
        <ele>181.2</ele>
        <time>2020-01-28T09:00:09Z</time>
      </trkpt>
      <trkpt lat="43.3800860" lon="-5.8293440">
        <ele>181.2</ele>
        <time>2020-01-28T09:00:10Z</time>
      </trkpt>
      <trkpt lat="43.3800730" lon="-5.8293570">
        <ele>181.2</ele>
        <time>2020-01-28T09:00:11Z</time>
      </trkpt>
      <trkpt lat="43.3800590" lon="-5.8293720">
        <ele>181.2</ele>
        <time>2020-01-28T09:00:12Z</time>
      </trkpt>
      <trkpt lat="43.3800440" lon="-5.8293870">
        <ele>181.2</ele>
        <time>2020-01-28T09:00:13Z</time>
      </trkpt>
      <trkpt lat="43.3800290" lon="-5.8294010">
        <ele>181.2</ele>
        <time>2020-01-28T09:00:14Z</time>
      </trkpt>
      <trkpt lat="43.3800160" lon="-5.8294150">
        <ele>181.3</ele>
        <time>2020-01-28T09:00:15Z</time>
      </trkpt>
      <trkpt lat="43.3799940" lon="-5.8294370">
        <ele>181.3</ele>
        <time>2020-01-28T09:00:16Z</time>
      </trkpt>
      <trkpt lat="43.3799850" lon="-5.8294450">
        <ele>181.3</ele>
        <time>2020-01-28T09:00:17Z</time>
      </trkpt>
      <trkpt lat="43.3799610" lon="-5.8294670">
        <ele>181.3</ele>
        <time>2020-01-28T09:00:18Z</time>
      </trkpt>
      <trkpt lat="43.3799530" lon="-5.8294730">
        <ele>181.3</ele>
        <time>2020-01-28T09:00:19Z</time>
      </trkpt>
      <trkpt lat="43.3799390" lon="-5.8294870">
        <ele>181.3</ele>
        <time>2020-01-28T09:00:20Z</time>
      </trkpt>
      <trkpt lat="43.3799260" lon="-5.8295000">
        <ele>181.3</ele>
        <time>2020-01-28T09:00:21Z</time>
      </trkpt>
      <trkpt lat="43.3799130" lon="-5.8295140">
        <ele>181.3</ele>
        <time>2020-01-28T09:00:22Z</time>
      </trkpt>
      <trkpt lat="43.3799010" lon="-5.8295280">
        <ele>181.3</ele>
        <time>2020-01-28T09:00:23Z</time>
      </trkpt>
      <trkpt lat="43.3798880" lon="-5.8295420">
        <ele>181.3</ele>
        <time>2020-01-28T09:00:24Z</time>
      </trkpt>
      <trkpt lat="43.3798760" lon="-5.8295540">
        <ele>181.3</ele>
        <time>2020-01-28T09:00:25Z</time>
      </trkpt>
      <trkpt lat="43.3798640" lon="-5.8295640">
        <ele>181.3</ele>
        <time>2020-01-28T09:00:26Z</time>
      </trkpt>
      <trkpt lat="43.3798500" lon="-5.8295740">
        <ele>181.3</ele>
        <time>2020-01-28T09:00:27Z</time>
      </trkpt>
      <trkpt lat="43.3798360" lon="-5.8295850">
        <ele>181.4</ele>
        <time>2020-01-28T09:00:28Z</time>
      </trkpt>
      <trkpt lat="43.3798220" lon="-5.8295980">
        <ele>181.4</ele>
        <time>2020-01-28T09:00:29Z</time>
      </trkpt>
      <trkpt lat="43.3798110" lon="-5.8296110">
        <ele>181.4</ele>
        <time>2020-01-28T09:00:30Z</time>
      </trkpt>
      <trkpt lat="43.3798010" lon="-5.8296240">
        <ele>181.4</ele>
        <time>2020-01-28T09:00:31Z</time>
      </trkpt>
      <trkpt lat="43.3797900" lon="-5.8296380">
        <ele>181.4</ele>
        <time>2020-01-28T09:00:32Z</time>
      </trkpt>
      <trkpt lat="43.3797790" lon="-5.8296510">
        <ele>181.4</ele>
        <time>2020-01-28T09:00:33Z</time>
      </trkpt>
      <trkpt lat="43.3797700" lon="-5.8296650">
        <ele>181.4</ele>
        <time>2020-01-28T09:00:34Z</time>
      </trkpt>
      <trkpt lat="43.3797610" lon="-5.8296780">
        <ele>181.4</ele>
        <time>2020-01-28T09:00:35Z</time>
      </trkpt>
      <trkpt lat="43.3797560" lon="-5.8296870">
        <ele>181.4</ele>
        <time>2020-01-28T09:00:36Z</time>
      </trkpt>
      <trkpt lat="43.3797550" lon="-5.8296920">
        <ele>181.4</ele>
        <time>2020-01-28T09:00:37Z</time>
      </trkpt>
      <trkpt lat="43.3797490" lon="-5.8297000">
        <ele>181.4</ele>
        <time>2020-01-28T09:00:38Z</time>
      </trkpt>
      <trkpt lat="43.3797400" lon="-5.8297120">
        <ele>181.4</ele>
        <time>2020-01-28T09:00:39Z</time>
      </trkpt>
      <trkpt lat="43.3797290" lon="-5.8297270">
        <ele>181.4</ele>
        <time>2020-01-28T09:00:40Z</time>
      </trkpt>
      <trkpt lat="43.3797170" lon="-5.8297410">
        <ele>181.4</ele>
        <time>2020-01-28T09:00:41Z</time>
      </trkpt>
      <trkpt lat="43.3797050" lon="-5.8297560">
        <ele>181.5</ele>
        <time>2020-01-28T09:00:42Z</time>
      </trkpt>
      <trkpt lat="43.3796940" lon="-5.8297690">
        <ele>181.5</ele>
        <time>2020-01-28T09:00:43Z</time>
      </trkpt>
      <trkpt lat="43.3796820" lon="-5.8297820">
        <ele>181.5</ele>
        <time>2020-01-28T09:00:44Z</time>
      </trkpt>
      <trkpt lat="43.3796700" lon="-5.8297950">
        <ele>181.5</ele>
        <time>2020-01-28T09:00:45Z</time>
      </trkpt>
      <trkpt lat="43.3796580" lon="-5.8298080">
        <ele>181.5</ele>
        <time>2020-01-28T09:00:46Z</time>
      </trkpt>
      <trkpt lat="43.3796460" lon="-5.8298220">
        <ele>181.5</ele>
        <time>2020-01-28T09:00:47Z</time>
      </trkpt>
      <trkpt lat="43.3796350" lon="-5.8298360">
        <ele>181.5</ele>
        <time>2020-01-28T09:00:48Z</time>
      </trkpt>
      <trkpt lat="43.3796240" lon="-5.8298490">
        <ele>181.5</ele>
        <time>2020-01-28T09:00:49Z</time>
      </trkpt>
      <trkpt lat="43.3796130" lon="-5.8298650">
        <ele>181.5</ele>
        <time>2020-01-28T09:00:50Z</time>
      </trkpt>
      <trkpt lat="43.3796010" lon="-5.8298790">
        <ele>181.5</ele>
        <time>2020-01-28T09:00:51Z</time>
      </trkpt>
      <trkpt lat="43.3795890" lon="-5.8298930">
        <ele>181.5</ele>
        <time>2020-01-28T09:00:52Z</time>
      </trkpt>
      <trkpt lat="43.3795790" lon="-5.8299080">
        <ele>181.5</ele>
        <time>2020-01-28T09:00:53Z</time>
      </trkpt>
      <trkpt lat="43.3795700" lon="-5.8299220">
        <ele>181.5</ele>
        <time>2020-01-28T09:00:54Z</time>
      </trkpt>
      <trkpt lat="43.3795590" lon="-5.8299380">
        <ele>181.5</ele>
        <time>2020-01-28T09:00:55Z</time>
      </trkpt>
      <trkpt lat="43.3795480" lon="-5.8299520">
        <ele>181.5</ele>
        <time>2020-01-28T09:00:56Z</time>
      </trkpt>
      <trkpt lat="43.3795370" lon="-5.8299680">
        <ele>181.5</ele>
        <time>2020-01-28T09:00:57Z</time>
      </trkpt>
      <trkpt lat="43.3795270" lon="-5.8299820">
        <ele>181.6</ele>
        <time>2020-01-28T09:00:58Z</time>
      </trkpt>
      <trkpt lat="43.3795170" lon="-5.8299950">
        <ele>181.6</ele>
        <time>2020-01-28T09:00:59Z</time>
      </trkpt>
      <trkpt lat="43.3795060" lon="-5.8300110">
        <ele>181.6</ele>
        <time>2020-01-28T09:01:00Z</time>
      </trkpt>
      <trkpt lat="43.3794970" lon="-5.8300260">
        <ele>181.6</ele>
        <time>2020-01-28T09:01:01Z</time>
      </trkpt>
      <trkpt lat="43.3794820" lon="-5.8300470">
        <ele>181.6</ele>
        <time>2020-01-28T09:01:02Z</time>
      </trkpt>
      <trkpt lat="43.3794760" lon="-5.8300560">
        <ele>181.6</ele>
        <time>2020-01-28T09:01:03Z</time>
      </trkpt>
      <trkpt lat="43.3794690" lon="-5.8300640">
        <ele>181.6</ele>
        <time>2020-01-28T09:01:04Z</time>
      </trkpt>
      <trkpt lat="43.3794570" lon="-5.8300770">
        <ele>181.6</ele>
        <time>2020-01-28T09:01:05Z</time>
      </trkpt>
      <trkpt lat="43.3794460" lon="-5.8300880">
        <ele>181.6</ele>
        <time>2020-01-28T09:01:06Z</time>
      </trkpt>
      <trkpt lat="43.3794290" lon="-5.8301060">
        <ele>181.6</ele>
        <time>2020-01-28T09:01:07Z</time>
      </trkpt>
      <trkpt lat="43.3794220" lon="-5.8301150">
        <ele>181.6</ele>
        <time>2020-01-28T09:01:08Z</time>
      </trkpt>
      <trkpt lat="43.3794150" lon="-5.8301230">
        <ele>181.6</ele>
        <time>2020-01-28T09:01:09Z</time>
      </trkpt>
      <trkpt lat="43.3794040" lon="-5.8301370">
        <ele>181.6</ele>
        <time>2020-01-28T09:01:10Z</time>
      </trkpt>
      <trkpt lat="43.3793940" lon="-5.8301500">
        <ele>181.5</ele>
        <time>2020-01-28T09:01:11Z</time>
      </trkpt>
      <trkpt lat="43.3793840" lon="-5.8301640">
        <ele>181.5</ele>
        <time>2020-01-28T09:01:12Z</time>
      </trkpt>
      <trkpt lat="43.3793730" lon="-5.8301810">
        <ele>181.5</ele>
        <time>2020-01-28T09:01:13Z</time>
      </trkpt>
      <trkpt lat="43.3793660" lon="-5.8301960">
        <ele>181.5</ele>
        <time>2020-01-28T09:01:14Z</time>
      </trkpt>
      <trkpt lat="43.3793580" lon="-5.8302140">
        <ele>181.5</ele>
        <time>2020-01-28T09:01:15Z</time>
      </trkpt>
      <trkpt lat="43.3793500" lon="-5.8302300">
        <ele>181.5</ele>
        <time>2020-01-28T09:01:16Z</time>
      </trkpt>
      <trkpt lat="43.3793410" lon="-5.8302460">
        <ele>181.5</ele>
        <time>2020-01-28T09:01:17Z</time>
      </trkpt>
      <trkpt lat="43.3793300" lon="-5.8302640">
        <ele>181.5</ele>
        <time>2020-01-28T09:01:18Z</time>
      </trkpt>
      <trkpt lat="43.3793200" lon="-5.8302810">
        <ele>181.4</ele>
        <time>2020-01-28T09:01:19Z</time>
      </trkpt>
      <trkpt lat="43.3793100" lon="-5.8302980">
        <ele>181.4</ele>
        <time>2020-01-28T09:01:20Z</time>
      </trkpt>
      <trkpt lat="43.3793010" lon="-5.8303140">
        <ele>181.4</ele>
        <time>2020-01-28T09:01:21Z</time>
      </trkpt>
      <trkpt lat="43.3792920" lon="-5.8303320">
        <ele>181.4</ele>
        <time>2020-01-28T09:01:22Z</time>
      </trkpt>
      <trkpt lat="43.3792830" lon="-5.8303490">
        <ele>181.4</ele>
        <time>2020-01-28T09:01:23Z</time>
      </trkpt>
      <trkpt lat="43.3792740" lon="-5.8303670">
        <ele>181.4</ele>
        <time>2020-01-28T09:01:24Z</time>
      </trkpt>
      <trkpt lat="43.3792650" lon="-5.8303840">
        <ele>181.4</ele>
        <time>2020-01-28T09:01:25Z</time>
      </trkpt>
      <trkpt lat="43.3792570" lon="-5.8303990">
        <ele>181.3</ele>
        <time>2020-01-28T09:01:26Z</time>
      </trkpt>
      <trkpt lat="43.3792480" lon="-5.8304150">
        <ele>181.3</ele>
        <time>2020-01-28T09:01:27Z</time>
      </trkpt>
      <trkpt lat="43.3792370" lon="-5.8304330">
        <ele>181.3</ele>
        <time>2020-01-28T09:01:28Z</time>
      </trkpt>
      <trkpt lat="43.3792280" lon="-5.8304470">
        <ele>181.3</ele>
        <time>2020-01-28T09:01:29Z</time>
      </trkpt>
      <trkpt lat="43.3792180" lon="-5.8304600">
        <ele>181.4</ele>
        <time>2020-01-28T09:01:30Z</time>
      </trkpt>
      <trkpt lat="43.3792070" lon="-5.8304740">
        <ele>181.4</ele>
        <time>2020-01-28T09:01:31Z</time>
      </trkpt>
      <trkpt lat="43.3791950" lon="-5.8304900">
        <ele>181.4</ele>
        <time>2020-01-28T09:01:32Z</time>
      </trkpt>
      <trkpt lat="43.3791830" lon="-5.8305060">
        <ele>181.4</ele>
        <time>2020-01-28T09:01:33Z</time>
      </trkpt>
      <trkpt lat="43.3791720" lon="-5.8305230">
        <ele>181.4</ele>
        <time>2020-01-28T09:01:34Z</time>
      </trkpt>
      <trkpt lat="43.3791630" lon="-5.8305410">
        <ele>181.4</ele>
        <time>2020-01-28T09:01:35Z</time>
      </trkpt>
      <trkpt lat="43.3791540" lon="-5.8305580">
        <ele>181.4</ele>
        <time>2020-01-28T09:01:36Z</time>
      </trkpt>
      <trkpt lat="43.3791450" lon="-5.8305760">
        <ele>181.5</ele>
        <time>2020-01-28T09:01:37Z</time>
      </trkpt>
      <trkpt lat="43.3791370" lon="-5.8305940">
        <ele>181.5</ele>
        <time>2020-01-28T09:01:38Z</time>
      </trkpt>
      <trkpt lat="43.3791310" lon="-5.8306100">
        <ele>181.5</ele>
        <time>2020-01-28T09:01:39Z</time>
      </trkpt>
      <trkpt lat="43.3791230" lon="-5.8306270">
        <ele>181.5</ele>
        <time>2020-01-28T09:01:40Z</time>
      </trkpt>
      <trkpt lat="43.3791150" lon="-5.8306470">
        <ele>181.5</ele>
        <time>2020-01-28T09:01:41Z</time>
      </trkpt>
      <trkpt lat="43.3791070" lon="-5.8306640">
        <ele>181.5</ele>
        <time>2020-01-28T09:01:42Z</time>
      </trkpt>
      <trkpt lat="43.3790990" lon="-5.8306820">
        <ele>181.5</ele>
        <time>2020-01-28T09:01:43Z</time>
      </trkpt>
      <trkpt lat="43.3790910" lon="-5.8306970">
        <ele>181.6</ele>
        <time>2020-01-28T09:01:44Z</time>
      </trkpt>
      <trkpt lat="43.3790840" lon="-5.8307130">
        <ele>181.6</ele>
        <time>2020-01-28T09:01:45Z</time>
      </trkpt>
      <trkpt lat="43.3790750" lon="-5.8307320">
        <ele>181.6</ele>
        <time>2020-01-28T09:01:46Z</time>
      </trkpt>
      <trkpt lat="43.3790670" lon="-5.8307510">
        <ele>181.6</ele>
        <time>2020-01-28T09:01:47Z</time>
      </trkpt>
      <trkpt lat="43.3790580" lon="-5.8307700">
        <ele>181.6</ele>
        <time>2020-01-28T09:01:48Z</time>
      </trkpt>
      <trkpt lat="43.3790500" lon="-5.8307880">
        <ele>181.6</ele>
        <time>2020-01-28T09:01:49Z</time>
      </trkpt>
      <trkpt lat="43.3790440" lon="-5.8308050">
        <ele>181.6</ele>
        <time>2020-01-28T09:01:50Z</time>
      </trkpt>
      <trkpt lat="43.3790370" lon="-5.8308230">
        <ele>181.6</ele>
        <time>2020-01-28T09:01:51Z</time>
      </trkpt>
      <trkpt lat="43.3790300" lon="-5.8308410">
        <ele>181.7</ele>
        <time>2020-01-28T09:01:52Z</time>
      </trkpt>
      <trkpt lat="43.3790240" lon="-5.8308590">
        <ele>181.7</ele>
        <time>2020-01-28T09:01:53Z</time>
      </trkpt>
      <trkpt lat="43.3790170" lon="-5.8308760">
        <ele>181.8</ele>
        <time>2020-01-28T09:01:54Z</time>
      </trkpt>
      <trkpt lat="43.3790100" lon="-5.8308930">
        <ele>181.8</ele>
        <time>2020-01-28T09:01:55Z</time>
      </trkpt>
      <trkpt lat="43.3790020" lon="-5.8309110">
        <ele>181.8</ele>
        <time>2020-01-28T09:01:56Z</time>
      </trkpt>
      <trkpt lat="43.3789930" lon="-5.8309260">
        <ele>181.9</ele>
        <time>2020-01-28T09:01:57Z</time>
      </trkpt>
      <trkpt lat="43.3789860" lon="-5.8309430">
        <ele>181.9</ele>
        <time>2020-01-28T09:01:58Z</time>
      </trkpt>
      <trkpt lat="43.3789780" lon="-5.8309610">
        <ele>181.9</ele>
        <time>2020-01-28T09:01:59Z</time>
      </trkpt>
      <trkpt lat="43.3789700" lon="-5.8309790">
        <ele>182.0</ele>
        <time>2020-01-28T09:02:00Z</time>
      </trkpt>
      <trkpt lat="43.3789610" lon="-5.8309960">
        <ele>182.0</ele>
        <time>2020-01-28T09:02:01Z</time>
      </trkpt>
      <trkpt lat="43.3789520" lon="-5.8310120">
        <ele>182.0</ele>
        <time>2020-01-28T09:02:02Z</time>
      </trkpt>
      <trkpt lat="43.3789430" lon="-5.8310280">
        <ele>182.1</ele>
        <time>2020-01-28T09:02:03Z</time>
      </trkpt>
      <trkpt lat="43.3789340" lon="-5.8310480">
        <ele>182.1</ele>
        <time>2020-01-28T09:02:04Z</time>
      </trkpt>
      <trkpt lat="43.3789260" lon="-5.8310650">
        <ele>182.1</ele>
        <time>2020-01-28T09:02:05Z</time>
      </trkpt>
      <trkpt lat="43.3789180" lon="-5.8310830">
        <ele>182.2</ele>
        <time>2020-01-28T09:02:06Z</time>
      </trkpt>
      <trkpt lat="43.3789110" lon="-5.8310990">
        <ele>182.2</ele>
        <time>2020-01-28T09:02:07Z</time>
      </trkpt>
      <trkpt lat="43.3789040" lon="-5.8311150">
        <ele>182.2</ele>
        <time>2020-01-28T09:02:08Z</time>
      </trkpt>
      <trkpt lat="43.3788970" lon="-5.8311320">
        <ele>182.2</ele>
        <time>2020-01-28T09:02:09Z</time>
      </trkpt>
      <trkpt lat="43.3788900" lon="-5.8311500">
        <ele>182.3</ele>
        <time>2020-01-28T09:02:10Z</time>
      </trkpt>
      <trkpt lat="43.3788830" lon="-5.8311680">
        <ele>182.3</ele>
        <time>2020-01-28T09:02:11Z</time>
      </trkpt>
      <trkpt lat="43.3788710" lon="-5.8311930">
        <ele>182.4</ele>
        <time>2020-01-28T09:02:12Z</time>
      </trkpt>
      <trkpt lat="43.3788650" lon="-5.8312020">
        <ele>182.4</ele>
        <time>2020-01-28T09:02:13Z</time>
      </trkpt>
      <trkpt lat="43.3788600" lon="-5.8312120">
        <ele>182.4</ele>
        <time>2020-01-28T09:02:14Z</time>
      </trkpt>
      <trkpt lat="43.3788510" lon="-5.8312280">
        <ele>182.4</ele>
        <time>2020-01-28T09:02:15Z</time>
      </trkpt>
      <trkpt lat="43.3788430" lon="-5.8312440">
        <ele>182.4</ele>
        <time>2020-01-28T09:02:16Z</time>
      </trkpt>
      <trkpt lat="43.3788350" lon="-5.8312590">
        <ele>182.5</ele>
        <time>2020-01-28T09:02:17Z</time>
      </trkpt>
      <trkpt lat="43.3788260" lon="-5.8312750">
        <ele>182.5</ele>
        <time>2020-01-28T09:02:18Z</time>
      </trkpt>
      <trkpt lat="43.3788160" lon="-5.8312920">
        <ele>182.5</ele>
        <time>2020-01-28T09:02:19Z</time>
      </trkpt>
      <trkpt lat="43.3788070" lon="-5.8313080">
        <ele>182.5</ele>
        <time>2020-01-28T09:02:20Z</time>
      </trkpt>
      <trkpt lat="43.3787980" lon="-5.8313240">
        <ele>182.6</ele>
        <time>2020-01-28T09:02:21Z</time>
      </trkpt>
      <trkpt lat="43.3787900" lon="-5.8313390">
        <ele>182.6</ele>
        <time>2020-01-28T09:02:22Z</time>
      </trkpt>
      <trkpt lat="43.3787810" lon="-5.8313550">
        <ele>182.6</ele>
        <time>2020-01-28T09:02:23Z</time>
      </trkpt>
      <trkpt lat="43.3787730" lon="-5.8313740">
        <ele>182.6</ele>
        <time>2020-01-28T09:02:24Z</time>
      </trkpt>
      <trkpt lat="43.3787660" lon="-5.8313910">
        <ele>182.7</ele>
        <time>2020-01-28T09:02:25Z</time>
      </trkpt>
      <trkpt lat="43.3787590" lon="-5.8314090">
        <ele>182.7</ele>
        <time>2020-01-28T09:02:26Z</time>
      </trkpt>
      <trkpt lat="43.3787520" lon="-5.8314300">
        <ele>182.7</ele>
        <time>2020-01-28T09:02:27Z</time>
      </trkpt>
      <trkpt lat="43.3787460" lon="-5.8314500">
        <ele>182.7</ele>
        <time>2020-01-28T09:02:28Z</time>
      </trkpt>
      <trkpt lat="43.3787390" lon="-5.8314690">
        <ele>182.7</ele>
        <time>2020-01-28T09:02:29Z</time>
      </trkpt>
      <trkpt lat="43.3787320" lon="-5.8314850">
        <ele>182.7</ele>
        <time>2020-01-28T09:02:30Z</time>
      </trkpt>
      <trkpt lat="43.3787240" lon="-5.8315000">
        <ele>182.8</ele>
        <time>2020-01-28T09:02:31Z</time>
      </trkpt>
      <trkpt lat="43.3787140" lon="-5.8315150">
        <ele>182.8</ele>
        <time>2020-01-28T09:02:32Z</time>
      </trkpt>
      <trkpt lat="43.3787040" lon="-5.8315310">
        <ele>182.8</ele>
        <time>2020-01-28T09:02:33Z</time>
      </trkpt>
      <trkpt lat="43.3786950" lon="-5.8315460">
        <ele>182.8</ele>
        <time>2020-01-28T09:02:34Z</time>
      </trkpt>
      <trkpt lat="43.3786860" lon="-5.8315600">
        <ele>182.8</ele>
        <time>2020-01-28T09:02:35Z</time>
      </trkpt>
      <trkpt lat="43.3786770" lon="-5.8315750">
        <ele>182.8</ele>
        <time>2020-01-28T09:02:36Z</time>
      </trkpt>
      <trkpt lat="43.3786670" lon="-5.8315910">
        <ele>182.9</ele>
        <time>2020-01-28T09:02:37Z</time>
      </trkpt>
      <trkpt lat="43.3786590" lon="-5.8316070">
        <ele>182.9</ele>
        <time>2020-01-28T09:02:38Z</time>
      </trkpt>
      <trkpt lat="43.3786500" lon="-5.8316250">
        <ele>182.9</ele>
        <time>2020-01-28T09:02:39Z</time>
      </trkpt>
      <trkpt lat="43.3786440" lon="-5.8316420">
        <ele>182.9</ele>
        <time>2020-01-28T09:02:40Z</time>
      </trkpt>
      <trkpt lat="43.3786380" lon="-5.8316580">
        <ele>182.9</ele>
        <time>2020-01-28T09:02:41Z</time>
      </trkpt>
      <trkpt lat="43.3786310" lon="-5.8316770">
        <ele>182.9</ele>
        <time>2020-01-28T09:02:42Z</time>
      </trkpt>
      <trkpt lat="43.3786250" lon="-5.8316940">
        <ele>182.9</ele>
        <time>2020-01-28T09:02:43Z</time>
      </trkpt>
      <trkpt lat="43.3786170" lon="-5.8317110">
        <ele>182.9</ele>
        <time>2020-01-28T09:02:44Z</time>
      </trkpt>
      <trkpt lat="43.3786030" lon="-5.8317350">
        <ele>182.9</ele>
        <time>2020-01-28T09:02:45Z</time>
      </trkpt>
      <trkpt lat="43.3785970" lon="-5.8317450">
        <ele>183.0</ele>
        <time>2020-01-28T09:02:46Z</time>
      </trkpt>
      <trkpt lat="43.3785900" lon="-5.8317540">
        <ele>183.0</ele>
        <time>2020-01-28T09:02:47Z</time>
      </trkpt>
      <trkpt lat="43.3785800" lon="-5.8317660">
        <ele>182.9</ele>
        <time>2020-01-28T09:02:48Z</time>
      </trkpt>
      <trkpt lat="43.3785670" lon="-5.8317780">
        <ele>182.9</ele>
        <time>2020-01-28T09:02:49Z</time>
      </trkpt>
      <trkpt lat="43.3785540" lon="-5.8317910">
        <ele>182.8</ele>
        <time>2020-01-28T09:02:50Z</time>
      </trkpt>
      <trkpt lat="43.3785410" lon="-5.8318020">
        <ele>182.8</ele>
        <time>2020-01-28T09:02:51Z</time>
      </trkpt>
      <trkpt lat="43.3785290" lon="-5.8318140">
        <ele>182.8</ele>
        <time>2020-01-28T09:02:52Z</time>
      </trkpt>
      <trkpt lat="43.3785180" lon="-5.8318260">
        <ele>182.7</ele>
        <time>2020-01-28T09:02:53Z</time>
      </trkpt>
      <trkpt lat="43.3785070" lon="-5.8318380">
        <ele>182.6</ele>
        <time>2020-01-28T09:02:54Z</time>
      </trkpt>
      <trkpt lat="43.3784940" lon="-5.8318500">
        <ele>182.6</ele>
        <time>2020-01-28T09:02:55Z</time>
      </trkpt>
      <trkpt lat="43.3784800" lon="-5.8318620">
        <ele>182.5</ele>
        <time>2020-01-28T09:02:56Z</time>
      </trkpt>
      <trkpt lat="43.3784650" lon="-5.8318730">
        <ele>182.5</ele>
        <time>2020-01-28T09:02:57Z</time>
      </trkpt>
      <trkpt lat="43.3784520" lon="-5.8318820">
        <ele>182.4</ele>
        <time>2020-01-28T09:02:58Z</time>
      </trkpt>
      <trkpt lat="43.3784390" lon="-5.8318930">
        <ele>182.4</ele>
        <time>2020-01-28T09:02:59Z</time>
      </trkpt>
      <trkpt lat="43.3784250" lon="-5.8319040">
        <ele>182.1</ele>
        <time>2020-01-28T09:03:00Z</time>
      </trkpt>
      <trkpt lat="43.3784120" lon="-5.8319150">
        <ele>182.1</ele>
        <time>2020-01-28T09:03:01Z</time>
      </trkpt>
      <trkpt lat="43.3783990" lon="-5.8319250">
        <ele>182.0</ele>
        <time>2020-01-28T09:03:02Z</time>
      </trkpt>
      <trkpt lat="43.3783870" lon="-5.8319320">
        <ele>182.0</ele>
        <time>2020-01-28T09:03:03Z</time>
      </trkpt>
      <trkpt lat="43.3783750" lon="-5.8319390">
        <ele>181.9</ele>
        <time>2020-01-28T09:03:04Z</time>
      </trkpt>
      <trkpt lat="43.3783610" lon="-5.8319480">
        <ele>181.9</ele>
        <time>2020-01-28T09:03:05Z</time>
      </trkpt>
      <trkpt lat="43.3783470" lon="-5.8319570">
        <ele>181.8</ele>
        <time>2020-01-28T09:03:06Z</time>
      </trkpt>
      <trkpt lat="43.3783340" lon="-5.8319670">
        <ele>181.7</ele>
        <time>2020-01-28T09:03:07Z</time>
      </trkpt>
      <trkpt lat="43.3783210" lon="-5.8319740">
        <ele>181.7</ele>
        <time>2020-01-28T09:03:08Z</time>
      </trkpt>
      <trkpt lat="43.3783080" lon="-5.8319800">
        <ele>181.6</ele>
        <time>2020-01-28T09:03:09Z</time>
      </trkpt>
      <trkpt lat="43.3782940" lon="-5.8319840">
        <ele>181.6</ele>
        <time>2020-01-28T09:03:10Z</time>
      </trkpt>
      <trkpt lat="43.3782810" lon="-5.8319840">
        <ele>181.5</ele>
        <time>2020-01-28T09:03:11Z</time>
      </trkpt>
      <trkpt lat="43.3782600" lon="-5.8319790">
        <ele>181.4</ele>
        <time>2020-01-28T09:03:12Z</time>
      </trkpt>
      <trkpt lat="43.3782520" lon="-5.8319770">
        <ele>181.4</ele>
        <time>2020-01-28T09:03:13Z</time>
      </trkpt>
      <trkpt lat="43.3782440" lon="-5.8319740">
        <ele>181.4</ele>
        <time>2020-01-28T09:03:14Z</time>
      </trkpt>
      <trkpt lat="43.3782320" lon="-5.8319710">
        <ele>181.3</ele>
        <time>2020-01-28T09:03:15Z</time>
      </trkpt>
      <trkpt lat="43.3782270" lon="-5.8319670">
        <ele>181.3</ele>
        <time>2020-01-28T09:03:16Z</time>
      </trkpt>
      <trkpt lat="43.3782220" lon="-5.8319620">
        <ele>181.3</ele>
        <time>2020-01-28T09:03:17Z</time>
      </trkpt>
      <trkpt lat="43.3782160" lon="-5.8319580">
        <ele>181.2</ele>
        <time>2020-01-28T09:03:18Z</time>
      </trkpt>
      <trkpt lat="43.3782040" lon="-5.8319520">
        <ele>181.2</ele>
        <time>2020-01-28T09:03:19Z</time>
      </trkpt>
      <trkpt lat="43.3781890" lon="-5.8319450">
        <ele>181.1</ele>
        <time>2020-01-28T09:03:20Z</time>
      </trkpt>
      <trkpt lat="43.3781750" lon="-5.8319370">
        <ele>181.1</ele>
        <time>2020-01-28T09:03:21Z</time>
      </trkpt>
      <trkpt lat="43.3781600" lon="-5.8319300">
        <ele>181.0</ele>
        <time>2020-01-28T09:03:22Z</time>
      </trkpt>
      <trkpt lat="43.3781440" lon="-5.8319250">
        <ele>181.0</ele>
        <time>2020-01-28T09:03:23Z</time>
      </trkpt>
      <trkpt lat="43.3781290" lon="-5.8319210">
        <ele>180.9</ele>
        <time>2020-01-28T09:03:24Z</time>
      </trkpt>
      <trkpt lat="43.3781200" lon="-5.8319180">
        <ele>180.9</ele>
        <time>2020-01-28T09:03:25Z</time>
      </trkpt>
      <trkpt lat="43.3781100" lon="-5.8319200">
        <ele>180.8</ele>
        <time>2020-01-28T09:03:26Z</time>
      </trkpt>
      <trkpt lat="43.3780970" lon="-5.8319240">
        <ele>180.8</ele>
        <time>2020-01-28T09:03:27Z</time>
      </trkpt>
      <trkpt lat="43.3780780" lon="-5.8319380">
        <ele>180.7</ele>
        <time>2020-01-28T09:03:28Z</time>
      </trkpt>
      <trkpt lat="43.3780680" lon="-5.8319470">
        <ele>180.7</ele>
        <time>2020-01-28T09:03:29Z</time>
      </trkpt>
      <trkpt lat="43.3780580" lon="-5.8319570">
        <ele>180.7</ele>
        <time>2020-01-28T09:03:30Z</time>
      </trkpt>
      <trkpt lat="43.3780390" lon="-5.8319850">
        <ele>180.7</ele>
        <time>2020-01-28T09:03:31Z</time>
      </trkpt>
      <trkpt lat="43.3780320" lon="-5.8319950">
        <ele>180.7</ele>
        <time>2020-01-28T09:03:32Z</time>
      </trkpt>
      <trkpt lat="43.3780090" lon="-5.8320300">
        <ele>180.7</ele>
        <time>2020-01-28T09:03:33Z</time>
      </trkpt>
      <trkpt lat="43.3780010" lon="-5.8320410">
        <ele>180.7</ele>
        <time>2020-01-28T09:03:34Z</time>
      </trkpt>
      <trkpt lat="43.3779820" lon="-5.8320730">
        <ele>180.7</ele>
        <time>2020-01-28T09:03:35Z</time>
      </trkpt>
      <trkpt lat="43.3779760" lon="-5.8320830">
        <ele>180.6</ele>
        <time>2020-01-28T09:03:36Z</time>
      </trkpt>
      <trkpt lat="43.3779650" lon="-5.8321170">
        <ele>180.6</ele>
        <time>2020-01-28T09:03:37Z</time>
      </trkpt>
      <trkpt lat="43.3779610" lon="-5.8321290">
        <ele>180.6</ele>
        <time>2020-01-28T09:03:38Z</time>
      </trkpt>
      <trkpt lat="43.3779550" lon="-5.8321510">
        <ele>180.6</ele>
        <time>2020-01-28T09:03:39Z</time>
      </trkpt>
      <trkpt lat="43.3779500" lon="-5.8321720">
        <ele>180.7</ele>
        <time>2020-01-28T09:03:40Z</time>
      </trkpt>
      <trkpt lat="43.3779450" lon="-5.8321930">
        <ele>180.7</ele>
        <time>2020-01-28T09:03:41Z</time>
      </trkpt>
      <trkpt lat="43.3779400" lon="-5.8322130">
        <ele>180.7</ele>
        <time>2020-01-28T09:03:42Z</time>
      </trkpt>
      <trkpt lat="43.3779350" lon="-5.8322360">
        <ele>180.7</ele>
        <time>2020-01-28T09:03:43Z</time>
      </trkpt>
      <trkpt lat="43.3779310" lon="-5.8322560">
        <ele>180.7</ele>
        <time>2020-01-28T09:03:44Z</time>
      </trkpt>
      <trkpt lat="43.3779260" lon="-5.8322760">
        <ele>180.7</ele>
        <time>2020-01-28T09:03:45Z</time>
      </trkpt>
      <trkpt lat="43.3779210" lon="-5.8322980">
        <ele>180.7</ele>
        <time>2020-01-28T09:03:46Z</time>
      </trkpt>
      <trkpt lat="43.3779150" lon="-5.8323210">
        <ele>180.8</ele>
        <time>2020-01-28T09:03:47Z</time>
      </trkpt>
      <trkpt lat="43.3779090" lon="-5.8323430">
        <ele>180.8</ele>
        <time>2020-01-28T09:03:48Z</time>
      </trkpt>
      <trkpt lat="43.3779040" lon="-5.8323620">
        <ele>180.8</ele>
        <time>2020-01-28T09:03:49Z</time>
      </trkpt>
      <trkpt lat="43.3778990" lon="-5.8323820">
        <ele>180.8</ele>
        <time>2020-01-28T09:03:50Z</time>
      </trkpt>
      <trkpt lat="43.3778940" lon="-5.8324050">
        <ele>180.8</ele>
        <time>2020-01-28T09:03:51Z</time>
      </trkpt>
      <trkpt lat="43.3778890" lon="-5.8324280">
        <ele>180.8</ele>
        <time>2020-01-28T09:03:52Z</time>
      </trkpt>
      <trkpt lat="43.3778840" lon="-5.8324500">
        <ele>180.8</ele>
        <time>2020-01-28T09:03:53Z</time>
      </trkpt>
      <trkpt lat="43.3778790" lon="-5.8324690">
        <ele>180.8</ele>
        <time>2020-01-28T09:03:54Z</time>
      </trkpt>
      <trkpt lat="43.3778750" lon="-5.8324890">
        <ele>180.8</ele>
        <time>2020-01-28T09:03:55Z</time>
      </trkpt>
      <trkpt lat="43.3778700" lon="-5.8325110">
        <ele>180.8</ele>
        <time>2020-01-28T09:03:56Z</time>
      </trkpt>
      <trkpt lat="43.3778640" lon="-5.8325320">
        <ele>180.8</ele>
        <time>2020-01-28T09:03:57Z</time>
      </trkpt>
      <trkpt lat="43.3778580" lon="-5.8325510">
        <ele>180.8</ele>
        <time>2020-01-28T09:03:58Z</time>
      </trkpt>
      <trkpt lat="43.3778530" lon="-5.8325690">
        <ele>180.8</ele>
        <time>2020-01-28T09:03:59Z</time>
      </trkpt>
      <trkpt lat="43.3778490" lon="-5.8325810">
        <ele>180.8</ele>
        <time>2020-01-28T09:04:00Z</time>
      </trkpt>
      <trkpt lat="43.3778450" lon="-5.8325910">
        <ele>180.8</ele>
        <time>2020-01-28T09:04:01Z</time>
      </trkpt>
      <trkpt lat="43.3778380" lon="-5.8326080">
        <ele>180.9</ele>
        <time>2020-01-28T09:04:02Z</time>
      </trkpt>
      <trkpt lat="43.3778300" lon="-5.8326280">
        <ele>180.9</ele>
        <time>2020-01-28T09:04:03Z</time>
      </trkpt>
      <trkpt lat="43.3778220" lon="-5.8326450">
        <ele>180.9</ele>
        <time>2020-01-28T09:04:04Z</time>
      </trkpt>
      <trkpt lat="43.3778150" lon="-5.8326630">
        <ele>180.9</ele>
        <time>2020-01-28T09:04:05Z</time>
      </trkpt>
      <trkpt lat="43.3778080" lon="-5.8326820">
        <ele>180.9</ele>
        <time>2020-01-28T09:04:06Z</time>
      </trkpt>
      <trkpt lat="43.3778010" lon="-5.8326990">
        <ele>180.9</ele>
        <time>2020-01-28T09:04:07Z</time>
      </trkpt>
      <trkpt lat="43.3777920" lon="-5.8327150">
        <ele>180.9</ele>
        <time>2020-01-28T09:04:08Z</time>
      </trkpt>
      <trkpt lat="43.3777820" lon="-5.8327300">
        <ele>180.9</ele>
        <time>2020-01-28T09:04:09Z</time>
      </trkpt>
      <trkpt lat="43.3777710" lon="-5.8327440">
        <ele>180.9</ele>
        <time>2020-01-28T09:04:10Z</time>
      </trkpt>
      <trkpt lat="43.3777560" lon="-5.8327580">
        <ele>180.9</ele>
        <time>2020-01-28T09:04:11Z</time>
      </trkpt>
      <trkpt lat="43.3777420" lon="-5.8327710">
        <ele>181.0</ele>
        <time>2020-01-28T09:04:12Z</time>
      </trkpt>
      <trkpt lat="43.3777290" lon="-5.8327810">
        <ele>181.0</ele>
        <time>2020-01-28T09:04:13Z</time>
      </trkpt>
      <trkpt lat="43.3777160" lon="-5.8327910">
        <ele>181.0</ele>
        <time>2020-01-28T09:04:14Z</time>
      </trkpt>
      <trkpt lat="43.3777030" lon="-5.8328020">
        <ele>181.0</ele>
        <time>2020-01-28T09:04:15Z</time>
      </trkpt>
      <trkpt lat="43.3776900" lon="-5.8328140">
        <ele>181.0</ele>
        <time>2020-01-28T09:04:16Z</time>
      </trkpt>
      <trkpt lat="43.3776780" lon="-5.8328220">
        <ele>181.1</ele>
        <time>2020-01-28T09:04:17Z</time>
      </trkpt>
      <trkpt lat="43.3776660" lon="-5.8328320">
        <ele>181.1</ele>
        <time>2020-01-28T09:04:18Z</time>
      </trkpt>
      <trkpt lat="43.3776520" lon="-5.8328420">
        <ele>181.1</ele>
        <time>2020-01-28T09:04:19Z</time>
      </trkpt>
      <trkpt lat="43.3776390" lon="-5.8328530">
        <ele>181.1</ele>
        <time>2020-01-28T09:04:20Z</time>
      </trkpt>
      <trkpt lat="43.3776260" lon="-5.8328640">
        <ele>181.1</ele>
        <time>2020-01-28T09:04:21Z</time>
      </trkpt>
      <trkpt lat="43.3776150" lon="-5.8328750">
        <ele>181.1</ele>
        <time>2020-01-28T09:04:22Z</time>
      </trkpt>
      <trkpt lat="43.3776040" lon="-5.8328870">
        <ele>181.1</ele>
        <time>2020-01-28T09:04:23Z</time>
      </trkpt>
      <trkpt lat="43.3775920" lon="-5.8329030">
        <ele>181.2</ele>
        <time>2020-01-28T09:04:24Z</time>
      </trkpt>
      <trkpt lat="43.3775810" lon="-5.8329180">
        <ele>181.2</ele>
        <time>2020-01-28T09:04:25Z</time>
      </trkpt>
      <trkpt lat="43.3775680" lon="-5.8329320">
        <ele>181.2</ele>
        <time>2020-01-28T09:04:26Z</time>
      </trkpt>
      <trkpt lat="43.3775570" lon="-5.8329440">
        <ele>181.2</ele>
        <time>2020-01-28T09:04:27Z</time>
      </trkpt>
      <trkpt lat="43.3775450" lon="-5.8329550">
        <ele>181.2</ele>
        <time>2020-01-28T09:04:28Z</time>
      </trkpt>
      <trkpt lat="43.3775330" lon="-5.8329660">
        <ele>181.2</ele>
        <time>2020-01-28T09:04:29Z</time>
      </trkpt>
      <trkpt lat="43.3775200" lon="-5.8329770">
        <ele>181.2</ele>
        <time>2020-01-28T09:04:30Z</time>
      </trkpt>
      <trkpt lat="43.3775070" lon="-5.8329880">
        <ele>181.3</ele>
        <time>2020-01-28T09:04:31Z</time>
      </trkpt>
      <trkpt lat="43.3774940" lon="-5.8330000">
        <ele>181.3</ele>
        <time>2020-01-28T09:04:32Z</time>
      </trkpt>
      <trkpt lat="43.3774830" lon="-5.8330140">
        <ele>181.3</ele>
        <time>2020-01-28T09:04:33Z</time>
      </trkpt>
      <trkpt lat="43.3774730" lon="-5.8330290">
        <ele>181.3</ele>
        <time>2020-01-28T09:04:34Z</time>
      </trkpt>
      <trkpt lat="43.3774650" lon="-5.8330420">
        <ele>181.3</ele>
        <time>2020-01-28T09:04:35Z</time>
      </trkpt>
      <trkpt lat="43.3774570" lon="-5.8330530">
        <ele>181.3</ele>
        <time>2020-01-28T09:04:36Z</time>
      </trkpt>
      <trkpt lat="43.3774480" lon="-5.8330640">
        <ele>181.3</ele>
        <time>2020-01-28T09:04:37Z</time>
      </trkpt>
      <trkpt lat="43.3774380" lon="-5.8330740">
        <ele>181.4</ele>
        <time>2020-01-28T09:04:38Z</time>
      </trkpt>
      <trkpt lat="43.3774260" lon="-5.8330840">
        <ele>181.4</ele>
        <time>2020-01-28T09:04:39Z</time>
      </trkpt>
      <trkpt lat="43.3774140" lon="-5.8330920">
        <ele>181.4</ele>
        <time>2020-01-28T09:04:40Z</time>
      </trkpt>
      <trkpt lat="43.3774010" lon="-5.8330990">
        <ele>181.4</ele>
        <time>2020-01-28T09:04:41Z</time>
      </trkpt>
      <trkpt lat="43.3773870" lon="-5.8331080">
        <ele>181.4</ele>
        <time>2020-01-28T09:04:42Z</time>
      </trkpt>
      <trkpt lat="43.3773730" lon="-5.8331160">
        <ele>181.4</ele>
        <time>2020-01-28T09:04:43Z</time>
      </trkpt>
      <trkpt lat="43.3773600" lon="-5.8331250">
        <ele>181.4</ele>
        <time>2020-01-28T09:04:44Z</time>
      </trkpt>
      <trkpt lat="43.3773480" lon="-5.8331340">
        <ele>181.5</ele>
        <time>2020-01-28T09:04:45Z</time>
      </trkpt>
      <trkpt lat="43.3773360" lon="-5.8331450">
        <ele>181.5</ele>
        <time>2020-01-28T09:04:46Z</time>
      </trkpt>
      <trkpt lat="43.3773210" lon="-5.8331560">
        <ele>181.5</ele>
        <time>2020-01-28T09:04:47Z</time>
      </trkpt>
      <trkpt lat="43.3773070" lon="-5.8331650">
        <ele>181.5</ele>
        <time>2020-01-28T09:04:48Z</time>
      </trkpt>
      <trkpt lat="43.3772930" lon="-5.8331730">
        <ele>181.6</ele>
        <time>2020-01-28T09:04:49Z</time>
      </trkpt>
      <trkpt lat="43.3772800" lon="-5.8331790">
        <ele>181.6</ele>
        <time>2020-01-28T09:04:50Z</time>
      </trkpt>
      <trkpt lat="43.3772670" lon="-5.8331870">
        <ele>181.6</ele>
        <time>2020-01-28T09:04:51Z</time>
      </trkpt>
      <trkpt lat="43.3772520" lon="-5.8331970">
        <ele>181.6</ele>
        <time>2020-01-28T09:04:52Z</time>
      </trkpt>
      <trkpt lat="43.3772380" lon="-5.8332090">
        <ele>181.6</ele>
        <time>2020-01-28T09:04:53Z</time>
      </trkpt>
      <trkpt lat="43.3772240" lon="-5.8332200">
        <ele>181.6</ele>
        <time>2020-01-28T09:04:54Z</time>
      </trkpt>
      <trkpt lat="43.3772110" lon="-5.8332300">
        <ele>181.7</ele>
        <time>2020-01-28T09:04:55Z</time>
      </trkpt>
      <trkpt lat="43.3771980" lon="-5.8332410">
        <ele>181.7</ele>
        <time>2020-01-28T09:04:56Z</time>
      </trkpt>
      <trkpt lat="43.3771830" lon="-5.8332520">
        <ele>181.7</ele>
        <time>2020-01-28T09:04:57Z</time>
      </trkpt>
      <trkpt lat="43.3771700" lon="-5.8332600">
        <ele>181.7</ele>
        <time>2020-01-28T09:04:58Z</time>
      </trkpt>
      <trkpt lat="43.3771550" lon="-5.8332670">
        <ele>181.7</ele>
        <time>2020-01-28T09:04:59Z</time>
      </trkpt>
      <trkpt lat="43.3771410" lon="-5.8332730">
        <ele>181.7</ele>
        <time>2020-01-28T09:05:00Z</time>
      </trkpt>
      <trkpt lat="43.3771270" lon="-5.8332800">
        <ele>181.8</ele>
        <time>2020-01-28T09:05:01Z</time>
      </trkpt>
      <trkpt lat="43.3771110" lon="-5.8332880">
        <ele>181.8</ele>
        <time>2020-01-28T09:05:02Z</time>
      </trkpt>
      <trkpt lat="43.3770970" lon="-5.8332960">
        <ele>181.8</ele>
        <time>2020-01-28T09:05:03Z</time>
      </trkpt>
      <trkpt lat="43.3770820" lon="-5.8333050">
        <ele>181.8</ele>
        <time>2020-01-28T09:05:04Z</time>
      </trkpt>
      <trkpt lat="43.3770650" lon="-5.8333140">
        <ele>181.8</ele>
        <time>2020-01-28T09:05:05Z</time>
      </trkpt>
      <trkpt lat="43.3770510" lon="-5.8333230">
        <ele>181.8</ele>
        <time>2020-01-28T09:05:06Z</time>
      </trkpt>
      <trkpt lat="43.3770410" lon="-5.8333290">
        <ele>181.8</ele>
        <time>2020-01-28T09:05:07Z</time>
      </trkpt>
      <trkpt lat="43.3770360" lon="-5.8333340">
        <ele>181.8</ele>
        <time>2020-01-28T09:05:08Z</time>
      </trkpt>
      <trkpt lat="43.3770320" lon="-5.8333370">
        <ele>181.8</ele>
        <time>2020-01-28T09:05:09Z</time>
      </trkpt>
      <trkpt lat="43.3770320" lon="-5.8333370">
        <ele>181.8</ele>
        <time>2020-01-28T09:05:10Z</time>
      </trkpt>
      <trkpt lat="43.3770320" lon="-5.8333370">
        <ele>181.8</ele>
        <time>2020-01-28T09:05:11Z</time>
      </trkpt>
      <trkpt lat="43.3770320" lon="-5.8333370">
        <ele>181.8</ele>
        <time>2020-01-28T09:05:12Z</time>
      </trkpt>
      <trkpt lat="43.3770320" lon="-5.8333370">
        <ele>181.8</ele>
        <time>2020-01-28T09:05:13Z</time>
      </trkpt>
      <trkpt lat="43.3770230" lon="-5.8333330">
        <ele>181.8</ele>
        <time>2020-01-28T09:05:14Z</time>
      </trkpt>
      <trkpt lat="43.3770130" lon="-5.8333390">
        <ele>181.8</ele>
        <time>2020-01-28T09:05:15Z</time>
      </trkpt>
      <trkpt lat="43.3770030" lon="-5.8333510">
        <ele>181.8</ele>
        <time>2020-01-28T09:05:16Z</time>
      </trkpt>
      <trkpt lat="43.3769950" lon="-5.8333640">
        <ele>181.8</ele>
        <time>2020-01-28T09:05:17Z</time>
      </trkpt>
      <trkpt lat="43.3769870" lon="-5.8333760">
        <ele>181.8</ele>
        <time>2020-01-28T09:05:18Z</time>
      </trkpt>
      <trkpt lat="43.3769780" lon="-5.8333870">
        <ele>181.8</ele>
        <time>2020-01-28T09:05:19Z</time>
      </trkpt>
      <trkpt lat="43.3769690" lon="-5.8333960">
        <ele>181.8</ele>
        <time>2020-01-28T09:05:20Z</time>
      </trkpt>
      <trkpt lat="43.3769580" lon="-5.8334040">
        <ele>181.8</ele>
        <time>2020-01-28T09:05:21Z</time>
      </trkpt>
      <trkpt lat="43.3769440" lon="-5.8334110">
        <ele>181.9</ele>
        <time>2020-01-28T09:05:22Z</time>
      </trkpt>
      <trkpt lat="43.3769310" lon="-5.8334190">
        <ele>181.9</ele>
        <time>2020-01-28T09:05:23Z</time>
      </trkpt>
      <trkpt lat="43.3769200" lon="-5.8334260">
        <ele>181.9</ele>
        <time>2020-01-28T09:05:24Z</time>
      </trkpt>
      <trkpt lat="43.3769110" lon="-5.8334310">
        <ele>181.9</ele>
        <time>2020-01-28T09:05:25Z</time>
      </trkpt>
      <trkpt lat="43.3769020" lon="-5.8334360">
        <ele>181.9</ele>
        <time>2020-01-28T09:05:26Z</time>
      </trkpt>
      <trkpt lat="43.3768900" lon="-5.8334430">
        <ele>181.9</ele>
        <time>2020-01-28T09:05:27Z</time>
      </trkpt>
      <trkpt lat="43.3768780" lon="-5.8334500">
        <ele>181.9</ele>
        <time>2020-01-28T09:05:28Z</time>
      </trkpt>
      <trkpt lat="43.3768600" lon="-5.8334650">
        <ele>181.9</ele>
        <time>2020-01-28T09:05:29Z</time>
      </trkpt>
      <trkpt lat="43.3768520" lon="-5.8334700">
        <ele>181.9</ele>
        <time>2020-01-28T09:05:30Z</time>
      </trkpt>
      <trkpt lat="43.3768450" lon="-5.8334750">
        <ele>181.9</ele>
        <time>2020-01-28T09:05:31Z</time>
      </trkpt>
      <trkpt lat="43.3768250" lon="-5.8334810">
        <ele>181.9</ele>
        <time>2020-01-28T09:05:32Z</time>
      </trkpt>
      <trkpt lat="43.3768160" lon="-5.8334820">
        <ele>181.9</ele>
        <time>2020-01-28T09:05:33Z</time>
      </trkpt>
      <trkpt lat="43.3768070" lon="-5.8334840">
        <ele>181.9</ele>
        <time>2020-01-28T09:05:34Z</time>
      </trkpt>
      <trkpt lat="43.3767840" lon="-5.8334860">
        <ele>181.8</ele>
        <time>2020-01-28T09:05:35Z</time>
      </trkpt>
      <trkpt lat="43.3767760" lon="-5.8334870">
        <ele>181.8</ele>
        <time>2020-01-28T09:05:36Z</time>
      </trkpt>
      <trkpt lat="43.3767670" lon="-5.8334880">
        <ele>181.8</ele>
        <time>2020-01-28T09:05:37Z</time>
      </trkpt>
      <trkpt lat="43.3767520" lon="-5.8334920">
        <ele>181.8</ele>
        <time>2020-01-28T09:05:38Z</time>
      </trkpt>
      <trkpt lat="43.3767380" lon="-5.8334960">
        <ele>181.8</ele>
        <time>2020-01-28T09:05:39Z</time>
      </trkpt>
      <trkpt lat="43.3767170" lon="-5.8335050">
        <ele>181.8</ele>
        <time>2020-01-28T09:05:40Z</time>
      </trkpt>
      <trkpt lat="43.3767100" lon="-5.8335100">
        <ele>181.8</ele>
        <time>2020-01-28T09:05:41Z</time>
      </trkpt>
      <trkpt lat="43.3767020" lon="-5.8335140">
        <ele>181.8</ele>
        <time>2020-01-28T09:05:42Z</time>
      </trkpt>
      <trkpt lat="43.3766840" lon="-5.8335310">
        <ele>181.8</ele>
        <time>2020-01-28T09:05:43Z</time>
      </trkpt>
      <trkpt lat="43.3766780" lon="-5.8335370">
        <ele>181.8</ele>
        <time>2020-01-28T09:05:44Z</time>
      </trkpt>
      <trkpt lat="43.3766710" lon="-5.8335440">
        <ele>181.8</ele>
        <time>2020-01-28T09:05:45Z</time>
      </trkpt>
      <trkpt lat="43.3766610" lon="-5.8335510">
        <ele>181.8</ele>
        <time>2020-01-28T09:05:46Z</time>
      </trkpt>
      <trkpt lat="43.3766520" lon="-5.8335570">
        <ele>181.8</ele>
        <time>2020-01-28T09:05:47Z</time>
      </trkpt>
      <trkpt lat="43.3766440" lon="-5.8335650">
        <ele>181.8</ele>
        <time>2020-01-28T09:05:48Z</time>
      </trkpt>
      <trkpt lat="43.3766380" lon="-5.8335730">
        <ele>181.8</ele>
        <time>2020-01-28T09:05:49Z</time>
      </trkpt>
      <trkpt lat="43.3766350" lon="-5.8335790">
        <ele>181.8</ele>
        <time>2020-01-28T09:05:50Z</time>
      </trkpt>
      <trkpt lat="43.3766350" lon="-5.8335790">
        <ele>181.8</ele>
        <time>2020-01-28T09:05:51Z</time>
      </trkpt>
      <trkpt lat="43.3766350" lon="-5.8335790">
        <ele>181.8</ele>
        <time>2020-01-28T09:05:52Z</time>
      </trkpt>
      <trkpt lat="43.3766350" lon="-5.8335790">
        <ele>181.8</ele>
        <time>2020-01-28T09:05:53Z</time>
      </trkpt>
      <trkpt lat="43.3766270" lon="-5.8335840">
        <ele>181.8</ele>
        <time>2020-01-28T09:05:54Z</time>
      </trkpt>
      <trkpt lat="43.3766240" lon="-5.8335870">
        <ele>181.8</ele>
        <time>2020-01-28T09:05:55Z</time>
      </trkpt>
      <trkpt lat="43.3766200" lon="-5.8335920">
        <ele>181.8</ele>
        <time>2020-01-28T09:05:56Z</time>
      </trkpt>
      <trkpt lat="43.3766140" lon="-5.8336050">
        <ele>181.7</ele>
        <time>2020-01-28T09:05:57Z</time>
      </trkpt>
      <trkpt lat="43.3766120" lon="-5.8336150">
        <ele>181.7</ele>
        <time>2020-01-28T09:05:58Z</time>
      </trkpt>
      <trkpt lat="43.3766090" lon="-5.8336290">
        <ele>181.7</ele>
        <time>2020-01-28T09:05:59Z</time>
      </trkpt>
      <trkpt lat="43.3766080" lon="-5.8336480">
        <ele>181.8</ele>
        <time>2020-01-28T09:06:00Z</time>
      </trkpt>
      <trkpt lat="43.3766080" lon="-5.8336750">
        <ele>181.9</ele>
        <time>2020-01-28T09:06:01Z</time>
      </trkpt>
      <trkpt lat="43.3766090" lon="-5.8337150">
        <ele>181.9</ele>
        <time>2020-01-28T09:06:02Z</time>
      </trkpt>
      <trkpt lat="43.3766100" lon="-5.8337270">
        <ele>181.9</ele>
        <time>2020-01-28T09:06:03Z</time>
      </trkpt>
      <trkpt lat="43.3766120" lon="-5.8337480">
        <ele>181.9</ele>
        <time>2020-01-28T09:06:04Z</time>
      </trkpt>
      <trkpt lat="43.3766160" lon="-5.8337650">
        <ele>181.9</ele>
        <time>2020-01-28T09:06:05Z</time>
      </trkpt>
      <trkpt lat="43.3766180" lon="-5.8337760">
        <ele>182.0</ele>
        <time>2020-01-28T09:06:06Z</time>
      </trkpt>
      <trkpt lat="43.3766180" lon="-5.8337840">
        <ele>182.0</ele>
        <time>2020-01-28T09:06:07Z</time>
      </trkpt>
      <trkpt lat="43.3766170" lon="-5.8337950">
        <ele>182.0</ele>
        <time>2020-01-28T09:06:08Z</time>
      </trkpt>
      <trkpt lat="43.3766200" lon="-5.8338080">
        <ele>182.0</ele>
        <time>2020-01-28T09:06:09Z</time>
      </trkpt>
      <trkpt lat="43.3766230" lon="-5.8338260">
        <ele>182.0</ele>
        <time>2020-01-28T09:06:10Z</time>
      </trkpt>
      <trkpt lat="43.3766250" lon="-5.8338460">
        <ele>182.2</ele>
        <time>2020-01-28T09:06:11Z</time>
      </trkpt>
      <trkpt lat="43.3766170" lon="-5.8338740">
        <ele>182.3</ele>
        <time>2020-01-28T09:06:12Z</time>
      </trkpt>
      <trkpt lat="43.3766120" lon="-5.8338850">
        <ele>182.3</ele>
        <time>2020-01-28T09:06:13Z</time>
      </trkpt>
      <trkpt lat="43.3766070" lon="-5.8338970">
        <ele>182.4</ele>
        <time>2020-01-28T09:06:14Z</time>
      </trkpt>
      <trkpt lat="43.3765970" lon="-5.8339120">
        <ele>182.4</ele>
        <time>2020-01-28T09:06:15Z</time>
      </trkpt>
      <trkpt lat="43.3765860" lon="-5.8339230">
        <ele>182.5</ele>
        <time>2020-01-28T09:06:16Z</time>
      </trkpt>
      <trkpt lat="43.3765740" lon="-5.8339320">
        <ele>182.6</ele>
        <time>2020-01-28T09:06:17Z</time>
      </trkpt>
      <trkpt lat="43.3765610" lon="-5.8339400">
        <ele>182.6</ele>
        <time>2020-01-28T09:06:18Z</time>
      </trkpt>
      <trkpt lat="43.3765420" lon="-5.8339520">
        <ele>182.7</ele>
        <time>2020-01-28T09:06:19Z</time>
      </trkpt>
      <trkpt lat="43.3765350" lon="-5.8339570">
        <ele>182.8</ele>
        <time>2020-01-28T09:06:20Z</time>
      </trkpt>
      <trkpt lat="43.3765270" lon="-5.8339620">
        <ele>182.8</ele>
        <time>2020-01-28T09:06:21Z</time>
      </trkpt>
      <trkpt lat="43.3765090" lon="-5.8339750">
        <ele>183.0</ele>
        <time>2020-01-28T09:06:22Z</time>
      </trkpt>
      <trkpt lat="43.3765020" lon="-5.8339810">
        <ele>183.0</ele>
        <time>2020-01-28T09:06:23Z</time>
      </trkpt>
      <trkpt lat="43.3764950" lon="-5.8339870">
        <ele>183.1</ele>
        <time>2020-01-28T09:06:24Z</time>
      </trkpt>
      <trkpt lat="43.3764740" lon="-5.8339950">
        <ele>183.3</ele>
        <time>2020-01-28T09:06:25Z</time>
      </trkpt>
      <trkpt lat="43.3764640" lon="-5.8339950">
        <ele>183.4</ele>
        <time>2020-01-28T09:06:26Z</time>
      </trkpt>
      <trkpt lat="43.3764550" lon="-5.8339950">
        <ele>183.4</ele>
        <time>2020-01-28T09:06:27Z</time>
      </trkpt>
      <trkpt lat="43.3764400" lon="-5.8339960">
        <ele>183.5</ele>
        <time>2020-01-28T09:06:28Z</time>
      </trkpt>
      <trkpt lat="43.3764270" lon="-5.8340030">
        <ele>183.6</ele>
        <time>2020-01-28T09:06:29Z</time>
      </trkpt>
      <trkpt lat="43.3764180" lon="-5.8340130">
        <ele>183.7</ele>
        <time>2020-01-28T09:06:30Z</time>
      </trkpt>
      <trkpt lat="43.3764130" lon="-5.8340210">
        <ele>183.8</ele>
        <time>2020-01-28T09:06:31Z</time>
      </trkpt>
      <trkpt lat="43.3764060" lon="-5.8340340">
        <ele>183.9</ele>
        <time>2020-01-28T09:06:32Z</time>
      </trkpt>
      <trkpt lat="43.3763930" lon="-5.8340580">
        <ele>184.0</ele>
        <time>2020-01-28T09:06:33Z</time>
      </trkpt>
      <trkpt lat="43.3763880" lon="-5.8340690">
        <ele>184.1</ele>
        <time>2020-01-28T09:06:34Z</time>
      </trkpt>
      <trkpt lat="43.3763820" lon="-5.8340800">
        <ele>184.2</ele>
        <time>2020-01-28T09:06:35Z</time>
      </trkpt>
      <trkpt lat="43.3763710" lon="-5.8340970">
        <ele>184.3</ele>
        <time>2020-01-28T09:06:36Z</time>
      </trkpt>
      <trkpt lat="43.3763600" lon="-5.8341150">
        <ele>184.4</ele>
        <time>2020-01-28T09:06:37Z</time>
      </trkpt>
      <trkpt lat="43.3763440" lon="-5.8341450">
        <ele>184.7</ele>
        <time>2020-01-28T09:06:38Z</time>
      </trkpt>
      <trkpt lat="43.3763380" lon="-5.8341560">
        <ele>184.7</ele>
        <time>2020-01-28T09:06:39Z</time>
      </trkpt>
      <trkpt lat="43.3763290" lon="-5.8341780">
        <ele>184.9</ele>
        <time>2020-01-28T09:06:40Z</time>
      </trkpt>
      <trkpt lat="43.3763170" lon="-5.8341960">
        <ele>185.0</ele>
        <time>2020-01-28T09:06:41Z</time>
      </trkpt>
      <trkpt lat="43.3763060" lon="-5.8342110">
        <ele>185.1</ele>
        <time>2020-01-28T09:06:42Z</time>
      </trkpt>
      <trkpt lat="43.3762950" lon="-5.8342270">
        <ele>185.2</ele>
        <time>2020-01-28T09:06:43Z</time>
      </trkpt>
      <trkpt lat="43.3762840" lon="-5.8342410">
        <ele>185.4</ele>
        <time>2020-01-28T09:06:44Z</time>
      </trkpt>
      <trkpt lat="43.3762730" lon="-5.8342510">
        <ele>185.5</ele>
        <time>2020-01-28T09:06:45Z</time>
      </trkpt>
      <trkpt lat="43.3762640" lon="-5.8342570">
        <ele>185.5</ele>
        <time>2020-01-28T09:06:46Z</time>
      </trkpt>
      <trkpt lat="43.3762550" lon="-5.8342620">
        <ele>185.6</ele>
        <time>2020-01-28T09:06:47Z</time>
      </trkpt>
      <trkpt lat="43.3762450" lon="-5.8342680">
        <ele>185.7</ele>
        <time>2020-01-28T09:06:48Z</time>
      </trkpt>
      <trkpt lat="43.3762350" lon="-5.8342730">
        <ele>185.8</ele>
        <time>2020-01-28T09:06:49Z</time>
      </trkpt>
      <trkpt lat="43.3762230" lon="-5.8342760">
        <ele>185.9</ele>
        <time>2020-01-28T09:06:50Z</time>
      </trkpt>
      <trkpt lat="43.3762110" lon="-5.8342810">
        <ele>186.0</ele>
        <time>2020-01-28T09:06:51Z</time>
      </trkpt>
      <trkpt lat="43.3761970" lon="-5.8342900">
        <ele>186.1</ele>
        <time>2020-01-28T09:06:52Z</time>
      </trkpt>
      <trkpt lat="43.3761840" lon="-5.8343010">
        <ele>186.2</ele>
        <time>2020-01-28T09:06:53Z</time>
      </trkpt>
      <trkpt lat="43.3761710" lon="-5.8343110">
        <ele>186.3</ele>
        <time>2020-01-28T09:06:54Z</time>
      </trkpt>
      <trkpt lat="43.3761600" lon="-5.8343210">
        <ele>186.4</ele>
        <time>2020-01-28T09:06:55Z</time>
      </trkpt>
      <trkpt lat="43.3761490" lon="-5.8343350">
        <ele>186.5</ele>
        <time>2020-01-28T09:06:56Z</time>
      </trkpt>
      <trkpt lat="43.3761380" lon="-5.8343480">
        <ele>186.7</ele>
        <time>2020-01-28T09:06:57Z</time>
      </trkpt>
      <trkpt lat="43.3761270" lon="-5.8343640">
        <ele>186.9</ele>
        <time>2020-01-28T09:06:58Z</time>
      </trkpt>
      <trkpt lat="43.3761160" lon="-5.8343820">
        <ele>187.1</ele>
        <time>2020-01-28T09:06:59Z</time>
      </trkpt>
      <trkpt lat="43.3761040" lon="-5.8343950">
        <ele>187.3</ele>
        <time>2020-01-28T09:07:00Z</time>
      </trkpt>
      <trkpt lat="43.3760920" lon="-5.8344060">
        <ele>187.5</ele>
        <time>2020-01-28T09:07:01Z</time>
      </trkpt>
      <trkpt lat="43.3760790" lon="-5.8344160">
        <ele>187.7</ele>
        <time>2020-01-28T09:07:02Z</time>
      </trkpt>
      <trkpt lat="43.3760650" lon="-5.8344290">
        <ele>187.9</ele>
        <time>2020-01-28T09:07:03Z</time>
      </trkpt>
      <trkpt lat="43.3760540" lon="-5.8344410">
        <ele>188.1</ele>
        <time>2020-01-28T09:07:04Z</time>
      </trkpt>
      <trkpt lat="43.3760440" lon="-5.8344550">
        <ele>188.3</ele>
        <time>2020-01-28T09:07:05Z</time>
      </trkpt>
      <trkpt lat="43.3760330" lon="-5.8344670">
        <ele>188.5</ele>
        <time>2020-01-28T09:07:06Z</time>
      </trkpt>
      <trkpt lat="43.3760220" lon="-5.8344830">
        <ele>188.7</ele>
        <time>2020-01-28T09:07:07Z</time>
      </trkpt>
      <trkpt lat="43.3760110" lon="-5.8344980">
        <ele>188.9</ele>
        <time>2020-01-28T09:07:08Z</time>
      </trkpt>
      <trkpt lat="43.3760020" lon="-5.8345110">
        <ele>189.1</ele>
        <time>2020-01-28T09:07:09Z</time>
      </trkpt>
      <trkpt lat="43.3759930" lon="-5.8345290">
        <ele>189.3</ele>
        <time>2020-01-28T09:07:10Z</time>
      </trkpt>
      <trkpt lat="43.3759850" lon="-5.8345450">
        <ele>189.4</ele>
        <time>2020-01-28T09:07:11Z</time>
      </trkpt>
      <trkpt lat="43.3759750" lon="-5.8345630">
        <ele>189.6</ele>
        <time>2020-01-28T09:07:12Z</time>
      </trkpt>
      <trkpt lat="43.3759660" lon="-5.8345820">
        <ele>189.8</ele>
        <time>2020-01-28T09:07:13Z</time>
      </trkpt>
      <trkpt lat="43.3759590" lon="-5.8346000">
        <ele>190.0</ele>
        <time>2020-01-28T09:07:14Z</time>
      </trkpt>
      <trkpt lat="43.3759500" lon="-5.8346170">
        <ele>190.2</ele>
        <time>2020-01-28T09:07:15Z</time>
      </trkpt>
      <trkpt lat="43.3759410" lon="-5.8346310">
        <ele>190.4</ele>
        <time>2020-01-28T09:07:16Z</time>
      </trkpt>
      <trkpt lat="43.3759330" lon="-5.8346420">
        <ele>190.5</ele>
        <time>2020-01-28T09:07:17Z</time>
      </trkpt>
      <trkpt lat="43.3759230" lon="-5.8346490">
        <ele>190.6</ele>
        <time>2020-01-28T09:07:18Z</time>
      </trkpt>
      <trkpt lat="43.3759070" lon="-5.8346660">
        <ele>190.9</ele>
        <time>2020-01-28T09:07:19Z</time>
      </trkpt>
      <trkpt lat="43.3758990" lon="-5.8346730">
        <ele>191.0</ele>
        <time>2020-01-28T09:07:20Z</time>
      </trkpt>
      <trkpt lat="43.3758920" lon="-5.8346810">
        <ele>191.1</ele>
        <time>2020-01-28T09:07:21Z</time>
      </trkpt>
      <trkpt lat="43.3758840" lon="-5.8346900">
        <ele>191.3</ele>
        <time>2020-01-28T09:07:22Z</time>
      </trkpt>
      <trkpt lat="43.3758750" lon="-5.8347000">
        <ele>191.4</ele>
        <time>2020-01-28T09:07:23Z</time>
      </trkpt>
      <trkpt lat="43.3758650" lon="-5.8347100">
        <ele>191.6</ele>
        <time>2020-01-28T09:07:24Z</time>
      </trkpt>
      <trkpt lat="43.3758540" lon="-5.8347200">
        <ele>191.7</ele>
        <time>2020-01-28T09:07:25Z</time>
      </trkpt>
      <trkpt lat="43.3758460" lon="-5.8347270">
        <ele>191.9</ele>
        <time>2020-01-28T09:07:26Z</time>
      </trkpt>
      <trkpt lat="43.3758410" lon="-5.8347360">
        <ele>192.0</ele>
        <time>2020-01-28T09:07:27Z</time>
      </trkpt>
      <trkpt lat="43.3758330" lon="-5.8347470">
        <ele>192.1</ele>
        <time>2020-01-28T09:07:28Z</time>
      </trkpt>
      <trkpt lat="43.3758210" lon="-5.8347640">
        <ele>192.4</ele>
        <time>2020-01-28T09:07:29Z</time>
      </trkpt>
      <trkpt lat="43.3758080" lon="-5.8347790">
        <ele>192.6</ele>
        <time>2020-01-28T09:07:30Z</time>
      </trkpt>
      <trkpt lat="43.3757960" lon="-5.8347930">
        <ele>192.7</ele>
        <time>2020-01-28T09:07:31Z</time>
      </trkpt>
      <trkpt lat="43.3757830" lon="-5.8348060">
        <ele>192.9</ele>
        <time>2020-01-28T09:07:32Z</time>
      </trkpt>
      <trkpt lat="43.3757700" lon="-5.8348160">
        <ele>193.1</ele>
        <time>2020-01-28T09:07:33Z</time>
      </trkpt>
      <trkpt lat="43.3757570" lon="-5.8348250">
        <ele>193.3</ele>
        <time>2020-01-28T09:07:34Z</time>
      </trkpt>
      <trkpt lat="43.3757400" lon="-5.8348400">
        <ele>193.5</ele>
        <time>2020-01-28T09:07:35Z</time>
      </trkpt>
      <trkpt lat="43.3757230" lon="-5.8348500">
        <ele>193.7</ele>
        <time>2020-01-28T09:07:36Z</time>
      </trkpt>
      <trkpt lat="43.3757110" lon="-5.8348540">
        <ele>193.9</ele>
        <time>2020-01-28T09:07:37Z</time>
      </trkpt>
      <trkpt lat="43.3756900" lon="-5.8348630">
        <ele>194.1</ele>
        <time>2020-01-28T09:07:38Z</time>
      </trkpt>
      <trkpt lat="43.3756810" lon="-5.8348700">
        <ele>194.3</ele>
        <time>2020-01-28T09:07:39Z</time>
      </trkpt>
      <trkpt lat="43.3756720" lon="-5.8348760">
        <ele>194.4</ele>
        <time>2020-01-28T09:07:40Z</time>
      </trkpt>
      <trkpt lat="43.3756590" lon="-5.8348910">
        <ele>194.6</ele>
        <time>2020-01-28T09:07:41Z</time>
      </trkpt>
      <trkpt lat="43.3756470" lon="-5.8349030">
        <ele>194.8</ele>
        <time>2020-01-28T09:07:42Z</time>
      </trkpt>
      <trkpt lat="43.3756350" lon="-5.8349130">
        <ele>195.0</ele>
        <time>2020-01-28T09:07:43Z</time>
      </trkpt>
      <trkpt lat="43.3756220" lon="-5.8349230">
        <ele>195.2</ele>
        <time>2020-01-28T09:07:44Z</time>
      </trkpt>
      <trkpt lat="43.3756080" lon="-5.8349320">
        <ele>195.4</ele>
        <time>2020-01-28T09:07:45Z</time>
      </trkpt>
      <trkpt lat="43.3755940" lon="-5.8349420">
        <ele>195.6</ele>
        <time>2020-01-28T09:07:46Z</time>
      </trkpt>
      <trkpt lat="43.3755830" lon="-5.8349560">
        <ele>195.7</ele>
        <time>2020-01-28T09:07:47Z</time>
      </trkpt>
      <trkpt lat="43.3755720" lon="-5.8349680">
        <ele>195.9</ele>
        <time>2020-01-28T09:07:48Z</time>
      </trkpt>
      <trkpt lat="43.3755550" lon="-5.8349870">
        <ele>196.2</ele>
        <time>2020-01-28T09:07:49Z</time>
      </trkpt>
      <trkpt lat="43.3755500" lon="-5.8349940">
        <ele>196.2</ele>
        <time>2020-01-28T09:07:50Z</time>
      </trkpt>
      <trkpt lat="43.3755440" lon="-5.8350010">
        <ele>196.3</ele>
        <time>2020-01-28T09:07:51Z</time>
      </trkpt>
      <trkpt lat="43.3755340" lon="-5.8350140">
        <ele>196.5</ele>
        <time>2020-01-28T09:07:52Z</time>
      </trkpt>
      <trkpt lat="43.3755230" lon="-5.8350290">
        <ele>196.7</ele>
        <time>2020-01-28T09:07:53Z</time>
      </trkpt>
      <trkpt lat="43.3755060" lon="-5.8350470">
        <ele>196.9</ele>
        <time>2020-01-28T09:07:54Z</time>
      </trkpt>
      <trkpt lat="43.3754990" lon="-5.8350530">
        <ele>197.0</ele>
        <time>2020-01-28T09:07:55Z</time>
      </trkpt>
      <trkpt lat="43.3754930" lon="-5.8350590">
        <ele>197.1</ele>
        <time>2020-01-28T09:07:56Z</time>
      </trkpt>
      <trkpt lat="43.3754850" lon="-5.8350630">
        <ele>197.2</ele>
        <time>2020-01-28T09:07:57Z</time>
      </trkpt>
      <trkpt lat="43.3754750" lon="-5.8350690">
        <ele>197.3</ele>
        <time>2020-01-28T09:07:58Z</time>
      </trkpt>
      <trkpt lat="43.3754630" lon="-5.8350740">
        <ele>197.5</ele>
        <time>2020-01-28T09:07:59Z</time>
      </trkpt>
      <trkpt lat="43.3754510" lon="-5.8350820">
        <ele>197.6</ele>
        <time>2020-01-28T09:08:00Z</time>
      </trkpt>
      <trkpt lat="43.3754410" lon="-5.8350900">
        <ele>197.7</ele>
        <time>2020-01-28T09:08:01Z</time>
      </trkpt>
      <trkpt lat="43.3754320" lon="-5.8350980">
        <ele>197.9</ele>
        <time>2020-01-28T09:08:02Z</time>
      </trkpt>
      <trkpt lat="43.3754230" lon="-5.8351060">
        <ele>198.0</ele>
        <time>2020-01-28T09:08:03Z</time>
      </trkpt>
      <trkpt lat="43.3754140" lon="-5.8351150">
        <ele>198.1</ele>
        <time>2020-01-28T09:08:04Z</time>
      </trkpt>
      <trkpt lat="43.3754060" lon="-5.8351260">
        <ele>198.3</ele>
        <time>2020-01-28T09:08:05Z</time>
      </trkpt>
      <trkpt lat="43.3753910" lon="-5.8351440">
        <ele>198.5</ele>
        <time>2020-01-28T09:08:06Z</time>
      </trkpt>
      <trkpt lat="43.3753850" lon="-5.8351510">
        <ele>198.6</ele>
        <time>2020-01-28T09:08:07Z</time>
      </trkpt>
      <trkpt lat="43.3753780" lon="-5.8351580">
        <ele>198.7</ele>
        <time>2020-01-28T09:08:08Z</time>
      </trkpt>
      <trkpt lat="43.3753670" lon="-5.8351700">
        <ele>198.8</ele>
        <time>2020-01-28T09:08:09Z</time>
      </trkpt>
      <trkpt lat="43.3753560" lon="-5.8351830">
        <ele>199.0</ele>
        <time>2020-01-28T09:08:10Z</time>
      </trkpt>
      <trkpt lat="43.3753460" lon="-5.8351990">
        <ele>199.2</ele>
        <time>2020-01-28T09:08:11Z</time>
      </trkpt>
      <trkpt lat="43.3753360" lon="-5.8352130">
        <ele>199.3</ele>
        <time>2020-01-28T09:08:12Z</time>
      </trkpt>
      <trkpt lat="43.3753190" lon="-5.8352340">
        <ele>199.6</ele>
        <time>2020-01-28T09:08:13Z</time>
      </trkpt>
      <trkpt lat="43.3753130" lon="-5.8352420">
        <ele>199.7</ele>
        <time>2020-01-28T09:08:14Z</time>
      </trkpt>
      <trkpt lat="43.3753060" lon="-5.8352510">
        <ele>199.8</ele>
        <time>2020-01-28T09:08:15Z</time>
      </trkpt>
      <trkpt lat="43.3752880" lon="-5.8352700">
        <ele>200.0</ele>
        <time>2020-01-28T09:08:16Z</time>
      </trkpt>
      <trkpt lat="43.3752820" lon="-5.8352760">
        <ele>200.1</ele>
        <time>2020-01-28T09:08:17Z</time>
      </trkpt>
      <trkpt lat="43.3752750" lon="-5.8352830">
        <ele>200.2</ele>
        <time>2020-01-28T09:08:18Z</time>
      </trkpt>
      <trkpt lat="43.3752660" lon="-5.8352850">
        <ele>200.3</ele>
        <time>2020-01-28T09:08:19Z</time>
      </trkpt>
      <trkpt lat="43.3752550" lon="-5.8352890">
        <ele>200.4</ele>
        <time>2020-01-28T09:08:20Z</time>
      </trkpt>
      <trkpt lat="43.3752400" lon="-5.8352940">
        <ele>200.6</ele>
        <time>2020-01-28T09:08:21Z</time>
      </trkpt>
      <trkpt lat="43.3752190" lon="-5.8353050">
        <ele>200.9</ele>
        <time>2020-01-28T09:08:22Z</time>
      </trkpt>
      <trkpt lat="43.3752100" lon="-5.8353100">
        <ele>201.0</ele>
        <time>2020-01-28T09:08:23Z</time>
      </trkpt>
      <trkpt lat="43.3752020" lon="-5.8353140">
        <ele>201.1</ele>
        <time>2020-01-28T09:08:24Z</time>
      </trkpt>
      <trkpt lat="43.3751890" lon="-5.8353220">
        <ele>201.2</ele>
        <time>2020-01-28T09:08:25Z</time>
      </trkpt>
      <trkpt lat="43.3751750" lon="-5.8353310">
        <ele>201.4</ele>
        <time>2020-01-28T09:08:26Z</time>
      </trkpt>
      <trkpt lat="43.3751620" lon="-5.8353390">
        <ele>201.6</ele>
        <time>2020-01-28T09:08:27Z</time>
      </trkpt>
      <trkpt lat="43.3751490" lon="-5.8353470">
        <ele>201.9</ele>
        <time>2020-01-28T09:08:28Z</time>
      </trkpt>
      <trkpt lat="43.3751360" lon="-5.8353560">
        <ele>202.0</ele>
        <time>2020-01-28T09:08:29Z</time>
      </trkpt>
      <trkpt lat="43.3751250" lon="-5.8353660">
        <ele>202.2</ele>
        <time>2020-01-28T09:08:30Z</time>
      </trkpt>
      <trkpt lat="43.3751120" lon="-5.8353770">
        <ele>202.4</ele>
        <time>2020-01-28T09:08:31Z</time>
      </trkpt>
      <trkpt lat="43.3751000" lon="-5.8353860">
        <ele>202.5</ele>
        <time>2020-01-28T09:08:32Z</time>
      </trkpt>
      <trkpt lat="43.3750780" lon="-5.8353940">
        <ele>202.8</ele>
        <time>2020-01-28T09:08:33Z</time>
      </trkpt>
      <trkpt lat="43.3750690" lon="-5.8353980">
        <ele>202.9</ele>
        <time>2020-01-28T09:08:34Z</time>
      </trkpt>
      <trkpt lat="43.3750600" lon="-5.8354010">
        <ele>203.0</ele>
        <time>2020-01-28T09:08:35Z</time>
      </trkpt>
      <trkpt lat="43.3750470" lon="-5.8354090">
        <ele>203.1</ele>
        <time>2020-01-28T09:08:36Z</time>
      </trkpt>
      <trkpt lat="43.3750360" lon="-5.8354180">
        <ele>203.2</ele>
        <time>2020-01-28T09:08:37Z</time>
      </trkpt>
      <trkpt lat="43.3750190" lon="-5.8354350">
        <ele>203.4</ele>
        <time>2020-01-28T09:08:38Z</time>
      </trkpt>
      <trkpt lat="43.3750110" lon="-5.8354420">
        <ele>203.4</ele>
        <time>2020-01-28T09:08:39Z</time>
      </trkpt>
      <trkpt lat="43.3750040" lon="-5.8354500">
        <ele>203.5</ele>
        <time>2020-01-28T09:08:40Z</time>
      </trkpt>
      <trkpt lat="43.3749920" lon="-5.8354610">
        <ele>203.6</ele>
        <time>2020-01-28T09:08:41Z</time>
      </trkpt>
      <trkpt lat="43.3749790" lon="-5.8354710">
        <ele>203.7</ele>
        <time>2020-01-28T09:08:42Z</time>
      </trkpt>
      <trkpt lat="43.3749670" lon="-5.8354790">
        <ele>203.8</ele>
        <time>2020-01-28T09:08:43Z</time>
      </trkpt>
      <trkpt lat="43.3749550" lon="-5.8354870">
        <ele>203.9</ele>
        <time>2020-01-28T09:08:44Z</time>
      </trkpt>
      <trkpt lat="43.3749390" lon="-5.8354960">
        <ele>204.1</ele>
        <time>2020-01-28T09:08:45Z</time>
      </trkpt>
      <trkpt lat="43.3749260" lon="-5.8355050">
        <ele>204.2</ele>
        <time>2020-01-28T09:08:46Z</time>
      </trkpt>
      <trkpt lat="43.3749170" lon="-5.8355160">
        <ele>204.3</ele>
        <time>2020-01-28T09:08:47Z</time>
      </trkpt>
      <trkpt lat="43.3749090" lon="-5.8355260">
        <ele>204.3</ele>
        <time>2020-01-28T09:08:48Z</time>
      </trkpt>
      <trkpt lat="43.3748990" lon="-5.8355360">
        <ele>204.4</ele>
        <time>2020-01-28T09:08:49Z</time>
      </trkpt>
      <trkpt lat="43.3748880" lon="-5.8355480">
        <ele>204.5</ele>
        <time>2020-01-28T09:08:50Z</time>
      </trkpt>
      <trkpt lat="43.3748750" lon="-5.8355590">
        <ele>204.6</ele>
        <time>2020-01-28T09:08:51Z</time>
      </trkpt>
      <trkpt lat="43.3748630" lon="-5.8355680">
        <ele>204.8</ele>
        <time>2020-01-28T09:08:52Z</time>
      </trkpt>
      <trkpt lat="43.3748480" lon="-5.8355750">
        <ele>204.9</ele>
        <time>2020-01-28T09:08:53Z</time>
      </trkpt>
      <trkpt lat="43.3748330" lon="-5.8355820">
        <ele>205.0</ele>
        <time>2020-01-28T09:08:54Z</time>
      </trkpt>
      <trkpt lat="43.3748200" lon="-5.8355970">
        <ele>205.3</ele>
        <time>2020-01-28T09:08:55Z</time>
      </trkpt>
      <trkpt lat="43.3748030" lon="-5.8356310">
        <ele>205.4</ele>
        <time>2020-01-28T09:08:56Z</time>
      </trkpt>
      <trkpt lat="43.3747970" lon="-5.8356410">
        <ele>205.4</ele>
        <time>2020-01-28T09:08:57Z</time>
      </trkpt>
      <trkpt lat="43.3747900" lon="-5.8356620">
        <ele>205.4</ele>
        <time>2020-01-28T09:08:58Z</time>
      </trkpt>
      <trkpt lat="43.3747800" lon="-5.8356830">
        <ele>205.5</ele>
        <time>2020-01-28T09:08:59Z</time>
      </trkpt>
      <trkpt lat="43.3747710" lon="-5.8357000">
        <ele>205.5</ele>
        <time>2020-01-28T09:09:00Z</time>
      </trkpt>
      <trkpt lat="43.3747610" lon="-5.8357150">
        <ele>205.5</ele>
        <time>2020-01-28T09:09:01Z</time>
      </trkpt>
      <trkpt lat="43.3747520" lon="-5.8357310">
        <ele>205.6</ele>
        <time>2020-01-28T09:09:02Z</time>
      </trkpt>
      <trkpt lat="43.3747410" lon="-5.8357410">
        <ele>205.6</ele>
        <time>2020-01-28T09:09:03Z</time>
      </trkpt>
      <trkpt lat="43.3747300" lon="-5.8357560">
        <ele>205.6</ele>
        <time>2020-01-28T09:09:04Z</time>
      </trkpt>
      <trkpt lat="43.3747180" lon="-5.8357720">
        <ele>205.7</ele>
        <time>2020-01-28T09:09:05Z</time>
      </trkpt>
      <trkpt lat="43.3747060" lon="-5.8357870">
        <ele>205.7</ele>
        <time>2020-01-28T09:09:06Z</time>
      </trkpt>
      <trkpt lat="43.3746930" lon="-5.8358010">
        <ele>205.8</ele>
        <time>2020-01-28T09:09:07Z</time>
      </trkpt>
      <trkpt lat="43.3746800" lon="-5.8358090">
        <ele>205.8</ele>
        <time>2020-01-28T09:09:08Z</time>
      </trkpt>
      <trkpt lat="43.3746670" lon="-5.8358200">
        <ele>205.8</ele>
        <time>2020-01-28T09:09:09Z</time>
      </trkpt>
      <trkpt lat="43.3746520" lon="-5.8358260">
        <ele>205.9</ele>
        <time>2020-01-28T09:09:10Z</time>
      </trkpt>
      <trkpt lat="43.3746390" lon="-5.8358470">
        <ele>205.9</ele>
        <time>2020-01-28T09:09:11Z</time>
      </trkpt>
      <trkpt lat="43.3746170" lon="-5.8358800">
        <ele>206.0</ele>
        <time>2020-01-28T09:09:12Z</time>
      </trkpt>
      <trkpt lat="43.3746100" lon="-5.8358870">
        <ele>206.1</ele>
        <time>2020-01-28T09:09:13Z</time>
      </trkpt>
      <trkpt lat="43.3745980" lon="-5.8359000">
        <ele>206.1</ele>
        <time>2020-01-28T09:09:14Z</time>
      </trkpt>
      <trkpt lat="43.3745870" lon="-5.8359130">
        <ele>206.2</ele>
        <time>2020-01-28T09:09:15Z</time>
      </trkpt>
      <trkpt lat="43.3745770" lon="-5.8359300">
        <ele>206.2</ele>
        <time>2020-01-28T09:09:16Z</time>
      </trkpt>
      <trkpt lat="43.3745650" lon="-5.8359500">
        <ele>206.2</ele>
        <time>2020-01-28T09:09:17Z</time>
      </trkpt>
      <trkpt lat="43.3745520" lon="-5.8359700">
        <ele>206.3</ele>
        <time>2020-01-28T09:09:18Z</time>
      </trkpt>
      <trkpt lat="43.3745410" lon="-5.8359880">
        <ele>206.3</ele>
        <time>2020-01-28T09:09:19Z</time>
      </trkpt>
      <trkpt lat="43.3745320" lon="-5.8360080">
        <ele>206.3</ele>
        <time>2020-01-28T09:09:20Z</time>
      </trkpt>
      <trkpt lat="43.3745230" lon="-5.8360290">
        <ele>206.3</ele>
        <time>2020-01-28T09:09:21Z</time>
      </trkpt>
      <trkpt lat="43.3745110" lon="-5.8360400">
        <ele>206.4</ele>
        <time>2020-01-28T09:09:22Z</time>
      </trkpt>
      <trkpt lat="43.3745000" lon="-5.8360510">
        <ele>206.4</ele>
        <time>2020-01-28T09:09:23Z</time>
      </trkpt>
      <trkpt lat="43.3744860" lon="-5.8360640">
        <ele>206.4</ele>
        <time>2020-01-28T09:09:24Z</time>
      </trkpt>
      <trkpt lat="43.3744730" lon="-5.8360790">
        <ele>206.4</ele>
        <time>2020-01-28T09:09:25Z</time>
      </trkpt>
      <trkpt lat="43.3744630" lon="-5.8360960">
        <ele>206.4</ele>
        <time>2020-01-28T09:09:26Z</time>
      </trkpt>
      <trkpt lat="43.3744510" lon="-5.8361140">
        <ele>206.4</ele>
        <time>2020-01-28T09:09:27Z</time>
      </trkpt>
      <trkpt lat="43.3744390" lon="-5.8361320">
        <ele>206.4</ele>
        <time>2020-01-28T09:09:28Z</time>
      </trkpt>
      <trkpt lat="43.3744260" lon="-5.8361430">
        <ele>206.4</ele>
        <time>2020-01-28T09:09:29Z</time>
      </trkpt>
      <trkpt lat="43.3744120" lon="-5.8361490">
        <ele>206.4</ele>
        <time>2020-01-28T09:09:30Z</time>
      </trkpt>
      <trkpt lat="43.3743990" lon="-5.8361540">
        <ele>206.5</ele>
        <time>2020-01-28T09:09:31Z</time>
      </trkpt>
      <trkpt lat="43.3743800" lon="-5.8361700">
        <ele>206.5</ele>
        <time>2020-01-28T09:09:32Z</time>
      </trkpt>
      <trkpt lat="43.3743730" lon="-5.8361780">
        <ele>206.5</ele>
        <time>2020-01-28T09:09:33Z</time>
      </trkpt>
      <trkpt lat="43.3743660" lon="-5.8361850">
        <ele>206.5</ele>
        <time>2020-01-28T09:09:34Z</time>
      </trkpt>
      <trkpt lat="43.3743520" lon="-5.8361990">
        <ele>206.5</ele>
        <time>2020-01-28T09:09:35Z</time>
      </trkpt>
      <trkpt lat="43.3743350" lon="-5.8362090">
        <ele>206.5</ele>
        <time>2020-01-28T09:09:36Z</time>
      </trkpt>
      <trkpt lat="43.3743150" lon="-5.8362120">
        <ele>206.5</ele>
        <time>2020-01-28T09:09:37Z</time>
      </trkpt>
      <trkpt lat="43.3743010" lon="-5.8362230">
        <ele>206.5</ele>
        <time>2020-01-28T09:09:38Z</time>
      </trkpt>
      <trkpt lat="43.3742810" lon="-5.8362340">
        <ele>206.5</ele>
        <time>2020-01-28T09:09:39Z</time>
      </trkpt>
      <trkpt lat="43.3742740" lon="-5.8362390">
        <ele>206.5</ele>
        <time>2020-01-28T09:09:40Z</time>
      </trkpt>
      <trkpt lat="43.3742660" lon="-5.8362430">
        <ele>206.5</ele>
        <time>2020-01-28T09:09:41Z</time>
      </trkpt>
      <trkpt lat="43.3742470" lon="-5.8362530">
        <ele>206.6</ele>
        <time>2020-01-28T09:09:42Z</time>
      </trkpt>
      <trkpt lat="43.3742380" lon="-5.8362580">
        <ele>206.6</ele>
        <time>2020-01-28T09:09:43Z</time>
      </trkpt>
      <trkpt lat="43.3742300" lon="-5.8362630">
        <ele>206.6</ele>
        <time>2020-01-28T09:09:44Z</time>
      </trkpt>
      <trkpt lat="43.3742070" lon="-5.8362850">
        <ele>206.6</ele>
        <time>2020-01-28T09:09:45Z</time>
      </trkpt>
      <trkpt lat="43.3741990" lon="-5.8362920">
        <ele>206.6</ele>
        <time>2020-01-28T09:09:46Z</time>
      </trkpt>
      <trkpt lat="43.3741880" lon="-5.8363000">
        <ele>206.6</ele>
        <time>2020-01-28T09:09:47Z</time>
      </trkpt>
      <trkpt lat="43.3741790" lon="-5.8363060">
        <ele>206.7</ele>
        <time>2020-01-28T09:09:48Z</time>
      </trkpt>
      <trkpt lat="43.3741690" lon="-5.8363110">
        <ele>206.7</ele>
        <time>2020-01-28T09:09:49Z</time>
      </trkpt>
      <trkpt lat="43.3741570" lon="-5.8363200">
        <ele>206.7</ele>
        <time>2020-01-28T09:09:50Z</time>
      </trkpt>
      <trkpt lat="43.3741420" lon="-5.8363290">
        <ele>206.7</ele>
        <time>2020-01-28T09:09:51Z</time>
      </trkpt>
      <trkpt lat="43.3741270" lon="-5.8363400">
        <ele>206.8</ele>
        <time>2020-01-28T09:09:52Z</time>
      </trkpt>
      <trkpt lat="43.3741120" lon="-5.8363500">
        <ele>206.8</ele>
        <time>2020-01-28T09:09:53Z</time>
      </trkpt>
      <trkpt lat="43.3740980" lon="-5.8363600">
        <ele>206.8</ele>
        <time>2020-01-28T09:09:54Z</time>
      </trkpt>
      <trkpt lat="43.3740820" lon="-5.8363750">
        <ele>206.9</ele>
        <time>2020-01-28T09:09:55Z</time>
      </trkpt>
      <trkpt lat="43.3740680" lon="-5.8363850">
        <ele>206.9</ele>
        <time>2020-01-28T09:09:56Z</time>
      </trkpt>
      <trkpt lat="43.3740560" lon="-5.8363900">
        <ele>207.0</ele>
        <time>2020-01-28T09:09:57Z</time>
      </trkpt>
      <trkpt lat="43.3740350" lon="-5.8364010">
        <ele>207.0</ele>
        <time>2020-01-28T09:09:58Z</time>
      </trkpt>
      <trkpt lat="43.3740260" lon="-5.8364050">
        <ele>207.0</ele>
        <time>2020-01-28T09:09:59Z</time>
      </trkpt>
      <trkpt lat="43.3740170" lon="-5.8364100">
        <ele>207.1</ele>
        <time>2020-01-28T09:10:00Z</time>
      </trkpt>
      <trkpt lat="43.3740040" lon="-5.8364180">
        <ele>207.1</ele>
        <time>2020-01-28T09:10:01Z</time>
      </trkpt>
      <trkpt lat="43.3739910" lon="-5.8364260">
        <ele>207.1</ele>
        <time>2020-01-28T09:10:02Z</time>
      </trkpt>
      <trkpt lat="43.3739760" lon="-5.8364370">
        <ele>207.2</ele>
        <time>2020-01-28T09:10:03Z</time>
      </trkpt>
      <trkpt lat="43.3739620" lon="-5.8364460">
        <ele>207.2</ele>
        <time>2020-01-28T09:10:04Z</time>
      </trkpt>
      <trkpt lat="43.3739500" lon="-5.8364480">
        <ele>207.3</ele>
        <time>2020-01-28T09:10:05Z</time>
      </trkpt>
      <trkpt lat="43.3739350" lon="-5.8364450">
        <ele>207.3</ele>
        <time>2020-01-28T09:10:06Z</time>
      </trkpt>
      <trkpt lat="43.3739210" lon="-5.8364400">
        <ele>207.4</ele>
        <time>2020-01-28T09:10:07Z</time>
      </trkpt>
      <trkpt lat="43.3739060" lon="-5.8364400">
        <ele>207.4</ele>
        <time>2020-01-28T09:10:08Z</time>
      </trkpt>
      <trkpt lat="43.3738930" lon="-5.8364460">
        <ele>207.5</ele>
        <time>2020-01-28T09:10:09Z</time>
      </trkpt>
      <trkpt lat="43.3738800" lon="-5.8364520">
        <ele>207.5</ele>
        <time>2020-01-28T09:10:10Z</time>
      </trkpt>
      <trkpt lat="43.3738580" lon="-5.8364570">
        <ele>207.5</ele>
        <time>2020-01-28T09:10:11Z</time>
      </trkpt>
      <trkpt lat="43.3738490" lon="-5.8364570">
        <ele>207.5</ele>
        <time>2020-01-28T09:10:12Z</time>
      </trkpt>
      <trkpt lat="43.3738400" lon="-5.8364560">
        <ele>207.5</ele>
        <time>2020-01-28T09:10:13Z</time>
      </trkpt>
      <trkpt lat="43.3738260" lon="-5.8364580">
        <ele>207.6</ele>
        <time>2020-01-28T09:10:14Z</time>
      </trkpt>
      <trkpt lat="43.3738130" lon="-5.8364620">
        <ele>207.6</ele>
        <time>2020-01-28T09:10:15Z</time>
      </trkpt>
      <trkpt lat="43.3738020" lon="-5.8364630">
        <ele>207.6</ele>
        <time>2020-01-28T09:10:16Z</time>
      </trkpt>
      <trkpt lat="43.3737930" lon="-5.8364630">
        <ele>207.6</ele>
        <time>2020-01-28T09:10:17Z</time>
      </trkpt>
      <trkpt lat="43.3737810" lon="-5.8364640">
        <ele>207.6</ele>
        <time>2020-01-28T09:10:18Z</time>
      </trkpt>
      <trkpt lat="43.3737630" lon="-5.8364770">
        <ele>207.6</ele>
        <time>2020-01-28T09:10:19Z</time>
      </trkpt>
      <trkpt lat="43.3737570" lon="-5.8364850">
        <ele>207.6</ele>
        <time>2020-01-28T09:10:20Z</time>
      </trkpt>
      <trkpt lat="43.3737500" lon="-5.8364920">
        <ele>207.6</ele>
        <time>2020-01-28T09:10:21Z</time>
      </trkpt>
      <trkpt lat="43.3737390" lon="-5.8365040">
        <ele>207.6</ele>
        <time>2020-01-28T09:10:22Z</time>
      </trkpt>
      <trkpt lat="43.3737260" lon="-5.8365160">
        <ele>207.5</ele>
        <time>2020-01-28T09:10:23Z</time>
      </trkpt>
      <trkpt lat="43.3737140" lon="-5.8365280">
        <ele>207.5</ele>
        <time>2020-01-28T09:10:24Z</time>
      </trkpt>
      <trkpt lat="43.3737030" lon="-5.8365420">
        <ele>207.5</ele>
        <time>2020-01-28T09:10:25Z</time>
      </trkpt>
      <trkpt lat="43.3736910" lon="-5.8365570">
        <ele>207.5</ele>
        <time>2020-01-28T09:10:26Z</time>
      </trkpt>
      <trkpt lat="43.3736780" lon="-5.8365700">
        <ele>207.5</ele>
        <time>2020-01-28T09:10:27Z</time>
      </trkpt>
      <trkpt lat="43.3736640" lon="-5.8365800">
        <ele>207.5</ele>
        <time>2020-01-28T09:10:28Z</time>
      </trkpt>
      <trkpt lat="43.3736490" lon="-5.8365880">
        <ele>207.5</ele>
        <time>2020-01-28T09:10:29Z</time>
      </trkpt>
      <trkpt lat="43.3736360" lon="-5.8365910">
        <ele>207.5</ele>
        <time>2020-01-28T09:10:30Z</time>
      </trkpt>
      <trkpt lat="43.3736200" lon="-5.8365890">
        <ele>207.5</ele>
        <time>2020-01-28T09:10:31Z</time>
      </trkpt>
      <trkpt lat="43.3736020" lon="-5.8365990">
        <ele>207.5</ele>
        <time>2020-01-28T09:10:32Z</time>
      </trkpt>
      <trkpt lat="43.3735950" lon="-5.8366080">
        <ele>207.5</ele>
        <time>2020-01-28T09:10:33Z</time>
      </trkpt>
      <trkpt lat="43.3735880" lon="-5.8366160">
        <ele>207.5</ele>
        <time>2020-01-28T09:10:34Z</time>
      </trkpt>
      <trkpt lat="43.3735790" lon="-5.8366340">
        <ele>207.5</ele>
        <time>2020-01-28T09:10:35Z</time>
      </trkpt>
      <trkpt lat="43.3735710" lon="-5.8366560">
        <ele>207.5</ele>
        <time>2020-01-28T09:10:36Z</time>
      </trkpt>
      <trkpt lat="43.3735610" lon="-5.8366910">
        <ele>207.5</ele>
        <time>2020-01-28T09:10:37Z</time>
      </trkpt>
      <trkpt lat="43.3735570" lon="-5.8367040">
        <ele>207.5</ele>
        <time>2020-01-28T09:10:38Z</time>
      </trkpt>
      <trkpt lat="43.3735480" lon="-5.8367500">
        <ele>207.4</ele>
        <time>2020-01-28T09:10:39Z</time>
      </trkpt>
      <trkpt lat="43.3735440" lon="-5.8367660">
        <ele>207.4</ele>
        <time>2020-01-28T09:10:40Z</time>
      </trkpt>
      <trkpt lat="43.3735300" lon="-5.8368070">
        <ele>207.4</ele>
        <time>2020-01-28T09:10:41Z</time>
      </trkpt>
      <trkpt lat="43.3735240" lon="-5.8368180">
        <ele>207.2</ele>
        <time>2020-01-28T09:10:42Z</time>
      </trkpt>
      <trkpt lat="43.3735050" lon="-5.8368500">
        <ele>207.0</ele>
        <time>2020-01-28T09:10:43Z</time>
      </trkpt>
      <trkpt lat="43.3734980" lon="-5.8368600">
        <ele>207.0</ele>
        <time>2020-01-28T09:10:44Z</time>
      </trkpt>
      <trkpt lat="43.3734860" lon="-5.8368730">
        <ele>206.9</ele>
        <time>2020-01-28T09:10:45Z</time>
      </trkpt>
      <trkpt lat="43.3734740" lon="-5.8368860">
        <ele>206.8</ele>
        <time>2020-01-28T09:10:46Z</time>
      </trkpt>
      <trkpt lat="43.3734620" lon="-5.8369010">
        <ele>206.8</ele>
        <time>2020-01-28T09:10:47Z</time>
      </trkpt>
      <trkpt lat="43.3734510" lon="-5.8369210">
        <ele>206.7</ele>
        <time>2020-01-28T09:10:48Z</time>
      </trkpt>
      <trkpt lat="43.3734400" lon="-5.8369420">
        <ele>206.6</ele>
        <time>2020-01-28T09:10:49Z</time>
      </trkpt>
      <trkpt lat="43.3734240" lon="-5.8369510">
        <ele>206.5</ele>
        <time>2020-01-28T09:10:50Z</time>
      </trkpt>
      <trkpt lat="43.3734070" lon="-5.8369590">
        <ele>206.4</ele>
        <time>2020-01-28T09:10:51Z</time>
      </trkpt>
      <trkpt lat="43.3733910" lon="-5.8369660">
        <ele>206.3</ele>
        <time>2020-01-28T09:10:52Z</time>
      </trkpt>
      <trkpt lat="43.3733740" lon="-5.8369690">
        <ele>206.2</ele>
        <time>2020-01-28T09:10:53Z</time>
      </trkpt>
      <trkpt lat="43.3733620" lon="-5.8369810">
        <ele>206.1</ele>
        <time>2020-01-28T09:10:54Z</time>
      </trkpt>
      <trkpt lat="43.3733500" lon="-5.8370170">
        <ele>206.0</ele>
        <time>2020-01-28T09:10:55Z</time>
      </trkpt>
      <trkpt lat="43.3733460" lon="-5.8370340">
        <ele>205.9</ele>
        <time>2020-01-28T09:10:56Z</time>
      </trkpt>
      <trkpt lat="43.3733300" lon="-5.8370750">
        <ele>205.8</ele>
        <time>2020-01-28T09:10:57Z</time>
      </trkpt>
      <trkpt lat="43.3733240" lon="-5.8370850">
        <ele>205.8</ele>
        <time>2020-01-28T09:10:58Z</time>
      </trkpt>
      <trkpt lat="43.3733090" lon="-5.8370960">
        <ele>205.7</ele>
        <time>2020-01-28T09:10:59Z</time>
      </trkpt>
      <trkpt lat="43.3732910" lon="-5.8371020">
        <ele>205.6</ele>
        <time>2020-01-28T09:11:00Z</time>
      </trkpt>
      <trkpt lat="43.3732770" lon="-5.8371090">
        <ele>205.6</ele>
        <time>2020-01-28T09:11:01Z</time>
      </trkpt>
      <trkpt lat="43.3732640" lon="-5.8371180">
        <ele>205.5</ele>
        <time>2020-01-28T09:11:02Z</time>
      </trkpt>
      <trkpt lat="43.3732480" lon="-5.8371160">
        <ele>205.4</ele>
        <time>2020-01-28T09:11:03Z</time>
      </trkpt>
      <trkpt lat="43.3732310" lon="-5.8371110">
        <ele>205.3</ele>
        <time>2020-01-28T09:11:04Z</time>
      </trkpt>
      <trkpt lat="43.3732150" lon="-5.8371060">
        <ele>205.2</ele>
        <time>2020-01-28T09:11:05Z</time>
      </trkpt>
      <trkpt lat="43.3732010" lon="-5.8371040">
        <ele>205.2</ele>
        <time>2020-01-28T09:11:06Z</time>
      </trkpt>
      <trkpt lat="43.3731860" lon="-5.8371070">
        <ele>205.1</ele>
        <time>2020-01-28T09:11:07Z</time>
      </trkpt>
      <trkpt lat="43.3731700" lon="-5.8371060">
        <ele>205.0</ele>
        <time>2020-01-28T09:11:08Z</time>
      </trkpt>
      <trkpt lat="43.3731560" lon="-5.8371120">
        <ele>204.9</ele>
        <time>2020-01-28T09:11:09Z</time>
      </trkpt>
      <trkpt lat="43.3731410" lon="-5.8371280">
        <ele>204.8</ele>
        <time>2020-01-28T09:11:10Z</time>
      </trkpt>
      <trkpt lat="43.3731160" lon="-5.8370990">
        <ele>204.5</ele>
        <time>2020-01-28T09:11:11Z</time>
      </trkpt>
      <trkpt lat="43.3731080" lon="-5.8370890">
        <ele>204.5</ele>
        <time>2020-01-28T09:11:12Z</time>
      </trkpt>
      <trkpt lat="43.3730840" lon="-5.8370550">
        <ele>204.2</ele>
        <time>2020-01-28T09:11:13Z</time>
      </trkpt>
      <trkpt lat="43.3730750" lon="-5.8370440">
        <ele>204.2</ele>
        <time>2020-01-28T09:11:14Z</time>
      </trkpt>
      <trkpt lat="43.3730600" lon="-5.8370310">
        <ele>204.1</ele>
        <time>2020-01-28T09:11:15Z</time>
      </trkpt>
      <trkpt lat="43.3730450" lon="-5.8370290">
        <ele>204.0</ele>
        <time>2020-01-28T09:11:16Z</time>
      </trkpt>
      <trkpt lat="43.3730220" lon="-5.8370320">
        <ele>203.9</ele>
        <time>2020-01-28T09:11:17Z</time>
      </trkpt>
      <trkpt lat="43.3730130" lon="-5.8370330">
        <ele>203.8</ele>
        <time>2020-01-28T09:11:18Z</time>
      </trkpt>
      <trkpt lat="43.3730040" lon="-5.8370350">
        <ele>203.8</ele>
        <time>2020-01-28T09:11:19Z</time>
      </trkpt>
      <trkpt lat="43.3729910" lon="-5.8370370">
        <ele>203.7</ele>
        <time>2020-01-28T09:11:20Z</time>
      </trkpt>
      <trkpt lat="43.3729760" lon="-5.8370420">
        <ele>203.6</ele>
        <time>2020-01-28T09:11:21Z</time>
      </trkpt>
      <trkpt lat="43.3729550" lon="-5.8370480">
        <ele>203.5</ele>
        <time>2020-01-28T09:11:22Z</time>
      </trkpt>
      <trkpt lat="43.3729480" lon="-5.8370490">
        <ele>203.4</ele>
        <time>2020-01-28T09:11:23Z</time>
      </trkpt>
      <trkpt lat="43.3729400" lon="-5.8370510">
        <ele>203.4</ele>
        <time>2020-01-28T09:11:24Z</time>
      </trkpt>
      <trkpt lat="43.3729250" lon="-5.8370600">
        <ele>203.3</ele>
        <time>2020-01-28T09:11:25Z</time>
      </trkpt>
      <trkpt lat="43.3729120" lon="-5.8370710">
        <ele>203.1</ele>
        <time>2020-01-28T09:11:26Z</time>
      </trkpt>
      <trkpt lat="43.3728980" lon="-5.8370830">
        <ele>203.0</ele>
        <time>2020-01-28T09:11:27Z</time>
      </trkpt>
      <trkpt lat="43.3728860" lon="-5.8370940">
        <ele>202.9</ele>
        <time>2020-01-28T09:11:28Z</time>
      </trkpt>
      <trkpt lat="43.3728720" lon="-5.8371060">
        <ele>202.8</ele>
        <time>2020-01-28T09:11:29Z</time>
      </trkpt>
      <trkpt lat="43.3728580" lon="-5.8371170">
        <ele>202.7</ele>
        <time>2020-01-28T09:11:30Z</time>
      </trkpt>
      <trkpt lat="43.3728450" lon="-5.8371270">
        <ele>202.6</ele>
        <time>2020-01-28T09:11:31Z</time>
      </trkpt>
      <trkpt lat="43.3728310" lon="-5.8371370">
        <ele>202.5</ele>
        <time>2020-01-28T09:11:32Z</time>
      </trkpt>
      <trkpt lat="43.3728170" lon="-5.8371470">
        <ele>202.4</ele>
        <time>2020-01-28T09:11:33Z</time>
      </trkpt>
      <trkpt lat="43.3728030" lon="-5.8371560">
        <ele>202.3</ele>
        <time>2020-01-28T09:11:34Z</time>
      </trkpt>
      <trkpt lat="43.3727830" lon="-5.8371700">
        <ele>202.1</ele>
        <time>2020-01-28T09:11:35Z</time>
      </trkpt>
      <trkpt lat="43.3727760" lon="-5.8371770">
        <ele>202.0</ele>
        <time>2020-01-28T09:11:36Z</time>
      </trkpt>
      <trkpt lat="43.3727680" lon="-5.8371830">
        <ele>202.0</ele>
        <time>2020-01-28T09:11:37Z</time>
      </trkpt>
      <trkpt lat="43.3727570" lon="-5.8371900">
        <ele>201.9</ele>
        <time>2020-01-28T09:11:38Z</time>
      </trkpt>
      <trkpt lat="43.3727480" lon="-5.8371950">
        <ele>201.9</ele>
        <time>2020-01-28T09:11:39Z</time>
      </trkpt>
      <trkpt lat="43.3727370" lon="-5.8371980">
        <ele>201.8</ele>
        <time>2020-01-28T09:11:40Z</time>
      </trkpt>
      <trkpt lat="43.3727240" lon="-5.8372020">
        <ele>201.8</ele>
        <time>2020-01-28T09:11:41Z</time>
      </trkpt>
      <trkpt lat="43.3727090" lon="-5.8372090">
        <ele>201.7</ele>
        <time>2020-01-28T09:11:42Z</time>
      </trkpt>
      <trkpt lat="43.3726950" lon="-5.8372150">
        <ele>201.7</ele>
        <time>2020-01-28T09:11:43Z</time>
      </trkpt>
      <trkpt lat="43.3726820" lon="-5.8372240">
        <ele>201.6</ele>
        <time>2020-01-28T09:11:44Z</time>
      </trkpt>
      <trkpt lat="43.3726680" lon="-5.8372310">
        <ele>201.6</ele>
        <time>2020-01-28T09:11:45Z</time>
      </trkpt>
      <trkpt lat="43.3726550" lon="-5.8372370">
        <ele>201.5</ele>
        <time>2020-01-28T09:11:46Z</time>
      </trkpt>
      <trkpt lat="43.3726410" lon="-5.8372430">
        <ele>201.4</ele>
        <time>2020-01-28T09:11:47Z</time>
      </trkpt>
      <trkpt lat="43.3726280" lon="-5.8372480">
        <ele>201.4</ele>
        <time>2020-01-28T09:11:48Z</time>
      </trkpt>
      <trkpt lat="43.3726160" lon="-5.8372560">
        <ele>201.3</ele>
        <time>2020-01-28T09:11:49Z</time>
      </trkpt>
      <trkpt lat="43.3726040" lon="-5.8372660">
        <ele>201.3</ele>
        <time>2020-01-28T09:11:50Z</time>
      </trkpt>
      <trkpt lat="43.3725920" lon="-5.8372760">
        <ele>201.2</ele>
        <time>2020-01-28T09:11:51Z</time>
      </trkpt>
      <trkpt lat="43.3725790" lon="-5.8372850">
        <ele>201.1</ele>
        <time>2020-01-28T09:11:52Z</time>
      </trkpt>
      <trkpt lat="43.3725670" lon="-5.8372910">
        <ele>201.0</ele>
        <time>2020-01-28T09:11:53Z</time>
      </trkpt>
      <trkpt lat="43.3725540" lon="-5.8373000">
        <ele>200.9</ele>
        <time>2020-01-28T09:11:54Z</time>
      </trkpt>
      <trkpt lat="43.3725390" lon="-5.8373150">
        <ele>200.8</ele>
        <time>2020-01-28T09:11:55Z</time>
      </trkpt>
      <trkpt lat="43.3725260" lon="-5.8373300">
        <ele>200.7</ele>
        <time>2020-01-28T09:11:56Z</time>
      </trkpt>
      <trkpt lat="43.3725140" lon="-5.8373450">
        <ele>200.6</ele>
        <time>2020-01-28T09:11:57Z</time>
      </trkpt>
      <trkpt lat="43.3725020" lon="-5.8373560">
        <ele>200.5</ele>
        <time>2020-01-28T09:11:58Z</time>
      </trkpt>
      <trkpt lat="43.3724880" lon="-5.8373680">
        <ele>200.5</ele>
        <time>2020-01-28T09:11:59Z</time>
      </trkpt>
      <trkpt lat="43.3724740" lon="-5.8373820">
        <ele>200.4</ele>
        <time>2020-01-28T09:12:00Z</time>
      </trkpt>
      <trkpt lat="43.3724600" lon="-5.8373960">
        <ele>200.3</ele>
        <time>2020-01-28T09:12:01Z</time>
      </trkpt>
      <trkpt lat="43.3724470" lon="-5.8374060">
        <ele>200.2</ele>
        <time>2020-01-28T09:12:02Z</time>
      </trkpt>
      <trkpt lat="43.3724350" lon="-5.8374140">
        <ele>200.1</ele>
        <time>2020-01-28T09:12:03Z</time>
      </trkpt>
      <trkpt lat="43.3724210" lon="-5.8374240">
        <ele>200.0</ele>
        <time>2020-01-28T09:12:04Z</time>
      </trkpt>
      <trkpt lat="43.3724060" lon="-5.8374320">
        <ele>199.9</ele>
        <time>2020-01-28T09:12:05Z</time>
      </trkpt>
      <trkpt lat="43.3723930" lon="-5.8374400">
        <ele>199.9</ele>
        <time>2020-01-28T09:12:06Z</time>
      </trkpt>
      <trkpt lat="43.3723800" lon="-5.8374470">
        <ele>199.8</ele>
        <time>2020-01-28T09:12:07Z</time>
      </trkpt>
      <trkpt lat="43.3723680" lon="-5.8374540">
        <ele>199.8</ele>
        <time>2020-01-28T09:12:08Z</time>
      </trkpt>
      <trkpt lat="43.3723540" lon="-5.8374600">
        <ele>199.7</ele>
        <time>2020-01-28T09:12:09Z</time>
      </trkpt>
      <trkpt lat="43.3723390" lon="-5.8374670">
        <ele>199.7</ele>
        <time>2020-01-28T09:12:10Z</time>
      </trkpt>
      <trkpt lat="43.3723190" lon="-5.8374780">
        <ele>199.6</ele>
        <time>2020-01-28T09:12:11Z</time>
      </trkpt>
      <trkpt lat="43.3723100" lon="-5.8374830">
        <ele>199.5</ele>
        <time>2020-01-28T09:12:12Z</time>
      </trkpt>
      <trkpt lat="43.3723020" lon="-5.8374880">
        <ele>199.5</ele>
        <time>2020-01-28T09:12:13Z</time>
      </trkpt>
      <trkpt lat="43.3722880" lon="-5.8374940">
        <ele>199.5</ele>
        <time>2020-01-28T09:12:14Z</time>
      </trkpt>
      <trkpt lat="43.3722720" lon="-5.8375000">
        <ele>199.4</ele>
        <time>2020-01-28T09:12:15Z</time>
      </trkpt>
      <trkpt lat="43.3722570" lon="-5.8375060">
        <ele>199.4</ele>
        <time>2020-01-28T09:12:16Z</time>
      </trkpt>
      <trkpt lat="43.3722420" lon="-5.8375120">
        <ele>199.3</ele>
        <time>2020-01-28T09:12:17Z</time>
      </trkpt>
      <trkpt lat="43.3722250" lon="-5.8375230">
        <ele>199.2</ele>
        <time>2020-01-28T09:12:18Z</time>
      </trkpt>
      <trkpt lat="43.3722100" lon="-5.8375330">
        <ele>199.2</ele>
        <time>2020-01-28T09:12:19Z</time>
      </trkpt>
      <trkpt lat="43.3722020" lon="-5.8375360">
        <ele>199.1</ele>
        <time>2020-01-28T09:12:20Z</time>
      </trkpt>
      <trkpt lat="43.3721930" lon="-5.8375350">
        <ele>199.1</ele>
        <time>2020-01-28T09:12:21Z</time>
      </trkpt>
      <trkpt lat="43.3721800" lon="-5.8375380">
        <ele>199.1</ele>
        <time>2020-01-28T09:12:22Z</time>
      </trkpt>
      <trkpt lat="43.3721670" lon="-5.8375410">
        <ele>199.0</ele>
        <time>2020-01-28T09:12:23Z</time>
      </trkpt>
      <trkpt lat="43.3721520" lon="-5.8375440">
        <ele>199.0</ele>
        <time>2020-01-28T09:12:24Z</time>
      </trkpt>
      <trkpt lat="43.3721360" lon="-5.8375480">
        <ele>198.9</ele>
        <time>2020-01-28T09:12:25Z</time>
      </trkpt>
      <trkpt lat="43.3721220" lon="-5.8375500">
        <ele>198.9</ele>
        <time>2020-01-28T09:12:26Z</time>
      </trkpt>
      <trkpt lat="43.3721080" lon="-5.8375520">
        <ele>198.9</ele>
        <time>2020-01-28T09:12:27Z</time>
      </trkpt>
      <trkpt lat="43.3720930" lon="-5.8375540">
        <ele>198.9</ele>
        <time>2020-01-28T09:12:28Z</time>
      </trkpt>
      <trkpt lat="43.3720770" lon="-5.8375570">
        <ele>198.9</ele>
        <time>2020-01-28T09:12:29Z</time>
      </trkpt>
      <trkpt lat="43.3720600" lon="-5.8375610">
        <ele>198.9</ele>
        <time>2020-01-28T09:12:30Z</time>
      </trkpt>
      <trkpt lat="43.3720440" lon="-5.8375660">
        <ele>198.9</ele>
        <time>2020-01-28T09:12:31Z</time>
      </trkpt>
      <trkpt lat="43.3720290" lon="-5.8375710">
        <ele>198.8</ele>
        <time>2020-01-28T09:12:32Z</time>
      </trkpt>
      <trkpt lat="43.3720140" lon="-5.8375770">
        <ele>198.8</ele>
        <time>2020-01-28T09:12:33Z</time>
      </trkpt>
      <trkpt lat="43.3720010" lon="-5.8375810">
        <ele>198.8</ele>
        <time>2020-01-28T09:12:34Z</time>
      </trkpt>
      <trkpt lat="43.3719790" lon="-5.8375820">
        <ele>198.8</ele>
        <time>2020-01-28T09:12:35Z</time>
      </trkpt>
      <trkpt lat="43.3719700" lon="-5.8375830">
        <ele>198.8</ele>
        <time>2020-01-28T09:12:36Z</time>
      </trkpt>
      <trkpt lat="43.3719610" lon="-5.8375830">
        <ele>198.8</ele>
        <time>2020-01-28T09:12:37Z</time>
      </trkpt>
      <trkpt lat="43.3719450" lon="-5.8375810">
        <ele>198.8</ele>
        <time>2020-01-28T09:12:38Z</time>
      </trkpt>
      <trkpt lat="43.3719300" lon="-5.8375810">
        <ele>198.8</ele>
        <time>2020-01-28T09:12:39Z</time>
      </trkpt>
      <trkpt lat="43.3719150" lon="-5.8375830">
        <ele>198.8</ele>
        <time>2020-01-28T09:12:40Z</time>
      </trkpt>
      <trkpt lat="43.3719000" lon="-5.8375850">
        <ele>198.8</ele>
        <time>2020-01-28T09:12:41Z</time>
      </trkpt>
      <trkpt lat="43.3718860" lon="-5.8375900">
        <ele>198.8</ele>
        <time>2020-01-28T09:12:42Z</time>
      </trkpt>
      <trkpt lat="43.3718690" lon="-5.8375970">
        <ele>198.7</ele>
        <time>2020-01-28T09:12:43Z</time>
      </trkpt>
      <trkpt lat="43.3718550" lon="-5.8376020">
        <ele>198.7</ele>
        <time>2020-01-28T09:12:44Z</time>
      </trkpt>
      <trkpt lat="43.3718410" lon="-5.8376050">
        <ele>198.7</ele>
        <time>2020-01-28T09:12:45Z</time>
      </trkpt>
      <trkpt lat="43.3718140" lon="-5.8376050">
        <ele>198.7</ele>
        <time>2020-01-28T09:12:46Z</time>
      </trkpt>
      <trkpt lat="43.3718040" lon="-5.8376050">
        <ele>198.7</ele>
        <time>2020-01-28T09:12:47Z</time>
      </trkpt>
      <trkpt lat="43.3717860" lon="-5.8376050">
        <ele>198.6</ele>
        <time>2020-01-28T09:12:48Z</time>
      </trkpt>
      <trkpt lat="43.3717710" lon="-5.8376070">
        <ele>198.6</ele>
        <time>2020-01-28T09:12:49Z</time>
      </trkpt>
      <trkpt lat="43.3717560" lon="-5.8376110">
        <ele>198.6</ele>
        <time>2020-01-28T09:12:50Z</time>
      </trkpt>
      <trkpt lat="43.3717390" lon="-5.8376180">
        <ele>198.6</ele>
        <time>2020-01-28T09:12:51Z</time>
      </trkpt>
      <trkpt lat="43.3717250" lon="-5.8376240">
        <ele>198.5</ele>
        <time>2020-01-28T09:12:52Z</time>
      </trkpt>
      <trkpt lat="43.3717100" lon="-5.8376310">
        <ele>198.5</ele>
        <time>2020-01-28T09:12:53Z</time>
      </trkpt>
      <trkpt lat="43.3716960" lon="-5.8376380">
        <ele>198.4</ele>
        <time>2020-01-28T09:12:54Z</time>
      </trkpt>
      <trkpt lat="43.3716830" lon="-5.8376480">
        <ele>198.4</ele>
        <time>2020-01-28T09:12:55Z</time>
      </trkpt>
      <trkpt lat="43.3716680" lon="-5.8376550">
        <ele>198.4</ele>
        <time>2020-01-28T09:12:56Z</time>
      </trkpt>
      <trkpt lat="43.3716540" lon="-5.8376590">
        <ele>198.3</ele>
        <time>2020-01-28T09:12:57Z</time>
      </trkpt>
      <trkpt lat="43.3716390" lon="-5.8376610">
        <ele>198.3</ele>
        <time>2020-01-28T09:12:58Z</time>
      </trkpt>
      <trkpt lat="43.3716260" lon="-5.8376610">
        <ele>198.3</ele>
        <time>2020-01-28T09:12:59Z</time>
      </trkpt>
      <trkpt lat="43.3716110" lon="-5.8376610">
        <ele>198.2</ele>
        <time>2020-01-28T09:13:00Z</time>
      </trkpt>
      <trkpt lat="43.3715960" lon="-5.8376620">
        <ele>198.2</ele>
        <time>2020-01-28T09:13:01Z</time>
      </trkpt>
      <trkpt lat="43.3715830" lon="-5.8376630">
        <ele>198.1</ele>
        <time>2020-01-28T09:13:02Z</time>
      </trkpt>
      <trkpt lat="43.3715690" lon="-5.8376640">
        <ele>198.1</ele>
        <time>2020-01-28T09:13:03Z</time>
      </trkpt>
      <trkpt lat="43.3715540" lon="-5.8376650">
        <ele>198.0</ele>
        <time>2020-01-28T09:13:04Z</time>
      </trkpt>
      <trkpt lat="43.3715400" lon="-5.8376680">
        <ele>198.0</ele>
        <time>2020-01-28T09:13:05Z</time>
      </trkpt>
      <trkpt lat="43.3715230" lon="-5.8376710">
        <ele>198.0</ele>
        <time>2020-01-28T09:13:06Z</time>
      </trkpt>
      <trkpt lat="43.3715080" lon="-5.8376740">
        <ele>197.9</ele>
        <time>2020-01-28T09:13:07Z</time>
      </trkpt>
      <trkpt lat="43.3714930" lon="-5.8376750">
        <ele>197.9</ele>
        <time>2020-01-28T09:13:08Z</time>
      </trkpt>
      <trkpt lat="43.3714750" lon="-5.8376750">
        <ele>197.9</ele>
        <time>2020-01-28T09:13:09Z</time>
      </trkpt>
      <trkpt lat="43.3714600" lon="-5.8376720">
        <ele>197.8</ele>
        <time>2020-01-28T09:13:10Z</time>
      </trkpt>
      <trkpt lat="43.3714460" lon="-5.8376740">
        <ele>197.8</ele>
        <time>2020-01-28T09:13:11Z</time>
      </trkpt>
      <trkpt lat="43.3714320" lon="-5.8376720">
        <ele>197.7</ele>
        <time>2020-01-28T09:13:12Z</time>
      </trkpt>
      <trkpt lat="43.3714170" lon="-5.8376720">
        <ele>197.7</ele>
        <time>2020-01-28T09:13:13Z</time>
      </trkpt>
      <trkpt lat="43.3714000" lon="-5.8376720">
        <ele>197.7</ele>
        <time>2020-01-28T09:13:14Z</time>
      </trkpt>
      <trkpt lat="43.3713840" lon="-5.8376720">
        <ele>197.7</ele>
        <time>2020-01-28T09:13:15Z</time>
      </trkpt>
      <trkpt lat="43.3713690" lon="-5.8376720">
        <ele>197.7</ele>
        <time>2020-01-28T09:13:16Z</time>
      </trkpt>
      <trkpt lat="43.3713540" lon="-5.8376710">
        <ele>197.7</ele>
        <time>2020-01-28T09:13:17Z</time>
      </trkpt>
      <trkpt lat="43.3713390" lon="-5.8376710">
        <ele>197.6</ele>
        <time>2020-01-28T09:13:18Z</time>
      </trkpt>
      <trkpt lat="43.3713230" lon="-5.8376700">
        <ele>197.6</ele>
        <time>2020-01-28T09:13:19Z</time>
      </trkpt>
      <trkpt lat="43.3713080" lon="-5.8376690">
        <ele>197.6</ele>
        <time>2020-01-28T09:13:20Z</time>
      </trkpt>
      <trkpt lat="43.3712960" lon="-5.8376610">
        <ele>197.0</ele>
        <time>2020-01-28T09:13:21Z</time>
      </trkpt>
      <trkpt lat="43.3712860" lon="-5.8376470">
        <ele>196.9</ele>
        <time>2020-01-28T09:13:22Z</time>
      </trkpt>
      <trkpt lat="43.3712770" lon="-5.8376310">
        <ele>196.8</ele>
        <time>2020-01-28T09:13:23Z</time>
      </trkpt>
      <trkpt lat="43.3712700" lon="-5.8376120">
        <ele>196.7</ele>
        <time>2020-01-28T09:13:24Z</time>
      </trkpt>
      <trkpt lat="43.3712610" lon="-5.8375960">
        <ele>196.6</ele>
        <time>2020-01-28T09:13:25Z</time>
      </trkpt>
      <trkpt lat="43.3712510" lon="-5.8375820">
        <ele>196.6</ele>
        <time>2020-01-28T09:13:26Z</time>
      </trkpt>
      <trkpt lat="43.3712410" lon="-5.8375710">
        <ele>196.5</ele>
        <time>2020-01-28T09:13:27Z</time>
      </trkpt>
      <trkpt lat="43.3712310" lon="-5.8375590">
        <ele>196.5</ele>
        <time>2020-01-28T09:13:28Z</time>
      </trkpt>
      <trkpt lat="43.3712170" lon="-5.8375510">
        <ele>196.4</ele>
        <time>2020-01-28T09:13:29Z</time>
      </trkpt>
      <trkpt lat="43.3712050" lon="-5.8375410">
        <ele>196.4</ele>
        <time>2020-01-28T09:13:30Z</time>
      </trkpt>
      <trkpt lat="43.3712000" lon="-5.8375210">
        <ele>196.3</ele>
        <time>2020-01-28T09:13:31Z</time>
      </trkpt>
      <trkpt lat="43.3711980" lon="-5.8374980">
        <ele>196.2</ele>
        <time>2020-01-28T09:13:32Z</time>
      </trkpt>
      <trkpt lat="43.3712000" lon="-5.8374740">
        <ele>196.2</ele>
        <time>2020-01-28T09:13:33Z</time>
      </trkpt>
      <trkpt lat="43.3711980" lon="-5.8374530">
        <ele>196.1</ele>
        <time>2020-01-28T09:13:34Z</time>
      </trkpt>
      <trkpt lat="43.3712000" lon="-5.8374310">
        <ele>196.1</ele>
        <time>2020-01-28T09:13:35Z</time>
      </trkpt>
      <trkpt lat="43.3711940" lon="-5.8374100">
        <ele>196.1</ele>
        <time>2020-01-28T09:13:36Z</time>
      </trkpt>
      <trkpt lat="43.3711810" lon="-5.8373910">
        <ele>196.0</ele>
        <time>2020-01-28T09:13:37Z</time>
      </trkpt>
      <trkpt lat="43.3711680" lon="-5.8373750">
        <ele>196.0</ele>
        <time>2020-01-28T09:13:38Z</time>
      </trkpt>
      <trkpt lat="43.3711540" lon="-5.8373600">
        <ele>196.0</ele>
        <time>2020-01-28T09:13:39Z</time>
      </trkpt>
      <trkpt lat="43.3711460" lon="-5.8373390">
        <ele>195.9</ele>
        <time>2020-01-28T09:13:40Z</time>
      </trkpt>
      <trkpt lat="43.3711390" lon="-5.8373200">
        <ele>195.9</ele>
        <time>2020-01-28T09:13:41Z</time>
      </trkpt>
      <trkpt lat="43.3711340" lon="-5.8372990">
        <ele>195.9</ele>
        <time>2020-01-28T09:13:42Z</time>
      </trkpt>
      <trkpt lat="43.3711270" lon="-5.8372800">
        <ele>195.8</ele>
        <time>2020-01-28T09:13:43Z</time>
      </trkpt>
      <trkpt lat="43.3711180" lon="-5.8372680">
        <ele>195.8</ele>
        <time>2020-01-28T09:13:44Z</time>
      </trkpt>
      <trkpt lat="43.3711060" lon="-5.8372600">
        <ele>195.6</ele>
        <time>2020-01-28T09:13:45Z</time>
      </trkpt>
      <trkpt lat="43.3710950" lon="-5.8372580">
        <ele>195.6</ele>
        <time>2020-01-28T09:13:46Z</time>
      </trkpt>
      <trkpt lat="43.3710850" lon="-5.8372580">
        <ele>195.6</ele>
        <time>2020-01-28T09:13:47Z</time>
      </trkpt>
      <trkpt lat="43.3710760" lon="-5.8372570">
        <ele>195.6</ele>
        <time>2020-01-28T09:13:48Z</time>
      </trkpt>
      <trkpt lat="43.3710690" lon="-5.8372540">
        <ele>195.6</ele>
        <time>2020-01-28T09:13:49Z</time>
      </trkpt>
      <trkpt lat="43.3710630" lon="-5.8372510">
        <ele>195.6</ele>
        <time>2020-01-28T09:13:50Z</time>
      </trkpt>
      <trkpt lat="43.3710590" lon="-5.8372470">
        <ele>195.6</ele>
        <time>2020-01-28T09:13:51Z</time>
      </trkpt>
      <trkpt lat="43.3710620" lon="-5.8372460">
        <ele>195.6</ele>
        <time>2020-01-28T09:13:52Z</time>
      </trkpt>
      <trkpt lat="43.3710670" lon="-5.8372530">
        <ele>195.6</ele>
        <time>2020-01-28T09:13:53Z</time>
      </trkpt>
      <trkpt lat="43.3710660" lon="-5.8372610">
        <ele>195.6</ele>
        <time>2020-01-28T09:13:54Z</time>
      </trkpt>
      <trkpt lat="43.3710570" lon="-5.8372710">
        <ele>195.6</ele>
        <time>2020-01-28T09:13:55Z</time>
      </trkpt>
      <trkpt lat="43.3710420" lon="-5.8372810">
        <ele>195.6</ele>
        <time>2020-01-28T09:13:56Z</time>
      </trkpt>
      <trkpt lat="43.3710250" lon="-5.8372930">
        <ele>195.6</ele>
        <time>2020-01-28T09:13:57Z</time>
      </trkpt>
      <trkpt lat="43.3710090" lon="-5.8373030">
        <ele>195.6</ele>
        <time>2020-01-28T09:13:58Z</time>
      </trkpt>
      <trkpt lat="43.3709960" lon="-5.8373090">
        <ele>195.6</ele>
        <time>2020-01-28T09:13:59Z</time>
      </trkpt>
      <trkpt lat="43.3709830" lon="-5.8373160">
        <ele>195.6</ele>
        <time>2020-01-28T09:14:00Z</time>
      </trkpt>
      <trkpt lat="43.3709700" lon="-5.8373240">
        <ele>195.6</ele>
        <time>2020-01-28T09:14:01Z</time>
      </trkpt>
      <trkpt lat="43.3709550" lon="-5.8373350">
        <ele>195.6</ele>
        <time>2020-01-28T09:14:02Z</time>
      </trkpt>
      <trkpt lat="43.3709410" lon="-5.8373470">
        <ele>195.6</ele>
        <time>2020-01-28T09:14:03Z</time>
      </trkpt>
      <trkpt lat="43.3709280" lon="-5.8373590">
        <ele>195.6</ele>
        <time>2020-01-28T09:14:04Z</time>
      </trkpt>
      <trkpt lat="43.3709160" lon="-5.8373660">
        <ele>195.6</ele>
        <time>2020-01-28T09:14:05Z</time>
      </trkpt>
      <trkpt lat="43.3709040" lon="-5.8373700">
        <ele>195.7</ele>
        <time>2020-01-28T09:14:06Z</time>
      </trkpt>
      <trkpt lat="43.3708960" lon="-5.8373710">
        <ele>195.7</ele>
        <time>2020-01-28T09:14:07Z</time>
      </trkpt>
      <trkpt lat="43.3708960" lon="-5.8373710">
        <ele>195.7</ele>
        <time>2020-01-28T09:14:08Z</time>
      </trkpt>
      <trkpt lat="43.3708960" lon="-5.8373710">
        <ele>195.7</ele>
        <time>2020-01-28T09:14:09Z</time>
      </trkpt>
      <trkpt lat="43.3709010" lon="-5.8373700">
        <ele>195.7</ele>
        <time>2020-01-28T09:14:10Z</time>
      </trkpt>
      <trkpt lat="43.3708970" lon="-5.8373710">
        <ele>195.7</ele>
        <time>2020-01-28T09:14:11Z</time>
      </trkpt>
      <trkpt lat="43.3708900" lon="-5.8373700">
        <ele>195.7</ele>
        <time>2020-01-28T09:14:12Z</time>
      </trkpt>
      <trkpt lat="43.3708830" lon="-5.8373660">
        <ele>195.7</ele>
        <time>2020-01-28T09:14:13Z</time>
      </trkpt>
      <trkpt lat="43.3708790" lon="-5.8373620">
        <ele>195.7</ele>
        <time>2020-01-28T09:14:14Z</time>
      </trkpt>
      <trkpt lat="43.3708790" lon="-5.8373620">
        <ele>195.7</ele>
        <time>2020-01-28T09:14:15Z</time>
      </trkpt>
      <trkpt lat="43.3708720" lon="-5.8373580">
        <ele>195.7</ele>
        <time>2020-01-28T09:14:16Z</time>
      </trkpt>
      <trkpt lat="43.3708660" lon="-5.8373580">
        <ele>195.7</ele>
        <time>2020-01-28T09:14:17Z</time>
      </trkpt>
      <trkpt lat="43.3708510" lon="-5.8373520">
        <ele>195.7</ele>
        <time>2020-01-28T09:14:18Z</time>
      </trkpt>
      <trkpt lat="43.3708440" lon="-5.8373470">
        <ele>195.7</ele>
        <time>2020-01-28T09:14:19Z</time>
      </trkpt>
      <trkpt lat="43.3708370" lon="-5.8373410">
        <ele>195.7</ele>
        <time>2020-01-28T09:14:20Z</time>
      </trkpt>
      <trkpt lat="43.3708300" lon="-5.8373360">
        <ele>195.7</ele>
        <time>2020-01-28T09:14:21Z</time>
      </trkpt>
      <trkpt lat="43.3708190" lon="-5.8373180">
        <ele>195.7</ele>
        <time>2020-01-28T09:14:22Z</time>
      </trkpt>
      <trkpt lat="43.3708070" lon="-5.8373000">
        <ele>195.7</ele>
        <time>2020-01-28T09:14:23Z</time>
      </trkpt>
      <trkpt lat="43.3707940" lon="-5.8372820">
        <ele>195.7</ele>
        <time>2020-01-28T09:14:24Z</time>
      </trkpt>
      <trkpt lat="43.3707830" lon="-5.8372630">
        <ele>195.7</ele>
        <time>2020-01-28T09:14:25Z</time>
      </trkpt>
      <trkpt lat="43.3707700" lon="-5.8372420">
        <ele>195.7</ele>
        <time>2020-01-28T09:14:26Z</time>
      </trkpt>
      <trkpt lat="43.3707670" lon="-5.8372370">
        <ele>195.7</ele>
        <time>2020-01-28T09:14:27Z</time>
      </trkpt>
      <trkpt lat="43.3707550" lon="-5.8372360">
        <ele>195.7</ele>
        <time>2020-01-28T09:14:28Z</time>
      </trkpt>
      <trkpt lat="43.3707410" lon="-5.8372280">
        <ele>195.7</ele>
        <time>2020-01-28T09:14:29Z</time>
      </trkpt>
      <trkpt lat="43.3707450" lon="-5.8372240">
        <ele>195.7</ele>
        <time>2020-01-28T09:14:30Z</time>
      </trkpt>
      <trkpt lat="43.3707420" lon="-5.8372190">
        <ele>195.7</ele>
        <time>2020-01-28T09:14:31Z</time>
      </trkpt>
      <trkpt lat="43.3707380" lon="-5.8372220">
        <ele>195.8</ele>
        <time>2020-01-28T09:14:32Z</time>
      </trkpt>
      <trkpt lat="43.3707260" lon="-5.8372290">
        <ele>195.8</ele>
        <time>2020-01-28T09:14:33Z</time>
      </trkpt>
      <trkpt lat="43.3707120" lon="-5.8372370">
        <ele>195.8</ele>
        <time>2020-01-28T09:14:34Z</time>
      </trkpt>
      <trkpt lat="43.3707000" lon="-5.8372440">
        <ele>195.8</ele>
        <time>2020-01-28T09:14:35Z</time>
      </trkpt>
      <trkpt lat="43.3706860" lon="-5.8372490">
        <ele>195.8</ele>
        <time>2020-01-28T09:14:36Z</time>
      </trkpt>
      <trkpt lat="43.3706730" lon="-5.8372550">
        <ele>195.8</ele>
        <time>2020-01-28T09:14:37Z</time>
      </trkpt>
      <trkpt lat="43.3706550" lon="-5.8372670">
        <ele>195.8</ele>
        <time>2020-01-28T09:14:38Z</time>
      </trkpt>
      <trkpt lat="43.3706480" lon="-5.8372740">
        <ele>195.8</ele>
        <time>2020-01-28T09:14:39Z</time>
      </trkpt>
      <trkpt lat="43.3706420" lon="-5.8372810">
        <ele>195.8</ele>
        <time>2020-01-28T09:14:40Z</time>
      </trkpt>
      <trkpt lat="43.3706340" lon="-5.8372980">
        <ele>195.6</ele>
        <time>2020-01-28T09:14:41Z</time>
      </trkpt>
      <trkpt lat="43.3706290" lon="-5.8373160">
        <ele>195.6</ele>
        <time>2020-01-28T09:14:42Z</time>
      </trkpt>
      <trkpt lat="43.3706240" lon="-5.8373340">
        <ele>195.6</ele>
        <time>2020-01-28T09:14:43Z</time>
      </trkpt>
      <trkpt lat="43.3706200" lon="-5.8373520">
        <ele>195.6</ele>
        <time>2020-01-28T09:14:44Z</time>
      </trkpt>
      <trkpt lat="43.3706130" lon="-5.8373700">
        <ele>195.7</ele>
        <time>2020-01-28T09:14:45Z</time>
      </trkpt>
      <trkpt lat="43.3706060" lon="-5.8373870">
        <ele>195.7</ele>
        <time>2020-01-28T09:14:46Z</time>
      </trkpt>
      <trkpt lat="43.3705970" lon="-5.8374000">
        <ele>195.7</ele>
        <time>2020-01-28T09:14:47Z</time>
      </trkpt>
      <trkpt lat="43.3705880" lon="-5.8374110">
        <ele>195.7</ele>
        <time>2020-01-28T09:14:48Z</time>
      </trkpt>
      <trkpt lat="43.3705790" lon="-5.8374190">
        <ele>195.7</ele>
        <time>2020-01-28T09:14:49Z</time>
      </trkpt>
      <trkpt lat="43.3705690" lon="-5.8374280">
        <ele>195.7</ele>
        <time>2020-01-28T09:14:50Z</time>
      </trkpt>
      <trkpt lat="43.3705590" lon="-5.8374360">
        <ele>195.7</ele>
        <time>2020-01-28T09:14:51Z</time>
      </trkpt>
      <trkpt lat="43.3705480" lon="-5.8374430">
        <ele>195.7</ele>
        <time>2020-01-28T09:14:52Z</time>
      </trkpt>
      <trkpt lat="43.3705330" lon="-5.8374450">
        <ele>195.7</ele>
        <time>2020-01-28T09:14:53Z</time>
      </trkpt>
      <trkpt lat="43.3705200" lon="-5.8374450">
        <ele>195.8</ele>
        <time>2020-01-28T09:14:54Z</time>
      </trkpt>
      <trkpt lat="43.3705090" lon="-5.8374490">
        <ele>195.8</ele>
        <time>2020-01-28T09:14:55Z</time>
      </trkpt>
      <trkpt lat="43.3704980" lon="-5.8374580">
        <ele>195.8</ele>
        <time>2020-01-28T09:14:56Z</time>
      </trkpt>
      <trkpt lat="43.3704880" lon="-5.8374690">
        <ele>195.8</ele>
        <time>2020-01-28T09:14:57Z</time>
      </trkpt>
      <trkpt lat="43.3704770" lon="-5.8374820">
        <ele>195.9</ele>
        <time>2020-01-28T09:14:58Z</time>
      </trkpt>
      <trkpt lat="43.3704660" lon="-5.8374960">
        <ele>195.9</ele>
        <time>2020-01-28T09:14:59Z</time>
      </trkpt>
      <trkpt lat="43.3704550" lon="-5.8375090">
        <ele>195.9</ele>
        <time>2020-01-28T09:15:00Z</time>
      </trkpt>
      <trkpt lat="43.3704440" lon="-5.8375250">
        <ele>196.0</ele>
        <time>2020-01-28T09:15:01Z</time>
      </trkpt>
      <trkpt lat="43.3704330" lon="-5.8375400">
        <ele>196.0</ele>
        <time>2020-01-28T09:15:02Z</time>
      </trkpt>
      <trkpt lat="43.3704190" lon="-5.8375540">
        <ele>196.0</ele>
        <time>2020-01-28T09:15:03Z</time>
      </trkpt>
      <trkpt lat="43.3704060" lon="-5.8375660">
        <ele>196.1</ele>
        <time>2020-01-28T09:15:04Z</time>
      </trkpt>
      <trkpt lat="43.3703930" lon="-5.8375800">
        <ele>196.1</ele>
        <time>2020-01-28T09:15:05Z</time>
      </trkpt>
      <trkpt lat="43.3703810" lon="-5.8375960">
        <ele>196.1</ele>
        <time>2020-01-28T09:15:06Z</time>
      </trkpt>
      <trkpt lat="43.3703690" lon="-5.8376080">
        <ele>196.2</ele>
        <time>2020-01-28T09:15:07Z</time>
      </trkpt>
      <trkpt lat="43.3703570" lon="-5.8376210">
        <ele>196.2</ele>
        <time>2020-01-28T09:15:08Z</time>
      </trkpt>
      <trkpt lat="43.3703470" lon="-5.8376320">
        <ele>196.2</ele>
        <time>2020-01-28T09:15:09Z</time>
      </trkpt>
      <trkpt lat="43.3703360" lon="-5.8376420">
        <ele>196.3</ele>
        <time>2020-01-28T09:15:10Z</time>
      </trkpt>
      <trkpt lat="43.3703210" lon="-5.8376520">
        <ele>196.3</ele>
        <time>2020-01-28T09:15:11Z</time>
      </trkpt>
      <trkpt lat="43.3703080" lon="-5.8376600">
        <ele>196.3</ele>
        <time>2020-01-28T09:15:12Z</time>
      </trkpt>
      <trkpt lat="43.3702970" lon="-5.8376680">
        <ele>196.3</ele>
        <time>2020-01-28T09:15:13Z</time>
      </trkpt>
      <trkpt lat="43.3702800" lon="-5.8376850">
        <ele>196.4</ele>
        <time>2020-01-28T09:15:14Z</time>
      </trkpt>
      <trkpt lat="43.3702730" lon="-5.8376900">
        <ele>196.4</ele>
        <time>2020-01-28T09:15:15Z</time>
      </trkpt>
      <trkpt lat="43.3702660" lon="-5.8376960">
        <ele>196.4</ele>
        <time>2020-01-28T09:15:16Z</time>
      </trkpt>
      <trkpt lat="43.3702570" lon="-5.8377020">
        <ele>196.4</ele>
        <time>2020-01-28T09:15:17Z</time>
      </trkpt>
      <trkpt lat="43.3702500" lon="-5.8377100">
        <ele>196.5</ele>
        <time>2020-01-28T09:15:18Z</time>
      </trkpt>
      <trkpt lat="43.3702430" lon="-5.8377170">
        <ele>196.5</ele>
        <time>2020-01-28T09:15:19Z</time>
      </trkpt>
      <trkpt lat="43.3702380" lon="-5.8377310">
        <ele>196.5</ele>
        <time>2020-01-28T09:15:20Z</time>
      </trkpt>
      <trkpt lat="43.3702300" lon="-5.8377510">
        <ele>196.5</ele>
        <time>2020-01-28T09:15:21Z</time>
      </trkpt>
      <trkpt lat="43.3702180" lon="-5.8377630">
        <ele>196.5</ele>
        <time>2020-01-28T09:15:22Z</time>
      </trkpt>
      <trkpt lat="43.3702080" lon="-5.8377750">
        <ele>196.6</ele>
        <time>2020-01-28T09:15:23Z</time>
      </trkpt>
      <trkpt lat="43.3701970" lon="-5.8377880">
        <ele>196.6</ele>
        <time>2020-01-28T09:15:24Z</time>
      </trkpt>
      <trkpt lat="43.3701940" lon="-5.8377860">
        <ele>196.6</ele>
        <time>2020-01-28T09:15:25Z</time>
      </trkpt>
      <trkpt lat="43.3701880" lon="-5.8377870">
        <ele>196.6</ele>
        <time>2020-01-28T09:15:26Z</time>
      </trkpt>
      <trkpt lat="43.3701770" lon="-5.8377900">
        <ele>196.6</ele>
        <time>2020-01-28T09:15:27Z</time>
      </trkpt>
      <trkpt lat="43.3701610" lon="-5.8377990">
        <ele>196.6</ele>
        <time>2020-01-28T09:15:28Z</time>
      </trkpt>
      <trkpt lat="43.3701470" lon="-5.8378140">
        <ele>196.6</ele>
        <time>2020-01-28T09:15:29Z</time>
      </trkpt>
      <trkpt lat="43.3701240" lon="-5.8378440">
        <ele>196.7</ele>
        <time>2020-01-28T09:15:30Z</time>
      </trkpt>
      <trkpt lat="43.3701160" lon="-5.8378550">
        <ele>196.7</ele>
        <time>2020-01-28T09:15:31Z</time>
      </trkpt>
      <trkpt lat="43.3700910" lon="-5.8378850">
        <ele>196.7</ele>
        <time>2020-01-28T09:15:32Z</time>
      </trkpt>
      <trkpt lat="43.3700830" lon="-5.8378910">
        <ele>196.7</ele>
        <time>2020-01-28T09:15:33Z</time>
      </trkpt>
      <trkpt lat="43.3700600" lon="-5.8379140">
        <ele>196.8</ele>
        <time>2020-01-28T09:15:34Z</time>
      </trkpt>
      <trkpt lat="43.3700530" lon="-5.8379210">
        <ele>196.8</ele>
        <time>2020-01-28T09:15:35Z</time>
      </trkpt>
      <trkpt lat="43.3700330" lon="-5.8379530">
        <ele>196.8</ele>
        <time>2020-01-28T09:15:36Z</time>
      </trkpt>
      <trkpt lat="43.3700250" lon="-5.8379620">
        <ele>196.8</ele>
        <time>2020-01-28T09:15:37Z</time>
      </trkpt>
      <trkpt lat="43.3700110" lon="-5.8379770">
        <ele>196.8</ele>
        <time>2020-01-28T09:15:38Z</time>
      </trkpt>
      <trkpt lat="43.3699970" lon="-5.8379900">
        <ele>196.9</ele>
        <time>2020-01-28T09:15:39Z</time>
      </trkpt>
      <trkpt lat="43.3699840" lon="-5.8380060">
        <ele>196.9</ele>
        <time>2020-01-28T09:15:40Z</time>
      </trkpt>
      <trkpt lat="43.3699720" lon="-5.8380200">
        <ele>196.9</ele>
        <time>2020-01-28T09:15:41Z</time>
      </trkpt>
      <trkpt lat="43.3699620" lon="-5.8380340">
        <ele>196.9</ele>
        <time>2020-01-28T09:15:42Z</time>
      </trkpt>
      <trkpt lat="43.3699520" lon="-5.8380470">
        <ele>196.9</ele>
        <time>2020-01-28T09:15:43Z</time>
      </trkpt>
      <trkpt lat="43.3699410" lon="-5.8380580">
        <ele>196.9</ele>
        <time>2020-01-28T09:15:44Z</time>
      </trkpt>
      <trkpt lat="43.3699290" lon="-5.8380660">
        <ele>197.0</ele>
        <time>2020-01-28T09:15:45Z</time>
      </trkpt>
      <trkpt lat="43.3699180" lon="-5.8380720">
        <ele>197.0</ele>
        <time>2020-01-28T09:15:46Z</time>
      </trkpt>
      <trkpt lat="43.3699090" lon="-5.8380780">
        <ele>197.0</ele>
        <time>2020-01-28T09:15:47Z</time>
      </trkpt>
      <trkpt lat="43.3699040" lon="-5.8380820">
        <ele>197.0</ele>
        <time>2020-01-28T09:15:48Z</time>
      </trkpt>
      <trkpt lat="43.3699050" lon="-5.8380800">
        <ele>197.0</ele>
        <time>2020-01-28T09:15:49Z</time>
      </trkpt>
      <trkpt lat="43.3699080" lon="-5.8380750">
        <ele>197.0</ele>
        <time>2020-01-28T09:15:50Z</time>
      </trkpt>
      <trkpt lat="43.3699080" lon="-5.8380670">
        <ele>197.0</ele>
        <time>2020-01-28T09:15:51Z</time>
      </trkpt>
      <trkpt lat="43.3699050" lon="-5.8380650">
        <ele>197.0</ele>
        <time>2020-01-28T09:15:52Z</time>
      </trkpt>
      <trkpt lat="43.3698970" lon="-5.8380700">
        <ele>197.0</ele>
        <time>2020-01-28T09:15:53Z</time>
      </trkpt>
      <trkpt lat="43.3698880" lon="-5.8380780">
        <ele>197.0</ele>
        <time>2020-01-28T09:15:54Z</time>
      </trkpt>
      <trkpt lat="43.3698820" lon="-5.8380890">
        <ele>197.0</ele>
        <time>2020-01-28T09:15:55Z</time>
      </trkpt>
      <trkpt lat="43.3698800" lon="-5.8380960">
        <ele>197.0</ele>
        <time>2020-01-28T09:15:56Z</time>
      </trkpt>
      <trkpt lat="43.3698790" lon="-5.8380960">
        <ele>197.0</ele>
        <time>2020-01-28T09:15:57Z</time>
      </trkpt>
      <trkpt lat="43.3698780" lon="-5.8381000">
        <ele>197.0</ele>
        <time>2020-01-28T09:15:58Z</time>
      </trkpt>
      <trkpt lat="43.3698710" lon="-5.8381140">
        <ele>197.0</ele>
        <time>2020-01-28T09:15:59Z</time>
      </trkpt>
      <trkpt lat="43.3698640" lon="-5.8381210">
        <ele>197.1</ele>
        <time>2020-01-28T09:16:00Z</time>
      </trkpt>
      <trkpt lat="43.3698570" lon="-5.8381290">
        <ele>197.1</ele>
        <time>2020-01-28T09:16:01Z</time>
      </trkpt>
      <trkpt lat="43.3698500" lon="-5.8381360">
        <ele>197.1</ele>
        <time>2020-01-28T09:16:02Z</time>
      </trkpt>
      <trkpt lat="43.3698350" lon="-5.8381470">
        <ele>197.1</ele>
        <time>2020-01-28T09:16:03Z</time>
      </trkpt>
      <trkpt lat="43.3698200" lon="-5.8381590">
        <ele>197.1</ele>
        <time>2020-01-28T09:16:04Z</time>
      </trkpt>
      <trkpt lat="43.3698050" lon="-5.8381700">
        <ele>197.1</ele>
        <time>2020-01-28T09:16:05Z</time>
      </trkpt>
      <trkpt lat="43.3697910" lon="-5.8381810">
        <ele>197.1</ele>
        <time>2020-01-28T09:16:06Z</time>
      </trkpt>
      <trkpt lat="43.3697770" lon="-5.8381900">
        <ele>197.1</ele>
        <time>2020-01-28T09:16:07Z</time>
      </trkpt>
      <trkpt lat="43.3697630" lon="-5.8382000">
        <ele>197.1</ele>
        <time>2020-01-28T09:16:08Z</time>
      </trkpt>
      <trkpt lat="43.3697510" lon="-5.8382120">
        <ele>197.0</ele>
        <time>2020-01-28T09:16:09Z</time>
      </trkpt>
      <trkpt lat="43.3697400" lon="-5.8382220">
        <ele>197.0</ele>
        <time>2020-01-28T09:16:10Z</time>
      </trkpt>
      <trkpt lat="43.3697290" lon="-5.8382310">
        <ele>197.0</ele>
        <time>2020-01-28T09:16:11Z</time>
      </trkpt>
      <trkpt lat="43.3697170" lon="-5.8382370">
        <ele>197.0</ele>
        <time>2020-01-28T09:16:12Z</time>
      </trkpt>
      <trkpt lat="43.3697070" lon="-5.8382410">
        <ele>196.9</ele>
        <time>2020-01-28T09:16:13Z</time>
      </trkpt>
      <trkpt lat="43.3696970" lon="-5.8382350">
        <ele>196.9</ele>
        <time>2020-01-28T09:16:14Z</time>
      </trkpt>
      <trkpt lat="43.3696870" lon="-5.8382320">
        <ele>196.9</ele>
        <time>2020-01-28T09:16:15Z</time>
      </trkpt>
      <trkpt lat="43.3696770" lon="-5.8382330">
        <ele>196.9</ele>
        <time>2020-01-28T09:16:16Z</time>
      </trkpt>
      <trkpt lat="43.3696660" lon="-5.8382350">
        <ele>196.8</ele>
        <time>2020-01-28T09:16:17Z</time>
      </trkpt>
      <trkpt lat="43.3696540" lon="-5.8382390">
        <ele>196.8</ele>
        <time>2020-01-28T09:16:18Z</time>
      </trkpt>
      <trkpt lat="43.3696440" lon="-5.8382480">
        <ele>196.8</ele>
        <time>2020-01-28T09:16:19Z</time>
      </trkpt>
      <trkpt lat="43.3696320" lon="-5.8382580">
        <ele>196.8</ele>
        <time>2020-01-28T09:16:20Z</time>
      </trkpt>
      <trkpt lat="43.3696180" lon="-5.8382690">
        <ele>196.7</ele>
        <time>2020-01-28T09:16:21Z</time>
      </trkpt>
      <trkpt lat="43.3696050" lon="-5.8382800">
        <ele>196.7</ele>
        <time>2020-01-28T09:16:22Z</time>
      </trkpt>
      <trkpt lat="43.3695910" lon="-5.8382880">
        <ele>196.6</ele>
        <time>2020-01-28T09:16:23Z</time>
      </trkpt>
      <trkpt lat="43.3695760" lon="-5.8382940">
        <ele>196.6</ele>
        <time>2020-01-28T09:16:24Z</time>
      </trkpt>
      <trkpt lat="43.3695600" lon="-5.8382970">
        <ele>196.5</ele>
        <time>2020-01-28T09:16:25Z</time>
      </trkpt>
      <trkpt lat="43.3695450" lon="-5.8382950">
        <ele>196.4</ele>
        <time>2020-01-28T09:16:26Z</time>
      </trkpt>
      <trkpt lat="43.3695290" lon="-5.8382960">
        <ele>196.4</ele>
        <time>2020-01-28T09:16:27Z</time>
      </trkpt>
      <trkpt lat="43.3695120" lon="-5.8382980">
        <ele>196.3</ele>
        <time>2020-01-28T09:16:28Z</time>
      </trkpt>
      <trkpt lat="43.3694960" lon="-5.8383080">
        <ele>196.2</ele>
        <time>2020-01-28T09:16:29Z</time>
      </trkpt>
      <trkpt lat="43.3694740" lon="-5.8383350">
        <ele>196.1</ele>
        <time>2020-01-28T09:16:30Z</time>
      </trkpt>
      <trkpt lat="43.3694670" lon="-5.8383430">
        <ele>196.0</ele>
        <time>2020-01-28T09:16:31Z</time>
      </trkpt>
      <trkpt lat="43.3694470" lon="-5.8383680">
        <ele>195.9</ele>
        <time>2020-01-28T09:16:32Z</time>
      </trkpt>
      <trkpt lat="43.3694400" lon="-5.8383760">
        <ele>195.9</ele>
        <time>2020-01-28T09:16:33Z</time>
      </trkpt>
      <trkpt lat="43.3694280" lon="-5.8383890">
        <ele>195.8</ele>
        <time>2020-01-28T09:16:34Z</time>
      </trkpt>
      <trkpt lat="43.3694170" lon="-5.8384040">
        <ele>195.7</ele>
        <time>2020-01-28T09:16:35Z</time>
      </trkpt>
      <trkpt lat="43.3694000" lon="-5.8384330">
        <ele>195.6</ele>
        <time>2020-01-28T09:16:36Z</time>
      </trkpt>
      <trkpt lat="43.3693940" lon="-5.8384420">
        <ele>195.6</ele>
        <time>2020-01-28T09:16:37Z</time>
      </trkpt>
      <trkpt lat="43.3693810" lon="-5.8384600">
        <ele>195.5</ele>
        <time>2020-01-28T09:16:38Z</time>
      </trkpt>
      <trkpt lat="43.3693690" lon="-5.8384790">
        <ele>195.4</ele>
        <time>2020-01-28T09:16:39Z</time>
      </trkpt>
      <trkpt lat="43.3693580" lon="-5.8384960">
        <ele>195.3</ele>
        <time>2020-01-28T09:16:40Z</time>
      </trkpt>
      <trkpt lat="43.3693460" lon="-5.8385130">
        <ele>195.2</ele>
        <time>2020-01-28T09:16:41Z</time>
      </trkpt>
      <trkpt lat="43.3693350" lon="-5.8385320">
        <ele>195.1</ele>
        <time>2020-01-28T09:16:42Z</time>
      </trkpt>
      <trkpt lat="43.3693250" lon="-5.8385500">
        <ele>195.0</ele>
        <time>2020-01-28T09:16:43Z</time>
      </trkpt>
      <trkpt lat="43.3693110" lon="-5.8385530">
        <ele>194.9</ele>
        <time>2020-01-28T09:16:44Z</time>
      </trkpt>
      <trkpt lat="43.3692960" lon="-5.8385510">
        <ele>194.8</ele>
        <time>2020-01-28T09:16:45Z</time>
      </trkpt>
      <trkpt lat="43.3692810" lon="-5.8385450">
        <ele>194.7</ele>
        <time>2020-01-28T09:16:46Z</time>
      </trkpt>
      <trkpt lat="43.3692640" lon="-5.8385360">
        <ele>194.6</ele>
        <time>2020-01-28T09:16:47Z</time>
      </trkpt>
      <trkpt lat="43.3692460" lon="-5.8385290">
        <ele>194.5</ele>
        <time>2020-01-28T09:16:48Z</time>
      </trkpt>
      <trkpt lat="43.3692290" lon="-5.8385240">
        <ele>194.4</ele>
        <time>2020-01-28T09:16:49Z</time>
      </trkpt>
      <trkpt lat="43.3692130" lon="-5.8385240">
        <ele>194.3</ele>
        <time>2020-01-28T09:16:50Z</time>
      </trkpt>
      <trkpt lat="43.3691990" lon="-5.8385260">
        <ele>194.3</ele>
        <time>2020-01-28T09:16:51Z</time>
      </trkpt>
      <trkpt lat="43.3691840" lon="-5.8385290">
        <ele>194.2</ele>
        <time>2020-01-28T09:16:52Z</time>
      </trkpt>
      <trkpt lat="43.3691690" lon="-5.8385310">
        <ele>194.1</ele>
        <time>2020-01-28T09:16:53Z</time>
      </trkpt>
      <trkpt lat="43.3691540" lon="-5.8385370">
        <ele>194.1</ele>
        <time>2020-01-28T09:16:54Z</time>
      </trkpt>
      <trkpt lat="43.3691400" lon="-5.8385430">
        <ele>194.1</ele>
        <time>2020-01-28T09:16:55Z</time>
      </trkpt>
      <trkpt lat="43.3691320" lon="-5.8385500">
        <ele>194.1</ele>
        <time>2020-01-28T09:16:56Z</time>
      </trkpt>
      <trkpt lat="43.3691280" lon="-5.8385530">
        <ele>194.1</ele>
        <time>2020-01-28T09:16:57Z</time>
      </trkpt>
      <trkpt lat="43.3691290" lon="-5.8385540">
        <ele>194.1</ele>
        <time>2020-01-28T09:16:58Z</time>
      </trkpt>
      <trkpt lat="43.3691290" lon="-5.8385540">
        <ele>194.1</ele>
        <time>2020-01-28T09:16:59Z</time>
      </trkpt>
      <trkpt lat="43.3691370" lon="-5.8385530">
        <ele>194.1</ele>
        <time>2020-01-28T09:17:00Z</time>
      </trkpt>
      <trkpt lat="43.3691370" lon="-5.8385530">
        <ele>194.1</ele>
        <time>2020-01-28T09:17:01Z</time>
      </trkpt>
      <trkpt lat="43.3691370" lon="-5.8385530">
        <ele>194.1</ele>
        <time>2020-01-28T09:17:02Z</time>
      </trkpt>
      <trkpt lat="43.3691460" lon="-5.8385480">
        <ele>194.1</ele>
        <time>2020-01-28T09:17:03Z</time>
      </trkpt>
      <trkpt lat="43.3691480" lon="-5.8385500">
        <ele>194.1</ele>
        <time>2020-01-28T09:17:04Z</time>
      </trkpt>
      <trkpt lat="43.3691500" lon="-5.8385520">
        <ele>194.1</ele>
        <time>2020-01-28T09:17:05Z</time>
      </trkpt>
      <trkpt lat="43.3691500" lon="-5.8385520">
        <ele>194.1</ele>
        <time>2020-01-28T09:17:06Z</time>
      </trkpt>
      <trkpt lat="43.3691500" lon="-5.8385520">
        <ele>194.1</ele>
        <time>2020-01-28T09:17:07Z</time>
      </trkpt>
      <trkpt lat="43.3691580" lon="-5.8385540">
        <ele>194.1</ele>
        <time>2020-01-28T09:17:08Z</time>
      </trkpt>
      <trkpt lat="43.3691580" lon="-5.8385540">
        <ele>194.1</ele>
        <time>2020-01-28T09:17:09Z</time>
      </trkpt>
      <trkpt lat="43.3691580" lon="-5.8385540">
        <ele>194.1</ele>
        <time>2020-01-28T09:17:10Z</time>
      </trkpt>
      <trkpt lat="43.3691580" lon="-5.8385540">
        <ele>194.1</ele>
        <time>2020-01-28T09:17:11Z</time>
      </trkpt>
      <trkpt lat="43.3691580" lon="-5.8385540">
        <ele>194.1</ele>
        <time>2020-01-28T09:17:12Z</time>
      </trkpt>
      <trkpt lat="43.3691580" lon="-5.8385540">
        <ele>194.1</ele>
        <time>2020-01-28T09:17:13Z</time>
      </trkpt>
      <trkpt lat="43.3691580" lon="-5.8385540">
        <ele>194.1</ele>
        <time>2020-01-28T09:17:14Z</time>
      </trkpt>
      <trkpt lat="43.3691580" lon="-5.8385540">
        <ele>194.1</ele>
        <time>2020-01-28T09:17:15Z</time>
      </trkpt>
      <trkpt lat="43.3691580" lon="-5.8385540">
        <ele>194.1</ele>
        <time>2020-01-28T09:17:16Z</time>
      </trkpt>
      <trkpt lat="43.3691580" lon="-5.8385540">
        <ele>194.1</ele>
        <time>2020-01-28T09:17:17Z</time>
      </trkpt>
      <trkpt lat="43.3691580" lon="-5.8385540">
        <ele>194.1</ele>
        <time>2020-01-28T09:17:18Z</time>
      </trkpt>
      <trkpt lat="43.3691580" lon="-5.8385540">
        <ele>194.1</ele>
        <time>2020-01-28T09:17:19Z</time>
      </trkpt>
      <trkpt lat="43.3691580" lon="-5.8385540">
        <ele>194.1</ele>
        <time>2020-01-28T09:17:20Z</time>
      </trkpt>
      <trkpt lat="43.3691590" lon="-5.8385430">
        <ele>194.1</ele>
        <time>2020-01-28T09:17:21Z</time>
      </trkpt>
      <trkpt lat="43.3691590" lon="-5.8385430">
        <ele>194.1</ele>
        <time>2020-01-28T09:17:22Z</time>
      </trkpt>
      <trkpt lat="43.3691590" lon="-5.8385430">
        <ele>194.1</ele>
        <time>2020-01-28T09:17:23Z</time>
      </trkpt>
      <trkpt lat="43.3691590" lon="-5.8385430">
        <ele>194.1</ele>
        <time>2020-01-28T09:17:24Z</time>
      </trkpt>
      <trkpt lat="43.3691590" lon="-5.8385430">
        <ele>194.1</ele>
        <time>2020-01-28T09:17:25Z</time>
      </trkpt>
      <trkpt lat="43.3691510" lon="-5.8385350">
        <ele>194.1</ele>
        <time>2020-01-28T09:17:26Z</time>
      </trkpt>
      <trkpt lat="43.3691510" lon="-5.8385350">
        <ele>194.1</ele>
        <time>2020-01-28T09:17:27Z</time>
      </trkpt>
      <trkpt lat="43.3691510" lon="-5.8385350">
        <ele>194.1</ele>
        <time>2020-01-28T09:17:28Z</time>
      </trkpt>
      <trkpt lat="43.3691510" lon="-5.8385350">
        <ele>194.1</ele>
        <time>2020-01-28T09:17:29Z</time>
      </trkpt>
      <trkpt lat="43.3691540" lon="-5.8385330">
        <ele>194.1</ele>
        <time>2020-01-28T09:17:30Z</time>
      </trkpt>
      <trkpt lat="43.3691420" lon="-5.8385390">
        <ele>194.1</ele>
        <time>2020-01-28T09:17:31Z</time>
      </trkpt>
      <trkpt lat="43.3691270" lon="-5.8385460">
        <ele>194.1</ele>
        <time>2020-01-28T09:17:32Z</time>
      </trkpt>
      <trkpt lat="43.3691100" lon="-5.8385540">
        <ele>194.1</ele>
        <time>2020-01-28T09:17:33Z</time>
      </trkpt>
      <trkpt lat="43.3690940" lon="-5.8385630">
        <ele>194.1</ele>
        <time>2020-01-28T09:17:34Z</time>
      </trkpt>
      <trkpt lat="43.3690770" lon="-5.8385720">
        <ele>194.1</ele>
        <time>2020-01-28T09:17:35Z</time>
      </trkpt>
      <trkpt lat="43.3690630" lon="-5.8385840">
        <ele>194.1</ele>
        <time>2020-01-28T09:17:36Z</time>
      </trkpt>
      <trkpt lat="43.3690500" lon="-5.8386000">
        <ele>194.1</ele>
        <time>2020-01-28T09:17:37Z</time>
      </trkpt>
      <trkpt lat="43.3690370" lon="-5.8386120">
        <ele>194.2</ele>
        <time>2020-01-28T09:17:38Z</time>
      </trkpt>
      <trkpt lat="43.3690240" lon="-5.8386220">
        <ele>194.2</ele>
        <time>2020-01-28T09:17:39Z</time>
      </trkpt>
      <trkpt lat="43.3690110" lon="-5.8386310">
        <ele>194.2</ele>
        <time>2020-01-28T09:17:40Z</time>
      </trkpt>
      <trkpt lat="43.3689980" lon="-5.8386390">
        <ele>194.2</ele>
        <time>2020-01-28T09:17:41Z</time>
      </trkpt>
      <trkpt lat="43.3689840" lon="-5.8386470">
        <ele>194.2</ele>
        <time>2020-01-28T09:17:42Z</time>
      </trkpt>
      <trkpt lat="43.3689690" lon="-5.8386530">
        <ele>194.2</ele>
        <time>2020-01-28T09:17:43Z</time>
      </trkpt>
      <trkpt lat="43.3689540" lon="-5.8386630">
        <ele>194.2</ele>
        <time>2020-01-28T09:17:44Z</time>
      </trkpt>
      <trkpt lat="43.3689370" lon="-5.8386740">
        <ele>194.2</ele>
        <time>2020-01-28T09:17:45Z</time>
      </trkpt>
      <trkpt lat="43.3689210" lon="-5.8386820">
        <ele>194.2</ele>
        <time>2020-01-28T09:17:46Z</time>
      </trkpt>
      <trkpt lat="43.3689060" lon="-5.8386900">
        <ele>194.2</ele>
        <time>2020-01-28T09:17:47Z</time>
      </trkpt>
      <trkpt lat="43.3688910" lon="-5.8386980">
        <ele>194.2</ele>
        <time>2020-01-28T09:17:48Z</time>
      </trkpt>
      <trkpt lat="43.3688760" lon="-5.8387070">
        <ele>194.2</ele>
        <time>2020-01-28T09:17:49Z</time>
      </trkpt>
      <trkpt lat="43.3688620" lon="-5.8387150">
        <ele>194.2</ele>
        <time>2020-01-28T09:17:50Z</time>
      </trkpt>
      <trkpt lat="43.3688480" lon="-5.8387240">
        <ele>194.2</ele>
        <time>2020-01-28T09:17:51Z</time>
      </trkpt>
      <trkpt lat="43.3688270" lon="-5.8387370">
        <ele>194.2</ele>
        <time>2020-01-28T09:17:52Z</time>
      </trkpt>
      <trkpt lat="43.3688190" lon="-5.8387430">
        <ele>194.2</ele>
        <time>2020-01-28T09:17:53Z</time>
      </trkpt>
      <trkpt lat="43.3688100" lon="-5.8387480">
        <ele>194.2</ele>
        <time>2020-01-28T09:17:54Z</time>
      </trkpt>
      <trkpt lat="43.3687960" lon="-5.8387560">
        <ele>194.2</ele>
        <time>2020-01-28T09:17:55Z</time>
      </trkpt>
      <trkpt lat="43.3687830" lon="-5.8387660">
        <ele>194.2</ele>
        <time>2020-01-28T09:17:56Z</time>
      </trkpt>
      <trkpt lat="43.3687640" lon="-5.8387830">
        <ele>194.2</ele>
        <time>2020-01-28T09:17:57Z</time>
      </trkpt>
      <trkpt lat="43.3687570" lon="-5.8387890">
        <ele>194.2</ele>
        <time>2020-01-28T09:17:58Z</time>
      </trkpt>
      <trkpt lat="43.3687490" lon="-5.8387950">
        <ele>194.2</ele>
        <time>2020-01-28T09:17:59Z</time>
      </trkpt>
      <trkpt lat="43.3687360" lon="-5.8388040">
        <ele>194.2</ele>
        <time>2020-01-28T09:18:00Z</time>
      </trkpt>
      <trkpt lat="43.3687230" lon="-5.8388120">
        <ele>194.2</ele>
        <time>2020-01-28T09:18:01Z</time>
      </trkpt>
      <trkpt lat="43.3687040" lon="-5.8388270">
        <ele>194.3</ele>
        <time>2020-01-28T09:18:02Z</time>
      </trkpt>
      <trkpt lat="43.3686950" lon="-5.8388330">
        <ele>194.3</ele>
        <time>2020-01-28T09:18:03Z</time>
      </trkpt>
      <trkpt lat="43.3686870" lon="-5.8388400">
        <ele>194.3</ele>
        <time>2020-01-28T09:18:04Z</time>
      </trkpt>
      <trkpt lat="43.3686750" lon="-5.8388490">
        <ele>194.4</ele>
        <time>2020-01-28T09:18:05Z</time>
      </trkpt>
      <trkpt lat="43.3686620" lon="-5.8388590">
        <ele>194.4</ele>
        <time>2020-01-28T09:18:06Z</time>
      </trkpt>
      <trkpt lat="43.3686440" lon="-5.8388770">
        <ele>194.5</ele>
        <time>2020-01-28T09:18:07Z</time>
      </trkpt>
      <trkpt lat="43.3686380" lon="-5.8388850">
        <ele>194.5</ele>
        <time>2020-01-28T09:18:08Z</time>
      </trkpt>
      <trkpt lat="43.3686310" lon="-5.8388940">
        <ele>194.5</ele>
        <time>2020-01-28T09:18:09Z</time>
      </trkpt>
      <trkpt lat="43.3686150" lon="-5.8389160">
        <ele>194.6</ele>
        <time>2020-01-28T09:18:10Z</time>
      </trkpt>
      <trkpt lat="43.3686080" lon="-5.8389240">
        <ele>194.6</ele>
        <time>2020-01-28T09:18:11Z</time>
      </trkpt>
      <trkpt lat="43.3686010" lon="-5.8389330">
        <ele>194.6</ele>
        <time>2020-01-28T09:18:12Z</time>
      </trkpt>
      <trkpt lat="43.3685890" lon="-5.8389450">
        <ele>194.7</ele>
        <time>2020-01-28T09:18:13Z</time>
      </trkpt>
      <trkpt lat="43.3685770" lon="-5.8389560">
        <ele>194.7</ele>
        <time>2020-01-28T09:18:14Z</time>
      </trkpt>
      <trkpt lat="43.3685600" lon="-5.8389750">
        <ele>194.8</ele>
        <time>2020-01-28T09:18:15Z</time>
      </trkpt>
      <trkpt lat="43.3685540" lon="-5.8389830">
        <ele>194.8</ele>
        <time>2020-01-28T09:18:16Z</time>
      </trkpt>
      <trkpt lat="43.3685480" lon="-5.8389920">
        <ele>194.8</ele>
        <time>2020-01-28T09:18:17Z</time>
      </trkpt>
      <trkpt lat="43.3685390" lon="-5.8390070">
        <ele>194.8</ele>
        <time>2020-01-28T09:18:18Z</time>
      </trkpt>
      <trkpt lat="43.3685280" lon="-5.8390220">
        <ele>194.9</ele>
        <time>2020-01-28T09:18:19Z</time>
      </trkpt>
      <trkpt lat="43.3685160" lon="-5.8390350">
        <ele>194.9</ele>
        <time>2020-01-28T09:18:20Z</time>
      </trkpt>
      <trkpt lat="43.3685040" lon="-5.8390460">
        <ele>194.9</ele>
        <time>2020-01-28T09:18:21Z</time>
      </trkpt>
      <trkpt lat="43.3684910" lon="-5.8390580">
        <ele>195.0</ele>
        <time>2020-01-28T09:18:22Z</time>
      </trkpt>
      <trkpt lat="43.3684780" lon="-5.8390700">
        <ele>195.0</ele>
        <time>2020-01-28T09:18:23Z</time>
      </trkpt>
      <trkpt lat="43.3684590" lon="-5.8390860">
        <ele>195.1</ele>
        <time>2020-01-28T09:18:24Z</time>
      </trkpt>
      <trkpt lat="43.3684510" lon="-5.8390930">
        <ele>195.1</ele>
        <time>2020-01-28T09:18:25Z</time>
      </trkpt>
      <trkpt lat="43.3684440" lon="-5.8390990">
        <ele>195.1</ele>
        <time>2020-01-28T09:18:26Z</time>
      </trkpt>
      <trkpt lat="43.3684290" lon="-5.8391100">
        <ele>195.2</ele>
        <time>2020-01-28T09:18:27Z</time>
      </trkpt>
      <trkpt lat="43.3684160" lon="-5.8391200">
        <ele>195.2</ele>
        <time>2020-01-28T09:18:28Z</time>
      </trkpt>
      <trkpt lat="43.3683980" lon="-5.8391360">
        <ele>195.3</ele>
        <time>2020-01-28T09:18:29Z</time>
      </trkpt>
      <trkpt lat="43.3683910" lon="-5.8391430">
        <ele>195.3</ele>
        <time>2020-01-28T09:18:30Z</time>
      </trkpt>
      <trkpt lat="43.3683850" lon="-5.8391500">
        <ele>195.3</ele>
        <time>2020-01-28T09:18:31Z</time>
      </trkpt>
      <trkpt lat="43.3683740" lon="-5.8391640">
        <ele>195.3</ele>
        <time>2020-01-28T09:18:32Z</time>
      </trkpt>
      <trkpt lat="43.3683630" lon="-5.8391720">
        <ele>195.4</ele>
        <time>2020-01-28T09:18:33Z</time>
      </trkpt>
      <trkpt lat="43.3683420" lon="-5.8391830">
        <ele>195.4</ele>
        <time>2020-01-28T09:18:34Z</time>
      </trkpt>
      <trkpt lat="43.3683350" lon="-5.8391870">
        <ele>195.4</ele>
        <time>2020-01-28T09:18:35Z</time>
      </trkpt>
      <trkpt lat="43.3683270" lon="-5.8391910">
        <ele>195.5</ele>
        <time>2020-01-28T09:18:36Z</time>
      </trkpt>
      <trkpt lat="43.3683130" lon="-5.8392010">
        <ele>195.5</ele>
        <time>2020-01-28T09:18:37Z</time>
      </trkpt>
      <trkpt lat="43.3683000" lon="-5.8392110">
        <ele>195.5</ele>
        <time>2020-01-28T09:18:38Z</time>
      </trkpt>
      <trkpt lat="43.3682890" lon="-5.8392200">
        <ele>195.6</ele>
        <time>2020-01-28T09:18:39Z</time>
      </trkpt>
      <trkpt lat="43.3682770" lon="-5.8392310">
        <ele>195.6</ele>
        <time>2020-01-28T09:18:40Z</time>
      </trkpt>
      <trkpt lat="43.3682650" lon="-5.8392410">
        <ele>195.6</ele>
        <time>2020-01-28T09:18:41Z</time>
      </trkpt>
      <trkpt lat="43.3682540" lon="-5.8392520">
        <ele>195.7</ele>
        <time>2020-01-28T09:18:42Z</time>
      </trkpt>
      <trkpt lat="43.3682430" lon="-5.8392630">
        <ele>195.7</ele>
        <time>2020-01-28T09:18:43Z</time>
      </trkpt>
      <trkpt lat="43.3682310" lon="-5.8392790">
        <ele>195.7</ele>
        <time>2020-01-28T09:18:44Z</time>
      </trkpt>
      <trkpt lat="43.3682190" lon="-5.8392970">
        <ele>195.8</ele>
        <time>2020-01-28T09:18:45Z</time>
      </trkpt>
      <trkpt lat="43.3682070" lon="-5.8393120">
        <ele>195.8</ele>
        <time>2020-01-28T09:18:46Z</time>
      </trkpt>
      <trkpt lat="43.3681890" lon="-5.8393300">
        <ele>195.8</ele>
        <time>2020-01-28T09:18:47Z</time>
      </trkpt>
      <trkpt lat="43.3681820" lon="-5.8393360">
        <ele>195.8</ele>
        <time>2020-01-28T09:18:48Z</time>
      </trkpt>
      <trkpt lat="43.3681740" lon="-5.8393430">
        <ele>195.8</ele>
        <time>2020-01-28T09:18:49Z</time>
      </trkpt>
      <trkpt lat="43.3681600" lon="-5.8393560">
        <ele>195.8</ele>
        <time>2020-01-28T09:18:50Z</time>
      </trkpt>
      <trkpt lat="43.3681480" lon="-5.8393690">
        <ele>195.8</ele>
        <time>2020-01-28T09:18:51Z</time>
      </trkpt>
      <trkpt lat="43.3681360" lon="-5.8393780">
        <ele>195.8</ele>
        <time>2020-01-28T09:18:52Z</time>
      </trkpt>
      <trkpt lat="43.3681240" lon="-5.8393890">
        <ele>195.8</ele>
        <time>2020-01-28T09:18:53Z</time>
      </trkpt>
      <trkpt lat="43.3681120" lon="-5.8393970">
        <ele>195.8</ele>
        <time>2020-01-28T09:18:54Z</time>
      </trkpt>
      <trkpt lat="43.3681000" lon="-5.8394070">
        <ele>195.8</ele>
        <time>2020-01-28T09:18:55Z</time>
      </trkpt>
      <trkpt lat="43.3680870" lon="-5.8394190">
        <ele>195.9</ele>
        <time>2020-01-28T09:18:56Z</time>
      </trkpt>
      <trkpt lat="43.3680770" lon="-5.8394290">
        <ele>195.9</ele>
        <time>2020-01-28T09:18:57Z</time>
      </trkpt>
      <trkpt lat="43.3680670" lon="-5.8394400">
        <ele>195.9</ele>
        <time>2020-01-28T09:18:58Z</time>
      </trkpt>
      <trkpt lat="43.3680550" lon="-5.8394520">
        <ele>195.9</ele>
        <time>2020-01-28T09:18:59Z</time>
      </trkpt>
      <trkpt lat="43.3680420" lon="-5.8394640">
        <ele>195.9</ele>
        <time>2020-01-28T09:19:00Z</time>
      </trkpt>
      <trkpt lat="43.3680310" lon="-5.8394760">
        <ele>195.9</ele>
        <time>2020-01-28T09:19:01Z</time>
      </trkpt>
      <trkpt lat="43.3680190" lon="-5.8394900">
        <ele>195.9</ele>
        <time>2020-01-28T09:19:02Z</time>
      </trkpt>
      <trkpt lat="43.3680090" lon="-5.8395050">
        <ele>195.9</ele>
        <time>2020-01-28T09:19:03Z</time>
      </trkpt>
      <trkpt lat="43.3679990" lon="-5.8395200">
        <ele>195.9</ele>
        <time>2020-01-28T09:19:04Z</time>
      </trkpt>
      <trkpt lat="43.3679890" lon="-5.8395340">
        <ele>195.9</ele>
        <time>2020-01-28T09:19:05Z</time>
      </trkpt>
      <trkpt lat="43.3679780" lon="-5.8395460">
        <ele>195.9</ele>
        <time>2020-01-28T09:19:06Z</time>
      </trkpt>
      <trkpt lat="43.3679660" lon="-5.8395580">
        <ele>195.9</ele>
        <time>2020-01-28T09:19:07Z</time>
      </trkpt>
      <trkpt lat="43.3679540" lon="-5.8395740">
        <ele>195.9</ele>
        <time>2020-01-28T09:19:08Z</time>
      </trkpt>
      <trkpt lat="43.3679420" lon="-5.8395890">
        <ele>196.0</ele>
        <time>2020-01-28T09:19:09Z</time>
      </trkpt>
      <trkpt lat="43.3679290" lon="-5.8396060">
        <ele>196.0</ele>
        <time>2020-01-28T09:19:10Z</time>
      </trkpt>
      <trkpt lat="43.3679170" lon="-5.8396190">
        <ele>195.9</ele>
        <time>2020-01-28T09:19:11Z</time>
      </trkpt>
      <trkpt lat="43.3679040" lon="-5.8396290">
        <ele>195.9</ele>
        <time>2020-01-28T09:19:12Z</time>
      </trkpt>
      <trkpt lat="43.3678900" lon="-5.8396410">
        <ele>195.8</ele>
        <time>2020-01-28T09:19:13Z</time>
      </trkpt>
      <trkpt lat="43.3678750" lon="-5.8396510">
        <ele>195.8</ele>
        <time>2020-01-28T09:19:14Z</time>
      </trkpt>
      <trkpt lat="43.3678620" lon="-5.8396570">
        <ele>195.7</ele>
        <time>2020-01-28T09:19:15Z</time>
      </trkpt>
      <trkpt lat="43.3678400" lon="-5.8396580">
        <ele>195.7</ele>
        <time>2020-01-28T09:19:16Z</time>
      </trkpt>
      <trkpt lat="43.3678300" lon="-5.8396590">
        <ele>195.6</ele>
        <time>2020-01-28T09:19:17Z</time>
      </trkpt>
      <trkpt lat="43.3678210" lon="-5.8396590">
        <ele>195.6</ele>
        <time>2020-01-28T09:19:18Z</time>
      </trkpt>
      <trkpt lat="43.3678070" lon="-5.8396600">
        <ele>195.6</ele>
        <time>2020-01-28T09:19:19Z</time>
      </trkpt>
      <trkpt lat="43.3677910" lon="-5.8396620">
        <ele>195.5</ele>
        <time>2020-01-28T09:19:20Z</time>
      </trkpt>
      <trkpt lat="43.3677780" lon="-5.8396630">
        <ele>195.5</ele>
        <time>2020-01-28T09:19:21Z</time>
      </trkpt>
      <trkpt lat="43.3677640" lon="-5.8396660">
        <ele>195.4</ele>
        <time>2020-01-28T09:19:22Z</time>
      </trkpt>
      <trkpt lat="43.3677490" lon="-5.8396680">
        <ele>195.4</ele>
        <time>2020-01-28T09:19:23Z</time>
      </trkpt>
      <trkpt lat="43.3677340" lon="-5.8396720">
        <ele>195.3</ele>
        <time>2020-01-28T09:19:24Z</time>
      </trkpt>
      <trkpt lat="43.3677190" lon="-5.8396760">
        <ele>195.3</ele>
        <time>2020-01-28T09:19:25Z</time>
      </trkpt>
      <trkpt lat="43.3677050" lon="-5.8396820">
        <ele>195.2</ele>
        <time>2020-01-28T09:19:26Z</time>
      </trkpt>
      <trkpt lat="43.3676910" lon="-5.8396880">
        <ele>195.2</ele>
        <time>2020-01-28T09:19:27Z</time>
      </trkpt>
      <trkpt lat="43.3676760" lon="-5.8396970">
        <ele>195.1</ele>
        <time>2020-01-28T09:19:28Z</time>
      </trkpt>
      <trkpt lat="43.3676640" lon="-5.8397070">
        <ele>195.1</ele>
        <time>2020-01-28T09:19:29Z</time>
      </trkpt>
      <trkpt lat="43.3676520" lon="-5.8397220">
        <ele>195.0</ele>
        <time>2020-01-28T09:19:30Z</time>
      </trkpt>
      <trkpt lat="43.3676420" lon="-5.8397380">
        <ele>195.0</ele>
        <time>2020-01-28T09:19:31Z</time>
      </trkpt>
      <trkpt lat="43.3676330" lon="-5.8397550">
        <ele>195.0</ele>
        <time>2020-01-28T09:19:32Z</time>
      </trkpt>
      <trkpt lat="43.3676250" lon="-5.8397740">
        <ele>194.9</ele>
        <time>2020-01-28T09:19:33Z</time>
      </trkpt>
      <trkpt lat="43.3676180" lon="-5.8397900">
        <ele>194.9</ele>
        <time>2020-01-28T09:19:34Z</time>
      </trkpt>
      <trkpt lat="43.3676050" lon="-5.8398160">
        <ele>194.8</ele>
        <time>2020-01-28T09:19:35Z</time>
      </trkpt>
      <trkpt lat="43.3676000" lon="-5.8398270">
        <ele>194.8</ele>
        <time>2020-01-28T09:19:36Z</time>
      </trkpt>
      <trkpt lat="43.3675940" lon="-5.8398380">
        <ele>194.7</ele>
        <time>2020-01-28T09:19:37Z</time>
      </trkpt>
      <trkpt lat="43.3675850" lon="-5.8398540">
        <ele>194.7</ele>
        <time>2020-01-28T09:19:38Z</time>
      </trkpt>
      <trkpt lat="43.3675770" lon="-5.8398700">
        <ele>194.6</ele>
        <time>2020-01-28T09:19:39Z</time>
      </trkpt>
      <trkpt lat="43.3675680" lon="-5.8398850">
        <ele>194.6</ele>
        <time>2020-01-28T09:19:40Z</time>
      </trkpt>
      <trkpt lat="43.3675570" lon="-5.8398980">
        <ele>194.6</ele>
        <time>2020-01-28T09:19:41Z</time>
      </trkpt>
      <trkpt lat="43.3675450" lon="-5.8399110">
        <ele>194.6</ele>
        <time>2020-01-28T09:19:42Z</time>
      </trkpt>
      <trkpt lat="43.3675320" lon="-5.8399230">
        <ele>194.5</ele>
        <time>2020-01-28T09:19:43Z</time>
      </trkpt>
      <trkpt lat="43.3675180" lon="-5.8399330">
        <ele>194.5</ele>
        <time>2020-01-28T09:19:44Z</time>
      </trkpt>
      <trkpt lat="43.3675050" lon="-5.8399410">
        <ele>194.5</ele>
        <time>2020-01-28T09:19:45Z</time>
      </trkpt>
      <trkpt lat="43.3674900" lon="-5.8399470">
        <ele>194.5</ele>
        <time>2020-01-28T09:19:46Z</time>
      </trkpt>
      <trkpt lat="43.3674760" lon="-5.8399510">
        <ele>194.4</ele>
        <time>2020-01-28T09:19:47Z</time>
      </trkpt>
      <trkpt lat="43.3674540" lon="-5.8399530">
        <ele>194.4</ele>
        <time>2020-01-28T09:19:48Z</time>
      </trkpt>
      <trkpt lat="43.3674450" lon="-5.8399540">
        <ele>194.4</ele>
        <time>2020-01-28T09:19:49Z</time>
      </trkpt>
      <trkpt lat="43.3674360" lon="-5.8399550">
        <ele>194.4</ele>
        <time>2020-01-28T09:19:50Z</time>
      </trkpt>
      <trkpt lat="43.3674170" lon="-5.8399660">
        <ele>194.3</ele>
        <time>2020-01-28T09:19:51Z</time>
      </trkpt>
      <trkpt lat="43.3674100" lon="-5.8399720">
        <ele>194.3</ele>
        <time>2020-01-28T09:19:52Z</time>
      </trkpt>
      <trkpt lat="43.3674030" lon="-5.8399780">
        <ele>194.3</ele>
        <time>2020-01-28T09:19:53Z</time>
      </trkpt>
      <trkpt lat="43.3673850" lon="-5.8399930">
        <ele>194.3</ele>
        <time>2020-01-28T09:19:54Z</time>
      </trkpt>
      <trkpt lat="43.3673770" lon="-5.8400000">
        <ele>194.3</ele>
        <time>2020-01-28T09:19:55Z</time>
      </trkpt>
      <trkpt lat="43.3673700" lon="-5.8400070">
        <ele>194.3</ele>
        <time>2020-01-28T09:19:56Z</time>
      </trkpt>
      <trkpt lat="43.3673520" lon="-5.8400230">
        <ele>194.3</ele>
        <time>2020-01-28T09:19:57Z</time>
      </trkpt>
      <trkpt lat="43.3673440" lon="-5.8400290">
        <ele>194.3</ele>
        <time>2020-01-28T09:19:58Z</time>
      </trkpt>
      <trkpt lat="43.3673370" lon="-5.8400340">
        <ele>194.3</ele>
        <time>2020-01-28T09:19:59Z</time>
      </trkpt>
      <trkpt lat="43.3673180" lon="-5.8400460">
        <ele>194.4</ele>
        <time>2020-01-28T09:20:00Z</time>
      </trkpt>
      <trkpt lat="43.3673110" lon="-5.8400510">
        <ele>194.4</ele>
        <time>2020-01-28T09:20:01Z</time>
      </trkpt>
      <trkpt lat="43.3673030" lon="-5.8400560">
        <ele>194.4</ele>
        <time>2020-01-28T09:20:02Z</time>
      </trkpt>
      <trkpt lat="43.3672900" lon="-5.8400620">
        <ele>194.5</ele>
        <time>2020-01-28T09:20:03Z</time>
      </trkpt>
      <trkpt lat="43.3672770" lon="-5.8400690">
        <ele>194.5</ele>
        <time>2020-01-28T09:20:04Z</time>
      </trkpt>
      <trkpt lat="43.3672640" lon="-5.8400770">
        <ele>194.5</ele>
        <time>2020-01-28T09:20:05Z</time>
      </trkpt>
      <trkpt lat="43.3672510" lon="-5.8400860">
        <ele>194.6</ele>
        <time>2020-01-28T09:20:06Z</time>
      </trkpt>
      <trkpt lat="43.3672300" lon="-5.8400960">
        <ele>194.7</ele>
        <time>2020-01-28T09:20:07Z</time>
      </trkpt>
      <trkpt lat="43.3672220" lon="-5.8400970">
        <ele>194.7</ele>
        <time>2020-01-28T09:20:08Z</time>
      </trkpt>
      <trkpt lat="43.3672130" lon="-5.8400990">
        <ele>194.7</ele>
        <time>2020-01-28T09:20:09Z</time>
      </trkpt>
      <trkpt lat="43.3672000" lon="-5.8400950">
        <ele>194.9</ele>
        <time>2020-01-28T09:20:10Z</time>
      </trkpt>
      <trkpt lat="43.3671870" lon="-5.8400880">
        <ele>194.9</ele>
        <time>2020-01-28T09:20:11Z</time>
      </trkpt>
      <trkpt lat="43.3671670" lon="-5.8400790">
        <ele>195.0</ele>
        <time>2020-01-28T09:20:12Z</time>
      </trkpt>
      <trkpt lat="43.3671590" lon="-5.8400760">
        <ele>195.0</ele>
        <time>2020-01-28T09:20:13Z</time>
      </trkpt>
      <trkpt lat="43.3671500" lon="-5.8400740">
        <ele>195.0</ele>
        <time>2020-01-28T09:20:14Z</time>
      </trkpt>
      <trkpt lat="43.3671290" lon="-5.8400680">
        <ele>195.1</ele>
        <time>2020-01-28T09:20:15Z</time>
      </trkpt>
      <trkpt lat="43.3671220" lon="-5.8400640">
        <ele>195.1</ele>
        <time>2020-01-28T09:20:16Z</time>
      </trkpt>
      <trkpt lat="43.3671140" lon="-5.8400600">
        <ele>195.1</ele>
        <time>2020-01-28T09:20:17Z</time>
      </trkpt>
      <trkpt lat="43.3670940" lon="-5.8400560">
        <ele>195.2</ele>
        <time>2020-01-28T09:20:18Z</time>
      </trkpt>
      <trkpt lat="43.3670850" lon="-5.8400580">
        <ele>195.2</ele>
        <time>2020-01-28T09:20:19Z</time>
      </trkpt>
      <trkpt lat="43.3670760" lon="-5.8400600">
        <ele>195.2</ele>
        <time>2020-01-28T09:20:20Z</time>
      </trkpt>
      <trkpt lat="43.3670590" lon="-5.8400800">
        <ele>195.3</ele>
        <time>2020-01-28T09:20:21Z</time>
      </trkpt>
      <trkpt lat="43.3670540" lon="-5.8400900">
        <ele>195.3</ele>
        <time>2020-01-28T09:20:22Z</time>
      </trkpt>
      <trkpt lat="43.3670480" lon="-5.8401000">
        <ele>195.3</ele>
        <time>2020-01-28T09:20:23Z</time>
      </trkpt>
      <trkpt lat="43.3670380" lon="-5.8401170">
        <ele>195.4</ele>
        <time>2020-01-28T09:20:24Z</time>
      </trkpt>
      <trkpt lat="43.3670300" lon="-5.8401330">
        <ele>195.4</ele>
        <time>2020-01-28T09:20:25Z</time>
      </trkpt>
      <trkpt lat="43.3670200" lon="-5.8401470">
        <ele>195.4</ele>
        <time>2020-01-28T09:20:26Z</time>
      </trkpt>
      <trkpt lat="43.3670100" lon="-5.8401620">
        <ele>195.5</ele>
        <time>2020-01-28T09:20:27Z</time>
      </trkpt>
      <trkpt lat="43.3670000" lon="-5.8401790">
        <ele>195.5</ele>
        <time>2020-01-28T09:20:28Z</time>
      </trkpt>
      <trkpt lat="43.3669890" lon="-5.8401960">
        <ele>195.6</ele>
        <time>2020-01-28T09:20:29Z</time>
      </trkpt>
      <trkpt lat="43.3669780" lon="-5.8402120">
        <ele>195.6</ele>
        <time>2020-01-28T09:20:30Z</time>
      </trkpt>
      <trkpt lat="43.3669680" lon="-5.8402260">
        <ele>195.6</ele>
        <time>2020-01-28T09:20:31Z</time>
      </trkpt>
      <trkpt lat="43.3669580" lon="-5.8402420">
        <ele>195.7</ele>
        <time>2020-01-28T09:20:32Z</time>
      </trkpt>
      <trkpt lat="43.3669470" lon="-5.8402580">
        <ele>195.9</ele>
        <time>2020-01-28T09:20:33Z</time>
      </trkpt>
      <trkpt lat="43.3669360" lon="-5.8402750">
        <ele>195.9</ele>
        <time>2020-01-28T09:20:34Z</time>
      </trkpt>
      <trkpt lat="43.3669260" lon="-5.8402890">
        <ele>196.0</ele>
        <time>2020-01-28T09:20:35Z</time>
      </trkpt>
      <trkpt lat="43.3669170" lon="-5.8403030">
        <ele>196.1</ele>
        <time>2020-01-28T09:20:36Z</time>
      </trkpt>
      <trkpt lat="43.3669060" lon="-5.8403160">
        <ele>196.1</ele>
        <time>2020-01-28T09:20:37Z</time>
      </trkpt>
      <trkpt lat="43.3668940" lon="-5.8403280">
        <ele>196.2</ele>
        <time>2020-01-28T09:20:38Z</time>
      </trkpt>
      <trkpt lat="43.3668810" lon="-5.8403410">
        <ele>196.3</ele>
        <time>2020-01-28T09:20:39Z</time>
      </trkpt>
      <trkpt lat="43.3668710" lon="-5.8403520">
        <ele>196.3</ele>
        <time>2020-01-28T09:20:40Z</time>
      </trkpt>
      <trkpt lat="43.3668610" lon="-5.8403620">
        <ele>196.4</ele>
        <time>2020-01-28T09:20:41Z</time>
      </trkpt>
      <trkpt lat="43.3668510" lon="-5.8403690">
        <ele>196.8</ele>
        <time>2020-01-28T09:20:42Z</time>
      </trkpt>
      <trkpt lat="43.3668400" lon="-5.8403720">
        <ele>196.9</ele>
        <time>2020-01-28T09:20:43Z</time>
      </trkpt>
      <trkpt lat="43.3668280" lon="-5.8403700">
        <ele>196.9</ele>
        <time>2020-01-28T09:20:44Z</time>
      </trkpt>
      <trkpt lat="43.3668200" lon="-5.8403650">
        <ele>196.9</ele>
        <time>2020-01-28T09:20:45Z</time>
      </trkpt>
      <trkpt lat="43.3668140" lon="-5.8403590">
        <ele>196.9</ele>
        <time>2020-01-28T09:20:46Z</time>
      </trkpt>
      <trkpt lat="43.3668090" lon="-5.8403530">
        <ele>196.9</ele>
        <time>2020-01-28T09:20:47Z</time>
      </trkpt>
      <trkpt lat="43.3668090" lon="-5.8403530">
        <ele>196.9</ele>
        <time>2020-01-28T09:20:48Z</time>
      </trkpt>
      <trkpt lat="43.3668090" lon="-5.8403530">
        <ele>196.9</ele>
        <time>2020-01-28T09:20:49Z</time>
      </trkpt>
      <trkpt lat="43.3668030" lon="-5.8403500">
        <ele>196.9</ele>
        <time>2020-01-28T09:20:50Z</time>
      </trkpt>
      <trkpt lat="43.3668030" lon="-5.8403500">
        <ele>196.9</ele>
        <time>2020-01-28T09:20:51Z</time>
      </trkpt>
      <trkpt lat="43.3668030" lon="-5.8403500">
        <ele>196.9</ele>
        <time>2020-01-28T09:20:52Z</time>
      </trkpt>
      <trkpt lat="43.3668030" lon="-5.8403500">
        <ele>196.9</ele>
        <time>2020-01-28T09:20:53Z</time>
      </trkpt>
      <trkpt lat="43.3668030" lon="-5.8403500">
        <ele>196.9</ele>
        <time>2020-01-28T09:20:54Z</time>
      </trkpt>
      <trkpt lat="43.3668030" lon="-5.8403500">
        <ele>196.9</ele>
        <time>2020-01-28T09:20:55Z</time>
      </trkpt>
      <trkpt lat="43.3668030" lon="-5.8403500">
        <ele>196.9</ele>
        <time>2020-01-28T09:20:56Z</time>
      </trkpt>
      <trkpt lat="43.3668030" lon="-5.8403500">
        <ele>196.9</ele>
        <time>2020-01-28T09:20:57Z</time>
      </trkpt>
      <trkpt lat="43.3668030" lon="-5.8403500">
        <ele>196.9</ele>
        <time>2020-01-28T09:20:58Z</time>
      </trkpt>
      <trkpt lat="43.3668030" lon="-5.8403500">
        <ele>196.9</ele>
        <time>2020-01-28T09:20:59Z</time>
      </trkpt>
      <trkpt lat="43.3668030" lon="-5.8403500">
        <ele>196.9</ele>
        <time>2020-01-28T09:21:00Z</time>
      </trkpt>
      <trkpt lat="43.3668030" lon="-5.8403500">
        <ele>196.9</ele>
        <time>2020-01-28T09:21:01Z</time>
      </trkpt>
      <trkpt lat="43.3668030" lon="-5.8403500">
        <ele>196.9</ele>
        <time>2020-01-28T09:21:02Z</time>
      </trkpt>
      <trkpt lat="43.3668030" lon="-5.8403500">
        <ele>196.9</ele>
        <time>2020-01-28T09:21:03Z</time>
      </trkpt>
      <trkpt lat="43.3667950" lon="-5.8403500">
        <ele>196.9</ele>
        <time>2020-01-28T09:21:04Z</time>
      </trkpt>
      <trkpt lat="43.3667940" lon="-5.8403490">
        <ele>196.9</ele>
        <time>2020-01-28T09:21:05Z</time>
      </trkpt>
      <trkpt lat="43.3667890" lon="-5.8403440">
        <ele>197.0</ele>
        <time>2020-01-28T09:21:06Z</time>
      </trkpt>
      <trkpt lat="43.3667750" lon="-5.8403350">
        <ele>197.0</ele>
        <time>2020-01-28T09:21:07Z</time>
      </trkpt>
      <trkpt lat="43.3667620" lon="-5.8403240">
        <ele>197.0</ele>
        <time>2020-01-28T09:21:08Z</time>
      </trkpt>
      <trkpt lat="43.3667490" lon="-5.8403130">
        <ele>197.0</ele>
        <time>2020-01-28T09:21:09Z</time>
      </trkpt>
      <trkpt lat="43.3667370" lon="-5.8403020">
        <ele>197.1</ele>
        <time>2020-01-28T09:21:10Z</time>
      </trkpt>
      <trkpt lat="43.3667240" lon="-5.8402920">
        <ele>197.1</ele>
        <time>2020-01-28T09:21:11Z</time>
      </trkpt>
      <trkpt lat="43.3667090" lon="-5.8402830">
        <ele>197.1</ele>
        <time>2020-01-28T09:21:12Z</time>
      </trkpt>
      <trkpt lat="43.3666940" lon="-5.8402750">
        <ele>197.2</ele>
        <time>2020-01-28T09:21:13Z</time>
      </trkpt>
      <trkpt lat="43.3666780" lon="-5.8402690">
        <ele>197.2</ele>
        <time>2020-01-28T09:21:14Z</time>
      </trkpt>
      <trkpt lat="43.3666620" lon="-5.8402630">
        <ele>197.3</ele>
        <time>2020-01-28T09:21:15Z</time>
      </trkpt>
      <trkpt lat="43.3666450" lon="-5.8402590">
        <ele>197.4</ele>
        <time>2020-01-28T09:21:16Z</time>
      </trkpt>
      <trkpt lat="43.3666280" lon="-5.8402540">
        <ele>197.4</ele>
        <time>2020-01-28T09:21:17Z</time>
      </trkpt>
      <trkpt lat="43.3666100" lon="-5.8402470">
        <ele>197.5</ele>
        <time>2020-01-28T09:21:18Z</time>
      </trkpt>
      <trkpt lat="43.3665840" lon="-5.8402330">
        <ele>197.6</ele>
        <time>2020-01-28T09:21:19Z</time>
      </trkpt>
      <trkpt lat="43.3665760" lon="-5.8402300">
        <ele>197.6</ele>
        <time>2020-01-28T09:21:20Z</time>
      </trkpt>
      <trkpt lat="43.3665610" lon="-5.8402210">
        <ele>197.7</ele>
        <time>2020-01-28T09:21:21Z</time>
      </trkpt>
      <trkpt lat="43.3665490" lon="-5.8402160">
        <ele>197.7</ele>
        <time>2020-01-28T09:21:22Z</time>
      </trkpt>
      <trkpt lat="43.3665430" lon="-5.8402120">
        <ele>197.7</ele>
        <time>2020-01-28T09:21:23Z</time>
      </trkpt>
      <trkpt lat="43.3665430" lon="-5.8402120">
        <ele>197.7</ele>
        <time>2020-01-28T09:21:24Z</time>
      </trkpt>
      <trkpt lat="43.3665430" lon="-5.8402120">
        <ele>197.7</ele>
        <time>2020-01-28T09:21:25Z</time>
      </trkpt>
      <trkpt lat="43.3665430" lon="-5.8402120">
        <ele>197.7</ele>
        <time>2020-01-28T09:21:26Z</time>
      </trkpt>
      <trkpt lat="43.3665430" lon="-5.8402120">
        <ele>197.7</ele>
        <time>2020-01-28T09:21:27Z</time>
      </trkpt>
      <trkpt lat="43.3665430" lon="-5.8402120">
        <ele>197.7</ele>
        <time>2020-01-28T09:21:28Z</time>
      </trkpt>
      <trkpt lat="43.3665440" lon="-5.8402030">
        <ele>197.8</ele>
        <time>2020-01-28T09:21:29Z</time>
      </trkpt>
      <trkpt lat="43.3665440" lon="-5.8402030">
        <ele>197.8</ele>
        <time>2020-01-28T09:21:30Z</time>
      </trkpt>
      <trkpt lat="43.3665440" lon="-5.8402030">
        <ele>197.8</ele>
        <time>2020-01-28T09:21:31Z</time>
      </trkpt>
      <trkpt lat="43.3665440" lon="-5.8402030">
        <ele>197.8</ele>
        <time>2020-01-28T09:21:32Z</time>
      </trkpt>
      <trkpt lat="43.3665440" lon="-5.8402030">
        <ele>197.8</ele>
        <time>2020-01-28T09:21:33Z</time>
      </trkpt>
      <trkpt lat="43.3665440" lon="-5.8402030">
        <ele>197.8</ele>
        <time>2020-01-28T09:21:34Z</time>
      </trkpt>
      <trkpt lat="43.3665440" lon="-5.8402030">
        <ele>197.8</ele>
        <time>2020-01-28T09:21:35Z</time>
      </trkpt>
      <trkpt lat="43.3665440" lon="-5.8402030">
        <ele>197.8</ele>
        <time>2020-01-28T09:21:36Z</time>
      </trkpt>
      <trkpt lat="43.3665440" lon="-5.8402030">
        <ele>197.8</ele>
        <time>2020-01-28T09:21:37Z</time>
      </trkpt>
      <trkpt lat="43.3665440" lon="-5.8402030">
        <ele>197.8</ele>
        <time>2020-01-28T09:21:38Z</time>
      </trkpt>
      <trkpt lat="43.3665440" lon="-5.8402030">
        <ele>197.8</ele>
        <time>2020-01-28T09:21:39Z</time>
      </trkpt>
      <trkpt lat="43.3665440" lon="-5.8402030">
        <ele>197.8</ele>
        <time>2020-01-28T09:21:40Z</time>
      </trkpt>
      <trkpt lat="43.3665440" lon="-5.8402030">
        <ele>197.8</ele>
        <time>2020-01-28T09:21:41Z</time>
      </trkpt>
      <trkpt lat="43.3665260" lon="-5.8401840">
        <ele>197.8</ele>
        <time>2020-01-28T09:21:42Z</time>
      </trkpt>
      <trkpt lat="43.3665090" lon="-5.8401710">
        <ele>197.9</ele>
        <time>2020-01-28T09:21:43Z</time>
      </trkpt>
      <trkpt lat="43.3665010" lon="-5.8401640">
        <ele>197.9</ele>
        <time>2020-01-28T09:21:44Z</time>
      </trkpt>
      <trkpt lat="43.3664940" lon="-5.8401580">
        <ele>197.9</ele>
        <time>2020-01-28T09:21:45Z</time>
      </trkpt>
      <trkpt lat="43.3664760" lon="-5.8401420">
        <ele>197.9</ele>
        <time>2020-01-28T09:21:46Z</time>
      </trkpt>
      <trkpt lat="43.3664690" lon="-5.8401370">
        <ele>197.9</ele>
        <time>2020-01-28T09:21:47Z</time>
      </trkpt>
      <trkpt lat="43.3664620" lon="-5.8401310">
        <ele>197.9</ele>
        <time>2020-01-28T09:21:48Z</time>
      </trkpt>
      <trkpt lat="43.3664490" lon="-5.8401200">
        <ele>197.9</ele>
        <time>2020-01-28T09:21:49Z</time>
      </trkpt>
      <trkpt lat="43.3664340" lon="-5.8401090">
        <ele>197.9</ele>
        <time>2020-01-28T09:21:50Z</time>
      </trkpt>
      <trkpt lat="43.3664200" lon="-5.8401010">
        <ele>197.9</ele>
        <time>2020-01-28T09:21:51Z</time>
      </trkpt>
      <trkpt lat="43.3664110" lon="-5.8401000">
        <ele>197.9</ele>
        <time>2020-01-28T09:21:52Z</time>
      </trkpt>
      <trkpt lat="43.3664050" lon="-5.8401090">
        <ele>197.9</ele>
        <time>2020-01-28T09:21:53Z</time>
      </trkpt>
      <trkpt lat="43.3663950" lon="-5.8401370">
        <ele>198.0</ele>
        <time>2020-01-28T09:21:54Z</time>
      </trkpt>
      <trkpt lat="43.3663930" lon="-5.8401490">
        <ele>198.0</ele>
        <time>2020-01-28T09:21:55Z</time>
      </trkpt>
      <trkpt lat="43.3663900" lon="-5.8401610">
        <ele>198.0</ele>
        <time>2020-01-28T09:21:56Z</time>
      </trkpt>
      <trkpt lat="43.3663840" lon="-5.8401800">
        <ele>198.0</ele>
        <time>2020-01-28T09:21:57Z</time>
      </trkpt>
      <trkpt lat="43.3663780" lon="-5.8401990">
        <ele>198.0</ele>
        <time>2020-01-28T09:21:58Z</time>
      </trkpt>
      <trkpt lat="43.3663720" lon="-5.8402170">
        <ele>198.1</ele>
        <time>2020-01-28T09:21:59Z</time>
      </trkpt>
      <trkpt lat="43.3663660" lon="-5.8402360">
        <ele>198.1</ele>
        <time>2020-01-28T09:22:00Z</time>
      </trkpt>
      <trkpt lat="43.3663600" lon="-5.8402550">
        <ele>198.1</ele>
        <time>2020-01-28T09:22:01Z</time>
      </trkpt>
      <trkpt lat="43.3663550" lon="-5.8402740">
        <ele>198.2</ele>
        <time>2020-01-28T09:22:02Z</time>
      </trkpt>
      <trkpt lat="43.3663460" lon="-5.8403010">
        <ele>198.2</ele>
        <time>2020-01-28T09:22:03Z</time>
      </trkpt>
      <trkpt lat="43.3663430" lon="-5.8403100">
        <ele>198.3</ele>
        <time>2020-01-28T09:22:04Z</time>
      </trkpt>
      <trkpt lat="43.3663390" lon="-5.8403200">
        <ele>198.3</ele>
        <time>2020-01-28T09:22:05Z</time>
      </trkpt>
      <trkpt lat="43.3663290" lon="-5.8403470">
        <ele>198.4</ele>
        <time>2020-01-28T09:22:06Z</time>
      </trkpt>
      <trkpt lat="43.3663260" lon="-5.8403590">
        <ele>198.4</ele>
        <time>2020-01-28T09:22:07Z</time>
      </trkpt>
      <trkpt lat="43.3663220" lon="-5.8403700">
        <ele>198.5</ele>
        <time>2020-01-28T09:22:08Z</time>
      </trkpt>
      <trkpt lat="43.3663140" lon="-5.8403960">
        <ele>198.6</ele>
        <time>2020-01-28T09:22:09Z</time>
      </trkpt>
      <trkpt lat="43.3663110" lon="-5.8404050">
        <ele>198.6</ele>
        <time>2020-01-28T09:22:10Z</time>
      </trkpt>
      <trkpt lat="43.3663070" lon="-5.8404150">
        <ele>198.6</ele>
        <time>2020-01-28T09:22:11Z</time>
      </trkpt>
      <trkpt lat="43.3662990" lon="-5.8404400">
        <ele>198.7</ele>
        <time>2020-01-28T09:22:12Z</time>
      </trkpt>
      <trkpt lat="43.3662950" lon="-5.8404510">
        <ele>198.8</ele>
        <time>2020-01-28T09:22:13Z</time>
      </trkpt>
      <trkpt lat="43.3662920" lon="-5.8404610">
        <ele>198.8</ele>
        <time>2020-01-28T09:22:14Z</time>
      </trkpt>
      <trkpt lat="43.3662820" lon="-5.8404860">
        <ele>199.0</ele>
        <time>2020-01-28T09:22:15Z</time>
      </trkpt>
      <trkpt lat="43.3662770" lon="-5.8404950">
        <ele>199.0</ele>
        <time>2020-01-28T09:22:16Z</time>
      </trkpt>
      <trkpt lat="43.3662730" lon="-5.8405050">
        <ele>199.1</ele>
        <time>2020-01-28T09:22:17Z</time>
      </trkpt>
      <trkpt lat="43.3662620" lon="-5.8405300">
        <ele>199.2</ele>
        <time>2020-01-28T09:22:18Z</time>
      </trkpt>
      <trkpt lat="43.3662590" lon="-5.8405400">
        <ele>199.2</ele>
        <time>2020-01-28T09:22:19Z</time>
      </trkpt>
      <trkpt lat="43.3662550" lon="-5.8405510">
        <ele>199.3</ele>
        <time>2020-01-28T09:22:20Z</time>
      </trkpt>
      <trkpt lat="43.3662430" lon="-5.8405770">
        <ele>199.4</ele>
        <time>2020-01-28T09:22:21Z</time>
      </trkpt>
      <trkpt lat="43.3662390" lon="-5.8405860">
        <ele>199.4</ele>
        <time>2020-01-28T09:22:22Z</time>
      </trkpt>
      <trkpt lat="43.3662340" lon="-5.8405960">
        <ele>199.5</ele>
        <time>2020-01-28T09:22:23Z</time>
      </trkpt>
      <trkpt lat="43.3662240" lon="-5.8406220">
        <ele>199.5</ele>
        <time>2020-01-28T09:22:24Z</time>
      </trkpt>
      <trkpt lat="43.3662200" lon="-5.8406330">
        <ele>199.6</ele>
        <time>2020-01-28T09:22:25Z</time>
      </trkpt>
      <trkpt lat="43.3662160" lon="-5.8406430">
        <ele>199.6</ele>
        <time>2020-01-28T09:22:26Z</time>
      </trkpt>
      <trkpt lat="43.3662040" lon="-5.8406670">
        <ele>199.7</ele>
        <time>2020-01-28T09:22:27Z</time>
      </trkpt>
      <trkpt lat="43.3662000" lon="-5.8406770">
        <ele>199.7</ele>
        <time>2020-01-28T09:22:28Z</time>
      </trkpt>
      <trkpt lat="43.3661950" lon="-5.8406860">
        <ele>199.8</ele>
        <time>2020-01-28T09:22:29Z</time>
      </trkpt>
      <trkpt lat="43.3661820" lon="-5.8407080">
        <ele>199.8</ele>
        <time>2020-01-28T09:22:30Z</time>
      </trkpt>
      <trkpt lat="43.3661770" lon="-5.8407170">
        <ele>199.8</ele>
        <time>2020-01-28T09:22:31Z</time>
      </trkpt>
      <trkpt lat="43.3661720" lon="-5.8407260">
        <ele>199.8</ele>
        <time>2020-01-28T09:22:32Z</time>
      </trkpt>
      <trkpt lat="43.3661590" lon="-5.8407490">
        <ele>199.9</ele>
        <time>2020-01-28T09:22:33Z</time>
      </trkpt>
      <trkpt lat="43.3661540" lon="-5.8407580">
        <ele>199.9</ele>
        <time>2020-01-28T09:22:34Z</time>
      </trkpt>
      <trkpt lat="43.3661480" lon="-5.8407670">
        <ele>199.9</ele>
        <time>2020-01-28T09:22:35Z</time>
      </trkpt>
      <trkpt lat="43.3661320" lon="-5.8407860">
        <ele>200.0</ele>
        <time>2020-01-28T09:22:36Z</time>
      </trkpt>
      <trkpt lat="43.3661250" lon="-5.8407930">
        <ele>200.0</ele>
        <time>2020-01-28T09:22:37Z</time>
      </trkpt>
      <trkpt lat="43.3661190" lon="-5.8408010">
        <ele>200.0</ele>
        <time>2020-01-28T09:22:38Z</time>
      </trkpt>
      <trkpt lat="43.3661010" lon="-5.8408160">
        <ele>200.0</ele>
        <time>2020-01-28T09:22:39Z</time>
      </trkpt>
      <trkpt lat="43.3660930" lon="-5.8408200">
        <ele>200.0</ele>
        <time>2020-01-28T09:22:40Z</time>
      </trkpt>
      <trkpt lat="43.3660860" lon="-5.8408240">
        <ele>200.0</ele>
        <time>2020-01-28T09:22:41Z</time>
      </trkpt>
      <trkpt lat="43.3660660" lon="-5.8408310">
        <ele>200.1</ele>
        <time>2020-01-28T09:22:42Z</time>
      </trkpt>
      <trkpt lat="43.3660580" lon="-5.8408350">
        <ele>200.1</ele>
        <time>2020-01-28T09:22:43Z</time>
      </trkpt>
      <trkpt lat="43.3660490" lon="-5.8408380">
        <ele>200.1</ele>
        <time>2020-01-28T09:22:44Z</time>
      </trkpt>
      <trkpt lat="43.3660280" lon="-5.8408440">
        <ele>200.0</ele>
        <time>2020-01-28T09:22:45Z</time>
      </trkpt>
      <trkpt lat="43.3660200" lon="-5.8408470">
        <ele>200.0</ele>
        <time>2020-01-28T09:22:46Z</time>
      </trkpt>
      <trkpt lat="43.3660130" lon="-5.8408500">
        <ele>200.0</ele>
        <time>2020-01-28T09:22:47Z</time>
      </trkpt>
      <trkpt lat="43.3660000" lon="-5.8408540">
        <ele>200.0</ele>
        <time>2020-01-28T09:22:48Z</time>
      </trkpt>
      <trkpt lat="43.3659860" lon="-5.8408560">
        <ele>200.0</ele>
        <time>2020-01-28T09:22:49Z</time>
      </trkpt>
      <trkpt lat="43.3659720" lon="-5.8408560">
        <ele>200.0</ele>
        <time>2020-01-28T09:22:50Z</time>
      </trkpt>
      <trkpt lat="43.3659600" lon="-5.8408550">
        <ele>200.0</ele>
        <time>2020-01-28T09:22:51Z</time>
      </trkpt>
      <trkpt lat="43.3659530" lon="-5.8408540">
        <ele>199.9</ele>
        <time>2020-01-28T09:22:52Z</time>
      </trkpt>
      <trkpt lat="43.3659500" lon="-5.8408520">
        <ele>199.9</ele>
        <time>2020-01-28T09:22:53Z</time>
      </trkpt>
      <trkpt lat="43.3659480" lon="-5.8408510">
        <ele>199.9</ele>
        <time>2020-01-28T09:22:54Z</time>
      </trkpt>
      <trkpt lat="43.3659410" lon="-5.8408520">
        <ele>199.9</ele>
        <time>2020-01-28T09:22:55Z</time>
      </trkpt>
      <trkpt lat="43.3659280" lon="-5.8408500">
        <ele>199.9</ele>
        <time>2020-01-28T09:22:56Z</time>
      </trkpt>
      <trkpt lat="43.3659200" lon="-5.8408440">
        <ele>199.9</ele>
        <time>2020-01-28T09:22:57Z</time>
      </trkpt>
      <trkpt lat="43.3659030" lon="-5.8408280">
        <ele>199.8</ele>
        <time>2020-01-28T09:22:58Z</time>
      </trkpt>
      <trkpt lat="43.3658950" lon="-5.8408200">
        <ele>199.8</ele>
        <time>2020-01-28T09:22:59Z</time>
      </trkpt>
      <trkpt lat="43.3658870" lon="-5.8408120">
        <ele>199.8</ele>
        <time>2020-01-28T09:23:00Z</time>
      </trkpt>
      <trkpt lat="43.3658750" lon="-5.8407980">
        <ele>199.8</ele>
        <time>2020-01-28T09:23:01Z</time>
      </trkpt>
      <trkpt lat="43.3658610" lon="-5.8407790">
        <ele>199.7</ele>
        <time>2020-01-28T09:23:02Z</time>
      </trkpt>
      <trkpt lat="43.3658480" lon="-5.8407610">
        <ele>199.7</ele>
        <time>2020-01-28T09:23:03Z</time>
      </trkpt>
      <trkpt lat="43.3658360" lon="-5.8407460">
        <ele>199.8</ele>
        <time>2020-01-28T09:23:04Z</time>
      </trkpt>
      <trkpt lat="43.3658240" lon="-5.8407320">
        <ele>200.0</ele>
        <time>2020-01-28T09:23:05Z</time>
      </trkpt>
      <trkpt lat="43.3658110" lon="-5.8407160">
        <ele>200.1</ele>
        <time>2020-01-28T09:23:06Z</time>
      </trkpt>
      <trkpt lat="43.3658030" lon="-5.8407010">
        <ele>200.3</ele>
        <time>2020-01-28T09:23:07Z</time>
      </trkpt>
      <trkpt lat="43.3658010" lon="-5.8406870">
        <ele>200.4</ele>
        <time>2020-01-28T09:23:08Z</time>
      </trkpt>
      <trkpt lat="43.3658020" lon="-5.8406710">
        <ele>200.5</ele>
        <time>2020-01-28T09:23:09Z</time>
      </trkpt>
      <trkpt lat="43.3658020" lon="-5.8406560">
        <ele>200.6</ele>
        <time>2020-01-28T09:23:10Z</time>
      </trkpt>
      <trkpt lat="43.3657980" lon="-5.8406420">
        <ele>200.7</ele>
        <time>2020-01-28T09:23:11Z</time>
      </trkpt>
      <trkpt lat="43.3657910" lon="-5.8406310">
        <ele>200.8</ele>
        <time>2020-01-28T09:23:12Z</time>
      </trkpt>
      <trkpt lat="43.3657850" lon="-5.8406250">
        <ele>200.9</ele>
        <time>2020-01-28T09:23:13Z</time>
      </trkpt>
      <trkpt lat="43.3657790" lon="-5.8406220">
        <ele>200.9</ele>
        <time>2020-01-28T09:23:14Z</time>
      </trkpt>
      <trkpt lat="43.3657790" lon="-5.8406220">
        <ele>200.9</ele>
        <time>2020-01-28T09:23:15Z</time>
      </trkpt>
      <trkpt lat="43.3657790" lon="-5.8406220">
        <ele>200.9</ele>
        <time>2020-01-28T09:23:16Z</time>
      </trkpt>
      <trkpt lat="43.3657660" lon="-5.8406190">
        <ele>201.1</ele>
        <time>2020-01-28T09:23:17Z</time>
      </trkpt>
      <trkpt lat="43.3657590" lon="-5.8406150">
        <ele>201.1</ele>
        <time>2020-01-28T09:23:18Z</time>
      </trkpt>
      <trkpt lat="43.3657550" lon="-5.8406120">
        <ele>201.2</ele>
        <time>2020-01-28T09:23:19Z</time>
      </trkpt>
      <trkpt lat="43.3657490" lon="-5.8406100">
        <ele>201.2</ele>
        <time>2020-01-28T09:23:20Z</time>
      </trkpt>
      <trkpt lat="43.3657430" lon="-5.8406060">
        <ele>201.3</ele>
        <time>2020-01-28T09:23:21Z</time>
      </trkpt>
      <trkpt lat="43.3657340" lon="-5.8406010">
        <ele>201.4</ele>
        <time>2020-01-28T09:23:22Z</time>
      </trkpt>
      <trkpt lat="43.3657240" lon="-5.8405960">
        <ele>201.9</ele>
        <time>2020-01-28T09:23:23Z</time>
      </trkpt>
      <trkpt lat="43.3657240" lon="-5.8405960">
        <ele>201.9</ele>
        <time>2020-01-28T09:23:24Z</time>
      </trkpt>
      <trkpt lat="43.3657240" lon="-5.8405960">
        <ele>201.9</ele>
        <time>2020-01-28T09:23:25Z</time>
      </trkpt>
      <trkpt lat="43.3657090" lon="-5.8405920">
        <ele>202.1</ele>
        <time>2020-01-28T09:23:26Z</time>
      </trkpt>
      <trkpt lat="43.3657090" lon="-5.8405920">
        <ele>202.1</ele>
        <time>2020-01-28T09:23:27Z</time>
      </trkpt>
      <trkpt lat="43.3657090" lon="-5.8405920">
        <ele>202.1</ele>
        <time>2020-01-28T09:23:28Z</time>
      </trkpt>
      <trkpt lat="43.3657020" lon="-5.8405920">
        <ele>202.2</ele>
        <time>2020-01-28T09:23:29Z</time>
      </trkpt>
      <trkpt lat="43.3657000" lon="-5.8405910">
        <ele>202.2</ele>
        <time>2020-01-28T09:23:30Z</time>
      </trkpt>
      <trkpt lat="43.3656990" lon="-5.8405910">
        <ele>202.2</ele>
        <time>2020-01-28T09:23:31Z</time>
      </trkpt>
      <trkpt lat="43.3656970" lon="-5.8405900">
        <ele>202.3</ele>
        <time>2020-01-28T09:23:32Z</time>
      </trkpt>
      <trkpt lat="43.3656950" lon="-5.8405900">
        <ele>202.3</ele>
        <time>2020-01-28T09:23:33Z</time>
      </trkpt>
      <trkpt lat="43.3656940" lon="-5.8405890">
        <ele>202.3</ele>
        <time>2020-01-28T09:23:34Z</time>
      </trkpt>
      <trkpt lat="43.3656920" lon="-5.8405880">
        <ele>202.3</ele>
        <time>2020-01-28T09:23:35Z</time>
      </trkpt>
      <trkpt lat="43.3656900" lon="-5.8405880">
        <ele>202.4</ele>
        <time>2020-01-28T09:23:36Z</time>
      </trkpt>
      <trkpt lat="43.3656890" lon="-5.8405870">
        <ele>202.4</ele>
        <time>2020-01-28T09:23:37Z</time>
      </trkpt>
      <trkpt lat="43.3656870" lon="-5.8405870">
        <ele>202.4</ele>
        <time>2020-01-28T09:23:38Z</time>
      </trkpt>
      <trkpt lat="43.3656850" lon="-5.8405860">
        <ele>202.4</ele>
        <time>2020-01-28T09:23:39Z</time>
      </trkpt>
      <trkpt lat="43.3656840" lon="-5.8405850">
        <ele>202.5</ele>
        <time>2020-01-28T09:23:40Z</time>
      </trkpt>
      <trkpt lat="43.3656820" lon="-5.8405850">
        <ele>202.5</ele>
        <time>2020-01-28T09:23:41Z</time>
      </trkpt>
      <trkpt lat="43.3656800" lon="-5.8405840">
        <ele>202.5</ele>
        <time>2020-01-28T09:23:42Z</time>
      </trkpt>
      <trkpt lat="43.3656780" lon="-5.8405840">
        <ele>202.5</ele>
        <time>2020-01-28T09:23:43Z</time>
      </trkpt>
      <trkpt lat="43.3656770" lon="-5.8405830">
        <ele>202.5</ele>
        <time>2020-01-28T09:23:44Z</time>
      </trkpt>
      <trkpt lat="43.3656750" lon="-5.8405830">
        <ele>202.6</ele>
        <time>2020-01-28T09:23:45Z</time>
      </trkpt>
      <trkpt lat="43.3656730" lon="-5.8405820">
        <ele>202.6</ele>
        <time>2020-01-28T09:23:46Z</time>
      </trkpt>
      <trkpt lat="43.3656720" lon="-5.8405810">
        <ele>202.6</ele>
        <time>2020-01-28T09:23:47Z</time>
      </trkpt>
      <trkpt lat="43.3656700" lon="-5.8405810">
        <ele>202.6</ele>
        <time>2020-01-28T09:23:48Z</time>
      </trkpt>
      <trkpt lat="43.3656680" lon="-5.8405800">
        <ele>202.7</ele>
        <time>2020-01-28T09:23:49Z</time>
      </trkpt>
      <trkpt lat="43.3656670" lon="-5.8405800">
        <ele>202.7</ele>
        <time>2020-01-28T09:23:50Z</time>
      </trkpt>
      <trkpt lat="43.3656650" lon="-5.8405790">
        <ele>202.7</ele>
        <time>2020-01-28T09:23:51Z</time>
      </trkpt>
      <trkpt lat="43.3656490" lon="-5.8405730">
        <ele>203.5</ele>
        <time>2020-01-28T09:23:52Z</time>
      </trkpt>
      <trkpt lat="43.3656290" lon="-5.8405770">
        <ele>203.5</ele>
        <time>2020-01-28T09:23:53Z</time>
      </trkpt>
      <trkpt lat="43.3656110" lon="-5.8405830">
        <ele>203.5</ele>
        <time>2020-01-28T09:23:54Z</time>
      </trkpt>
      <trkpt lat="43.3655950" lon="-5.8405900">
        <ele>203.5</ele>
        <time>2020-01-28T09:23:55Z</time>
      </trkpt>
      <trkpt lat="43.3655800" lon="-5.8405950">
        <ele>203.6</ele>
        <time>2020-01-28T09:23:56Z</time>
      </trkpt>
      <trkpt lat="43.3655630" lon="-5.8406000">
        <ele>203.6</ele>
        <time>2020-01-28T09:23:57Z</time>
      </trkpt>
      <trkpt lat="43.3655520" lon="-5.8406010">
        <ele>203.6</ele>
        <time>2020-01-28T09:23:58Z</time>
      </trkpt>
      <trkpt lat="43.3655390" lon="-5.8405970">
        <ele>203.6</ele>
        <time>2020-01-28T09:23:59Z</time>
      </trkpt>
      <trkpt lat="43.3655270" lon="-5.8405910">
        <ele>205.8</ele>
        <time>2020-01-28T09:24:00Z</time>
      </trkpt>
      <trkpt lat="43.3655140" lon="-5.8405820">
        <ele>205.8</ele>
        <time>2020-01-28T09:24:01Z</time>
      </trkpt>
      <trkpt lat="43.3654990" lon="-5.8405720">
        <ele>205.8</ele>
        <time>2020-01-28T09:24:02Z</time>
      </trkpt>
      <trkpt lat="43.3654890" lon="-5.8405660">
        <ele>205.8</ele>
        <time>2020-01-28T09:24:03Z</time>
      </trkpt>
      <trkpt lat="43.3654840" lon="-5.8405610">
        <ele>205.8</ele>
        <time>2020-01-28T09:24:04Z</time>
      </trkpt>
      <trkpt lat="43.3654820" lon="-5.8405590">
        <ele>205.8</ele>
        <time>2020-01-28T09:24:05Z</time>
      </trkpt>
      <trkpt lat="43.3654750" lon="-5.8405580">
        <ele>205.8</ele>
        <time>2020-01-28T09:24:06Z</time>
      </trkpt>
      <trkpt lat="43.3654660" lon="-5.8405570">
        <ele>205.8</ele>
        <time>2020-01-28T09:24:07Z</time>
      </trkpt>
      <trkpt lat="43.3654560" lon="-5.8405570">
        <ele>206.2</ele>
        <time>2020-01-28T09:24:08Z</time>
      </trkpt>
      <trkpt lat="43.3654470" lon="-5.8405580">
        <ele>206.2</ele>
        <time>2020-01-28T09:24:09Z</time>
      </trkpt>
      <trkpt lat="43.3654360" lon="-5.8405600">
        <ele>206.3</ele>
        <time>2020-01-28T09:24:10Z</time>
      </trkpt>
      <trkpt lat="43.3654260" lon="-5.8405650">
        <ele>206.4</ele>
        <time>2020-01-28T09:24:11Z</time>
      </trkpt>
      <trkpt lat="43.3654150" lon="-5.8405710">
        <ele>206.4</ele>
        <time>2020-01-28T09:24:12Z</time>
      </trkpt>
      <trkpt lat="43.3654040" lon="-5.8405780">
        <ele>206.5</ele>
        <time>2020-01-28T09:24:13Z</time>
      </trkpt>
      <trkpt lat="43.3653890" lon="-5.8405930">
        <ele>206.6</ele>
        <time>2020-01-28T09:24:14Z</time>
      </trkpt>
      <trkpt lat="43.3653840" lon="-5.8405970">
        <ele>206.6</ele>
        <time>2020-01-28T09:24:15Z</time>
      </trkpt>
      <trkpt lat="43.3653780" lon="-5.8406020">
        <ele>206.7</ele>
        <time>2020-01-28T09:24:16Z</time>
      </trkpt>
      <trkpt lat="43.3653730" lon="-5.8406060">
        <ele>206.7</ele>
        <time>2020-01-28T09:24:17Z</time>
      </trkpt>
      <trkpt lat="43.3653640" lon="-5.8406150">
        <ele>206.8</ele>
        <time>2020-01-28T09:24:18Z</time>
      </trkpt>
      <trkpt lat="43.3653540" lon="-5.8406240">
        <ele>206.8</ele>
        <time>2020-01-28T09:24:19Z</time>
      </trkpt>
      <trkpt lat="43.3653450" lon="-5.8406320">
        <ele>206.9</ele>
        <time>2020-01-28T09:24:20Z</time>
      </trkpt>
      <trkpt lat="43.3653360" lon="-5.8406400">
        <ele>207.0</ele>
        <time>2020-01-28T09:24:21Z</time>
      </trkpt>
      <trkpt lat="43.3653270" lon="-5.8406490">
        <ele>207.0</ele>
        <time>2020-01-28T09:24:22Z</time>
      </trkpt>
      <trkpt lat="43.3653180" lon="-5.8406560">
        <ele>207.1</ele>
        <time>2020-01-28T09:24:23Z</time>
      </trkpt>
      <trkpt lat="43.3653070" lon="-5.8406640">
        <ele>207.1</ele>
        <time>2020-01-28T09:24:24Z</time>
      </trkpt>
      <trkpt lat="43.3652970" lon="-5.8406700">
        <ele>207.2</ele>
        <time>2020-01-28T09:24:25Z</time>
      </trkpt>
      <trkpt lat="43.3652860" lon="-5.8406750">
        <ele>207.2</ele>
        <time>2020-01-28T09:24:26Z</time>
      </trkpt>
      <trkpt lat="43.3652690" lon="-5.8406920">
        <ele>207.3</ele>
        <time>2020-01-28T09:24:27Z</time>
      </trkpt>
      <trkpt lat="43.3652630" lon="-5.8407000">
        <ele>207.4</ele>
        <time>2020-01-28T09:24:28Z</time>
      </trkpt>
      <trkpt lat="43.3652570" lon="-5.8407080">
        <ele>207.4</ele>
        <time>2020-01-28T09:24:29Z</time>
      </trkpt>
      <trkpt lat="43.3652450" lon="-5.8407330">
        <ele>207.5</ele>
        <time>2020-01-28T09:24:30Z</time>
      </trkpt>
      <trkpt lat="43.3652400" lon="-5.8407410">
        <ele>207.5</ele>
        <time>2020-01-28T09:24:31Z</time>
      </trkpt>
      <trkpt lat="43.3652340" lon="-5.8407500">
        <ele>207.6</ele>
        <time>2020-01-28T09:24:32Z</time>
      </trkpt>
      <trkpt lat="43.3652200" lon="-5.8407590">
        <ele>207.6</ele>
        <time>2020-01-28T09:24:33Z</time>
      </trkpt>
      <trkpt lat="43.3652060" lon="-5.8407640">
        <ele>207.7</ele>
        <time>2020-01-28T09:24:34Z</time>
      </trkpt>
      <trkpt lat="43.3651860" lon="-5.8407750">
        <ele>207.8</ele>
        <time>2020-01-28T09:24:35Z</time>
      </trkpt>
      <trkpt lat="43.3651780" lon="-5.8407800">
        <ele>207.8</ele>
        <time>2020-01-28T09:24:36Z</time>
      </trkpt>
      <trkpt lat="43.3651710" lon="-5.8407840">
        <ele>207.9</ele>
        <time>2020-01-28T09:24:37Z</time>
      </trkpt>
      <trkpt lat="43.3651530" lon="-5.8407970">
        <ele>207.9</ele>
        <time>2020-01-28T09:24:38Z</time>
      </trkpt>
      <trkpt lat="43.3651460" lon="-5.8408030">
        <ele>208.0</ele>
        <time>2020-01-28T09:24:39Z</time>
      </trkpt>
      <trkpt lat="43.3651380" lon="-5.8408090">
        <ele>208.0</ele>
        <time>2020-01-28T09:24:40Z</time>
      </trkpt>
      <trkpt lat="43.3651250" lon="-5.8408160">
        <ele>208.0</ele>
        <time>2020-01-28T09:24:41Z</time>
      </trkpt>
      <trkpt lat="43.3651120" lon="-5.8408230">
        <ele>208.1</ele>
        <time>2020-01-28T09:24:42Z</time>
      </trkpt>
      <trkpt lat="43.3650920" lon="-5.8408340">
        <ele>208.2</ele>
        <time>2020-01-28T09:24:43Z</time>
      </trkpt>
      <trkpt lat="43.3650830" lon="-5.8408390">
        <ele>208.2</ele>
        <time>2020-01-28T09:24:44Z</time>
      </trkpt>
      <trkpt lat="43.3650740" lon="-5.8408440">
        <ele>208.2</ele>
        <time>2020-01-28T09:24:45Z</time>
      </trkpt>
      <trkpt lat="43.3650560" lon="-5.8408600">
        <ele>208.3</ele>
        <time>2020-01-28T09:24:46Z</time>
      </trkpt>
      <trkpt lat="43.3650500" lon="-5.8408660">
        <ele>208.3</ele>
        <time>2020-01-28T09:24:47Z</time>
      </trkpt>
      <trkpt lat="43.3650430" lon="-5.8408730">
        <ele>208.4</ele>
        <time>2020-01-28T09:24:48Z</time>
      </trkpt>
      <trkpt lat="43.3650350" lon="-5.8408850">
        <ele>208.4</ele>
        <time>2020-01-28T09:24:49Z</time>
      </trkpt>
      <trkpt lat="43.3650250" lon="-5.8408930">
        <ele>208.5</ele>
        <time>2020-01-28T09:24:50Z</time>
      </trkpt>
      <trkpt lat="43.3650150" lon="-5.8409020">
        <ele>208.7</ele>
        <time>2020-01-28T09:24:51Z</time>
      </trkpt>
      <trkpt lat="43.3650080" lon="-5.8409100">
        <ele>208.8</ele>
        <time>2020-01-28T09:24:52Z</time>
      </trkpt>
      <trkpt lat="43.3650030" lon="-5.8409150">
        <ele>208.8</ele>
        <time>2020-01-28T09:24:53Z</time>
      </trkpt>
      <trkpt lat="43.3649990" lon="-5.8409200">
        <ele>208.9</ele>
        <time>2020-01-28T09:24:54Z</time>
      </trkpt>
      <trkpt lat="43.3649920" lon="-5.8409300">
        <ele>208.9</ele>
        <time>2020-01-28T09:24:55Z</time>
      </trkpt>
      <trkpt lat="43.3649830" lon="-5.8409470">
        <ele>209.0</ele>
        <time>2020-01-28T09:24:56Z</time>
      </trkpt>
      <trkpt lat="43.3649750" lon="-5.8409620">
        <ele>209.1</ele>
        <time>2020-01-28T09:24:57Z</time>
      </trkpt>
      <trkpt lat="43.3649660" lon="-5.8409770">
        <ele>209.2</ele>
        <time>2020-01-28T09:24:58Z</time>
      </trkpt>
      <trkpt lat="43.3649570" lon="-5.8409920">
        <ele>209.3</ele>
        <time>2020-01-28T09:24:59Z</time>
      </trkpt>
      <trkpt lat="43.3649480" lon="-5.8410050">
        <ele>209.4</ele>
        <time>2020-01-28T09:25:00Z</time>
      </trkpt>
      <trkpt lat="43.3649370" lon="-5.8410180">
        <ele>209.5</ele>
        <time>2020-01-28T09:25:01Z</time>
      </trkpt>
      <trkpt lat="43.3649250" lon="-5.8410310">
        <ele>209.6</ele>
        <time>2020-01-28T09:25:02Z</time>
      </trkpt>
      <trkpt lat="43.3649130" lon="-5.8410440">
        <ele>209.6</ele>
        <time>2020-01-28T09:25:03Z</time>
      </trkpt>
      <trkpt lat="43.3648990" lon="-5.8410560">
        <ele>209.8</ele>
        <time>2020-01-28T09:25:04Z</time>
      </trkpt>
      <trkpt lat="43.3648850" lon="-5.8410670">
        <ele>209.9</ele>
        <time>2020-01-28T09:25:05Z</time>
      </trkpt>
      <trkpt lat="43.3648720" lon="-5.8410760">
        <ele>210.0</ele>
        <time>2020-01-28T09:25:06Z</time>
      </trkpt>
      <trkpt lat="43.3648580" lon="-5.8410870">
        <ele>210.2</ele>
        <time>2020-01-28T09:25:07Z</time>
      </trkpt>
      <trkpt lat="43.3648450" lon="-5.8410980">
        <ele>210.4</ele>
        <time>2020-01-28T09:25:08Z</time>
      </trkpt>
      <trkpt lat="43.3648330" lon="-5.8411080">
        <ele>210.5</ele>
        <time>2020-01-28T09:25:09Z</time>
      </trkpt>
      <trkpt lat="43.3648150" lon="-5.8411260">
        <ele>210.8</ele>
        <time>2020-01-28T09:25:10Z</time>
      </trkpt>
      <trkpt lat="43.3648080" lon="-5.8411340">
        <ele>210.8</ele>
        <time>2020-01-28T09:25:11Z</time>
      </trkpt>
      <trkpt lat="43.3648000" lon="-5.8411410">
        <ele>210.9</ele>
        <time>2020-01-28T09:25:12Z</time>
      </trkpt>
      <trkpt lat="43.3647880" lon="-5.8411500">
        <ele>211.0</ele>
        <time>2020-01-28T09:25:13Z</time>
      </trkpt>
      <trkpt lat="43.3647760" lon="-5.8411610">
        <ele>211.1</ele>
        <time>2020-01-28T09:25:14Z</time>
      </trkpt>
      <trkpt lat="43.3647600" lon="-5.8411790">
        <ele>211.2</ele>
        <time>2020-01-28T09:25:15Z</time>
      </trkpt>
      <trkpt lat="43.3647540" lon="-5.8411870">
        <ele>211.3</ele>
        <time>2020-01-28T09:25:16Z</time>
      </trkpt>
      <trkpt lat="43.3647470" lon="-5.8411950">
        <ele>211.4</ele>
        <time>2020-01-28T09:25:17Z</time>
      </trkpt>
      <trkpt lat="43.3647360" lon="-5.8412060">
        <ele>211.5</ele>
        <time>2020-01-28T09:25:18Z</time>
      </trkpt>
      <trkpt lat="43.3647260" lon="-5.8412190">
        <ele>211.6</ele>
        <time>2020-01-28T09:25:19Z</time>
      </trkpt>
      <trkpt lat="43.3647120" lon="-5.8412420">
        <ele>211.7</ele>
        <time>2020-01-28T09:25:20Z</time>
      </trkpt>
      <trkpt lat="43.3647060" lon="-5.8412520">
        <ele>211.8</ele>
        <time>2020-01-28T09:25:21Z</time>
      </trkpt>
      <trkpt lat="43.3647000" lon="-5.8412610">
        <ele>211.9</ele>
        <time>2020-01-28T09:25:22Z</time>
      </trkpt>
      <trkpt lat="43.3646900" lon="-5.8412750">
        <ele>212.0</ele>
        <time>2020-01-28T09:25:23Z</time>
      </trkpt>
      <trkpt lat="43.3646810" lon="-5.8412880">
        <ele>212.1</ele>
        <time>2020-01-28T09:25:24Z</time>
      </trkpt>
      <trkpt lat="43.3646680" lon="-5.8413100">
        <ele>212.3</ele>
        <time>2020-01-28T09:25:25Z</time>
      </trkpt>
      <trkpt lat="43.3646620" lon="-5.8413190">
        <ele>212.4</ele>
        <time>2020-01-28T09:25:26Z</time>
      </trkpt>
      <trkpt lat="43.3646570" lon="-5.8413270">
        <ele>212.4</ele>
        <time>2020-01-28T09:25:27Z</time>
      </trkpt>
      <trkpt lat="43.3646400" lon="-5.8413450">
        <ele>212.6</ele>
        <time>2020-01-28T09:25:28Z</time>
      </trkpt>
      <trkpt lat="43.3646320" lon="-5.8413530">
        <ele>212.7</ele>
        <time>2020-01-28T09:25:29Z</time>
      </trkpt>
      <trkpt lat="43.3646250" lon="-5.8413600">
        <ele>212.8</ele>
        <time>2020-01-28T09:25:30Z</time>
      </trkpt>
      <trkpt lat="43.3646140" lon="-5.8413680">
        <ele>212.9</ele>
        <time>2020-01-28T09:25:31Z</time>
      </trkpt>
      <trkpt lat="43.3646000" lon="-5.8413760">
        <ele>213.0</ele>
        <time>2020-01-28T09:25:32Z</time>
      </trkpt>
      <trkpt lat="43.3645790" lon="-5.8413850">
        <ele>213.2</ele>
        <time>2020-01-28T09:25:33Z</time>
      </trkpt>
      <trkpt lat="43.3645690" lon="-5.8413890">
        <ele>213.3</ele>
        <time>2020-01-28T09:25:34Z</time>
      </trkpt>
      <trkpt lat="43.3645600" lon="-5.8413930">
        <ele>213.5</ele>
        <time>2020-01-28T09:25:35Z</time>
      </trkpt>
      <trkpt lat="43.3645470" lon="-5.8414000">
        <ele>213.6</ele>
        <time>2020-01-28T09:25:36Z</time>
      </trkpt>
      <trkpt lat="43.3645340" lon="-5.8414030">
        <ele>213.7</ele>
        <time>2020-01-28T09:25:37Z</time>
      </trkpt>
      <trkpt lat="43.3645150" lon="-5.8414120">
        <ele>214.0</ele>
        <time>2020-01-28T09:25:38Z</time>
      </trkpt>
      <trkpt lat="43.3645070" lon="-5.8414170">
        <ele>214.1</ele>
        <time>2020-01-28T09:25:39Z</time>
      </trkpt>
      <trkpt lat="43.3644990" lon="-5.8414220">
        <ele>214.2</ele>
        <time>2020-01-28T09:25:40Z</time>
      </trkpt>
      <trkpt lat="43.3644790" lon="-5.8414370">
        <ele>214.4</ele>
        <time>2020-01-28T09:25:41Z</time>
      </trkpt>
      <trkpt lat="43.3644710" lon="-5.8414430">
        <ele>214.5</ele>
        <time>2020-01-28T09:25:42Z</time>
      </trkpt>
      <trkpt lat="43.3644630" lon="-5.8414480">
        <ele>214.6</ele>
        <time>2020-01-28T09:25:43Z</time>
      </trkpt>
      <trkpt lat="43.3644500" lon="-5.8414540">
        <ele>214.8</ele>
        <time>2020-01-28T09:25:44Z</time>
      </trkpt>
      <trkpt lat="43.3644360" lon="-5.8414590">
        <ele>215.0</ele>
        <time>2020-01-28T09:25:45Z</time>
      </trkpt>
      <trkpt lat="43.3644210" lon="-5.8414630">
        <ele>215.3</ele>
        <time>2020-01-28T09:25:46Z</time>
      </trkpt>
      <trkpt lat="43.3644080" lon="-5.8414650">
        <ele>215.4</ele>
        <time>2020-01-28T09:25:47Z</time>
      </trkpt>
      <trkpt lat="43.3643960" lon="-5.8414690">
        <ele>215.6</ele>
        <time>2020-01-28T09:25:48Z</time>
      </trkpt>
      <trkpt lat="43.3643850" lon="-5.8414750">
        <ele>215.7</ele>
        <time>2020-01-28T09:25:49Z</time>
      </trkpt>
      <trkpt lat="43.3643770" lon="-5.8414840">
        <ele>215.8</ele>
        <time>2020-01-28T09:25:50Z</time>
      </trkpt>
      <trkpt lat="43.3643660" lon="-5.8414900">
        <ele>215.9</ele>
        <time>2020-01-28T09:25:51Z</time>
      </trkpt>
      <trkpt lat="43.3643580" lon="-5.8415020">
        <ele>216.0</ele>
        <time>2020-01-28T09:25:52Z</time>
      </trkpt>
      <trkpt lat="43.3643500" lon="-5.8415130">
        <ele>216.1</ele>
        <time>2020-01-28T09:25:53Z</time>
      </trkpt>
      <trkpt lat="43.3643410" lon="-5.8415290">
        <ele>216.2</ele>
        <time>2020-01-28T09:25:54Z</time>
      </trkpt>
      <trkpt lat="43.3643310" lon="-5.8415400">
        <ele>216.3</ele>
        <time>2020-01-28T09:25:55Z</time>
      </trkpt>
      <trkpt lat="43.3643220" lon="-5.8415560">
        <ele>216.4</ele>
        <time>2020-01-28T09:25:56Z</time>
      </trkpt>
      <trkpt lat="43.3643110" lon="-5.8415720">
        <ele>216.6</ele>
        <time>2020-01-28T09:25:57Z</time>
      </trkpt>
      <trkpt lat="43.3643010" lon="-5.8415890">
        <ele>216.7</ele>
        <time>2020-01-28T09:25:58Z</time>
      </trkpt>
      <trkpt lat="43.3642910" lon="-5.8416020">
        <ele>216.9</ele>
        <time>2020-01-28T09:25:59Z</time>
      </trkpt>
      <trkpt lat="43.3642760" lon="-5.8416220">
        <ele>217.0</ele>
        <time>2020-01-28T09:26:00Z</time>
      </trkpt>
      <trkpt lat="43.3642700" lon="-5.8416290">
        <ele>217.1</ele>
        <time>2020-01-28T09:26:01Z</time>
      </trkpt>
      <trkpt lat="43.3642630" lon="-5.8416360">
        <ele>217.2</ele>
        <time>2020-01-28T09:26:02Z</time>
      </trkpt>
      <trkpt lat="43.3642480" lon="-5.8416560">
        <ele>217.5</ele>
        <time>2020-01-28T09:26:03Z</time>
      </trkpt>
      <trkpt lat="43.3642410" lon="-5.8416630">
        <ele>217.6</ele>
        <time>2020-01-28T09:26:04Z</time>
      </trkpt>
      <trkpt lat="43.3642340" lon="-5.8416710">
        <ele>217.7</ele>
        <time>2020-01-28T09:26:05Z</time>
      </trkpt>
      <trkpt lat="43.3642210" lon="-5.8416780">
        <ele>217.9</ele>
        <time>2020-01-28T09:26:06Z</time>
      </trkpt>
      <trkpt lat="43.3642070" lon="-5.8416850">
        <ele>218.1</ele>
        <time>2020-01-28T09:26:07Z</time>
      </trkpt>
      <trkpt lat="43.3641920" lon="-5.8416940">
        <ele>218.3</ele>
        <time>2020-01-28T09:26:08Z</time>
      </trkpt>
      <trkpt lat="43.3641800" lon="-5.8417070">
        <ele>218.6</ele>
        <time>2020-01-28T09:26:09Z</time>
      </trkpt>
      <trkpt lat="43.3641690" lon="-5.8417220">
        <ele>218.9</ele>
        <time>2020-01-28T09:26:10Z</time>
      </trkpt>
      <trkpt lat="43.3641590" lon="-5.8417360">
        <ele>219.1</ele>
        <time>2020-01-28T09:26:11Z</time>
      </trkpt>
      <trkpt lat="43.3641470" lon="-5.8417490">
        <ele>219.3</ele>
        <time>2020-01-28T09:26:12Z</time>
      </trkpt>
      <trkpt lat="43.3641340" lon="-5.8417650">
        <ele>219.6</ele>
        <time>2020-01-28T09:26:13Z</time>
      </trkpt>
      <trkpt lat="43.3641270" lon="-5.8417860">
        <ele>219.8</ele>
        <time>2020-01-28T09:26:14Z</time>
      </trkpt>
      <trkpt lat="43.3641240" lon="-5.8418100">
        <ele>220.0</ele>
        <time>2020-01-28T09:26:15Z</time>
      </trkpt>
      <trkpt lat="43.3641330" lon="-5.8418510">
        <ele>220.4</ele>
        <time>2020-01-28T09:26:16Z</time>
      </trkpt>
      <trkpt lat="43.3641370" lon="-5.8418650">
        <ele>220.5</ele>
        <time>2020-01-28T09:26:17Z</time>
      </trkpt>
      <trkpt lat="43.3641550" lon="-5.8418990">
        <ele>220.9</ele>
        <time>2020-01-28T09:26:18Z</time>
      </trkpt>
      <trkpt lat="43.3641620" lon="-5.8419100">
        <ele>221.4</ele>
        <time>2020-01-28T09:26:19Z</time>
      </trkpt>
      <trkpt lat="43.3641710" lon="-5.8419270">
        <ele>221.4</ele>
        <time>2020-01-28T09:26:20Z</time>
      </trkpt>
      <trkpt lat="43.3641840" lon="-5.8419420">
        <ele>221.4</ele>
        <time>2020-01-28T09:26:21Z</time>
      </trkpt>
      <trkpt lat="43.3642070" lon="-5.8419660">
        <ele>221.3</ele>
        <time>2020-01-28T09:26:22Z</time>
      </trkpt>
      <trkpt lat="43.3642150" lon="-5.8419740">
        <ele>221.3</ele>
        <time>2020-01-28T09:26:23Z</time>
      </trkpt>
      <trkpt lat="43.3642260" lon="-5.8419920">
        <ele>221.2</ele>
        <time>2020-01-28T09:26:24Z</time>
      </trkpt>
      <trkpt lat="43.3642330" lon="-5.8420130">
        <ele>221.2</ele>
        <time>2020-01-28T09:26:25Z</time>
      </trkpt>
      <trkpt lat="43.3642390" lon="-5.8420350">
        <ele>221.1</ele>
        <time>2020-01-28T09:26:26Z</time>
      </trkpt>
      <trkpt lat="43.3642440" lon="-5.8420570">
        <ele>221.1</ele>
        <time>2020-01-28T09:26:27Z</time>
      </trkpt>
      <trkpt lat="43.3642490" lon="-5.8420810">
        <ele>221.0</ele>
        <time>2020-01-28T09:26:28Z</time>
      </trkpt>
      <trkpt lat="43.3642530" lon="-5.8421030">
        <ele>221.0</ele>
        <time>2020-01-28T09:26:29Z</time>
      </trkpt>
      <trkpt lat="43.3642600" lon="-5.8421240">
        <ele>221.0</ele>
        <time>2020-01-28T09:26:30Z</time>
      </trkpt>
      <trkpt lat="43.3642670" lon="-5.8421460">
        <ele>220.9</ele>
        <time>2020-01-28T09:26:31Z</time>
      </trkpt>
      <trkpt lat="43.3642740" lon="-5.8421670">
        <ele>220.9</ele>
        <time>2020-01-28T09:26:32Z</time>
      </trkpt>
      <trkpt lat="43.3642800" lon="-5.8421880">
        <ele>220.8</ele>
        <time>2020-01-28T09:26:33Z</time>
      </trkpt>
      <trkpt lat="43.3642840" lon="-5.8422070">
        <ele>220.8</ele>
        <time>2020-01-28T09:26:34Z</time>
      </trkpt>
      <trkpt lat="43.3642860" lon="-5.8422260">
        <ele>220.8</ele>
        <time>2020-01-28T09:26:35Z</time>
      </trkpt>
      <trkpt lat="43.3642860" lon="-5.8422480">
        <ele>220.7</ele>
        <time>2020-01-28T09:26:36Z</time>
      </trkpt>
      <trkpt lat="43.3642860" lon="-5.8422690">
        <ele>220.7</ele>
        <time>2020-01-28T09:26:37Z</time>
      </trkpt>
      <trkpt lat="43.3642850" lon="-5.8422900">
        <ele>220.7</ele>
        <time>2020-01-28T09:26:38Z</time>
      </trkpt>
      <trkpt lat="43.3642830" lon="-5.8423100">
        <ele>220.6</ele>
        <time>2020-01-28T09:26:39Z</time>
      </trkpt>
      <trkpt lat="43.3642800" lon="-5.8423280">
        <ele>220.6</ele>
        <time>2020-01-28T09:26:40Z</time>
      </trkpt>
      <trkpt lat="43.3642770" lon="-5.8423380">
        <ele>220.6</ele>
        <time>2020-01-28T09:26:41Z</time>
      </trkpt>
      <trkpt lat="43.3642750" lon="-5.8423470">
        <ele>220.5</ele>
        <time>2020-01-28T09:26:42Z</time>
      </trkpt>
      <trkpt lat="43.3642770" lon="-5.8423580">
        <ele>220.5</ele>
        <time>2020-01-28T09:26:43Z</time>
      </trkpt>
      <trkpt lat="43.3642850" lon="-5.8423650">
        <ele>220.5</ele>
        <time>2020-01-28T09:26:44Z</time>
      </trkpt>
      <trkpt lat="43.3642950" lon="-5.8423740">
        <ele>220.5</ele>
        <time>2020-01-28T09:26:45Z</time>
      </trkpt>
      <trkpt lat="43.3643060" lon="-5.8423810">
        <ele>220.4</ele>
        <time>2020-01-28T09:26:46Z</time>
      </trkpt>
      <trkpt lat="43.3643250" lon="-5.8423850">
        <ele>220.4</ele>
        <time>2020-01-28T09:26:47Z</time>
      </trkpt>
      <trkpt lat="43.3643320" lon="-5.8423910">
        <ele>220.4</ele>
        <time>2020-01-28T09:26:48Z</time>
      </trkpt>
      <trkpt lat="43.3643310" lon="-5.8423970">
        <ele>220.4</ele>
        <time>2020-01-28T09:26:49Z</time>
      </trkpt>
      <trkpt lat="43.3643280" lon="-5.8424070">
        <ele>220.3</ele>
        <time>2020-01-28T09:26:50Z</time>
      </trkpt>
      <trkpt lat="43.3643280" lon="-5.8424070">
        <ele>220.3</ele>
        <time>2020-01-28T09:26:51Z</time>
      </trkpt>
      <trkpt lat="43.3643160" lon="-5.8424290">
        <ele>220.3</ele>
        <time>2020-01-28T09:26:52Z</time>
      </trkpt>
      <trkpt lat="43.3643010" lon="-5.8424490">
        <ele>220.2</ele>
        <time>2020-01-28T09:26:53Z</time>
      </trkpt>
      <trkpt lat="43.3642950" lon="-5.8424570">
        <ele>220.2</ele>
        <time>2020-01-28T09:26:54Z</time>
      </trkpt>
      <trkpt lat="43.3642890" lon="-5.8424660">
        <ele>220.2</ele>
        <time>2020-01-28T09:26:55Z</time>
      </trkpt>
      <trkpt lat="43.3642770" lon="-5.8424800">
        <ele>220.2</ele>
        <time>2020-01-28T09:26:56Z</time>
      </trkpt>
      <trkpt lat="43.3642670" lon="-5.8424890">
        <ele>220.1</ele>
        <time>2020-01-28T09:26:57Z</time>
      </trkpt>
      <trkpt lat="43.3642670" lon="-5.8424890">
        <ele>220.1</ele>
        <time>2020-01-28T09:26:58Z</time>
      </trkpt>
      <trkpt lat="43.3642670" lon="-5.8424890">
        <ele>220.1</ele>
        <time>2020-01-28T09:26:59Z</time>
      </trkpt>
      <trkpt lat="43.3642670" lon="-5.8424890">
        <ele>220.1</ele>
        <time>2020-01-28T09:27:00Z</time>
      </trkpt>
      <trkpt lat="43.3642670" lon="-5.8424890">
        <ele>220.1</ele>
        <time>2020-01-28T09:27:01Z</time>
      </trkpt>
      <trkpt lat="43.3642500" lon="-5.8425020">
        <ele>220.1</ele>
        <time>2020-01-28T09:27:02Z</time>
      </trkpt>
      <trkpt lat="43.3642530" lon="-5.8425020">
        <ele>220.1</ele>
        <time>2020-01-28T09:27:03Z</time>
      </trkpt>
      <trkpt lat="43.3642530" lon="-5.8425030">
        <ele>220.1</ele>
        <time>2020-01-28T09:27:04Z</time>
      </trkpt>
      <trkpt lat="43.3642500" lon="-5.8424910">
        <ele>220.1</ele>
        <time>2020-01-28T09:27:05Z</time>
      </trkpt>
      <trkpt lat="43.3642470" lon="-5.8424740">
        <ele>220.0</ele>
        <time>2020-01-28T09:27:06Z</time>
      </trkpt>
      <trkpt lat="43.3642410" lon="-5.8424600">
        <ele>220.0</ele>
        <time>2020-01-28T09:27:07Z</time>
      </trkpt>
      <trkpt lat="43.3642350" lon="-5.8424500">
        <ele>220.0</ele>
        <time>2020-01-28T09:27:08Z</time>
      </trkpt>
      <trkpt lat="43.3642310" lon="-5.8424470">
        <ele>220.0</ele>
        <time>2020-01-28T09:27:09Z</time>
      </trkpt>
      <trkpt lat="43.3642320" lon="-5.8424430">
        <ele>219.9</ele>
        <time>2020-01-28T09:27:10Z</time>
      </trkpt>
      <trkpt lat="43.3642360" lon="-5.8424350">
        <ele>219.9</ele>
        <time>2020-01-28T09:27:11Z</time>
      </trkpt>
      <trkpt lat="43.3642360" lon="-5.8424350">
        <ele>219.9</ele>
        <time>2020-01-28T09:27:12Z</time>
      </trkpt>
      <trkpt lat="43.3642210" lon="-5.8424390">
        <ele>219.9</ele>
        <time>2020-01-28T09:27:13Z</time>
      </trkpt>
      <trkpt lat="43.3642130" lon="-5.8424410">
        <ele>219.9</ele>
        <time>2020-01-28T09:27:14Z</time>
      </trkpt>
      <trkpt lat="43.3642030" lon="-5.8424430">
        <ele>219.8</ele>
        <time>2020-01-28T09:27:15Z</time>
      </trkpt>
      <trkpt lat="43.3641950" lon="-5.8424450">
        <ele>219.8</ele>
        <time>2020-01-28T09:27:16Z</time>
      </trkpt>
      <trkpt lat="43.3641890" lon="-5.8424470">
        <ele>219.8</ele>
        <time>2020-01-28T09:27:17Z</time>
      </trkpt>
      <trkpt lat="43.3641830" lon="-5.8424490">
        <ele>219.8</ele>
        <time>2020-01-28T09:27:18Z</time>
      </trkpt>
      <trkpt lat="43.3641790" lon="-5.8424510">
        <ele>219.8</ele>
        <time>2020-01-28T09:27:19Z</time>
      </trkpt>
      <trkpt lat="43.3641740" lon="-5.8424530">
        <ele>219.8</ele>
        <time>2020-01-28T09:27:20Z</time>
      </trkpt>
      <trkpt lat="43.3641710" lon="-5.8424550">
        <ele>219.8</ele>
        <time>2020-01-28T09:27:21Z</time>
      </trkpt>
      <trkpt lat="43.3641730" lon="-5.8424720">
        <ele>219.7</ele>
        <time>2020-01-28T09:27:22Z</time>
      </trkpt>
      <trkpt lat="43.3641760" lon="-5.8424920">
        <ele>219.7</ele>
        <time>2020-01-28T09:27:23Z</time>
      </trkpt>
      <trkpt lat="43.3641780" lon="-5.8425100">
        <ele>219.7</ele>
        <time>2020-01-28T09:27:24Z</time>
      </trkpt>
      <trkpt lat="43.3641790" lon="-5.8425310">
        <ele>219.6</ele>
        <time>2020-01-28T09:27:25Z</time>
      </trkpt>
      <trkpt lat="43.3641800" lon="-5.8425480">
        <ele>219.6</ele>
        <time>2020-01-28T09:27:26Z</time>
      </trkpt>
      <trkpt lat="43.3641830" lon="-5.8425620">
        <ele>219.6</ele>
        <time>2020-01-28T09:27:27Z</time>
      </trkpt>
      <trkpt lat="43.3641860" lon="-5.8425800">
        <ele>219.5</ele>
        <time>2020-01-28T09:27:28Z</time>
      </trkpt>
      <trkpt lat="43.3641900" lon="-5.8425960">
        <ele>219.5</ele>
        <time>2020-01-28T09:27:29Z</time>
      </trkpt>
      <trkpt lat="43.3642020" lon="-5.8425790">
        <ele>219.5</ele>
        <time>2020-01-28T09:27:30Z</time>
      </trkpt>
      <trkpt lat="43.3642150" lon="-5.8425580">
        <ele>219.4</ele>
        <time>2020-01-28T09:27:31Z</time>
      </trkpt>
      <trkpt lat="43.3642340" lon="-5.8425150">
        <ele>219.3</ele>
        <time>2020-01-28T09:27:32Z</time>
      </trkpt>
      <trkpt lat="43.3642390" lon="-5.8425000">
        <ele>219.3</ele>
        <time>2020-01-28T09:27:33Z</time>
      </trkpt>
      <trkpt lat="43.3642480" lon="-5.8424770">
        <ele>219.2</ele>
        <time>2020-01-28T09:27:34Z</time>
      </trkpt>
      <trkpt lat="43.3642590" lon="-5.8424720">
        <ele>219.2</ele>
        <time>2020-01-28T09:27:35Z</time>
      </trkpt>
      <trkpt lat="43.3642650" lon="-5.8424750">
        <ele>219.2</ele>
        <time>2020-01-28T09:27:36Z</time>
      </trkpt>
      <trkpt lat="43.3642710" lon="-5.8424810">
        <ele>219.2</ele>
        <time>2020-01-28T09:27:37Z</time>
      </trkpt>
      <trkpt lat="43.3642760" lon="-5.8424860">
        <ele>219.2</ele>
        <time>2020-01-28T09:27:38Z</time>
      </trkpt>
      <trkpt lat="43.3642800" lon="-5.8424910">
        <ele>219.2</ele>
        <time>2020-01-28T09:27:39Z</time>
      </trkpt>
      <trkpt lat="43.3642900" lon="-5.8424870">
        <ele>219.1</ele>
        <time>2020-01-28T09:27:40Z</time>
      </trkpt>
    </trkseg>
  </trk>
</gpx>
